<?xml version="1.0" encoding="UTF-8" ?>
<gpx version="1.1" 
creator="Memory-Map 6.4.3.1278 https://memory-map.com"
 xmlns:xsi="http://www.w3.org/2001/XMLSchema-instance"
 xmlns="http://www.topografix.com/GPX/1/1"
 xmlns:xstyle="http://www.topografix.com/GPX/gpx_style/0/2"
 xmlns:xgarmin="http://www.garmin.com/xmlschemas/GpxExtensions/v3"
 xsi:schemaLocation="http://www.topografix.com/GPX/1/1 http://www.topografix.com/GPX/1/1/gpx.xsd http://www.topografix.com/GPX/gpx_style/0/2 http://www.topografix.com/GPX/gpx_style/0/2/gpx_style.xsd http://www.garmin.com/xmlschemas/GpxExtensions/v3 https://www8.garmin.com/xmlschemas/GpxExtensionsv3.xsd">
<trk>
<name>1449 Cap de Castet</name>
<src>mmid:5BFAC553309A64F9</src>
<type>Track</type>
<extensions> <xstyle:line>
<xstyle:color>ff8000</xstyle:color>
<xstyle:opacity>1.0</xstyle:opacity>
<xstyle:width>2.0</xstyle:width>
<xstyle:pattern>Solid</xstyle:pattern>
</xstyle:line></extensions>
<trkseg>
<trkpt lat="43.0577000000" lon="0.1942820000"><ele>813</ele><time>2026-03-17T07:17:14Z</time></trkpt>
<trkpt lat="43.0577220000" lon="0.1942820000"><ele>813</ele><time>2026-03-17T07:17:19Z</time></trkpt>
<trkpt lat="43.0577020000" lon="0.1942700000"><ele>813</ele><time>2026-03-17T07:17:24Z</time></trkpt>
<trkpt lat="43.0576950000" lon="0.1942470000"><ele>813</ele><time>2026-03-17T07:17:27Z</time></trkpt>
<trkpt lat="43.0576770000" lon="0.1942170000"><ele>813</ele><time>2026-03-17T07:17:29Z</time></trkpt>
<trkpt lat="43.0576520000" lon="0.1941820000"><ele>814</ele><time>2026-03-17T07:17:31Z</time></trkpt>
<trkpt lat="43.0576420000" lon="0.1941520000"><ele>814</ele><time>2026-03-17T07:17:33Z</time></trkpt>
<trkpt lat="43.0576250000" lon="0.1941300000"><ele>814</ele><time>2026-03-17T07:17:35Z</time></trkpt>
<trkpt lat="43.0576100000" lon="0.1941120000"><ele>814</ele><time>2026-03-17T07:17:37Z</time></trkpt>
<trkpt lat="43.0575900000" lon="0.1940970000"><ele>814</ele><time>2026-03-17T07:17:39Z</time></trkpt>
<trkpt lat="43.0575670000" lon="0.1940850000"><ele>814</ele><time>2026-03-17T07:17:41Z</time></trkpt>
<trkpt lat="43.0575470000" lon="0.1940820000"><ele>814</ele><time>2026-03-17T07:17:43Z</time></trkpt>
<trkpt lat="43.0575220000" lon="0.1940870000"><ele>814</ele><time>2026-03-17T07:17:45Z</time></trkpt>
<trkpt lat="43.0575050000" lon="0.1941000000"><ele>814</ele><time>2026-03-17T07:17:47Z</time></trkpt>
<trkpt lat="43.0574900000" lon="0.1941170000"><ele>814</ele><time>2026-03-17T07:17:49Z</time></trkpt>
<trkpt lat="43.0574780000" lon="0.1941450000"><ele>814</ele><time>2026-03-17T07:17:51Z</time></trkpt>
<trkpt lat="43.0574700000" lon="0.1941720000"><ele>814</ele><time>2026-03-17T07:17:53Z</time></trkpt>
<trkpt lat="43.0574600000" lon="0.1941970000"><ele>814</ele><time>2026-03-17T07:17:55Z</time></trkpt>
<trkpt lat="43.0574500000" lon="0.1942200000"><ele>814</ele><time>2026-03-17T07:17:57Z</time></trkpt>
<trkpt lat="43.0574400000" lon="0.1942420000"><ele>814</ele><time>2026-03-17T07:17:59Z</time></trkpt>
<trkpt lat="43.0574200000" lon="0.1942450000"><ele>814</ele><time>2026-03-17T07:18:19Z</time></trkpt>
<trkpt lat="43.0574020000" lon="0.1942220000"><ele>814</ele><time>2026-03-17T07:18:21Z</time></trkpt>
<trkpt lat="43.0573950000" lon="0.1941870000"><ele>814</ele><time>2026-03-17T07:18:23Z</time></trkpt>
<trkpt lat="43.0573870000" lon="0.1941630000"><ele>814</ele><time>2026-03-17T07:18:25Z</time></trkpt>
<trkpt lat="43.0573670000" lon="0.1941370000"><ele>814</ele><time>2026-03-17T07:18:27Z</time></trkpt>
<trkpt lat="43.0573520000" lon="0.1941180000"><ele>814</ele><time>2026-03-17T07:18:29Z</time></trkpt>
<trkpt lat="43.0573370000" lon="0.1941000000"><ele>814</ele><time>2026-03-17T07:18:31Z</time></trkpt>
<trkpt lat="43.0573220000" lon="0.1940770000"><ele>814</ele><time>2026-03-17T07:18:33Z</time></trkpt>
<trkpt lat="43.0573020000" lon="0.1940630000"><ele>814</ele><time>2026-03-17T07:18:35Z</time></trkpt>
<trkpt lat="43.0572820000" lon="0.1940570000"><ele>814</ele><time>2026-03-17T07:18:37Z</time></trkpt>
<trkpt lat="43.0572600000" lon="0.1940570000"><ele>814</ele><time>2026-03-17T07:18:39Z</time></trkpt>
<trkpt lat="43.0572320000" lon="0.1940680000"><ele>815</ele><time>2026-03-17T07:18:41Z</time></trkpt>
<trkpt lat="43.0572050000" lon="0.1940770000"><ele>815</ele><time>2026-03-17T07:18:43Z</time></trkpt>
<trkpt lat="43.0571800000" lon="0.1940820000"><ele>815</ele><time>2026-03-17T07:18:45Z</time></trkpt>
<trkpt lat="43.0571620000" lon="0.1940820000"><ele>815</ele><time>2026-03-17T07:18:47Z</time></trkpt>
<trkpt lat="43.0571620000" lon="0.1940570000"><ele>815</ele><time>2026-03-17T07:19:02Z</time></trkpt>
<trkpt lat="43.0571570000" lon="0.1940080000"><ele>815</ele><time>2026-03-17T07:19:04Z</time></trkpt>
<trkpt lat="43.0571470000" lon="0.1939850000"><ele>815</ele><time>2026-03-17T07:19:05Z</time></trkpt>
<trkpt lat="43.0571270000" lon="0.1939500000"><ele>815</ele><time>2026-03-17T07:19:07Z</time></trkpt>
<trkpt lat="43.0571100000" lon="0.1939200000"><ele>815</ele><time>2026-03-17T07:19:09Z</time></trkpt>
<trkpt lat="43.0570920000" lon="0.1938920000"><ele>815</ele><time>2026-03-17T07:19:11Z</time></trkpt>
<trkpt lat="43.0570720000" lon="0.1938730000"><ele>816</ele><time>2026-03-17T07:19:14Z</time></trkpt>
<trkpt lat="43.0570520000" lon="0.1938570000"><ele>816</ele><time>2026-03-17T07:19:17Z</time></trkpt>
<trkpt lat="43.0570320000" lon="0.1938450000"><ele>816</ele><time>2026-03-17T07:19:20Z</time></trkpt>
<trkpt lat="43.0570070000" lon="0.1938300000"><ele>816</ele><time>2026-03-17T07:19:23Z</time></trkpt>
<trkpt lat="43.0569920000" lon="0.1938120000"><ele>816</ele><time>2026-03-17T07:19:25Z</time></trkpt>
<trkpt lat="43.0569750000" lon="0.1937970000"><ele>817</ele><time>2026-03-17T07:19:27Z</time></trkpt>
<trkpt lat="43.0569570000" lon="0.1937850000"><ele>817</ele><time>2026-03-17T07:19:29Z</time></trkpt>
<trkpt lat="43.0569420000" lon="0.1937680000"><ele>817</ele><time>2026-03-17T07:19:31Z</time></trkpt>
<trkpt lat="43.0569200000" lon="0.1937470000"><ele>817</ele><time>2026-03-17T07:19:34Z</time></trkpt>
<trkpt lat="43.0569020000" lon="0.1937320000"><ele>817</ele><time>2026-03-17T07:19:36Z</time></trkpt>
<trkpt lat="43.0568770000" lon="0.1937070000"><ele>818</ele><time>2026-03-17T07:19:39Z</time></trkpt>
<trkpt lat="43.0568620000" lon="0.1936870000"><ele>818</ele><time>2026-03-17T07:19:41Z</time></trkpt>
<trkpt lat="43.0568500000" lon="0.1936670000"><ele>818</ele><time>2026-03-17T07:19:43Z</time></trkpt>
<trkpt lat="43.0568350000" lon="0.1936370000"><ele>818</ele><time>2026-03-17T07:19:46Z</time></trkpt>
<trkpt lat="43.0568250000" lon="0.1936150000"><ele>818</ele><time>2026-03-17T07:19:48Z</time></trkpt>
<trkpt lat="43.0568070000" lon="0.1935870000"><ele>819</ele><time>2026-03-17T07:19:51Z</time></trkpt>
<trkpt lat="43.0567970000" lon="0.1935630000"><ele>819</ele><time>2026-03-17T07:19:53Z</time></trkpt>
<trkpt lat="43.0568120000" lon="0.1935500000"><ele>820</ele><time>2026-03-17T07:19:58Z</time></trkpt>
<trkpt lat="43.0567920000" lon="0.1935320000"><ele>820</ele><time>2026-03-17T07:20:11Z</time></trkpt>
<trkpt lat="43.0567770000" lon="0.1935220000"><ele>820</ele><time>2026-03-17T07:20:32Z</time></trkpt>
<trkpt lat="43.0567620000" lon="0.1935020000"><ele>820</ele><time>2026-03-17T07:20:34Z</time></trkpt>
<trkpt lat="43.0567500000" lon="0.1934770000"><ele>821</ele><time>2026-03-17T07:20:43Z</time></trkpt>
<trkpt lat="43.0567370000" lon="0.1934470000"><ele>821</ele><time>2026-03-17T07:20:45Z</time></trkpt>
<trkpt lat="43.0567220000" lon="0.1934070000"><ele>821</ele><time>2026-03-17T07:20:47Z</time></trkpt>
<trkpt lat="43.0567120000" lon="0.1933820000"><ele>822</ele><time>2026-03-17T07:20:51Z</time></trkpt>
<trkpt lat="43.0566970000" lon="0.1933530000"><ele>822</ele><time>2026-03-17T07:20:54Z</time></trkpt>
<trkpt lat="43.0566870000" lon="0.1933320000"><ele>822</ele><time>2026-03-17T07:20:57Z</time></trkpt>
<trkpt lat="43.0566770000" lon="0.1933120000"><ele>822</ele><time>2026-03-17T07:20:59Z</time></trkpt>
<trkpt lat="43.0566700000" lon="0.1932870000"><ele>822</ele><time>2026-03-17T07:21:01Z</time></trkpt>
<trkpt lat="43.0566650000" lon="0.1932620000"><ele>823</ele><time>2026-03-17T07:21:03Z</time></trkpt>
<trkpt lat="43.0566550000" lon="0.1932320000"><ele>823</ele><time>2026-03-17T07:21:05Z</time></trkpt>
<trkpt lat="43.0566420000" lon="0.1932020000"><ele>823</ele><time>2026-03-17T07:21:07Z</time></trkpt>
<trkpt lat="43.0566300000" lon="0.1931670000"><ele>824</ele><time>2026-03-17T07:21:09Z</time></trkpt>
<trkpt lat="43.0566220000" lon="0.1931370000"><ele>824</ele><time>2026-03-17T07:21:11Z</time></trkpt>
<trkpt lat="43.0566070000" lon="0.1931200000"><ele>824</ele><time>2026-03-17T07:21:13Z</time></trkpt>
<trkpt lat="43.0565920000" lon="0.1930970000"><ele>824</ele><time>2026-03-17T07:21:15Z</time></trkpt>
<trkpt lat="43.0565820000" lon="0.1930720000"><ele>825</ele><time>2026-03-17T07:21:17Z</time></trkpt>
<trkpt lat="43.0565720000" lon="0.1930420000"><ele>825</ele><time>2026-03-17T07:21:19Z</time></trkpt>
<trkpt lat="43.0565620000" lon="0.1930170000"><ele>825</ele><time>2026-03-17T07:21:21Z</time></trkpt>
<trkpt lat="43.0565450000" lon="0.1929870000"><ele>825</ele><time>2026-03-17T07:21:24Z</time></trkpt>
<trkpt lat="43.0565300000" lon="0.1929650000"><ele>826</ele><time>2026-03-17T07:21:26Z</time></trkpt>
<trkpt lat="43.0565120000" lon="0.1929420000"><ele>826</ele><time>2026-03-17T07:21:28Z</time></trkpt>
<trkpt lat="43.0564970000" lon="0.1929200000"><ele>826</ele><time>2026-03-17T07:21:30Z</time></trkpt>
<trkpt lat="43.0564770000" lon="0.1928980000"><ele>826</ele><time>2026-03-17T07:21:33Z</time></trkpt>
<trkpt lat="43.0564550000" lon="0.1928820000"><ele>827</ele><time>2026-03-17T07:21:35Z</time></trkpt>
<trkpt lat="43.0564370000" lon="0.1928670000"><ele>827</ele><time>2026-03-17T07:21:37Z</time></trkpt>
<trkpt lat="43.0564200000" lon="0.1928420000"><ele>827</ele><time>2026-03-17T07:21:39Z</time></trkpt>
<trkpt lat="43.0564070000" lon="0.1928130000"><ele>827</ele><time>2026-03-17T07:21:41Z</time></trkpt>
<trkpt lat="43.0563950000" lon="0.1927920000"><ele>828</ele><time>2026-03-17T07:21:43Z</time></trkpt>
<trkpt lat="43.0563820000" lon="0.1927720000"><ele>828</ele><time>2026-03-17T07:21:45Z</time></trkpt>
<trkpt lat="43.0563670000" lon="0.1927520000"><ele>828</ele><time>2026-03-17T07:21:47Z</time></trkpt>
<trkpt lat="43.0563520000" lon="0.1927300000"><ele>828</ele><time>2026-03-17T07:21:49Z</time></trkpt>
<trkpt lat="43.0563400000" lon="0.1927070000"><ele>828</ele><time>2026-03-17T07:21:51Z</time></trkpt>
<trkpt lat="43.0563250000" lon="0.1926820000"><ele>829</ele><time>2026-03-17T07:21:53Z</time></trkpt>
<trkpt lat="43.0563100000" lon="0.1926570000"><ele>829</ele><time>2026-03-17T07:21:55Z</time></trkpt>
<trkpt lat="43.0562950000" lon="0.1926320000"><ele>829</ele><time>2026-03-17T07:21:57Z</time></trkpt>
<trkpt lat="43.0562820000" lon="0.1926020000"><ele>829</ele><time>2026-03-17T07:22:00Z</time></trkpt>
<trkpt lat="43.0562650000" lon="0.1925820000"><ele>830</ele><time>2026-03-17T07:22:02Z</time></trkpt>
<trkpt lat="43.0562500000" lon="0.1925470000"><ele>830</ele><time>2026-03-17T07:22:05Z</time></trkpt>
<trkpt lat="43.0562370000" lon="0.1925220000"><ele>830</ele><time>2026-03-17T07:22:07Z</time></trkpt>
<trkpt lat="43.0562270000" lon="0.1924970000"><ele>830</ele><time>2026-03-17T07:22:09Z</time></trkpt>
<trkpt lat="43.0562200000" lon="0.1924750000"><ele>831</ele><time>2026-03-17T07:22:11Z</time></trkpt>
<trkpt lat="43.0562120000" lon="0.1924420000"><ele>831</ele><time>2026-03-17T07:22:14Z</time></trkpt>
<trkpt lat="43.0562020000" lon="0.1924170000"><ele>831</ele><time>2026-03-17T07:22:16Z</time></trkpt>
<trkpt lat="43.0561820000" lon="0.1923970000"><ele>831</ele><time>2026-03-17T07:22:18Z</time></trkpt>
<trkpt lat="43.0561620000" lon="0.1923730000"><ele>832</ele><time>2026-03-17T07:22:20Z</time></trkpt>
<trkpt lat="43.0561450000" lon="0.1923480000"><ele>832</ele><time>2026-03-17T07:22:22Z</time></trkpt>
<trkpt lat="43.0561370000" lon="0.1923220000"><ele>832</ele><time>2026-03-17T07:22:24Z</time></trkpt>
<trkpt lat="43.0561300000" lon="0.1922970000"><ele>832</ele><time>2026-03-17T07:22:26Z</time></trkpt>
<trkpt lat="43.0561220000" lon="0.1922670000"><ele>832</ele><time>2026-03-17T07:22:28Z</time></trkpt>
<trkpt lat="43.0561120000" lon="0.1922430000"><ele>833</ele><time>2026-03-17T07:22:30Z</time></trkpt>
<trkpt lat="43.0560970000" lon="0.1922180000"><ele>833</ele><time>2026-03-17T07:22:32Z</time></trkpt>
<trkpt lat="43.0560870000" lon="0.1921950000"><ele>833</ele><time>2026-03-17T07:22:34Z</time></trkpt>
<trkpt lat="43.0560770000" lon="0.1921700000"><ele>833</ele><time>2026-03-17T07:22:36Z</time></trkpt>
<trkpt lat="43.0560650000" lon="0.1921420000"><ele>833</ele><time>2026-03-17T07:22:38Z</time></trkpt>
<trkpt lat="43.0560550000" lon="0.1921200000"><ele>833</ele><time>2026-03-17T07:22:40Z</time></trkpt>
<trkpt lat="43.0560420000" lon="0.1920870000"><ele>834</ele><time>2026-03-17T07:22:43Z</time></trkpt>
<trkpt lat="43.0560370000" lon="0.1920620000"><ele>834</ele><time>2026-03-17T07:22:45Z</time></trkpt>
<trkpt lat="43.0560270000" lon="0.1920370000"><ele>834</ele><time>2026-03-17T07:22:47Z</time></trkpt>
<trkpt lat="43.0560200000" lon="0.1920070000"><ele>834</ele><time>2026-03-17T07:22:49Z</time></trkpt>
<trkpt lat="43.0560100000" lon="0.1919820000"><ele>834</ele><time>2026-03-17T07:22:51Z</time></trkpt>
<trkpt lat="43.0560050000" lon="0.1919570000"><ele>834</ele><time>2026-03-17T07:22:53Z</time></trkpt>
<trkpt lat="43.0559950000" lon="0.1919330000"><ele>835</ele><time>2026-03-17T07:22:55Z</time></trkpt>
<trkpt lat="43.0559820000" lon="0.1919120000"><ele>835</ele><time>2026-03-17T07:22:57Z</time></trkpt>
<trkpt lat="43.0559700000" lon="0.1918900000"><ele>835</ele><time>2026-03-17T07:22:59Z</time></trkpt>
<trkpt lat="43.0559600000" lon="0.1918650000"><ele>835</ele><time>2026-03-17T07:23:01Z</time></trkpt>
<trkpt lat="43.0559520000" lon="0.1918420000"><ele>835</ele><time>2026-03-17T07:23:03Z</time></trkpt>
<trkpt lat="43.0559420000" lon="0.1918100000"><ele>836</ele><time>2026-03-17T07:23:06Z</time></trkpt>
<trkpt lat="43.0559400000" lon="0.1917820000"><ele>836</ele><time>2026-03-17T07:23:08Z</time></trkpt>
<trkpt lat="43.0559270000" lon="0.1917470000"><ele>836</ele><time>2026-03-17T07:23:11Z</time></trkpt>
<trkpt lat="43.0559220000" lon="0.1917220000"><ele>836</ele><time>2026-03-17T07:23:13Z</time></trkpt>
<trkpt lat="43.0559220000" lon="0.1916950000"><ele>837</ele><time>2026-03-17T07:23:15Z</time></trkpt>
<trkpt lat="43.0559170000" lon="0.1916670000"><ele>837</ele><time>2026-03-17T07:23:17Z</time></trkpt>
<trkpt lat="43.0559170000" lon="0.1916400000"><ele>837</ele><time>2026-03-17T07:23:19Z</time></trkpt>
<trkpt lat="43.0559170000" lon="0.1916070000"><ele>838</ele><time>2026-03-17T07:23:22Z</time></trkpt>
<trkpt lat="43.0559070000" lon="0.1915820000"><ele>838</ele><time>2026-03-17T07:23:25Z</time></trkpt>
<trkpt lat="43.0559020000" lon="0.1915520000"><ele>838</ele><time>2026-03-17T07:23:28Z</time></trkpt>
<trkpt lat="43.0559000000" lon="0.1915270000"><ele>838</ele><time>2026-03-17T07:23:30Z</time></trkpt>
<trkpt lat="43.0558870000" lon="0.1915050000"><ele>839</ele><time>2026-03-17T07:23:32Z</time></trkpt>
<trkpt lat="43.0558720000" lon="0.1914750000"><ele>839</ele><time>2026-03-17T07:23:35Z</time></trkpt>
<trkpt lat="43.0558570000" lon="0.1914400000"><ele>839</ele><time>2026-03-17T07:23:38Z</time></trkpt>
<trkpt lat="43.0558470000" lon="0.1914170000"><ele>840</ele><time>2026-03-17T07:23:40Z</time></trkpt>
<trkpt lat="43.0558370000" lon="0.1913920000"><ele>840</ele><time>2026-03-17T07:23:43Z</time></trkpt>
<trkpt lat="43.0558150000" lon="0.1913770000"><ele>840</ele><time>2026-03-17T07:23:46Z</time></trkpt>
<trkpt lat="43.0557870000" lon="0.1913700000"><ele>841</ele><time>2026-03-17T07:23:49Z</time></trkpt>
<trkpt lat="43.0557670000" lon="0.1913720000"><ele>841</ele><time>2026-03-17T07:23:51Z</time></trkpt>
<trkpt lat="43.0557450000" lon="0.1913730000"><ele>841</ele><time>2026-03-17T07:23:54Z</time></trkpt>
<trkpt lat="43.0557220000" lon="0.1913730000"><ele>841</ele><time>2026-03-17T07:23:57Z</time></trkpt>
<trkpt lat="43.0557020000" lon="0.1913820000"><ele>842</ele><time>2026-03-17T07:23:59Z</time></trkpt>
<trkpt lat="43.0556850000" lon="0.1913870000"><ele>842</ele><time>2026-03-17T07:24:01Z</time></trkpt>
<trkpt lat="43.0556670000" lon="0.1914270000"><ele>842</ele><time>2026-03-17T07:24:04Z</time></trkpt>
<trkpt lat="43.0556570000" lon="0.1914520000"><ele>842</ele><time>2026-03-17T07:24:06Z</time></trkpt>
<trkpt lat="43.0556470000" lon="0.1914770000"><ele>842</ele><time>2026-03-17T07:24:08Z</time></trkpt>
<trkpt lat="43.0556470000" lon="0.1915050000"><ele>843</ele><time>2026-03-17T07:24:10Z</time></trkpt>
<trkpt lat="43.0556370000" lon="0.1915420000"><ele>843</ele><time>2026-03-17T07:24:13Z</time></trkpt>
<trkpt lat="43.0556350000" lon="0.1915770000"><ele>843</ele><time>2026-03-17T07:24:16Z</time></trkpt>
<trkpt lat="43.0556350000" lon="0.1916020000"><ele>843</ele><time>2026-03-17T07:24:18Z</time></trkpt>
<trkpt lat="43.0556350000" lon="0.1916270000"><ele>843</ele><time>2026-03-17T07:24:20Z</time></trkpt>
<trkpt lat="43.0556450000" lon="0.1916630000"><ele>844</ele><time>2026-03-17T07:24:23Z</time></trkpt>
<trkpt lat="43.0556570000" lon="0.1916970000"><ele>844</ele><time>2026-03-17T07:24:26Z</time></trkpt>
<trkpt lat="43.0556620000" lon="0.1917220000"><ele>844</ele><time>2026-03-17T07:24:28Z</time></trkpt>
<trkpt lat="43.0556670000" lon="0.1917500000"><ele>844</ele><time>2026-03-17T07:24:30Z</time></trkpt>
<trkpt lat="43.0556670000" lon="0.1917800000"><ele>844</ele><time>2026-03-17T07:24:32Z</time></trkpt>
<trkpt lat="43.0556700000" lon="0.1918100000"><ele>845</ele><time>2026-03-17T07:24:34Z</time></trkpt>
<trkpt lat="43.0556670000" lon="0.1918370000"><ele>845</ele><time>2026-03-17T07:24:36Z</time></trkpt>
<trkpt lat="43.0556620000" lon="0.1918670000"><ele>845</ele><time>2026-03-17T07:24:38Z</time></trkpt>
<trkpt lat="43.0556550000" lon="0.1918920000"><ele>845</ele><time>2026-03-17T07:24:40Z</time></trkpt>
<trkpt lat="43.0556450000" lon="0.1919170000"><ele>845</ele><time>2026-03-17T07:24:42Z</time></trkpt>
<trkpt lat="43.0556320000" lon="0.1919330000"><ele>846</ele><time>2026-03-17T07:24:44Z</time></trkpt>
<trkpt lat="43.0556070000" lon="0.1919430000"><ele>846</ele><time>2026-03-17T07:24:47Z</time></trkpt>
<trkpt lat="43.0555820000" lon="0.1919420000"><ele>846</ele><time>2026-03-17T07:24:49Z</time></trkpt>
<trkpt lat="43.0555650000" lon="0.1919620000"><ele>847</ele><time>2026-03-17T07:24:54Z</time></trkpt>
<trkpt lat="43.0555500000" lon="0.1919420000"><ele>847</ele><time>2026-03-17T07:25:16Z</time></trkpt>
<trkpt lat="43.0555300000" lon="0.1919120000"><ele>847</ele><time>2026-03-17T07:25:18Z</time></trkpt>
<trkpt lat="43.0555070000" lon="0.1918820000"><ele>847</ele><time>2026-03-17T07:25:20Z</time></trkpt>
<trkpt lat="43.0554870000" lon="0.1918570000"><ele>847</ele><time>2026-03-17T07:25:22Z</time></trkpt>
<trkpt lat="43.0554770000" lon="0.1918280000"><ele>847</ele><time>2026-03-17T07:25:24Z</time></trkpt>
<trkpt lat="43.0554670000" lon="0.1918070000"><ele>848</ele><time>2026-03-17T07:25:26Z</time></trkpt>
<trkpt lat="43.0554520000" lon="0.1917770000"><ele>848</ele><time>2026-03-17T07:25:29Z</time></trkpt>
<trkpt lat="43.0554420000" lon="0.1917500000"><ele>849</ele><time>2026-03-17T07:25:58Z</time></trkpt>
<trkpt lat="43.0554320000" lon="0.1917250000"><ele>849</ele><time>2026-03-17T07:26:00Z</time></trkpt>
<trkpt lat="43.0554220000" lon="0.1916950000"><ele>849</ele><time>2026-03-17T07:26:02Z</time></trkpt>
<trkpt lat="43.0554020000" lon="0.1916920000"><ele>849</ele><time>2026-03-17T07:26:08Z</time></trkpt>
<trkpt lat="43.0553820000" lon="0.1916830000"><ele>849</ele><time>2026-03-17T07:26:15Z</time></trkpt>
<trkpt lat="43.0553670000" lon="0.1916670000"><ele>849</ele><time>2026-03-17T07:26:17Z</time></trkpt>
<trkpt lat="43.0553500000" lon="0.1916520000"><ele>850</ele><time>2026-03-17T07:26:19Z</time></trkpt>
<trkpt lat="43.0553300000" lon="0.1916420000"><ele>850</ele><time>2026-03-17T07:26:22Z</time></trkpt>
<trkpt lat="43.0553050000" lon="0.1916420000"><ele>850</ele><time>2026-03-17T07:26:25Z</time></trkpt>
<trkpt lat="43.0552870000" lon="0.1916320000"><ele>851</ele><time>2026-03-17T07:26:27Z</time></trkpt>
<trkpt lat="43.0552620000" lon="0.1916220000"><ele>851</ele><time>2026-03-17T07:26:30Z</time></trkpt>
<trkpt lat="43.0552370000" lon="0.1916220000"><ele>851</ele><time>2026-03-17T07:26:33Z</time></trkpt>
<trkpt lat="43.0552120000" lon="0.1916150000"><ele>852</ele><time>2026-03-17T07:26:36Z</time></trkpt>
<trkpt lat="43.0551870000" lon="0.1916220000"><ele>852</ele><time>2026-03-17T07:26:39Z</time></trkpt>
<trkpt lat="43.0551670000" lon="0.1916250000"><ele>853</ele><time>2026-03-17T07:26:41Z</time></trkpt>
<trkpt lat="43.0551450000" lon="0.1916300000"><ele>853</ele><time>2026-03-17T07:26:44Z</time></trkpt>
<trkpt lat="43.0551250000" lon="0.1916420000"><ele>854</ele><time>2026-03-17T07:26:47Z</time></trkpt>
<trkpt lat="43.0551070000" lon="0.1916620000"><ele>855</ele><time>2026-03-17T07:26:50Z</time></trkpt>
<trkpt lat="43.0550900000" lon="0.1916720000"><ele>855</ele><time>2026-03-17T07:26:52Z</time></trkpt>
<trkpt lat="43.0550670000" lon="0.1916820000"><ele>855</ele><time>2026-03-17T07:26:55Z</time></trkpt>
<trkpt lat="43.0550500000" lon="0.1916870000"><ele>856</ele><time>2026-03-17T07:26:57Z</time></trkpt>
<trkpt lat="43.0550270000" lon="0.1916830000"><ele>856</ele><time>2026-03-17T07:27:00Z</time></trkpt>
<trkpt lat="43.0550100000" lon="0.1916880000"><ele>856</ele><time>2026-03-17T07:27:02Z</time></trkpt>
<trkpt lat="43.0549870000" lon="0.1916950000"><ele>857</ele><time>2026-03-17T07:27:05Z</time></trkpt>
<trkpt lat="43.0549670000" lon="0.1916950000"><ele>857</ele><time>2026-03-17T07:27:08Z</time></trkpt>
<trkpt lat="43.0549720000" lon="0.1917200000"><ele>858</ele><time>2026-03-17T07:27:13Z</time></trkpt>
<trkpt lat="43.0549520000" lon="0.1917320000"><ele>858</ele><time>2026-03-17T07:27:27Z</time></trkpt>
<trkpt lat="43.0549200000" lon="0.1917270000"><ele>858</ele><time>2026-03-17T07:27:29Z</time></trkpt>
<trkpt lat="43.0548920000" lon="0.1917120000"><ele>858</ele><time>2026-03-17T07:27:31Z</time></trkpt>
<trkpt lat="43.0548770000" lon="0.1916880000"><ele>858</ele><time>2026-03-17T07:27:33Z</time></trkpt>
<trkpt lat="43.0548620000" lon="0.1916670000"><ele>859</ele><time>2026-03-17T07:27:35Z</time></trkpt>
<trkpt lat="43.0548500000" lon="0.1916480000"><ele>859</ele><time>2026-03-17T07:27:37Z</time></trkpt>
<trkpt lat="43.0548330000" lon="0.1916300000"><ele>860</ele><time>2026-03-17T07:27:50Z</time></trkpt>
<trkpt lat="43.0548120000" lon="0.1916020000"><ele>860</ele><time>2026-03-17T07:27:52Z</time></trkpt>
<trkpt lat="43.0547870000" lon="0.1915770000"><ele>860</ele><time>2026-03-17T07:27:54Z</time></trkpt>
<trkpt lat="43.0547650000" lon="0.1915570000"><ele>861</ele><time>2026-03-17T07:27:56Z</time></trkpt>
<trkpt lat="43.0547470000" lon="0.1915420000"><ele>861</ele><time>2026-03-17T07:27:58Z</time></trkpt>
<trkpt lat="43.0547320000" lon="0.1915270000"><ele>861</ele><time>2026-03-17T07:28:00Z</time></trkpt>
<trkpt lat="43.0547120000" lon="0.1915070000"><ele>861</ele><time>2026-03-17T07:28:02Z</time></trkpt>
<trkpt lat="43.0546920000" lon="0.1914950000"><ele>861</ele><time>2026-03-17T07:28:04Z</time></trkpt>
<trkpt lat="43.0546750000" lon="0.1914820000"><ele>861</ele><time>2026-03-17T07:28:06Z</time></trkpt>
<trkpt lat="43.0546520000" lon="0.1914700000"><ele>861</ele><time>2026-03-17T07:28:08Z</time></trkpt>
<trkpt lat="43.0546300000" lon="0.1914620000"><ele>862</ele><time>2026-03-17T07:28:10Z</time></trkpt>
<trkpt lat="43.0546070000" lon="0.1914500000"><ele>862</ele><time>2026-03-17T07:28:12Z</time></trkpt>
<trkpt lat="43.0545800000" lon="0.1914420000"><ele>862</ele><time>2026-03-17T07:28:14Z</time></trkpt>
<trkpt lat="43.0545570000" lon="0.1914450000"><ele>862</ele><time>2026-03-17T07:28:16Z</time></trkpt>
<trkpt lat="43.0545350000" lon="0.1914370000"><ele>862</ele><time>2026-03-17T07:28:18Z</time></trkpt>
<trkpt lat="43.0545170000" lon="0.1914320000"><ele>863</ele><time>2026-03-17T07:28:20Z</time></trkpt>
<trkpt lat="43.0544920000" lon="0.1914220000"><ele>863</ele><time>2026-03-17T07:28:23Z</time></trkpt>
<trkpt lat="43.0544770000" lon="0.1914120000"><ele>863</ele><time>2026-03-17T07:28:25Z</time></trkpt>
<trkpt lat="43.0544530000" lon="0.1914070000"><ele>864</ele><time>2026-03-17T07:28:27Z</time></trkpt>
<trkpt lat="43.0544270000" lon="0.1913980000"><ele>864</ele><time>2026-03-17T07:28:29Z</time></trkpt>
<trkpt lat="43.0544050000" lon="0.1914070000"><ele>864</ele><time>2026-03-17T07:28:31Z</time></trkpt>
<trkpt lat="43.0543870000" lon="0.1914200000"><ele>864</ele><time>2026-03-17T07:28:33Z</time></trkpt>
<trkpt lat="43.0543620000" lon="0.1914150000"><ele>864</ele><time>2026-03-17T07:28:36Z</time></trkpt>
<trkpt lat="43.0543470000" lon="0.1913970000"><ele>864</ele><time>2026-03-17T07:28:38Z</time></trkpt>
<trkpt lat="43.0543270000" lon="0.1913830000"><ele>865</ele><time>2026-03-17T07:28:40Z</time></trkpt>
<trkpt lat="43.0543070000" lon="0.1913600000"><ele>865</ele><time>2026-03-17T07:28:43Z</time></trkpt>
<trkpt lat="43.0542870000" lon="0.1913620000"><ele>866</ele><time>2026-03-17T07:28:49Z</time></trkpt>
<trkpt lat="43.0542920000" lon="0.1913350000"><ele>866</ele><time>2026-03-17T07:29:22Z</time></trkpt>
<trkpt lat="43.0543020000" lon="0.1913000000"><ele>866</ele><time>2026-03-17T07:29:24Z</time></trkpt>
<trkpt lat="43.0543070000" lon="0.1912720000"><ele>866</ele><time>2026-03-17T07:29:25Z</time></trkpt>
<trkpt lat="43.0543120000" lon="0.1912430000"><ele>866</ele><time>2026-03-17T07:29:26Z</time></trkpt>
<trkpt lat="43.0543100000" lon="0.1912170000"><ele>866</ele><time>2026-03-17T07:29:27Z</time></trkpt>
<trkpt lat="43.0542970000" lon="0.1911750000"><ele>865</ele><time>2026-03-17T07:29:29Z</time></trkpt>
<trkpt lat="43.0542900000" lon="0.1911520000"><ele>865</ele><time>2026-03-17T07:29:30Z</time></trkpt>
<trkpt lat="43.0542800000" lon="0.1911080000"><ele>865</ele><time>2026-03-17T07:29:32Z</time></trkpt>
<trkpt lat="43.0542770000" lon="0.1910670000"><ele>865</ele><time>2026-03-17T07:29:34Z</time></trkpt>
<trkpt lat="43.0542820000" lon="0.1910370000"><ele>864</ele><time>2026-03-17T07:29:36Z</time></trkpt>
<trkpt lat="43.0542870000" lon="0.1910070000"><ele>864</ele><time>2026-03-17T07:29:38Z</time></trkpt>
<trkpt lat="43.0542920000" lon="0.1909770000"><ele>864</ele><time>2026-03-17T07:29:40Z</time></trkpt>
<trkpt lat="43.0542980000" lon="0.1909420000"><ele>864</ele><time>2026-03-17T07:29:42Z</time></trkpt>
<trkpt lat="43.0542970000" lon="0.1909100000"><ele>864</ele><time>2026-03-17T07:29:44Z</time></trkpt>
<trkpt lat="43.0542950000" lon="0.1908730000"><ele>864</ele><time>2026-03-17T07:29:46Z</time></trkpt>
<trkpt lat="43.0542920000" lon="0.1908420000"><ele>864</ele><time>2026-03-17T07:29:49Z</time></trkpt>
<trkpt lat="43.0542870000" lon="0.1908070000"><ele>863</ele><time>2026-03-17T07:29:52Z</time></trkpt>
<trkpt lat="43.0542770000" lon="0.1907770000"><ele>863</ele><time>2026-03-17T07:29:55Z</time></trkpt>
<trkpt lat="43.0542720000" lon="0.1907470000"><ele>863</ele><time>2026-03-17T07:29:58Z</time></trkpt>
<trkpt lat="43.0542750000" lon="0.1907120000"><ele>863</ele><time>2026-03-17T07:30:00Z</time></trkpt>
<trkpt lat="43.0542750000" lon="0.1906700000"><ele>862</ele><time>2026-03-17T07:30:02Z</time></trkpt>
<trkpt lat="43.0542770000" lon="0.1906450000"><ele>862</ele><time>2026-03-17T07:30:03Z</time></trkpt>
<trkpt lat="43.0542870000" lon="0.1906100000"><ele>862</ele><time>2026-03-17T07:30:05Z</time></trkpt>
<trkpt lat="43.0542870000" lon="0.1905820000"><ele>862</ele><time>2026-03-17T07:30:07Z</time></trkpt>
<trkpt lat="43.0542870000" lon="0.1905480000"><ele>862</ele><time>2026-03-17T07:30:09Z</time></trkpt>
<trkpt lat="43.0542870000" lon="0.1905170000"><ele>862</ele><time>2026-03-17T07:30:12Z</time></trkpt>
<trkpt lat="43.0542720000" lon="0.1904970000"><ele>861</ele><time>2026-03-17T07:30:16Z</time></trkpt>
<trkpt lat="43.0542620000" lon="0.1904700000"><ele>861</ele><time>2026-03-17T07:30:43Z</time></trkpt>
<trkpt lat="43.0542520000" lon="0.1904280000"><ele>861</ele><time>2026-03-17T07:30:45Z</time></trkpt>
<trkpt lat="43.0542570000" lon="0.1903850000"><ele>861</ele><time>2026-03-17T07:30:47Z</time></trkpt>
<trkpt lat="43.0542770000" lon="0.1903470000"><ele>861</ele><time>2026-03-17T07:30:49Z</time></trkpt>
<trkpt lat="43.0542820000" lon="0.1903150000"><ele>861</ele><time>2026-03-17T07:30:51Z</time></trkpt>
<trkpt lat="43.0542820000" lon="0.1902850000"><ele>861</ele><time>2026-03-17T07:30:53Z</time></trkpt>
<trkpt lat="43.0542920000" lon="0.1902520000"><ele>861</ele><time>2026-03-17T07:30:55Z</time></trkpt>
<trkpt lat="43.0542980000" lon="0.1902250000"><ele>860</ele><time>2026-03-17T07:30:57Z</time></trkpt>
<trkpt lat="43.0543020000" lon="0.1901920000"><ele>860</ele><time>2026-03-17T07:30:59Z</time></trkpt>
<trkpt lat="43.0543050000" lon="0.1901630000"><ele>860</ele><time>2026-03-17T07:31:01Z</time></trkpt>
<trkpt lat="43.0543120000" lon="0.1901380000"><ele>860</ele><time>2026-03-17T07:31:03Z</time></trkpt>
<trkpt lat="43.0543020000" lon="0.1901150000"><ele>860</ele><time>2026-03-17T07:31:05Z</time></trkpt>
<trkpt lat="43.0542970000" lon="0.1900750000"><ele>860</ele><time>2026-03-17T07:31:07Z</time></trkpt>
<trkpt lat="43.0542920000" lon="0.1900320000"><ele>860</ele><time>2026-03-17T07:31:09Z</time></trkpt>
<trkpt lat="43.0542820000" lon="0.1899970000"><ele>860</ele><time>2026-03-17T07:31:11Z</time></trkpt>
<trkpt lat="43.0542650000" lon="0.1899720000"><ele>859</ele><time>2026-03-17T07:31:13Z</time></trkpt>
<trkpt lat="43.0542420000" lon="0.1899450000"><ele>859</ele><time>2026-03-17T07:31:15Z</time></trkpt>
<trkpt lat="43.0542420000" lon="0.1899170000"><ele>859</ele><time>2026-03-17T07:31:17Z</time></trkpt>
<trkpt lat="43.0542450000" lon="0.1898920000"><ele>859</ele><time>2026-03-17T07:31:19Z</time></trkpt>
<trkpt lat="43.0542420000" lon="0.1898580000"><ele>859</ele><time>2026-03-17T07:31:21Z</time></trkpt>
<trkpt lat="43.0542500000" lon="0.1898370000"><ele>859</ele><time>2026-03-17T07:31:22Z</time></trkpt>
<trkpt lat="43.0542470000" lon="0.1898120000"><ele>859</ele><time>2026-03-17T07:31:23Z</time></trkpt>
<trkpt lat="43.0542450000" lon="0.1897850000"><ele>859</ele><time>2026-03-17T07:31:24Z</time></trkpt>
<trkpt lat="43.0542400000" lon="0.1897570000"><ele>859</ele><time>2026-03-17T07:31:25Z</time></trkpt>
<trkpt lat="43.0542270000" lon="0.1897220000"><ele>859</ele><time>2026-03-17T07:31:27Z</time></trkpt>
<trkpt lat="43.0542270000" lon="0.1896900000"><ele>859</ele><time>2026-03-17T07:31:29Z</time></trkpt>
<trkpt lat="43.0542270000" lon="0.1896530000"><ele>859</ele><time>2026-03-17T07:31:31Z</time></trkpt>
<trkpt lat="43.0542250000" lon="0.1896220000"><ele>859</ele><time>2026-03-17T07:31:33Z</time></trkpt>
<trkpt lat="43.0542170000" lon="0.1895870000"><ele>859</ele><time>2026-03-17T07:31:35Z</time></trkpt>
<trkpt lat="43.0542270000" lon="0.1895570000"><ele>858</ele><time>2026-03-17T07:31:37Z</time></trkpt>
<trkpt lat="43.0542200000" lon="0.1895300000"><ele>858</ele><time>2026-03-17T07:31:39Z</time></trkpt>
<trkpt lat="43.0542170000" lon="0.1894970000"><ele>858</ele><time>2026-03-17T07:31:41Z</time></trkpt>
<trkpt lat="43.0542220000" lon="0.1894670000"><ele>858</ele><time>2026-03-17T07:31:43Z</time></trkpt>
<trkpt lat="43.0542250000" lon="0.1894420000"><ele>858</ele><time>2026-03-17T07:31:44Z</time></trkpt>
<trkpt lat="43.0542270000" lon="0.1893970000"><ele>858</ele><time>2026-03-17T07:31:46Z</time></trkpt>
<trkpt lat="43.0542170000" lon="0.1893670000"><ele>858</ele><time>2026-03-17T07:31:48Z</time></trkpt>
<trkpt lat="43.0542120000" lon="0.1893320000"><ele>858</ele><time>2026-03-17T07:31:50Z</time></trkpt>
<trkpt lat="43.0542120000" lon="0.1893020000"><ele>857</ele><time>2026-03-17T07:31:53Z</time></trkpt>
<trkpt lat="43.0541970000" lon="0.1892750000"><ele>857</ele><time>2026-03-17T07:31:56Z</time></trkpt>
<trkpt lat="43.0541950000" lon="0.1892470000"><ele>857</ele><time>2026-03-17T07:31:58Z</time></trkpt>
<trkpt lat="43.0541920000" lon="0.1892080000"><ele>857</ele><time>2026-03-17T07:32:00Z</time></trkpt>
<trkpt lat="43.0542020000" lon="0.1891870000"><ele>857</ele><time>2026-03-17T07:32:01Z</time></trkpt>
<trkpt lat="43.0542070000" lon="0.1891580000"><ele>856</ele><time>2026-03-17T07:32:02Z</time></trkpt>
<trkpt lat="43.0542050000" lon="0.1891200000"><ele>856</ele><time>2026-03-17T07:32:04Z</time></trkpt>
<trkpt lat="43.0542020000" lon="0.1890850000"><ele>856</ele><time>2026-03-17T07:32:06Z</time></trkpt>
<trkpt lat="43.0542120000" lon="0.1890520000"><ele>856</ele><time>2026-03-17T07:32:08Z</time></trkpt>
<trkpt lat="43.0542070000" lon="0.1890180000"><ele>856</ele><time>2026-03-17T07:32:10Z</time></trkpt>
<trkpt lat="43.0541970000" lon="0.1889830000"><ele>855</ele><time>2026-03-17T07:32:12Z</time></trkpt>
<trkpt lat="43.0541920000" lon="0.1889570000"><ele>855</ele><time>2026-03-17T07:32:14Z</time></trkpt>
<trkpt lat="43.0541820000" lon="0.1889270000"><ele>855</ele><time>2026-03-17T07:32:17Z</time></trkpt>
<trkpt lat="43.0541850000" lon="0.1889020000"><ele>854</ele><time>2026-03-17T07:32:19Z</time></trkpt>
<trkpt lat="43.0541820000" lon="0.1888720000"><ele>854</ele><time>2026-03-17T07:32:21Z</time></trkpt>
<trkpt lat="43.0541770000" lon="0.1888450000"><ele>854</ele><time>2026-03-17T07:32:23Z</time></trkpt>
<trkpt lat="43.0541770000" lon="0.1888120000"><ele>854</ele><time>2026-03-17T07:32:25Z</time></trkpt>
<trkpt lat="43.0542000000" lon="0.1887720000"><ele>854</ele><time>2026-03-17T07:32:27Z</time></trkpt>
<trkpt lat="43.0542120000" lon="0.1887300000"><ele>853</ele><time>2026-03-17T07:32:29Z</time></trkpt>
<trkpt lat="43.0542250000" lon="0.1886970000"><ele>853</ele><time>2026-03-17T07:32:31Z</time></trkpt>
<trkpt lat="43.0542270000" lon="0.1886670000"><ele>853</ele><time>2026-03-17T07:32:33Z</time></trkpt>
<trkpt lat="43.0542280000" lon="0.1886370000"><ele>853</ele><time>2026-03-17T07:32:35Z</time></trkpt>
<trkpt lat="43.0542450000" lon="0.1886070000"><ele>853</ele><time>2026-03-17T07:32:37Z</time></trkpt>
<trkpt lat="43.0542520000" lon="0.1885720000"><ele>852</ele><time>2026-03-17T07:32:39Z</time></trkpt>
<trkpt lat="43.0542620000" lon="0.1885420000"><ele>852</ele><time>2026-03-17T07:32:41Z</time></trkpt>
<trkpt lat="43.0542620000" lon="0.1885120000"><ele>852</ele><time>2026-03-17T07:32:43Z</time></trkpt>
<trkpt lat="43.0542670000" lon="0.1884770000"><ele>852</ele><time>2026-03-17T07:32:45Z</time></trkpt>
<trkpt lat="43.0542750000" lon="0.1884470000"><ele>852</ele><time>2026-03-17T07:32:47Z</time></trkpt>
<trkpt lat="43.0542820000" lon="0.1884170000"><ele>852</ele><time>2026-03-17T07:32:49Z</time></trkpt>
<trkpt lat="43.0542900000" lon="0.1883870000"><ele>851</ele><time>2026-03-17T07:32:51Z</time></trkpt>
<trkpt lat="43.0542970000" lon="0.1883520000"><ele>851</ele><time>2026-03-17T07:32:53Z</time></trkpt>
<trkpt lat="43.0543100000" lon="0.1883170000"><ele>851</ele><time>2026-03-17T07:32:55Z</time></trkpt>
<trkpt lat="43.0543120000" lon="0.1882850000"><ele>851</ele><time>2026-03-17T07:32:57Z</time></trkpt>
<trkpt lat="43.0543170000" lon="0.1882570000"><ele>851</ele><time>2026-03-17T07:32:59Z</time></trkpt>
<trkpt lat="43.0543270000" lon="0.1882320000"><ele>851</ele><time>2026-03-17T07:33:01Z</time></trkpt>
<trkpt lat="43.0543300000" lon="0.1881970000"><ele>850</ele><time>2026-03-17T07:33:03Z</time></trkpt>
<trkpt lat="43.0543420000" lon="0.1881700000"><ele>850</ele><time>2026-03-17T07:33:05Z</time></trkpt>
<trkpt lat="43.0543600000" lon="0.1881350000"><ele>850</ele><time>2026-03-17T07:33:07Z</time></trkpt>
<trkpt lat="43.0543720000" lon="0.1881150000"><ele>850</ele><time>2026-03-17T07:33:09Z</time></trkpt>
<trkpt lat="43.0543850000" lon="0.1880870000"><ele>850</ele><time>2026-03-17T07:33:11Z</time></trkpt>
<trkpt lat="43.0543920000" lon="0.1880620000"><ele>849</ele><time>2026-03-17T07:33:13Z</time></trkpt>
<trkpt lat="43.0544020000" lon="0.1880350000"><ele>849</ele><time>2026-03-17T07:33:14Z</time></trkpt>
<trkpt lat="43.0544220000" lon="0.1880020000"><ele>849</ele><time>2026-03-17T07:33:16Z</time></trkpt>
<trkpt lat="43.0544370000" lon="0.1879820000"><ele>849</ele><time>2026-03-17T07:33:19Z</time></trkpt>
<trkpt lat="43.0544370000" lon="0.1879470000"><ele>848</ele><time>2026-03-17T07:33:22Z</time></trkpt>
<trkpt lat="43.0544500000" lon="0.1879220000"><ele>848</ele><time>2026-03-17T07:33:24Z</time></trkpt>
<trkpt lat="43.0544720000" lon="0.1878920000"><ele>847</ele><time>2026-03-17T07:33:26Z</time></trkpt>
<trkpt lat="43.0544900000" lon="0.1878370000"><ele>847</ele><time>2026-03-17T07:33:28Z</time></trkpt>
<trkpt lat="43.0545070000" lon="0.1878150000"><ele>847</ele><time>2026-03-17T07:33:30Z</time></trkpt>
<trkpt lat="43.0545120000" lon="0.1877850000"><ele>847</ele><time>2026-03-17T07:33:32Z</time></trkpt>
<trkpt lat="43.0545170000" lon="0.1877570000"><ele>847</ele><time>2026-03-17T07:33:34Z</time></trkpt>
<trkpt lat="43.0545220000" lon="0.1877270000"><ele>846</ele><time>2026-03-17T07:33:36Z</time></trkpt>
<trkpt lat="43.0545320000" lon="0.1876870000"><ele>846</ele><time>2026-03-17T07:33:39Z</time></trkpt>
<trkpt lat="43.0545400000" lon="0.1876580000"><ele>845</ele><time>2026-03-17T07:33:42Z</time></trkpt>
<trkpt lat="43.0545570000" lon="0.1876380000"><ele>845</ele><time>2026-03-17T07:33:44Z</time></trkpt>
<trkpt lat="43.0545700000" lon="0.1876120000"><ele>845</ele><time>2026-03-17T07:33:46Z</time></trkpt>
<trkpt lat="43.0545900000" lon="0.1875950000"><ele>844</ele><time>2026-03-17T07:33:48Z</time></trkpt>
<trkpt lat="43.0546020000" lon="0.1875680000"><ele>844</ele><time>2026-03-17T07:33:50Z</time></trkpt>
<trkpt lat="43.0546170000" lon="0.1875320000"><ele>844</ele><time>2026-03-17T07:33:52Z</time></trkpt>
<trkpt lat="43.0546220000" lon="0.1874950000"><ele>843</ele><time>2026-03-17T07:33:54Z</time></trkpt>
<trkpt lat="43.0546450000" lon="0.1874670000"><ele>843</ele><time>2026-03-17T07:33:56Z</time></trkpt>
<trkpt lat="43.0546620000" lon="0.1874370000"><ele>843</ele><time>2026-03-17T07:33:58Z</time></trkpt>
<trkpt lat="43.0546620000" lon="0.1874120000"><ele>843</ele><time>2026-03-17T07:34:00Z</time></trkpt>
<trkpt lat="43.0546720000" lon="0.1873820000"><ele>842</ele><time>2026-03-17T07:34:02Z</time></trkpt>
<trkpt lat="43.0546900000" lon="0.1873570000"><ele>842</ele><time>2026-03-17T07:34:04Z</time></trkpt>
<trkpt lat="43.0547070000" lon="0.1873420000"><ele>842</ele><time>2026-03-17T07:34:06Z</time></trkpt>
<trkpt lat="43.0547320000" lon="0.1873270000"><ele>841</ele><time>2026-03-17T07:34:09Z</time></trkpt>
<trkpt lat="43.0547480000" lon="0.1873100000"><ele>841</ele><time>2026-03-17T07:34:11Z</time></trkpt>
<trkpt lat="43.0547750000" lon="0.1872870000"><ele>841</ele><time>2026-03-17T07:34:14Z</time></trkpt>
<trkpt lat="43.0547920000" lon="0.1872570000"><ele>840</ele><time>2026-03-17T07:34:16Z</time></trkpt>
<trkpt lat="43.0548070000" lon="0.1872270000"><ele>840</ele><time>2026-03-17T07:34:18Z</time></trkpt>
<trkpt lat="43.0548220000" lon="0.1872070000"><ele>840</ele><time>2026-03-17T07:34:20Z</time></trkpt>
<trkpt lat="43.0548420000" lon="0.1871920000"><ele>840</ele><time>2026-03-17T07:34:22Z</time></trkpt>
<trkpt lat="43.0548600000" lon="0.1871750000"><ele>840</ele><time>2026-03-17T07:34:24Z</time></trkpt>
<trkpt lat="43.0548770000" lon="0.1871530000"><ele>839</ele><time>2026-03-17T07:34:26Z</time></trkpt>
<trkpt lat="43.0548920000" lon="0.1871270000"><ele>839</ele><time>2026-03-17T07:34:28Z</time></trkpt>
<trkpt lat="43.0549070000" lon="0.1871080000"><ele>839</ele><time>2026-03-17T07:34:30Z</time></trkpt>
<trkpt lat="43.0549270000" lon="0.1870970000"><ele>839</ele><time>2026-03-17T07:34:32Z</time></trkpt>
<trkpt lat="43.0549450000" lon="0.1870670000"><ele>839</ele><time>2026-03-17T07:34:34Z</time></trkpt>
<trkpt lat="43.0549620000" lon="0.1870350000"><ele>838</ele><time>2026-03-17T07:34:36Z</time></trkpt>
<trkpt lat="43.0549800000" lon="0.1870070000"><ele>838</ele><time>2026-03-17T07:34:38Z</time></trkpt>
<trkpt lat="43.0549970000" lon="0.1869770000"><ele>838</ele><time>2026-03-17T07:34:40Z</time></trkpt>
<trkpt lat="43.0550150000" lon="0.1869470000"><ele>838</ele><time>2026-03-17T07:34:42Z</time></trkpt>
<trkpt lat="43.0550220000" lon="0.1869170000"><ele>838</ele><time>2026-03-17T07:34:44Z</time></trkpt>
<trkpt lat="43.0550350000" lon="0.1868970000"><ele>837</ele><time>2026-03-17T07:34:46Z</time></trkpt>
<trkpt lat="43.0550500000" lon="0.1868670000"><ele>837</ele><time>2026-03-17T07:34:49Z</time></trkpt>
<trkpt lat="43.0550570000" lon="0.1868320000"><ele>837</ele><time>2026-03-17T07:34:51Z</time></trkpt>
<trkpt lat="43.0550570000" lon="0.1868070000"><ele>837</ele><time>2026-03-17T07:34:52Z</time></trkpt>
<trkpt lat="43.0550670000" lon="0.1867770000"><ele>837</ele><time>2026-03-17T07:34:55Z</time></trkpt>
<trkpt lat="43.0550820000" lon="0.1867570000"><ele>836</ele><time>2026-03-17T07:34:57Z</time></trkpt>
<trkpt lat="43.0551020000" lon="0.1867320000"><ele>836</ele><time>2026-03-17T07:34:59Z</time></trkpt>
<trkpt lat="43.0551200000" lon="0.1867070000"><ele>836</ele><time>2026-03-17T07:35:01Z</time></trkpt>
<trkpt lat="43.0551270000" lon="0.1866820000"><ele>836</ele><time>2026-03-17T07:35:03Z</time></trkpt>
<trkpt lat="43.0551370000" lon="0.1866470000"><ele>836</ele><time>2026-03-17T07:35:05Z</time></trkpt>
<trkpt lat="43.0551420000" lon="0.1866170000"><ele>836</ele><time>2026-03-17T07:35:07Z</time></trkpt>
<trkpt lat="43.0551570000" lon="0.1865870000"><ele>836</ele><time>2026-03-17T07:35:09Z</time></trkpt>
<trkpt lat="43.0551770000" lon="0.1865620000"><ele>836</ele><time>2026-03-17T07:35:11Z</time></trkpt>
<trkpt lat="43.0551850000" lon="0.1865370000"><ele>836</ele><time>2026-03-17T07:35:13Z</time></trkpt>
<trkpt lat="43.0551900000" lon="0.1865100000"><ele>835</ele><time>2026-03-17T07:35:16Z</time></trkpt>
<trkpt lat="43.0552120000" lon="0.1864770000"><ele>836</ele><time>2026-03-17T07:35:19Z</time></trkpt>
<trkpt lat="43.0552300000" lon="0.1864570000"><ele>836</ele><time>2026-03-17T07:35:21Z</time></trkpt>
<trkpt lat="43.0552470000" lon="0.1864270000"><ele>836</ele><time>2026-03-17T07:35:23Z</time></trkpt>
<trkpt lat="43.0552600000" lon="0.1864080000"><ele>835</ele><time>2026-03-17T07:35:24Z</time></trkpt>
<trkpt lat="43.0552750000" lon="0.1863870000"><ele>835</ele><time>2026-03-17T07:35:25Z</time></trkpt>
<trkpt lat="43.0552820000" lon="0.1863520000"><ele>835</ele><time>2026-03-17T07:35:27Z</time></trkpt>
<trkpt lat="43.0552920000" lon="0.1863200000"><ele>835</ele><time>2026-03-17T07:35:29Z</time></trkpt>
<trkpt lat="43.0552920000" lon="0.1862900000"><ele>835</ele><time>2026-03-17T07:35:31Z</time></trkpt>
<trkpt lat="43.0552970000" lon="0.1862570000"><ele>835</ele><time>2026-03-17T07:35:33Z</time></trkpt>
<trkpt lat="43.0553120000" lon="0.1862250000"><ele>835</ele><time>2026-03-17T07:35:35Z</time></trkpt>
<trkpt lat="43.0553200000" lon="0.1861920000"><ele>835</ele><time>2026-03-17T07:35:37Z</time></trkpt>
<trkpt lat="43.0553170000" lon="0.1861570000"><ele>835</ele><time>2026-03-17T07:35:39Z</time></trkpt>
<trkpt lat="43.0553270000" lon="0.1861320000"><ele>834</ele><time>2026-03-17T07:35:41Z</time></trkpt>
<trkpt lat="43.0553420000" lon="0.1861100000"><ele>834</ele><time>2026-03-17T07:35:43Z</time></trkpt>
<trkpt lat="43.0553520000" lon="0.1860820000"><ele>834</ele><time>2026-03-17T07:35:45Z</time></trkpt>
<trkpt lat="43.0553620000" lon="0.1860520000"><ele>834</ele><time>2026-03-17T07:35:47Z</time></trkpt>
<trkpt lat="43.0553770000" lon="0.1860230000"><ele>834</ele><time>2026-03-17T07:35:49Z</time></trkpt>
<trkpt lat="43.0553900000" lon="0.1860020000"><ele>834</ele><time>2026-03-17T07:35:51Z</time></trkpt>
<trkpt lat="43.0553920000" lon="0.1859720000"><ele>834</ele><time>2026-03-17T07:35:53Z</time></trkpt>
<trkpt lat="43.0554020000" lon="0.1859420000"><ele>834</ele><time>2026-03-17T07:35:56Z</time></trkpt>
<trkpt lat="43.0554100000" lon="0.1859170000"><ele>834</ele><time>2026-03-17T07:35:58Z</time></trkpt>
<trkpt lat="43.0554170000" lon="0.1858950000"><ele>834</ele><time>2026-03-17T07:36:00Z</time></trkpt>
<trkpt lat="43.0554270000" lon="0.1858480000"><ele>834</ele><time>2026-03-17T07:36:02Z</time></trkpt>
<trkpt lat="43.0554370000" lon="0.1858270000"><ele>834</ele><time>2026-03-17T07:36:03Z</time></trkpt>
<trkpt lat="43.0554470000" lon="0.1857870000"><ele>834</ele><time>2026-03-17T07:36:05Z</time></trkpt>
<trkpt lat="43.0554670000" lon="0.1857600000"><ele>834</ele><time>2026-03-17T07:36:07Z</time></trkpt>
<trkpt lat="43.0554770000" lon="0.1857270000"><ele>834</ele><time>2026-03-17T07:36:09Z</time></trkpt>
<trkpt lat="43.0554800000" lon="0.1856920000"><ele>834</ele><time>2026-03-17T07:36:11Z</time></trkpt>
<trkpt lat="43.0554800000" lon="0.1856650000"><ele>834</ele><time>2026-03-17T07:36:12Z</time></trkpt>
<trkpt lat="43.0554820000" lon="0.1856280000"><ele>834</ele><time>2026-03-17T07:36:13Z</time></trkpt>
<trkpt lat="43.0554870000" lon="0.1856020000"><ele>834</ele><time>2026-03-17T07:36:15Z</time></trkpt>
<trkpt lat="43.0554970000" lon="0.1855670000"><ele>833</ele><time>2026-03-17T07:36:18Z</time></trkpt>
<trkpt lat="43.0555120000" lon="0.1855450000"><ele>833</ele><time>2026-03-17T07:36:20Z</time></trkpt>
<trkpt lat="43.0555120000" lon="0.1855200000"><ele>833</ele><time>2026-03-17T07:36:22Z</time></trkpt>
<trkpt lat="43.0555220000" lon="0.1854920000"><ele>833</ele><time>2026-03-17T07:36:25Z</time></trkpt>
<trkpt lat="43.0555320000" lon="0.1854670000"><ele>833</ele><time>2026-03-17T07:36:27Z</time></trkpt>
<trkpt lat="43.0555420000" lon="0.1854370000"><ele>833</ele><time>2026-03-17T07:36:30Z</time></trkpt>
<trkpt lat="43.0555420000" lon="0.1854000000"><ele>833</ele><time>2026-03-17T07:36:33Z</time></trkpt>
<trkpt lat="43.0555470000" lon="0.1853700000"><ele>833</ele><time>2026-03-17T07:36:35Z</time></trkpt>
<trkpt lat="43.0555600000" lon="0.1853480000"><ele>832</ele><time>2026-03-17T07:36:37Z</time></trkpt>
<trkpt lat="43.0555720000" lon="0.1853220000"><ele>832</ele><time>2026-03-17T07:36:39Z</time></trkpt>
<trkpt lat="43.0555770000" lon="0.1852930000"><ele>832</ele><time>2026-03-17T07:36:41Z</time></trkpt>
<trkpt lat="43.0555920000" lon="0.1852670000"><ele>832</ele><time>2026-03-17T07:36:43Z</time></trkpt>
<trkpt lat="43.0555970000" lon="0.1852420000"><ele>832</ele><time>2026-03-17T07:36:45Z</time></trkpt>
<trkpt lat="43.0556120000" lon="0.1852070000"><ele>832</ele><time>2026-03-17T07:36:47Z</time></trkpt>
<trkpt lat="43.0556250000" lon="0.1851870000"><ele>832</ele><time>2026-03-17T07:36:48Z</time></trkpt>
<trkpt lat="43.0556270000" lon="0.1851570000"><ele>832</ele><time>2026-03-17T07:36:50Z</time></trkpt>
<trkpt lat="43.0556320000" lon="0.1851220000"><ele>832</ele><time>2026-03-17T07:36:52Z</time></trkpt>
<trkpt lat="43.0556420000" lon="0.1850920000"><ele>832</ele><time>2026-03-17T07:36:54Z</time></trkpt>
<trkpt lat="43.0556500000" lon="0.1850670000"><ele>831</ele><time>2026-03-17T07:36:56Z</time></trkpt>
<trkpt lat="43.0556600000" lon="0.1850420000"><ele>831</ele><time>2026-03-17T07:36:58Z</time></trkpt>
<trkpt lat="43.0556670000" lon="0.1850100000"><ele>831</ele><time>2026-03-17T07:37:00Z</time></trkpt>
<trkpt lat="43.0556670000" lon="0.1849820000"><ele>831</ele><time>2026-03-17T07:37:02Z</time></trkpt>
<trkpt lat="43.0556770000" lon="0.1849470000"><ele>831</ele><time>2026-03-17T07:37:04Z</time></trkpt>
<trkpt lat="43.0556870000" lon="0.1849170000"><ele>831</ele><time>2026-03-17T07:37:06Z</time></trkpt>
<trkpt lat="43.0556920000" lon="0.1848820000"><ele>830</ele><time>2026-03-17T07:37:08Z</time></trkpt>
<trkpt lat="43.0557050000" lon="0.1848570000"><ele>830</ele><time>2026-03-17T07:37:10Z</time></trkpt>
<trkpt lat="43.0557120000" lon="0.1848300000"><ele>830</ele><time>2026-03-17T07:37:12Z</time></trkpt>
<trkpt lat="43.0557150000" lon="0.1847920000"><ele>830</ele><time>2026-03-17T07:37:14Z</time></trkpt>
<trkpt lat="43.0557200000" lon="0.1847570000"><ele>830</ele><time>2026-03-17T07:37:16Z</time></trkpt>
<trkpt lat="43.0557220000" lon="0.1847220000"><ele>829</ele><time>2026-03-17T07:37:18Z</time></trkpt>
<trkpt lat="43.0557270000" lon="0.1846900000"><ele>829</ele><time>2026-03-17T07:37:20Z</time></trkpt>
<trkpt lat="43.0557250000" lon="0.1846500000"><ele>829</ele><time>2026-03-17T07:37:22Z</time></trkpt>
<trkpt lat="43.0557320000" lon="0.1846270000"><ele>829</ele><time>2026-03-17T07:37:24Z</time></trkpt>
<trkpt lat="43.0557370000" lon="0.1845950000"><ele>829</ele><time>2026-03-17T07:37:26Z</time></trkpt>
<trkpt lat="43.0557620000" lon="0.1845670000"><ele>828</ele><time>2026-03-17T07:37:28Z</time></trkpt>
<trkpt lat="43.0557670000" lon="0.1845400000"><ele>828</ele><time>2026-03-17T07:37:30Z</time></trkpt>
<trkpt lat="43.0557650000" lon="0.1845050000"><ele>828</ele><time>2026-03-17T07:37:32Z</time></trkpt>
<trkpt lat="43.0557720000" lon="0.1844670000"><ele>828</ele><time>2026-03-17T07:37:34Z</time></trkpt>
<trkpt lat="43.0557820000" lon="0.1844350000"><ele>827</ele><time>2026-03-17T07:37:37Z</time></trkpt>
<trkpt lat="43.0557820000" lon="0.1844070000"><ele>827</ele><time>2026-03-17T07:37:39Z</time></trkpt>
<trkpt lat="43.0557920000" lon="0.1843670000"><ele>827</ele><time>2026-03-17T07:37:41Z</time></trkpt>
<trkpt lat="43.0557970000" lon="0.1843270000"><ele>827</ele><time>2026-03-17T07:37:43Z</time></trkpt>
<trkpt lat="43.0558120000" lon="0.1843000000"><ele>827</ele><time>2026-03-17T07:37:46Z</time></trkpt>
<trkpt lat="43.0558270000" lon="0.1842820000"><ele>826</ele><time>2026-03-17T07:37:48Z</time></trkpt>
<trkpt lat="43.0558320000" lon="0.1842570000"><ele>826</ele><time>2026-03-17T07:37:50Z</time></trkpt>
<trkpt lat="43.0558370000" lon="0.1842320000"><ele>826</ele><time>2026-03-17T07:37:52Z</time></trkpt>
<trkpt lat="43.0558470000" lon="0.1842020000"><ele>825</ele><time>2026-03-17T07:37:54Z</time></trkpt>
<trkpt lat="43.0558450000" lon="0.1841620000"><ele>825</ele><time>2026-03-17T07:37:56Z</time></trkpt>
<trkpt lat="43.0558450000" lon="0.1841320000"><ele>825</ele><time>2026-03-17T07:37:58Z</time></trkpt>
<trkpt lat="43.0558570000" lon="0.1841070000"><ele>825</ele><time>2026-03-17T07:38:00Z</time></trkpt>
<trkpt lat="43.0558670000" lon="0.1840820000"><ele>824</ele><time>2026-03-17T07:38:02Z</time></trkpt>
<trkpt lat="43.0558820000" lon="0.1840650000"><ele>824</ele><time>2026-03-17T07:38:03Z</time></trkpt>
<trkpt lat="43.0558970000" lon="0.1840370000"><ele>824</ele><time>2026-03-17T07:38:05Z</time></trkpt>
<trkpt lat="43.0559120000" lon="0.1840150000"><ele>823</ele><time>2026-03-17T07:38:07Z</time></trkpt>
<trkpt lat="43.0559220000" lon="0.1839820000"><ele>823</ele><time>2026-03-17T07:38:10Z</time></trkpt>
<trkpt lat="43.0559370000" lon="0.1839600000"><ele>823</ele><time>2026-03-17T07:38:12Z</time></trkpt>
<trkpt lat="43.0559370000" lon="0.1839320000"><ele>822</ele><time>2026-03-17T07:38:14Z</time></trkpt>
<trkpt lat="43.0559470000" lon="0.1839050000"><ele>822</ele><time>2026-03-17T07:38:17Z</time></trkpt>
<trkpt lat="43.0559620000" lon="0.1838800000"><ele>822</ele><time>2026-03-17T07:38:19Z</time></trkpt>
<trkpt lat="43.0559720000" lon="0.1838570000"><ele>821</ele><time>2026-03-17T07:38:21Z</time></trkpt>
<trkpt lat="43.0559700000" lon="0.1838320000"><ele>821</ele><time>2026-03-17T07:38:23Z</time></trkpt>
<trkpt lat="43.0559700000" lon="0.1837970000"><ele>821</ele><time>2026-03-17T07:38:25Z</time></trkpt>
<trkpt lat="43.0559670000" lon="0.1837670000"><ele>820</ele><time>2026-03-17T07:38:27Z</time></trkpt>
<trkpt lat="43.0559700000" lon="0.1837350000"><ele>820</ele><time>2026-03-17T07:38:29Z</time></trkpt>
<trkpt lat="43.0559670000" lon="0.1837050000"><ele>819</ele><time>2026-03-17T07:38:31Z</time></trkpt>
<trkpt lat="43.0559620000" lon="0.1836770000"><ele>819</ele><time>2026-03-17T07:38:33Z</time></trkpt>
<trkpt lat="43.0559670000" lon="0.1836420000"><ele>819</ele><time>2026-03-17T07:38:35Z</time></trkpt>
<trkpt lat="43.0559770000" lon="0.1836120000"><ele>818</ele><time>2026-03-17T07:38:37Z</time></trkpt>
<trkpt lat="43.0559820000" lon="0.1835870000"><ele>818</ele><time>2026-03-17T07:38:39Z</time></trkpt>
<trkpt lat="43.0559850000" lon="0.1835620000"><ele>817</ele><time>2026-03-17T07:38:42Z</time></trkpt>
<trkpt lat="43.0559720000" lon="0.1835370000"><ele>817</ele><time>2026-03-17T07:38:43Z</time></trkpt>
<trkpt lat="43.0559820000" lon="0.1835070000"><ele>817</ele><time>2026-03-17T07:38:45Z</time></trkpt>
<trkpt lat="43.0559850000" lon="0.1834670000"><ele>816</ele><time>2026-03-17T07:38:47Z</time></trkpt>
<trkpt lat="43.0559700000" lon="0.1834520000"><ele>816</ele><time>2026-03-17T07:38:48Z</time></trkpt>
<trkpt lat="43.0559620000" lon="0.1834170000"><ele>816</ele><time>2026-03-17T07:38:50Z</time></trkpt>
<trkpt lat="43.0559620000" lon="0.1833870000"><ele>816</ele><time>2026-03-17T07:38:52Z</time></trkpt>
<trkpt lat="43.0559650000" lon="0.1833570000"><ele>815</ele><time>2026-03-17T07:38:54Z</time></trkpt>
<trkpt lat="43.0559870000" lon="0.1833350000"><ele>815</ele><time>2026-03-17T07:38:56Z</time></trkpt>
<trkpt lat="43.0559900000" lon="0.1833020000"><ele>815</ele><time>2026-03-17T07:38:58Z</time></trkpt>
<trkpt lat="43.0559920000" lon="0.1832720000"><ele>814</ele><time>2026-03-17T07:39:00Z</time></trkpt>
<trkpt lat="43.0560000000" lon="0.1832420000"><ele>814</ele><time>2026-03-17T07:39:02Z</time></trkpt>
<trkpt lat="43.0559900000" lon="0.1832020000"><ele>813</ele><time>2026-03-17T07:39:04Z</time></trkpt>
<trkpt lat="43.0559770000" lon="0.1831650000"><ele>813</ele><time>2026-03-17T07:39:06Z</time></trkpt>
<trkpt lat="43.0559820000" lon="0.1831320000"><ele>813</ele><time>2026-03-17T07:39:08Z</time></trkpt>
<trkpt lat="43.0560000000" lon="0.1830970000"><ele>813</ele><time>2026-03-17T07:39:10Z</time></trkpt>
<trkpt lat="43.0560050000" lon="0.1830620000"><ele>812</ele><time>2026-03-17T07:39:12Z</time></trkpt>
<trkpt lat="43.0560100000" lon="0.1830320000"><ele>812</ele><time>2026-03-17T07:39:15Z</time></trkpt>
<trkpt lat="43.0560070000" lon="0.1830020000"><ele>811</ele><time>2026-03-17T07:39:18Z</time></trkpt>
<trkpt lat="43.0560070000" lon="0.1829670000"><ele>811</ele><time>2026-03-17T07:39:20Z</time></trkpt>
<trkpt lat="43.0560150000" lon="0.1829420000"><ele>811</ele><time>2026-03-17T07:39:22Z</time></trkpt>
<trkpt lat="43.0560150000" lon="0.1829170000"><ele>810</ele><time>2026-03-17T07:39:24Z</time></trkpt>
<trkpt lat="43.0560170000" lon="0.1828900000"><ele>810</ele><time>2026-03-17T07:39:25Z</time></trkpt>
<trkpt lat="43.0560220000" lon="0.1828570000"><ele>810</ele><time>2026-03-17T07:39:26Z</time></trkpt>
<trkpt lat="43.0560250000" lon="0.1828200000"><ele>809</ele><time>2026-03-17T07:39:28Z</time></trkpt>
<trkpt lat="43.0560300000" lon="0.1827920000"><ele>809</ele><time>2026-03-17T07:39:30Z</time></trkpt>
<trkpt lat="43.0560320000" lon="0.1827620000"><ele>808</ele><time>2026-03-17T07:39:32Z</time></trkpt>
<trkpt lat="43.0560250000" lon="0.1827300000"><ele>808</ele><time>2026-03-17T07:39:34Z</time></trkpt>
<trkpt lat="43.0560320000" lon="0.1827050000"><ele>808</ele><time>2026-03-17T07:39:36Z</time></trkpt>
<trkpt lat="43.0560400000" lon="0.1826770000"><ele>807</ele><time>2026-03-17T07:39:38Z</time></trkpt>
<trkpt lat="43.0560520000" lon="0.1826570000"><ele>807</ele><time>2026-03-17T07:39:40Z</time></trkpt>
<trkpt lat="43.0560720000" lon="0.1826400000"><ele>807</ele><time>2026-03-17T07:39:42Z</time></trkpt>
<trkpt lat="43.0561000000" lon="0.1826320000"><ele>807</ele><time>2026-03-17T07:39:44Z</time></trkpt>
<trkpt lat="43.0561130000" lon="0.1826050000"><ele>806</ele><time>2026-03-17T07:39:46Z</time></trkpt>
<trkpt lat="43.0561120000" lon="0.1825670000"><ele>806</ele><time>2026-03-17T07:39:48Z</time></trkpt>
<trkpt lat="43.0561050000" lon="0.1825320000"><ele>806</ele><time>2026-03-17T07:39:50Z</time></trkpt>
<trkpt lat="43.0560950000" lon="0.1824950000"><ele>806</ele><time>2026-03-17T07:39:53Z</time></trkpt>
<trkpt lat="43.0560920000" lon="0.1824620000"><ele>805</ele><time>2026-03-17T07:39:55Z</time></trkpt>
<trkpt lat="43.0560970000" lon="0.1824370000"><ele>805</ele><time>2026-03-17T07:39:57Z</time></trkpt>
<trkpt lat="43.0560920000" lon="0.1824020000"><ele>805</ele><time>2026-03-17T07:39:59Z</time></trkpt>
<trkpt lat="43.0561020000" lon="0.1823700000"><ele>805</ele><time>2026-03-17T07:40:01Z</time></trkpt>
<trkpt lat="43.0561120000" lon="0.1823350000"><ele>805</ele><time>2026-03-17T07:40:03Z</time></trkpt>
<trkpt lat="43.0561170000" lon="0.1823020000"><ele>804</ele><time>2026-03-17T07:40:05Z</time></trkpt>
<trkpt lat="43.0561300000" lon="0.1822720000"><ele>804</ele><time>2026-03-17T07:40:07Z</time></trkpt>
<trkpt lat="43.0561300000" lon="0.1822270000"><ele>804</ele><time>2026-03-17T07:40:09Z</time></trkpt>
<trkpt lat="43.0561370000" lon="0.1821950000"><ele>804</ele><time>2026-03-17T07:40:11Z</time></trkpt>
<trkpt lat="43.0561500000" lon="0.1821620000"><ele>803</ele><time>2026-03-17T07:40:14Z</time></trkpt>
<trkpt lat="43.0561620000" lon="0.1821280000"><ele>803</ele><time>2026-03-17T07:40:17Z</time></trkpt>
<trkpt lat="43.0561670000" lon="0.1821070000"><ele>802</ele><time>2026-03-17T07:40:19Z</time></trkpt>
<trkpt lat="43.0561670000" lon="0.1820770000"><ele>802</ele><time>2026-03-17T07:40:21Z</time></trkpt>
<trkpt lat="43.0561700000" lon="0.1820470000"><ele>801</ele><time>2026-03-17T07:40:23Z</time></trkpt>
<trkpt lat="43.0561770000" lon="0.1820170000"><ele>801</ele><time>2026-03-17T07:40:26Z</time></trkpt>
<trkpt lat="43.0561720000" lon="0.1819850000"><ele>800</ele><time>2026-03-17T07:40:29Z</time></trkpt>
<trkpt lat="43.0561920000" lon="0.1819770000"><ele>799</ele><time>2026-03-17T07:40:54Z</time></trkpt>
<trkpt lat="43.0562120000" lon="0.1819520000"><ele>799</ele><time>2026-03-17T07:40:57Z</time></trkpt>
<trkpt lat="43.0562270000" lon="0.1819370000"><ele>798</ele><time>2026-03-17T07:40:59Z</time></trkpt>
<trkpt lat="43.0562350000" lon="0.1819050000"><ele>798</ele><time>2026-03-17T07:41:01Z</time></trkpt>
<trkpt lat="43.0562420000" lon="0.1818580000"><ele>798</ele><time>2026-03-17T07:41:03Z</time></trkpt>
<trkpt lat="43.0562420000" lon="0.1818330000"><ele>798</ele><time>2026-03-17T07:41:04Z</time></trkpt>
<trkpt lat="43.0562420000" lon="0.1817950000"><ele>797</ele><time>2026-03-17T07:41:06Z</time></trkpt>
<trkpt lat="43.0562470000" lon="0.1817570000"><ele>797</ele><time>2026-03-17T07:41:08Z</time></trkpt>
<trkpt lat="43.0562420000" lon="0.1817920000"><ele>796</ele><time>2026-03-17T07:41:13Z</time></trkpt>
<trkpt lat="43.0562470000" lon="0.1817430000"><ele>796</ele><time>2026-03-17T07:41:57Z</time></trkpt>
<trkpt lat="43.0562550000" lon="0.1816970000"><ele>796</ele><time>2026-03-17T07:41:59Z</time></trkpt>
<trkpt lat="43.0562570000" lon="0.1816600000"><ele>796</ele><time>2026-03-17T07:42:01Z</time></trkpt>
<trkpt lat="43.0562670000" lon="0.1816320000"><ele>795</ele><time>2026-03-17T07:42:03Z</time></trkpt>
<trkpt lat="43.0562820000" lon="0.1816170000"><ele>795</ele><time>2026-03-17T07:42:05Z</time></trkpt>
<trkpt lat="43.0563000000" lon="0.1816020000"><ele>794</ele><time>2026-03-17T07:42:08Z</time></trkpt>
<trkpt lat="43.0563170000" lon="0.1815830000"><ele>794</ele><time>2026-03-17T07:42:11Z</time></trkpt>
<trkpt lat="43.0563250000" lon="0.1815580000"><ele>793</ele><time>2026-03-17T07:42:13Z</time></trkpt>
<trkpt lat="43.0563200000" lon="0.1815170000"><ele>793</ele><time>2026-03-17T07:42:15Z</time></trkpt>
<trkpt lat="43.0563070000" lon="0.1814720000"><ele>792</ele><time>2026-03-17T07:42:17Z</time></trkpt>
<trkpt lat="43.0563020000" lon="0.1814320000"><ele>792</ele><time>2026-03-17T07:42:19Z</time></trkpt>
<trkpt lat="43.0563020000" lon="0.1813970000"><ele>791</ele><time>2026-03-17T07:42:21Z</time></trkpt>
<trkpt lat="43.0563100000" lon="0.1813670000"><ele>791</ele><time>2026-03-17T07:42:23Z</time></trkpt>
<trkpt lat="43.0563120000" lon="0.1813370000"><ele>790</ele><time>2026-03-17T07:42:25Z</time></trkpt>
<trkpt lat="43.0563200000" lon="0.1813120000"><ele>790</ele><time>2026-03-17T07:42:27Z</time></trkpt>
<trkpt lat="43.0563300000" lon="0.1812900000"><ele>789</ele><time>2026-03-17T07:42:29Z</time></trkpt>
<trkpt lat="43.0563350000" lon="0.1812620000"><ele>789</ele><time>2026-03-17T07:42:31Z</time></trkpt>
<trkpt lat="43.0563420000" lon="0.1812300000"><ele>788</ele><time>2026-03-17T07:42:33Z</time></trkpt>
<trkpt lat="43.0563470000" lon="0.1811970000"><ele>788</ele><time>2026-03-17T07:42:35Z</time></trkpt>
<trkpt lat="43.0563600000" lon="0.1811720000"><ele>788</ele><time>2026-03-17T07:42:37Z</time></trkpt>
<trkpt lat="43.0563770000" lon="0.1811470000"><ele>787</ele><time>2026-03-17T07:42:39Z</time></trkpt>
<trkpt lat="43.0563870000" lon="0.1811250000"><ele>787</ele><time>2026-03-17T07:42:41Z</time></trkpt>
<trkpt lat="43.0563820000" lon="0.1810920000"><ele>786</ele><time>2026-03-17T07:42:43Z</time></trkpt>
<trkpt lat="43.0563920000" lon="0.1810620000"><ele>786</ele><time>2026-03-17T07:42:46Z</time></trkpt>
<trkpt lat="43.0564120000" lon="0.1810470000"><ele>785</ele><time>2026-03-17T07:42:48Z</time></trkpt>
<trkpt lat="43.0564170000" lon="0.1810180000"><ele>785</ele><time>2026-03-17T07:42:50Z</time></trkpt>
<trkpt lat="43.0564150000" lon="0.1809920000"><ele>785</ele><time>2026-03-17T07:42:52Z</time></trkpt>
<trkpt lat="43.0564220000" lon="0.1809620000"><ele>784</ele><time>2026-03-17T07:42:54Z</time></trkpt>
<trkpt lat="43.0564300000" lon="0.1809320000"><ele>784</ele><time>2026-03-17T07:42:56Z</time></trkpt>
<trkpt lat="43.0564400000" lon="0.1809020000"><ele>784</ele><time>2026-03-17T07:42:58Z</time></trkpt>
<trkpt lat="43.0564420000" lon="0.1808720000"><ele>783</ele><time>2026-03-17T07:43:00Z</time></trkpt>
<trkpt lat="43.0564520000" lon="0.1808470000"><ele>783</ele><time>2026-03-17T07:43:02Z</time></trkpt>
<trkpt lat="43.0564700000" lon="0.1808320000"><ele>782</ele><time>2026-03-17T07:43:05Z</time></trkpt>
<trkpt lat="43.0564770000" lon="0.1807970000"><ele>782</ele><time>2026-03-17T07:43:08Z</time></trkpt>
<trkpt lat="43.0564800000" lon="0.1807680000"><ele>781</ele><time>2026-03-17T07:43:11Z</time></trkpt>
<trkpt lat="43.0564820000" lon="0.1807400000"><ele>780</ele><time>2026-03-17T07:43:15Z</time></trkpt>
<trkpt lat="43.0564700000" lon="0.1807180000"><ele>779</ele><time>2026-03-17T07:43:21Z</time></trkpt>
<trkpt lat="43.0564720000" lon="0.1806920000"><ele>779</ele><time>2026-03-17T07:43:25Z</time></trkpt>
<trkpt lat="43.0564820000" lon="0.1806620000"><ele>778</ele><time>2026-03-17T07:43:27Z</time></trkpt>
<trkpt lat="43.0564820000" lon="0.1806300000"><ele>778</ele><time>2026-03-17T07:43:29Z</time></trkpt>
<trkpt lat="43.0564700000" lon="0.1806070000"><ele>777</ele><time>2026-03-17T07:43:31Z</time></trkpt>
<trkpt lat="43.0564520000" lon="0.1805920000"><ele>777</ele><time>2026-03-17T07:43:34Z</time></trkpt>
<trkpt lat="43.0564270000" lon="0.1805770000"><ele>776</ele><time>2026-03-17T07:43:38Z</time></trkpt>
<trkpt lat="43.0564170000" lon="0.1805520000"><ele>776</ele><time>2026-03-17T07:43:40Z</time></trkpt>
<trkpt lat="43.0564100000" lon="0.1805070000"><ele>776</ele><time>2026-03-17T07:43:42Z</time></trkpt>
<trkpt lat="43.0564070000" lon="0.1804800000"><ele>775</ele><time>2026-03-17T07:43:44Z</time></trkpt>
<trkpt lat="43.0564300000" lon="0.1804870000"><ele>775</ele><time>2026-03-17T07:43:50Z</time></trkpt>
<trkpt lat="43.0564470000" lon="0.1804720000"><ele>775</ele><time>2026-03-17T07:43:53Z</time></trkpt>
<trkpt lat="43.0564750000" lon="0.1804600000"><ele>774</ele><time>2026-03-17T07:44:07Z</time></trkpt>
<trkpt lat="43.0564970000" lon="0.1804350000"><ele>774</ele><time>2026-03-17T07:44:09Z</time></trkpt>
<trkpt lat="43.0565170000" lon="0.1804120000"><ele>773</ele><time>2026-03-17T07:44:11Z</time></trkpt>
<trkpt lat="43.0565300000" lon="0.1803950000"><ele>773</ele><time>2026-03-17T07:44:13Z</time></trkpt>
<trkpt lat="43.0565420000" lon="0.1803720000"><ele>772</ele><time>2026-03-17T07:44:15Z</time></trkpt>
<trkpt lat="43.0565550000" lon="0.1803520000"><ele>772</ele><time>2026-03-17T07:44:17Z</time></trkpt>
<trkpt lat="43.0565620000" lon="0.1803270000"><ele>771</ele><time>2026-03-17T07:44:19Z</time></trkpt>
<trkpt lat="43.0565720000" lon="0.1803020000"><ele>771</ele><time>2026-03-17T07:44:21Z</time></trkpt>
<trkpt lat="43.0565770000" lon="0.1802620000"><ele>770</ele><time>2026-03-17T07:44:24Z</time></trkpt>
<trkpt lat="43.0565950000" lon="0.1802370000"><ele>770</ele><time>2026-03-17T07:44:27Z</time></trkpt>
<trkpt lat="43.0566070000" lon="0.1802170000"><ele>769</ele><time>2026-03-17T07:44:29Z</time></trkpt>
<trkpt lat="43.0566220000" lon="0.1801970000"><ele>769</ele><time>2026-03-17T07:44:31Z</time></trkpt>
<trkpt lat="43.0566320000" lon="0.1801720000"><ele>769</ele><time>2026-03-17T07:44:33Z</time></trkpt>
<trkpt lat="43.0566320000" lon="0.1801400000"><ele>768</ele><time>2026-03-17T07:44:36Z</time></trkpt>
<trkpt lat="43.0566220000" lon="0.1801150000"><ele>767</ele><time>2026-03-17T07:44:44Z</time></trkpt>
<trkpt lat="43.0566350000" lon="0.1800700000"><ele>766</ele><time>2026-03-17T07:44:47Z</time></trkpt>
<trkpt lat="43.0566470000" lon="0.1800420000"><ele>766</ele><time>2026-03-17T07:44:49Z</time></trkpt>
<trkpt lat="43.0566480000" lon="0.1800020000"><ele>766</ele><time>2026-03-17T07:44:51Z</time></trkpt>
<trkpt lat="43.0566420000" lon="0.1799770000"><ele>766</ele><time>2026-03-17T07:44:52Z</time></trkpt>
<trkpt lat="43.0566320000" lon="0.1799520000"><ele>765</ele><time>2026-03-17T07:44:53Z</time></trkpt>
<trkpt lat="43.0566120000" lon="0.1799320000"><ele>765</ele><time>2026-03-17T07:44:55Z</time></trkpt>
<trkpt lat="43.0566070000" lon="0.1798930000"><ele>764</ele><time>2026-03-17T07:44:57Z</time></trkpt>
<trkpt lat="43.0566020000" lon="0.1798620000"><ele>764</ele><time>2026-03-17T07:44:59Z</time></trkpt>
<trkpt lat="43.0565870000" lon="0.1798400000"><ele>763</ele><time>2026-03-17T07:45:02Z</time></trkpt>
<trkpt lat="43.0565700000" lon="0.1798270000"><ele>763</ele><time>2026-03-17T07:45:04Z</time></trkpt>
<trkpt lat="43.0565650000" lon="0.1798020000"><ele>762</ele><time>2026-03-17T07:45:06Z</time></trkpt>
<trkpt lat="43.0565780000" lon="0.1797720000"><ele>762</ele><time>2026-03-17T07:45:08Z</time></trkpt>
<trkpt lat="43.0565950000" lon="0.1797470000"><ele>762</ele><time>2026-03-17T07:45:10Z</time></trkpt>
<trkpt lat="43.0566170000" lon="0.1797250000"><ele>762</ele><time>2026-03-17T07:45:12Z</time></trkpt>
<trkpt lat="43.0566350000" lon="0.1797020000"><ele>761</ele><time>2026-03-17T07:45:14Z</time></trkpt>
<trkpt lat="43.0566520000" lon="0.1796720000"><ele>761</ele><time>2026-03-17T07:45:16Z</time></trkpt>
<trkpt lat="43.0566620000" lon="0.1796370000"><ele>761</ele><time>2026-03-17T07:45:18Z</time></trkpt>
<trkpt lat="43.0566770000" lon="0.1795950000"><ele>760</ele><time>2026-03-17T07:45:20Z</time></trkpt>
<trkpt lat="43.0566870000" lon="0.1795570000"><ele>760</ele><time>2026-03-17T07:45:22Z</time></trkpt>
<trkpt lat="43.0567050000" lon="0.1795270000"><ele>760</ele><time>2026-03-17T07:45:24Z</time></trkpt>
<trkpt lat="43.0567170000" lon="0.1795070000"><ele>759</ele><time>2026-03-17T07:45:26Z</time></trkpt>
<trkpt lat="43.0567350000" lon="0.1794770000"><ele>759</ele><time>2026-03-17T07:45:29Z</time></trkpt>
<trkpt lat="43.0567470000" lon="0.1794520000"><ele>759</ele><time>2026-03-17T07:45:33Z</time></trkpt>
<trkpt lat="43.0567650000" lon="0.1794170000"><ele>758</ele><time>2026-03-17T07:45:35Z</time></trkpt>
<trkpt lat="43.0567670000" lon="0.1793830000"><ele>758</ele><time>2026-03-17T07:45:37Z</time></trkpt>
<trkpt lat="43.0567750000" lon="0.1793500000"><ele>758</ele><time>2026-03-17T07:45:40Z</time></trkpt>
<trkpt lat="43.0567870000" lon="0.1793200000"><ele>758</ele><time>2026-03-17T07:45:43Z</time></trkpt>
<trkpt lat="43.0567970000" lon="0.1792920000"><ele>757</ele><time>2026-03-17T07:45:45Z</time></trkpt>
<trkpt lat="43.0568070000" lon="0.1792670000"><ele>757</ele><time>2026-03-17T07:45:47Z</time></trkpt>
<trkpt lat="43.0568200000" lon="0.1792420000"><ele>757</ele><time>2026-03-17T07:45:49Z</time></trkpt>
<trkpt lat="43.0568270000" lon="0.1792170000"><ele>756</ele><time>2026-03-17T07:45:51Z</time></trkpt>
<trkpt lat="43.0568450000" lon="0.1791970000"><ele>756</ele><time>2026-03-17T07:45:54Z</time></trkpt>
<trkpt lat="43.0568700000" lon="0.1791870000"><ele>755</ele><time>2026-03-17T07:45:57Z</time></trkpt>
<trkpt lat="43.0569000000" lon="0.1791820000"><ele>755</ele><time>2026-03-17T07:45:59Z</time></trkpt>
<trkpt lat="43.0569220000" lon="0.1791670000"><ele>755</ele><time>2026-03-17T07:46:03Z</time></trkpt>
<trkpt lat="43.0569420000" lon="0.1791450000"><ele>754</ele><time>2026-03-17T07:46:05Z</time></trkpt>
<trkpt lat="43.0569550000" lon="0.1791150000"><ele>754</ele><time>2026-03-17T07:46:07Z</time></trkpt>
<trkpt lat="43.0569670000" lon="0.1790770000"><ele>754</ele><time>2026-03-17T07:46:09Z</time></trkpt>
<trkpt lat="43.0569900000" lon="0.1790450000"><ele>753</ele><time>2026-03-17T07:46:11Z</time></trkpt>
<trkpt lat="43.0570070000" lon="0.1790170000"><ele>753</ele><time>2026-03-17T07:46:13Z</time></trkpt>
<trkpt lat="43.0570280000" lon="0.1789820000"><ele>753</ele><time>2026-03-17T07:46:15Z</time></trkpt>
<trkpt lat="43.0570470000" lon="0.1789500000"><ele>752</ele><time>2026-03-17T07:46:17Z</time></trkpt>
<trkpt lat="43.0570670000" lon="0.1789230000"><ele>752</ele><time>2026-03-17T07:46:19Z</time></trkpt>
<trkpt lat="43.0570870000" lon="0.1789050000"><ele>752</ele><time>2026-03-17T07:46:21Z</time></trkpt>
<trkpt lat="43.0571020000" lon="0.1788870000"><ele>751</ele><time>2026-03-17T07:46:23Z</time></trkpt>
<trkpt lat="43.0571120000" lon="0.1788670000"><ele>751</ele><time>2026-03-17T07:46:25Z</time></trkpt>
<trkpt lat="43.0571220000" lon="0.1788420000"><ele>751</ele><time>2026-03-17T07:46:27Z</time></trkpt>
<trkpt lat="43.0571320000" lon="0.1788170000"><ele>750</ele><time>2026-03-17T07:46:30Z</time></trkpt>
<trkpt lat="43.0571370000" lon="0.1787900000"><ele>750</ele><time>2026-03-17T07:46:32Z</time></trkpt>
<trkpt lat="43.0571500000" lon="0.1787700000"><ele>750</ele><time>2026-03-17T07:46:35Z</time></trkpt>
<trkpt lat="43.0571620000" lon="0.1787470000"><ele>750</ele><time>2026-03-17T07:46:37Z</time></trkpt>
<trkpt lat="43.0571750000" lon="0.1787250000"><ele>749</ele><time>2026-03-17T07:46:39Z</time></trkpt>
<trkpt lat="43.0571900000" lon="0.1787100000"><ele>749</ele><time>2026-03-17T07:46:41Z</time></trkpt>
<trkpt lat="43.0572020000" lon="0.1786880000"><ele>749</ele><time>2026-03-17T07:46:43Z</time></trkpt>
<trkpt lat="43.0572170000" lon="0.1786670000"><ele>749</ele><time>2026-03-17T07:46:45Z</time></trkpt>
<trkpt lat="43.0572270000" lon="0.1786420000"><ele>748</ele><time>2026-03-17T07:46:47Z</time></trkpt>
<trkpt lat="43.0572450000" lon="0.1786150000"><ele>748</ele><time>2026-03-17T07:46:50Z</time></trkpt>
<trkpt lat="43.0572600000" lon="0.1785950000"><ele>748</ele><time>2026-03-17T07:46:52Z</time></trkpt>
<trkpt lat="43.0572770000" lon="0.1785770000"><ele>748</ele><time>2026-03-17T07:46:56Z</time></trkpt>
<trkpt lat="43.0572900000" lon="0.1785570000"><ele>747</ele><time>2026-03-17T07:46:58Z</time></trkpt>
<trkpt lat="43.0573020000" lon="0.1785320000"><ele>747</ele><time>2026-03-17T07:47:00Z</time></trkpt>
<trkpt lat="43.0573170000" lon="0.1785020000"><ele>747</ele><time>2026-03-17T07:47:03Z</time></trkpt>
<trkpt lat="43.0573020000" lon="0.1785220000"><ele>747</ele><time>2026-03-17T07:47:12Z</time></trkpt>
<trkpt lat="43.0573220000" lon="0.1785070000"><ele>747</ele><time>2026-03-17T07:47:25Z</time></trkpt>
<trkpt lat="43.0573420000" lon="0.1785030000"><ele>747</ele><time>2026-03-17T07:47:29Z</time></trkpt>
<trkpt lat="43.0573250000" lon="0.1785200000"><ele>747</ele><time>2026-03-17T07:47:51Z</time></trkpt>
<trkpt lat="43.0573170000" lon="0.1785530000"><ele>746</ele><time>2026-03-17T07:48:03Z</time></trkpt>
<trkpt lat="43.0572920000" lon="0.1785670000"><ele>746</ele><time>2026-03-17T07:48:05Z</time></trkpt>
<trkpt lat="43.0572650000" lon="0.1785720000"><ele>746</ele><time>2026-03-17T07:48:07Z</time></trkpt>
<trkpt lat="43.0572420000" lon="0.1785770000"><ele>746</ele><time>2026-03-17T07:48:09Z</time></trkpt>
<trkpt lat="43.0572170000" lon="0.1785920000"><ele>746</ele><time>2026-03-17T07:48:12Z</time></trkpt>
<trkpt lat="43.0571970000" lon="0.1786070000"><ele>746</ele><time>2026-03-17T07:48:16Z</time></trkpt>
<trkpt lat="43.0571800000" lon="0.1786170000"><ele>747</ele><time>2026-03-17T07:48:20Z</time></trkpt>
<trkpt lat="43.0571650000" lon="0.1785950000"><ele>747</ele><time>2026-03-17T07:48:24Z</time></trkpt>
<trkpt lat="43.0571520000" lon="0.1785700000"><ele>747</ele><time>2026-03-17T07:48:28Z</time></trkpt>
<trkpt lat="43.0571300000" lon="0.1785870000"><ele>747</ele><time>2026-03-17T07:48:37Z</time></trkpt>
<trkpt lat="43.0571050000" lon="0.1786050000"><ele>747</ele><time>2026-03-17T07:48:39Z</time></trkpt>
<trkpt lat="43.0570770000" lon="0.1786220000"><ele>747</ele><time>2026-03-17T07:48:41Z</time></trkpt>
<trkpt lat="43.0570520000" lon="0.1786550000"><ele>747</ele><time>2026-03-17T07:48:43Z</time></trkpt>
<trkpt lat="43.0570400000" lon="0.1786850000"><ele>747</ele><time>2026-03-17T07:48:44Z</time></trkpt>
<trkpt lat="43.0570470000" lon="0.1787100000"><ele>747</ele><time>2026-03-17T07:48:47Z</time></trkpt>
<trkpt lat="43.0570350000" lon="0.1787450000"><ele>748</ele><time>2026-03-17T07:49:07Z</time></trkpt>
<trkpt lat="43.0570100000" lon="0.1787730000"><ele>748</ele><time>2026-03-17T07:49:09Z</time></trkpt>
<trkpt lat="43.0569820000" lon="0.1787970000"><ele>748</ele><time>2026-03-17T07:49:11Z</time></trkpt>
<trkpt lat="43.0569620000" lon="0.1788170000"><ele>748</ele><time>2026-03-17T07:49:13Z</time></trkpt>
<trkpt lat="43.0569470000" lon="0.1788420000"><ele>748</ele><time>2026-03-17T07:49:15Z</time></trkpt>
<trkpt lat="43.0569270000" lon="0.1788620000"><ele>748</ele><time>2026-03-17T07:49:17Z</time></trkpt>
<trkpt lat="43.0569070000" lon="0.1788870000"><ele>748</ele><time>2026-03-17T07:49:19Z</time></trkpt>
<trkpt lat="43.0568870000" lon="0.1789000000"><ele>748</ele><time>2026-03-17T07:49:21Z</time></trkpt>
<trkpt lat="43.0568620000" lon="0.1789170000"><ele>749</ele><time>2026-03-17T07:49:23Z</time></trkpt>
<trkpt lat="43.0568500000" lon="0.1789370000"><ele>749</ele><time>2026-03-17T07:49:25Z</time></trkpt>
<trkpt lat="43.0568400000" lon="0.1789600000"><ele>750</ele><time>2026-03-17T07:49:35Z</time></trkpt>
<trkpt lat="43.0568170000" lon="0.1789850000"><ele>749</ele><time>2026-03-17T07:49:37Z</time></trkpt>
<trkpt lat="43.0568000000" lon="0.1790150000"><ele>749</ele><time>2026-03-17T07:49:39Z</time></trkpt>
<trkpt lat="43.0567770000" lon="0.1790420000"><ele>749</ele><time>2026-03-17T07:49:41Z</time></trkpt>
<trkpt lat="43.0567620000" lon="0.1790620000"><ele>749</ele><time>2026-03-17T07:49:43Z</time></trkpt>
<trkpt lat="43.0567370000" lon="0.1790920000"><ele>749</ele><time>2026-03-17T07:49:45Z</time></trkpt>
<trkpt lat="43.0567170000" lon="0.1791120000"><ele>749</ele><time>2026-03-17T07:49:47Z</time></trkpt>
<trkpt lat="43.0567000000" lon="0.1791220000"><ele>749</ele><time>2026-03-17T07:49:49Z</time></trkpt>
<trkpt lat="43.0566820000" lon="0.1791320000"><ele>750</ele><time>2026-03-17T07:49:51Z</time></trkpt>
<trkpt lat="43.0566570000" lon="0.1791500000"><ele>750</ele><time>2026-03-17T07:49:53Z</time></trkpt>
<trkpt lat="43.0566350000" lon="0.1791820000"><ele>750</ele><time>2026-03-17T07:49:55Z</time></trkpt>
<trkpt lat="43.0566270000" lon="0.1792070000"><ele>750</ele><time>2026-03-17T07:49:56Z</time></trkpt>
<trkpt lat="43.0566070000" lon="0.1792350000"><ele>750</ele><time>2026-03-17T07:49:58Z</time></trkpt>
<trkpt lat="43.0565920000" lon="0.1792570000"><ele>750</ele><time>2026-03-17T07:50:00Z</time></trkpt>
<trkpt lat="43.0565670000" lon="0.1792850000"><ele>750</ele><time>2026-03-17T07:50:02Z</time></trkpt>
<trkpt lat="43.0565500000" lon="0.1793120000"><ele>750</ele><time>2026-03-17T07:50:04Z</time></trkpt>
<trkpt lat="43.0565350000" lon="0.1793370000"><ele>751</ele><time>2026-03-17T07:50:06Z</time></trkpt>
<trkpt lat="43.0565220000" lon="0.1793670000"><ele>751</ele><time>2026-03-17T07:50:09Z</time></trkpt>
<trkpt lat="43.0565120000" lon="0.1794020000"><ele>751</ele><time>2026-03-17T07:50:11Z</time></trkpt>
<trkpt lat="43.0564920000" lon="0.1794250000"><ele>751</ele><time>2026-03-17T07:50:13Z</time></trkpt>
<trkpt lat="43.0564670000" lon="0.1794470000"><ele>751</ele><time>2026-03-17T07:50:15Z</time></trkpt>
<trkpt lat="43.0564500000" lon="0.1794720000"><ele>751</ele><time>2026-03-17T07:50:17Z</time></trkpt>
<trkpt lat="43.0564300000" lon="0.1794980000"><ele>751</ele><time>2026-03-17T07:50:19Z</time></trkpt>
<trkpt lat="43.0564070000" lon="0.1795120000"><ele>751</ele><time>2026-03-17T07:50:21Z</time></trkpt>
<trkpt lat="43.0563870000" lon="0.1795320000"><ele>751</ele><time>2026-03-17T07:50:23Z</time></trkpt>
<trkpt lat="43.0563720000" lon="0.1795570000"><ele>751</ele><time>2026-03-17T07:50:25Z</time></trkpt>
<trkpt lat="43.0563520000" lon="0.1795750000"><ele>751</ele><time>2026-03-17T07:50:27Z</time></trkpt>
<trkpt lat="43.0563420000" lon="0.1796070000"><ele>751</ele><time>2026-03-17T07:50:29Z</time></trkpt>
<trkpt lat="43.0563200000" lon="0.1796370000"><ele>750</ele><time>2026-03-17T07:50:31Z</time></trkpt>
<trkpt lat="43.0563050000" lon="0.1796570000"><ele>750</ele><time>2026-03-17T07:50:32Z</time></trkpt>
<trkpt lat="43.0562800000" lon="0.1796820000"><ele>750</ele><time>2026-03-17T07:50:34Z</time></trkpt>
<trkpt lat="43.0562650000" lon="0.1797120000"><ele>750</ele><time>2026-03-17T07:50:36Z</time></trkpt>
<trkpt lat="43.0562450000" lon="0.1797420000"><ele>750</ele><time>2026-03-17T07:50:38Z</time></trkpt>
<trkpt lat="43.0562250000" lon="0.1797670000"><ele>750</ele><time>2026-03-17T07:50:40Z</time></trkpt>
<trkpt lat="43.0562070000" lon="0.1797900000"><ele>750</ele><time>2026-03-17T07:50:42Z</time></trkpt>
<trkpt lat="43.0561950000" lon="0.1798150000"><ele>750</ele><time>2026-03-17T07:50:44Z</time></trkpt>
<trkpt lat="43.0561800000" lon="0.1798400000"><ele>750</ele><time>2026-03-17T07:50:46Z</time></trkpt>
<trkpt lat="43.0561670000" lon="0.1798600000"><ele>750</ele><time>2026-03-17T07:50:48Z</time></trkpt>
<trkpt lat="43.0561500000" lon="0.1798870000"><ele>750</ele><time>2026-03-17T07:50:50Z</time></trkpt>
<trkpt lat="43.0561320000" lon="0.1799080000"><ele>750</ele><time>2026-03-17T07:50:52Z</time></trkpt>
<trkpt lat="43.0561130000" lon="0.1799220000"><ele>750</ele><time>2026-03-17T07:50:54Z</time></trkpt>
<trkpt lat="43.0560920000" lon="0.1799450000"><ele>750</ele><time>2026-03-17T07:50:56Z</time></trkpt>
<trkpt lat="43.0560720000" lon="0.1799800000"><ele>750</ele><time>2026-03-17T07:50:58Z</time></trkpt>
<trkpt lat="43.0560550000" lon="0.1799950000"><ele>750</ele><time>2026-03-17T07:50:59Z</time></trkpt>
<trkpt lat="43.0560320000" lon="0.1800000000"><ele>750</ele><time>2026-03-17T07:51:00Z</time></trkpt>
<trkpt lat="43.0560200000" lon="0.1800370000"><ele>750</ele><time>2026-03-17T07:51:02Z</time></trkpt>
<trkpt lat="43.0560220000" lon="0.1800650000"><ele>750</ele><time>2026-03-17T07:51:03Z</time></trkpt>
<trkpt lat="43.0560170000" lon="0.1801020000"><ele>750</ele><time>2026-03-17T07:51:06Z</time></trkpt>
<trkpt lat="43.0560020000" lon="0.1801220000"><ele>749</ele><time>2026-03-17T07:51:08Z</time></trkpt>
<trkpt lat="43.0559820000" lon="0.1801400000"><ele>749</ele><time>2026-03-17T07:51:10Z</time></trkpt>
<trkpt lat="43.0559550000" lon="0.1801620000"><ele>749</ele><time>2026-03-17T07:51:12Z</time></trkpt>
<trkpt lat="43.0559270000" lon="0.1801770000"><ele>749</ele><time>2026-03-17T07:51:14Z</time></trkpt>
<trkpt lat="43.0559100000" lon="0.1802070000"><ele>749</ele><time>2026-03-17T07:51:16Z</time></trkpt>
<trkpt lat="43.0558920000" lon="0.1802320000"><ele>749</ele><time>2026-03-17T07:51:18Z</time></trkpt>
<trkpt lat="43.0558750000" lon="0.1802520000"><ele>749</ele><time>2026-03-17T07:51:20Z</time></trkpt>
<trkpt lat="43.0558450000" lon="0.1802670000"><ele>749</ele><time>2026-03-17T07:51:22Z</time></trkpt>
<trkpt lat="43.0558180000" lon="0.1802800000"><ele>749</ele><time>2026-03-17T07:51:24Z</time></trkpt>
<trkpt lat="43.0557970000" lon="0.1802970000"><ele>749</ele><time>2026-03-17T07:51:26Z</time></trkpt>
<trkpt lat="43.0557820000" lon="0.1803330000"><ele>749</ele><time>2026-03-17T07:51:29Z</time></trkpt>
<trkpt lat="43.0557670000" lon="0.1803570000"><ele>749</ele><time>2026-03-17T07:51:31Z</time></trkpt>
<trkpt lat="43.0557570000" lon="0.1803900000"><ele>749</ele><time>2026-03-17T07:51:33Z</time></trkpt>
<trkpt lat="43.0557420000" lon="0.1804270000"><ele>749</ele><time>2026-03-17T07:51:35Z</time></trkpt>
<trkpt lat="43.0557320000" lon="0.1804630000"><ele>749</ele><time>2026-03-17T07:51:37Z</time></trkpt>
<trkpt lat="43.0557170000" lon="0.1804920000"><ele>749</ele><time>2026-03-17T07:51:39Z</time></trkpt>
<trkpt lat="43.0557070000" lon="0.1805250000"><ele>749</ele><time>2026-03-17T07:51:41Z</time></trkpt>
<trkpt lat="43.0556920000" lon="0.1805520000"><ele>749</ele><time>2026-03-17T07:51:44Z</time></trkpt>
<trkpt lat="43.0556770000" lon="0.1805770000"><ele>749</ele><time>2026-03-17T07:51:46Z</time></trkpt>
<trkpt lat="43.0556620000" lon="0.1806070000"><ele>749</ele><time>2026-03-17T07:51:48Z</time></trkpt>
<trkpt lat="43.0556500000" lon="0.1806420000"><ele>749</ele><time>2026-03-17T07:51:50Z</time></trkpt>
<trkpt lat="43.0556250000" lon="0.1806720000"><ele>749</ele><time>2026-03-17T07:51:52Z</time></trkpt>
<trkpt lat="43.0556050000" lon="0.1806900000"><ele>748</ele><time>2026-03-17T07:51:54Z</time></trkpt>
<trkpt lat="43.0555920000" lon="0.1807170000"><ele>748</ele><time>2026-03-17T07:51:56Z</time></trkpt>
<trkpt lat="43.0555820000" lon="0.1807550000"><ele>748</ele><time>2026-03-17T07:51:58Z</time></trkpt>
<trkpt lat="43.0555750000" lon="0.1807770000"><ele>748</ele><time>2026-03-17T07:52:00Z</time></trkpt>
<trkpt lat="43.0555520000" lon="0.1807970000"><ele>748</ele><time>2026-03-17T07:52:02Z</time></trkpt>
<trkpt lat="43.0555320000" lon="0.1808050000"><ele>748</ele><time>2026-03-17T07:52:03Z</time></trkpt>
<trkpt lat="43.0555120000" lon="0.1808270000"><ele>748</ele><time>2026-03-17T07:52:05Z</time></trkpt>
<trkpt lat="43.0554950000" lon="0.1808570000"><ele>748</ele><time>2026-03-17T07:52:07Z</time></trkpt>
<trkpt lat="43.0554820000" lon="0.1808870000"><ele>748</ele><time>2026-03-17T07:52:09Z</time></trkpt>
<trkpt lat="43.0554650000" lon="0.1809130000"><ele>748</ele><time>2026-03-17T07:52:11Z</time></trkpt>
<trkpt lat="43.0554450000" lon="0.1809370000"><ele>748</ele><time>2026-03-17T07:52:13Z</time></trkpt>
<trkpt lat="43.0554220000" lon="0.1809620000"><ele>748</ele><time>2026-03-17T07:52:15Z</time></trkpt>
<trkpt lat="43.0554050000" lon="0.1809820000"><ele>748</ele><time>2026-03-17T07:52:17Z</time></trkpt>
<trkpt lat="43.0553870000" lon="0.1810100000"><ele>748</ele><time>2026-03-17T07:52:19Z</time></trkpt>
<trkpt lat="43.0553670000" lon="0.1810320000"><ele>748</ele><time>2026-03-17T07:52:21Z</time></trkpt>
<trkpt lat="43.0553470000" lon="0.1810470000"><ele>748</ele><time>2026-03-17T07:52:23Z</time></trkpt>
<trkpt lat="43.0553300000" lon="0.1810650000"><ele>748</ele><time>2026-03-17T07:52:25Z</time></trkpt>
<trkpt lat="43.0553070000" lon="0.1810770000"><ele>748</ele><time>2026-03-17T07:52:27Z</time></trkpt>
<trkpt lat="43.0552800000" lon="0.1810970000"><ele>748</ele><time>2026-03-17T07:52:29Z</time></trkpt>
<trkpt lat="43.0552570000" lon="0.1811170000"><ele>748</ele><time>2026-03-17T07:52:31Z</time></trkpt>
<trkpt lat="43.0552370000" lon="0.1811330000"><ele>748</ele><time>2026-03-17T07:52:33Z</time></trkpt>
<trkpt lat="43.0552130000" lon="0.1811570000"><ele>748</ele><time>2026-03-17T07:52:35Z</time></trkpt>
<trkpt lat="43.0552020000" lon="0.1811820000"><ele>748</ele><time>2026-03-17T07:52:37Z</time></trkpt>
<trkpt lat="43.0551850000" lon="0.1812020000"><ele>748</ele><time>2026-03-17T07:52:39Z</time></trkpt>
<trkpt lat="43.0551620000" lon="0.1812200000"><ele>748</ele><time>2026-03-17T07:52:41Z</time></trkpt>
<trkpt lat="43.0551370000" lon="0.1812470000"><ele>748</ele><time>2026-03-17T07:52:43Z</time></trkpt>
<trkpt lat="43.0551170000" lon="0.1812820000"><ele>748</ele><time>2026-03-17T07:52:45Z</time></trkpt>
<trkpt lat="43.0550970000" lon="0.1813070000"><ele>748</ele><time>2026-03-17T07:52:47Z</time></trkpt>
<trkpt lat="43.0550820000" lon="0.1813280000"><ele>747</ele><time>2026-03-17T07:52:49Z</time></trkpt>
<trkpt lat="43.0550620000" lon="0.1813520000"><ele>747</ele><time>2026-03-17T07:52:51Z</time></trkpt>
<trkpt lat="43.0550470000" lon="0.1813920000"><ele>747</ele><time>2026-03-17T07:52:53Z</time></trkpt>
<trkpt lat="43.0550320000" lon="0.1814250000"><ele>747</ele><time>2026-03-17T07:52:56Z</time></trkpt>
<trkpt lat="43.0550120000" lon="0.1814420000"><ele>747</ele><time>2026-03-17T07:52:58Z</time></trkpt>
<trkpt lat="43.0549920000" lon="0.1814670000"><ele>747</ele><time>2026-03-17T07:53:01Z</time></trkpt>
<trkpt lat="43.0549770000" lon="0.1814970000"><ele>747</ele><time>2026-03-17T07:53:03Z</time></trkpt>
<trkpt lat="43.0549620000" lon="0.1815220000"><ele>747</ele><time>2026-03-17T07:53:05Z</time></trkpt>
<trkpt lat="43.0549470000" lon="0.1815480000"><ele>747</ele><time>2026-03-17T07:53:07Z</time></trkpt>
<trkpt lat="43.0549320000" lon="0.1815720000"><ele>747</ele><time>2026-03-17T07:53:09Z</time></trkpt>
<trkpt lat="43.0549200000" lon="0.1815970000"><ele>746</ele><time>2026-03-17T07:53:11Z</time></trkpt>
<trkpt lat="43.0549070000" lon="0.1816250000"><ele>746</ele><time>2026-03-17T07:53:13Z</time></trkpt>
<trkpt lat="43.0548920000" lon="0.1816500000"><ele>746</ele><time>2026-03-17T07:53:15Z</time></trkpt>
<trkpt lat="43.0548800000" lon="0.1816720000"><ele>746</ele><time>2026-03-17T07:53:17Z</time></trkpt>
<trkpt lat="43.0548700000" lon="0.1816980000"><ele>746</ele><time>2026-03-17T07:53:19Z</time></trkpt>
<trkpt lat="43.0548670000" lon="0.1817270000"><ele>745</ele><time>2026-03-17T07:53:21Z</time></trkpt>
<trkpt lat="43.0548570000" lon="0.1817650000"><ele>745</ele><time>2026-03-17T07:53:23Z</time></trkpt>
<trkpt lat="43.0548550000" lon="0.1818070000"><ele>745</ele><time>2026-03-17T07:53:25Z</time></trkpt>
<trkpt lat="43.0548500000" lon="0.1818450000"><ele>745</ele><time>2026-03-17T07:53:27Z</time></trkpt>
<trkpt lat="43.0548500000" lon="0.1818770000"><ele>744</ele><time>2026-03-17T07:53:29Z</time></trkpt>
<trkpt lat="43.0548400000" lon="0.1819170000"><ele>744</ele><time>2026-03-17T07:53:31Z</time></trkpt>
<trkpt lat="43.0548320000" lon="0.1819450000"><ele>744</ele><time>2026-03-17T07:53:33Z</time></trkpt>
<trkpt lat="43.0548250000" lon="0.1819870000"><ele>744</ele><time>2026-03-17T07:53:35Z</time></trkpt>
<trkpt lat="43.0548170000" lon="0.1820100000"><ele>744</ele><time>2026-03-17T07:53:36Z</time></trkpt>
<trkpt lat="43.0548120000" lon="0.1820470000"><ele>744</ele><time>2026-03-17T07:53:38Z</time></trkpt>
<trkpt lat="43.0548050000" lon="0.1820720000"><ele>744</ele><time>2026-03-17T07:53:40Z</time></trkpt>
<trkpt lat="43.0548020000" lon="0.1821000000"><ele>744</ele><time>2026-03-17T07:53:42Z</time></trkpt>
<trkpt lat="43.0547950000" lon="0.1821320000"><ele>744</ele><time>2026-03-17T07:53:44Z</time></trkpt>
<trkpt lat="43.0547800000" lon="0.1821750000"><ele>744</ele><time>2026-03-17T07:53:46Z</time></trkpt>
<trkpt lat="43.0547720000" lon="0.1822120000"><ele>744</ele><time>2026-03-17T07:53:48Z</time></trkpt>
<trkpt lat="43.0547650000" lon="0.1822470000"><ele>744</ele><time>2026-03-17T07:53:50Z</time></trkpt>
<trkpt lat="43.0547550000" lon="0.1822770000"><ele>744</ele><time>2026-03-17T07:53:53Z</time></trkpt>
<trkpt lat="43.0547420000" lon="0.1823050000"><ele>744</ele><time>2026-03-17T07:53:55Z</time></trkpt>
<trkpt lat="43.0547250000" lon="0.1823300000"><ele>744</ele><time>2026-03-17T07:53:57Z</time></trkpt>
<trkpt lat="43.0547120000" lon="0.1823520000"><ele>744</ele><time>2026-03-17T07:53:59Z</time></trkpt>
<trkpt lat="43.0547050000" lon="0.1823870000"><ele>744</ele><time>2026-03-17T07:54:02Z</time></trkpt>
<trkpt lat="43.0547000000" lon="0.1824130000"><ele>745</ele><time>2026-03-17T07:54:04Z</time></trkpt>
<trkpt lat="43.0546950000" lon="0.1824380000"><ele>745</ele><time>2026-03-17T07:54:06Z</time></trkpt>
<trkpt lat="43.0546770000" lon="0.1824600000"><ele>745</ele><time>2026-03-17T07:54:08Z</time></trkpt>
<trkpt lat="43.0546570000" lon="0.1824870000"><ele>745</ele><time>2026-03-17T07:54:11Z</time></trkpt>
<trkpt lat="43.0546420000" lon="0.1824970000"><ele>745</ele><time>2026-03-17T07:54:13Z</time></trkpt>
<trkpt lat="43.0546220000" lon="0.1825000000"><ele>746</ele><time>2026-03-17T07:54:26Z</time></trkpt>
<trkpt lat="43.0546000000" lon="0.1825220000"><ele>746</ele><time>2026-03-17T07:54:29Z</time></trkpt>
<trkpt lat="43.0545950000" lon="0.1825570000"><ele>746</ele><time>2026-03-17T07:54:31Z</time></trkpt>
<trkpt lat="43.0545870000" lon="0.1825870000"><ele>746</ele><time>2026-03-17T07:54:33Z</time></trkpt>
<trkpt lat="43.0545800000" lon="0.1826170000"><ele>746</ele><time>2026-03-17T07:54:35Z</time></trkpt>
<trkpt lat="43.0545820000" lon="0.1826420000"><ele>746</ele><time>2026-03-17T07:54:36Z</time></trkpt>
<trkpt lat="43.0545720000" lon="0.1826720000"><ele>746</ele><time>2026-03-17T07:54:38Z</time></trkpt>
<trkpt lat="43.0545670000" lon="0.1827020000"><ele>746</ele><time>2026-03-17T07:54:40Z</time></trkpt>
<trkpt lat="43.0545600000" lon="0.1827300000"><ele>746</ele><time>2026-03-17T07:54:42Z</time></trkpt>
<trkpt lat="43.0545520000" lon="0.1827600000"><ele>747</ele><time>2026-03-17T07:54:44Z</time></trkpt>
<trkpt lat="43.0545500000" lon="0.1827870000"><ele>747</ele><time>2026-03-17T07:54:46Z</time></trkpt>
<trkpt lat="43.0545370000" lon="0.1828030000"><ele>747</ele><time>2026-03-17T07:54:48Z</time></trkpt>
<trkpt lat="43.0545350000" lon="0.1828320000"><ele>747</ele><time>2026-03-17T07:54:50Z</time></trkpt>
<trkpt lat="43.0545300000" lon="0.1828570000"><ele>747</ele><time>2026-03-17T07:54:52Z</time></trkpt>
<trkpt lat="43.0545200000" lon="0.1828820000"><ele>747</ele><time>2026-03-17T07:54:54Z</time></trkpt>
<trkpt lat="43.0545120000" lon="0.1829070000"><ele>748</ele><time>2026-03-17T07:54:56Z</time></trkpt>
<trkpt lat="43.0545070000" lon="0.1829330000"><ele>748</ele><time>2026-03-17T07:54:58Z</time></trkpt>
<trkpt lat="43.0544920000" lon="0.1829620000"><ele>748</ele><time>2026-03-17T07:55:00Z</time></trkpt>
<trkpt lat="43.0544820000" lon="0.1829920000"><ele>748</ele><time>2026-03-17T07:55:02Z</time></trkpt>
<trkpt lat="43.0544720000" lon="0.1830200000"><ele>748</ele><time>2026-03-17T07:55:04Z</time></trkpt>
<trkpt lat="43.0544670000" lon="0.1830450000"><ele>748</ele><time>2026-03-17T07:55:06Z</time></trkpt>
<trkpt lat="43.0544520000" lon="0.1830720000"><ele>749</ele><time>2026-03-17T07:55:09Z</time></trkpt>
<trkpt lat="43.0544450000" lon="0.1830970000"><ele>749</ele><time>2026-03-17T07:55:11Z</time></trkpt>
<trkpt lat="43.0544420000" lon="0.1831220000"><ele>749</ele><time>2026-03-17T07:55:13Z</time></trkpt>
<trkpt lat="43.0544370000" lon="0.1831550000"><ele>749</ele><time>2026-03-17T07:55:16Z</time></trkpt>
<trkpt lat="43.0544400000" lon="0.1831820000"><ele>749</ele><time>2026-03-17T07:55:18Z</time></trkpt>
<trkpt lat="43.0544300000" lon="0.1832070000"><ele>750</ele><time>2026-03-17T07:55:20Z</time></trkpt>
<trkpt lat="43.0544220000" lon="0.1832430000"><ele>750</ele><time>2026-03-17T07:55:23Z</time></trkpt>
<trkpt lat="43.0544120000" lon="0.1832770000"><ele>751</ele><time>2026-03-17T07:55:26Z</time></trkpt>
<trkpt lat="43.0543920000" lon="0.1832900000"><ele>751</ele><time>2026-03-17T07:55:28Z</time></trkpt>
<trkpt lat="43.0543770000" lon="0.1833170000"><ele>751</ele><time>2026-03-17T07:55:31Z</time></trkpt>
<trkpt lat="43.0543520000" lon="0.1833200000"><ele>751</ele><time>2026-03-17T07:55:33Z</time></trkpt>
<trkpt lat="43.0543270000" lon="0.1833220000"><ele>751</ele><time>2026-03-17T07:55:35Z</time></trkpt>
<trkpt lat="43.0543050000" lon="0.1833120000"><ele>752</ele><time>2026-03-17T07:55:37Z</time></trkpt>
<trkpt lat="43.0542820000" lon="0.1833020000"><ele>752</ele><time>2026-03-17T07:55:39Z</time></trkpt>
<trkpt lat="43.0542570000" lon="0.1832870000"><ele>752</ele><time>2026-03-17T07:55:41Z</time></trkpt>
<trkpt lat="43.0542370000" lon="0.1832670000"><ele>752</ele><time>2026-03-17T07:55:43Z</time></trkpt>
<trkpt lat="43.0542120000" lon="0.1832550000"><ele>752</ele><time>2026-03-17T07:55:46Z</time></trkpt>
<trkpt lat="43.0541920000" lon="0.1832520000"><ele>753</ele><time>2026-03-17T07:55:48Z</time></trkpt>
<trkpt lat="43.0541750000" lon="0.1832270000"><ele>753</ele><time>2026-03-17T07:56:07Z</time></trkpt>
<trkpt lat="43.0541620000" lon="0.1832050000"><ele>753</ele><time>2026-03-17T07:56:09Z</time></trkpt>
<trkpt lat="43.0541400000" lon="0.1832170000"><ele>753</ele><time>2026-03-17T07:56:12Z</time></trkpt>
<trkpt lat="43.0541270000" lon="0.1832420000"><ele>753</ele><time>2026-03-17T07:56:14Z</time></trkpt>
<trkpt lat="43.0541370000" lon="0.1832770000"><ele>754</ele><time>2026-03-17T07:56:16Z</time></trkpt>
<trkpt lat="43.0541270000" lon="0.1833170000"><ele>757</ele><time>2026-03-17T07:56:50Z</time></trkpt>
<trkpt lat="43.0541120000" lon="0.1833500000"><ele>758</ele><time>2026-03-17T07:56:51Z</time></trkpt>
<trkpt lat="43.0540920000" lon="0.1833900000"><ele>758</ele><time>2026-03-17T07:56:52Z</time></trkpt>
<trkpt lat="43.0540730000" lon="0.1834300000"><ele>758</ele><time>2026-03-17T07:56:53Z</time></trkpt>
<trkpt lat="43.0540570000" lon="0.1834650000"><ele>758</ele><time>2026-03-17T07:56:54Z</time></trkpt>
<trkpt lat="43.0540470000" lon="0.1834920000"><ele>758</ele><time>2026-03-17T07:56:55Z</time></trkpt>
<trkpt lat="43.0540320000" lon="0.1835220000"><ele>758</ele><time>2026-03-17T07:56:57Z</time></trkpt>
<trkpt lat="43.0540200000" lon="0.1835570000"><ele>758</ele><time>2026-03-17T07:57:00Z</time></trkpt>
<trkpt lat="43.0540120000" lon="0.1835820000"><ele>759</ele><time>2026-03-17T07:57:02Z</time></trkpt>
<trkpt lat="43.0540070000" lon="0.1836120000"><ele>759</ele><time>2026-03-17T07:57:05Z</time></trkpt>
<trkpt lat="43.0540020000" lon="0.1836420000"><ele>760</ele><time>2026-03-17T07:57:08Z</time></trkpt>
<trkpt lat="43.0539970000" lon="0.1836670000"><ele>760</ele><time>2026-03-17T07:57:11Z</time></trkpt>
<trkpt lat="43.0539820000" lon="0.1836820000"><ele>760</ele><time>2026-03-17T07:57:13Z</time></trkpt>
<trkpt lat="43.0539670000" lon="0.1837120000"><ele>761</ele><time>2026-03-17T07:57:15Z</time></trkpt>
<trkpt lat="43.0539520000" lon="0.1837350000"><ele>761</ele><time>2026-03-17T07:57:18Z</time></trkpt>
<trkpt lat="43.0539420000" lon="0.1837620000"><ele>762</ele><time>2026-03-17T07:57:22Z</time></trkpt>
<trkpt lat="43.0539370000" lon="0.1837920000"><ele>762</ele><time>2026-03-17T07:57:26Z</time></trkpt>
<trkpt lat="43.0539270000" lon="0.1838150000"><ele>763</ele><time>2026-03-17T07:57:29Z</time></trkpt>
<trkpt lat="43.0539180000" lon="0.1838400000"><ele>763</ele><time>2026-03-17T07:57:33Z</time></trkpt>
<trkpt lat="43.0539020000" lon="0.1838550000"><ele>764</ele><time>2026-03-17T07:57:36Z</time></trkpt>
<trkpt lat="43.0538920000" lon="0.1838870000"><ele>764</ele><time>2026-03-17T07:57:40Z</time></trkpt>
<trkpt lat="43.0538770000" lon="0.1839050000"><ele>764</ele><time>2026-03-17T07:57:42Z</time></trkpt>
<trkpt lat="43.0538670000" lon="0.1839300000"><ele>765</ele><time>2026-03-17T07:57:47Z</time></trkpt>
<trkpt lat="43.0538670000" lon="0.1839600000"><ele>766</ele><time>2026-03-17T07:57:51Z</time></trkpt>
<trkpt lat="43.0538550000" lon="0.1839870000"><ele>766</ele><time>2026-03-17T07:57:55Z</time></trkpt>
<trkpt lat="43.0538420000" lon="0.1840050000"><ele>767</ele><time>2026-03-17T07:57:58Z</time></trkpt>
<trkpt lat="43.0538220000" lon="0.1840200000"><ele>767</ele><time>2026-03-17T07:58:01Z</time></trkpt>
<trkpt lat="43.0538020000" lon="0.1840270000"><ele>767</ele><time>2026-03-17T07:58:04Z</time></trkpt>
<trkpt lat="43.0537800000" lon="0.1840470000"><ele>768</ele><time>2026-03-17T07:58:09Z</time></trkpt>
<trkpt lat="43.0537570000" lon="0.1840570000"><ele>768</ele><time>2026-03-17T07:58:14Z</time></trkpt>
<trkpt lat="43.0537450000" lon="0.1840730000"><ele>769</ele><time>2026-03-17T07:58:19Z</time></trkpt>
<trkpt lat="43.0537270000" lon="0.1840920000"><ele>770</ele><time>2026-03-17T07:58:22Z</time></trkpt>
<trkpt lat="43.0537070000" lon="0.1841070000"><ele>770</ele><time>2026-03-17T07:58:25Z</time></trkpt>
<trkpt lat="43.0536900000" lon="0.1841220000"><ele>771</ele><time>2026-03-17T07:58:28Z</time></trkpt>
<trkpt lat="43.0536750000" lon="0.1841420000"><ele>771</ele><time>2026-03-17T07:58:33Z</time></trkpt>
<trkpt lat="43.0536620000" lon="0.1841700000"><ele>772</ele><time>2026-03-17T07:58:38Z</time></trkpt>
<trkpt lat="43.0536600000" lon="0.1841970000"><ele>772</ele><time>2026-03-17T07:58:41Z</time></trkpt>
<trkpt lat="43.0536500000" lon="0.1842170000"><ele>772</ele><time>2026-03-17T07:58:43Z</time></trkpt>
<trkpt lat="43.0536350000" lon="0.1842320000"><ele>773</ele><time>2026-03-17T07:58:45Z</time></trkpt>
<trkpt lat="43.0536170000" lon="0.1842320000"><ele>773</ele><time>2026-03-17T07:58:47Z</time></trkpt>
<trkpt lat="43.0536070000" lon="0.1842550000"><ele>773</ele><time>2026-03-17T07:58:51Z</time></trkpt>
<trkpt lat="43.0535900000" lon="0.1842670000"><ele>774</ele><time>2026-03-17T07:58:54Z</time></trkpt>
<trkpt lat="43.0535720000" lon="0.1842770000"><ele>774</ele><time>2026-03-17T07:58:57Z</time></trkpt>
<trkpt lat="43.0535570000" lon="0.1842900000"><ele>775</ele><time>2026-03-17T07:59:00Z</time></trkpt>
<trkpt lat="43.0535370000" lon="0.1843000000"><ele>775</ele><time>2026-03-17T07:59:04Z</time></trkpt>
<trkpt lat="43.0535200000" lon="0.1843170000"><ele>776</ele><time>2026-03-17T07:59:08Z</time></trkpt>
<trkpt lat="43.0535020000" lon="0.1843370000"><ele>776</ele><time>2026-03-17T07:59:11Z</time></trkpt>
<trkpt lat="43.0535020000" lon="0.1843650000"><ele>777</ele><time>2026-03-17T07:59:15Z</time></trkpt>
<trkpt lat="43.0534920000" lon="0.1843870000"><ele>777</ele><time>2026-03-17T07:59:18Z</time></trkpt>
<trkpt lat="43.0534750000" lon="0.1843970000"><ele>778</ele><time>2026-03-17T07:59:22Z</time></trkpt>
<trkpt lat="43.0534500000" lon="0.1844100000"><ele>778</ele><time>2026-03-17T07:59:26Z</time></trkpt>
<trkpt lat="43.0534300000" lon="0.1844120000"><ele>779</ele><time>2026-03-17T07:59:30Z</time></trkpt>
<trkpt lat="43.0534120000" lon="0.1844220000"><ele>779</ele><time>2026-03-17T07:59:34Z</time></trkpt>
<trkpt lat="43.0533950000" lon="0.1844370000"><ele>780</ele><time>2026-03-17T07:59:37Z</time></trkpt>
<trkpt lat="43.0533770000" lon="0.1844620000"><ele>780</ele><time>2026-03-17T07:59:41Z</time></trkpt>
<trkpt lat="43.0533620000" lon="0.1844730000"><ele>781</ele><time>2026-03-17T07:59:44Z</time></trkpt>
<trkpt lat="43.0533420000" lon="0.1844870000"><ele>781</ele><time>2026-03-17T07:59:48Z</time></trkpt>
<trkpt lat="43.0533320000" lon="0.1845120000"><ele>781</ele><time>2026-03-17T07:59:51Z</time></trkpt>
<trkpt lat="43.0533170000" lon="0.1845320000"><ele>782</ele><time>2026-03-17T07:59:56Z</time></trkpt>
<trkpt lat="43.0533050000" lon="0.1845470000"><ele>782</ele><time>2026-03-17T07:59:59Z</time></trkpt>
<trkpt lat="43.0532870000" lon="0.1845550000"><ele>783</ele><time>2026-03-17T08:00:02Z</time></trkpt>
<trkpt lat="43.0532670000" lon="0.1845520000"><ele>783</ele><time>2026-03-17T08:00:07Z</time></trkpt>
<trkpt lat="43.0532420000" lon="0.1845620000"><ele>784</ele><time>2026-03-17T08:00:11Z</time></trkpt>
<trkpt lat="43.0532250000" lon="0.1845700000"><ele>784</ele><time>2026-03-17T08:00:14Z</time></trkpt>
<trkpt lat="43.0532070000" lon="0.1845850000"><ele>785</ele><time>2026-03-17T08:00:19Z</time></trkpt>
<trkpt lat="43.0531900000" lon="0.1845970000"><ele>785</ele><time>2026-03-17T08:00:23Z</time></trkpt>
<trkpt lat="43.0531720000" lon="0.1846120000"><ele>786</ele><time>2026-03-17T08:00:27Z</time></trkpt>
<trkpt lat="43.0531570000" lon="0.1846270000"><ele>786</ele><time>2026-03-17T08:00:30Z</time></trkpt>
<trkpt lat="43.0531370000" lon="0.1846420000"><ele>787</ele><time>2026-03-17T08:00:33Z</time></trkpt>
<trkpt lat="43.0531200000" lon="0.1846570000"><ele>788</ele><time>2026-03-17T08:00:39Z</time></trkpt>
<trkpt lat="43.0530970000" lon="0.1846620000"><ele>788</ele><time>2026-03-17T08:00:54Z</time></trkpt>
<trkpt lat="43.0530770000" lon="0.1846580000"><ele>789</ele><time>2026-03-17T08:00:56Z</time></trkpt>
<trkpt lat="43.0530570000" lon="0.1846620000"><ele>789</ele><time>2026-03-17T08:00:59Z</time></trkpt>
<trkpt lat="43.0530370000" lon="0.1846750000"><ele>790</ele><time>2026-03-17T08:01:02Z</time></trkpt>
<trkpt lat="43.0530180000" lon="0.1846870000"><ele>791</ele><time>2026-03-17T08:01:10Z</time></trkpt>
<trkpt lat="43.0529950000" lon="0.1847070000"><ele>791</ele><time>2026-03-17T08:01:13Z</time></trkpt>
<trkpt lat="43.0529770000" lon="0.1847300000"><ele>792</ele><time>2026-03-17T08:01:15Z</time></trkpt>
<trkpt lat="43.0529550000" lon="0.1847520000"><ele>792</ele><time>2026-03-17T08:01:18Z</time></trkpt>
<trkpt lat="43.0529370000" lon="0.1847670000"><ele>793</ele><time>2026-03-17T08:01:20Z</time></trkpt>
<trkpt lat="43.0529220000" lon="0.1847770000"><ele>793</ele><time>2026-03-17T08:01:22Z</time></trkpt>
<trkpt lat="43.0529070000" lon="0.1847920000"><ele>794</ele><time>2026-03-17T08:01:26Z</time></trkpt>
<trkpt lat="43.0529020000" lon="0.1848170000"><ele>794</ele><time>2026-03-17T08:01:29Z</time></trkpt>
<trkpt lat="43.0528820000" lon="0.1848270000"><ele>794</ele><time>2026-03-17T08:01:32Z</time></trkpt>
<trkpt lat="43.0528620000" lon="0.1848120000"><ele>795</ele><time>2026-03-17T08:01:35Z</time></trkpt>
<trkpt lat="43.0528370000" lon="0.1848050000"><ele>796</ele><time>2026-03-17T08:01:38Z</time></trkpt>
<trkpt lat="43.0528120000" lon="0.1848020000"><ele>796</ele><time>2026-03-17T08:01:41Z</time></trkpt>
<trkpt lat="43.0527950000" lon="0.1848020000"><ele>796</ele><time>2026-03-17T08:01:43Z</time></trkpt>
<trkpt lat="43.0527720000" lon="0.1848150000"><ele>797</ele><time>2026-03-17T08:01:45Z</time></trkpt>
<trkpt lat="43.0527550000" lon="0.1847920000"><ele>797</ele><time>2026-03-17T08:01:49Z</time></trkpt>
<trkpt lat="43.0527520000" lon="0.1847650000"><ele>798</ele><time>2026-03-17T08:01:51Z</time></trkpt>
<trkpt lat="43.0527500000" lon="0.1847320000"><ele>798</ele><time>2026-03-17T08:01:53Z</time></trkpt>
<trkpt lat="43.0527570000" lon="0.1846920000"><ele>798</ele><time>2026-03-17T08:01:55Z</time></trkpt>
<trkpt lat="43.0527650000" lon="0.1846580000"><ele>799</ele><time>2026-03-17T08:01:57Z</time></trkpt>
<trkpt lat="43.0527720000" lon="0.1846370000"><ele>799</ele><time>2026-03-17T08:01:59Z</time></trkpt>
<trkpt lat="43.0527720000" lon="0.1846030000"><ele>799</ele><time>2026-03-17T08:02:01Z</time></trkpt>
<trkpt lat="43.0527720000" lon="0.1845750000"><ele>799</ele><time>2026-03-17T08:02:03Z</time></trkpt>
<trkpt lat="43.0527700000" lon="0.1845320000"><ele>800</ele><time>2026-03-17T08:02:06Z</time></trkpt>
<trkpt lat="43.0527720000" lon="0.1845070000"><ele>800</ele><time>2026-03-17T08:02:09Z</time></trkpt>
<trkpt lat="43.0527720000" lon="0.1844720000"><ele>800</ele><time>2026-03-17T08:02:12Z</time></trkpt>
<trkpt lat="43.0527670000" lon="0.1844370000"><ele>800</ele><time>2026-03-17T08:02:15Z</time></trkpt>
<trkpt lat="43.0527620000" lon="0.1844070000"><ele>800</ele><time>2026-03-17T08:02:18Z</time></trkpt>
<trkpt lat="43.0527670000" lon="0.1843750000"><ele>801</ele><time>2026-03-17T08:02:21Z</time></trkpt>
<trkpt lat="43.0527650000" lon="0.1843470000"><ele>801</ele><time>2026-03-17T08:02:23Z</time></trkpt>
<trkpt lat="43.0527620000" lon="0.1843170000"><ele>801</ele><time>2026-03-17T08:02:25Z</time></trkpt>
<trkpt lat="43.0527520000" lon="0.1842850000"><ele>801</ele><time>2026-03-17T08:02:27Z</time></trkpt>
<trkpt lat="43.0527370000" lon="0.1842570000"><ele>801</ele><time>2026-03-17T08:02:29Z</time></trkpt>
<trkpt lat="43.0527220000" lon="0.1842270000"><ele>801</ele><time>2026-03-17T08:02:31Z</time></trkpt>
<trkpt lat="43.0527120000" lon="0.1842050000"><ele>802</ele><time>2026-03-17T08:02:33Z</time></trkpt>
<trkpt lat="43.0527000000" lon="0.1841750000"><ele>802</ele><time>2026-03-17T08:02:36Z</time></trkpt>
<trkpt lat="43.0526920000" lon="0.1841520000"><ele>802</ele><time>2026-03-17T08:02:38Z</time></trkpt>
<trkpt lat="43.0526820000" lon="0.1841170000"><ele>802</ele><time>2026-03-17T08:02:41Z</time></trkpt>
<trkpt lat="43.0526800000" lon="0.1840900000"><ele>802</ele><time>2026-03-17T08:02:43Z</time></trkpt>
<trkpt lat="43.0526670000" lon="0.1840620000"><ele>803</ele><time>2026-03-17T08:02:46Z</time></trkpt>
<trkpt lat="43.0526600000" lon="0.1840320000"><ele>803</ele><time>2026-03-17T08:02:49Z</time></trkpt>
<trkpt lat="43.0526470000" lon="0.1840000000"><ele>803</ele><time>2026-03-17T08:02:52Z</time></trkpt>
<trkpt lat="43.0526380000" lon="0.1839750000"><ele>803</ele><time>2026-03-17T08:02:54Z</time></trkpt>
<trkpt lat="43.0526270000" lon="0.1839420000"><ele>804</ele><time>2026-03-17T08:02:57Z</time></trkpt>
<trkpt lat="43.0526220000" lon="0.1839170000"><ele>804</ele><time>2026-03-17T08:02:59Z</time></trkpt>
<trkpt lat="43.0526200000" lon="0.1838900000"><ele>805</ele><time>2026-03-17T08:03:01Z</time></trkpt>
<trkpt lat="43.0526100000" lon="0.1838570000"><ele>805</ele><time>2026-03-17T08:03:04Z</time></trkpt>
<trkpt lat="43.0525970000" lon="0.1838370000"><ele>805</ele><time>2026-03-17T08:03:06Z</time></trkpt>
<trkpt lat="43.0525820000" lon="0.1838120000"><ele>805</ele><time>2026-03-17T08:03:08Z</time></trkpt>
<trkpt lat="43.0525670000" lon="0.1837820000"><ele>806</ele><time>2026-03-17T08:03:11Z</time></trkpt>
<trkpt lat="43.0525470000" lon="0.1837570000"><ele>806</ele><time>2026-03-17T08:03:14Z</time></trkpt>
<trkpt lat="43.0525370000" lon="0.1837270000"><ele>806</ele><time>2026-03-17T08:03:16Z</time></trkpt>
<trkpt lat="43.0525270000" lon="0.1837000000"><ele>806</ele><time>2026-03-17T08:03:18Z</time></trkpt>
<trkpt lat="43.0525220000" lon="0.1836750000"><ele>807</ele><time>2026-03-17T08:03:20Z</time></trkpt>
<trkpt lat="43.0525170000" lon="0.1836520000"><ele>807</ele><time>2026-03-17T08:03:22Z</time></trkpt>
<trkpt lat="43.0525070000" lon="0.1836280000"><ele>807</ele><time>2026-03-17T08:03:24Z</time></trkpt>
<trkpt lat="43.0524970000" lon="0.1836020000"><ele>807</ele><time>2026-03-17T08:03:27Z</time></trkpt>
<trkpt lat="43.0524900000" lon="0.1835720000"><ele>808</ele><time>2026-03-17T08:03:29Z</time></trkpt>
<trkpt lat="43.0524830000" lon="0.1835470000"><ele>808</ele><time>2026-03-17T08:03:31Z</time></trkpt>
<trkpt lat="43.0524720000" lon="0.1835150000"><ele>808</ele><time>2026-03-17T08:03:34Z</time></trkpt>
<trkpt lat="43.0524550000" lon="0.1834870000"><ele>808</ele><time>2026-03-17T08:03:37Z</time></trkpt>
<trkpt lat="43.0524350000" lon="0.1834720000"><ele>809</ele><time>2026-03-17T08:03:39Z</time></trkpt>
<trkpt lat="43.0524170000" lon="0.1834470000"><ele>809</ele><time>2026-03-17T08:03:41Z</time></trkpt>
<trkpt lat="43.0524070000" lon="0.1834270000"><ele>809</ele><time>2026-03-17T08:03:43Z</time></trkpt>
<trkpt lat="43.0523820000" lon="0.1834070000"><ele>810</ele><time>2026-03-17T08:03:46Z</time></trkpt>
<trkpt lat="43.0523670000" lon="0.1833920000"><ele>810</ele><time>2026-03-17T08:03:48Z</time></trkpt>
<trkpt lat="43.0523570000" lon="0.1833570000"><ele>810</ele><time>2026-03-17T08:03:51Z</time></trkpt>
<trkpt lat="43.0523470000" lon="0.1833350000"><ele>810</ele><time>2026-03-17T08:03:53Z</time></trkpt>
<trkpt lat="43.0523420000" lon="0.1833070000"><ele>811</ele><time>2026-03-17T08:03:55Z</time></trkpt>
<trkpt lat="43.0523220000" lon="0.1832900000"><ele>811</ele><time>2026-03-17T08:03:58Z</time></trkpt>
<trkpt lat="43.0523070000" lon="0.1832650000"><ele>812</ele><time>2026-03-17T08:04:01Z</time></trkpt>
<trkpt lat="43.0522970000" lon="0.1832320000"><ele>812</ele><time>2026-03-17T08:04:04Z</time></trkpt>
<trkpt lat="43.0522820000" lon="0.1832000000"><ele>812</ele><time>2026-03-17T08:04:07Z</time></trkpt>
<trkpt lat="43.0522620000" lon="0.1831800000"><ele>812</ele><time>2026-03-17T08:04:10Z</time></trkpt>
<trkpt lat="43.0522420000" lon="0.1831520000"><ele>813</ele><time>2026-03-17T08:04:13Z</time></trkpt>
<trkpt lat="43.0522220000" lon="0.1831370000"><ele>813</ele><time>2026-03-17T08:04:15Z</time></trkpt>
<trkpt lat="43.0522020000" lon="0.1831170000"><ele>813</ele><time>2026-03-17T08:04:17Z</time></trkpt>
<trkpt lat="43.0521850000" lon="0.1831030000"><ele>813</ele><time>2026-03-17T08:04:20Z</time></trkpt>
<trkpt lat="43.0521700000" lon="0.1830900000"><ele>814</ele><time>2026-03-17T08:04:22Z</time></trkpt>
<trkpt lat="43.0521520000" lon="0.1830670000"><ele>814</ele><time>2026-03-17T08:04:25Z</time></trkpt>
<trkpt lat="43.0521320000" lon="0.1830470000"><ele>814</ele><time>2026-03-17T08:04:28Z</time></trkpt>
<trkpt lat="43.0521170000" lon="0.1830270000"><ele>815</ele><time>2026-03-17T08:04:30Z</time></trkpt>
<trkpt lat="43.0521020000" lon="0.1830050000"><ele>815</ele><time>2026-03-17T08:04:32Z</time></trkpt>
<trkpt lat="43.0520900000" lon="0.1829800000"><ele>815</ele><time>2026-03-17T08:04:34Z</time></trkpt>
<trkpt lat="43.0520750000" lon="0.1829570000"><ele>815</ele><time>2026-03-17T08:04:37Z</time></trkpt>
<trkpt lat="43.0520570000" lon="0.1829430000"><ele>815</ele><time>2026-03-17T08:04:39Z</time></trkpt>
<trkpt lat="43.0520450000" lon="0.1829270000"><ele>816</ele><time>2026-03-17T08:04:41Z</time></trkpt>
<trkpt lat="43.0520320000" lon="0.1828970000"><ele>816</ele><time>2026-03-17T08:04:44Z</time></trkpt>
<trkpt lat="43.0520250000" lon="0.1828620000"><ele>816</ele><time>2026-03-17T08:04:46Z</time></trkpt>
<trkpt lat="43.0520100000" lon="0.1828350000"><ele>817</ele><time>2026-03-17T08:04:49Z</time></trkpt>
<trkpt lat="43.0519820000" lon="0.1828270000"><ele>817</ele><time>2026-03-17T08:04:51Z</time></trkpt>
<trkpt lat="43.0519570000" lon="0.1828080000"><ele>817</ele><time>2026-03-17T08:04:53Z</time></trkpt>
<trkpt lat="43.0519450000" lon="0.1827900000"><ele>817</ele><time>2026-03-17T08:04:55Z</time></trkpt>
<trkpt lat="43.0519300000" lon="0.1827620000"><ele>817</ele><time>2026-03-17T08:04:58Z</time></trkpt>
<trkpt lat="43.0519150000" lon="0.1827320000"><ele>818</ele><time>2026-03-17T08:05:01Z</time></trkpt>
<trkpt lat="43.0519020000" lon="0.1827000000"><ele>818</ele><time>2026-03-17T08:05:04Z</time></trkpt>
<trkpt lat="43.0518820000" lon="0.1826720000"><ele>818</ele><time>2026-03-17T08:05:07Z</time></trkpt>
<trkpt lat="43.0518750000" lon="0.1826420000"><ele>819</ele><time>2026-03-17T08:05:19Z</time></trkpt>
<trkpt lat="43.0518600000" lon="0.1826120000"><ele>819</ele><time>2026-03-17T08:05:21Z</time></trkpt>
<trkpt lat="43.0518370000" lon="0.1825870000"><ele>819</ele><time>2026-03-17T08:05:23Z</time></trkpt>
<trkpt lat="43.0518170000" lon="0.1825570000"><ele>819</ele><time>2026-03-17T08:05:25Z</time></trkpt>
<trkpt lat="43.0517970000" lon="0.1825370000"><ele>820</ele><time>2026-03-17T08:05:27Z</time></trkpt>
<trkpt lat="43.0517750000" lon="0.1825170000"><ele>820</ele><time>2026-03-17T08:05:30Z</time></trkpt>
<trkpt lat="43.0517620000" lon="0.1824970000"><ele>820</ele><time>2026-03-17T08:05:32Z</time></trkpt>
<trkpt lat="43.0517450000" lon="0.1824870000"><ele>821</ele><time>2026-03-17T08:05:34Z</time></trkpt>
<trkpt lat="43.0517220000" lon="0.1824750000"><ele>821</ele><time>2026-03-17T08:05:37Z</time></trkpt>
<trkpt lat="43.0517050000" lon="0.1824620000"><ele>821</ele><time>2026-03-17T08:05:39Z</time></trkpt>
<trkpt lat="43.0516900000" lon="0.1824470000"><ele>822</ele><time>2026-03-17T08:05:41Z</time></trkpt>
<trkpt lat="43.0516670000" lon="0.1824300000"><ele>822</ele><time>2026-03-17T08:05:44Z</time></trkpt>
<trkpt lat="43.0516520000" lon="0.1824170000"><ele>822</ele><time>2026-03-17T08:05:46Z</time></trkpt>
<trkpt lat="43.0516270000" lon="0.1823970000"><ele>822</ele><time>2026-03-17T08:05:48Z</time></trkpt>
<trkpt lat="43.0516170000" lon="0.1823770000"><ele>823</ele><time>2026-03-17T08:05:50Z</time></trkpt>
<trkpt lat="43.0516020000" lon="0.1823520000"><ele>823</ele><time>2026-03-17T08:05:52Z</time></trkpt>
<trkpt lat="43.0515920000" lon="0.1823120000"><ele>823</ele><time>2026-03-17T08:05:54Z</time></trkpt>
<trkpt lat="43.0515900000" lon="0.1822800000"><ele>823</ele><time>2026-03-17T08:05:56Z</time></trkpt>
<trkpt lat="43.0515800000" lon="0.1822480000"><ele>823</ele><time>2026-03-17T08:05:58Z</time></trkpt>
<trkpt lat="43.0515800000" lon="0.1822150000"><ele>823</ele><time>2026-03-17T08:06:00Z</time></trkpt>
<trkpt lat="43.0515770000" lon="0.1821870000"><ele>823</ele><time>2026-03-17T08:06:02Z</time></trkpt>
<trkpt lat="43.0515870000" lon="0.1821520000"><ele>823</ele><time>2026-03-17T08:06:06Z</time></trkpt>
<trkpt lat="43.0515870000" lon="0.1821250000"><ele>823</ele><time>2026-03-17T08:06:08Z</time></trkpt>
<trkpt lat="43.0515870000" lon="0.1820950000"><ele>824</ele><time>2026-03-17T08:06:10Z</time></trkpt>
<trkpt lat="43.0515820000" lon="0.1820650000"><ele>824</ele><time>2026-03-17T08:06:13Z</time></trkpt>
<trkpt lat="43.0515850000" lon="0.1820370000"><ele>824</ele><time>2026-03-17T08:06:16Z</time></trkpt>
<trkpt lat="43.0515670000" lon="0.1820050000"><ele>825</ele><time>2026-03-17T08:06:18Z</time></trkpt>
<trkpt lat="43.0515520000" lon="0.1819770000"><ele>825</ele><time>2026-03-17T08:06:20Z</time></trkpt>
<trkpt lat="43.0515520000" lon="0.1819470000"><ele>825</ele><time>2026-03-17T08:06:23Z</time></trkpt>
<trkpt lat="43.0515520000" lon="0.1819200000"><ele>825</ele><time>2026-03-17T08:06:25Z</time></trkpt>
<trkpt lat="43.0515600000" lon="0.1818820000"><ele>826</ele><time>2026-03-17T08:06:27Z</time></trkpt>
<trkpt lat="43.0515650000" lon="0.1818500000"><ele>826</ele><time>2026-03-17T08:06:29Z</time></trkpt>
<trkpt lat="43.0515680000" lon="0.1818150000"><ele>826</ele><time>2026-03-17T08:06:32Z</time></trkpt>
<trkpt lat="43.0515770000" lon="0.1817820000"><ele>826</ele><time>2026-03-17T08:06:35Z</time></trkpt>
<trkpt lat="43.0515920000" lon="0.1817620000"><ele>827</ele><time>2026-03-17T08:06:37Z</time></trkpt>
<trkpt lat="43.0516020000" lon="0.1817370000"><ele>827</ele><time>2026-03-17T08:06:39Z</time></trkpt>
<trkpt lat="43.0516070000" lon="0.1817120000"><ele>827</ele><time>2026-03-17T08:06:42Z</time></trkpt>
<trkpt lat="43.0516020000" lon="0.1816850000"><ele>829</ele><time>2026-03-17T08:07:18Z</time></trkpt>
<trkpt lat="43.0515970000" lon="0.1816570000"><ele>829</ele><time>2026-03-17T08:07:19Z</time></trkpt>
<trkpt lat="43.0515950000" lon="0.1816300000"><ele>830</ele><time>2026-03-17T08:07:20Z</time></trkpt>
<trkpt lat="43.0515920000" lon="0.1816030000"><ele>830</ele><time>2026-03-17T08:07:21Z</time></trkpt>
<trkpt lat="43.0515870000" lon="0.1815720000"><ele>830</ele><time>2026-03-17T08:07:23Z</time></trkpt>
<trkpt lat="43.0515850000" lon="0.1815420000"><ele>830</ele><time>2026-03-17T08:07:25Z</time></trkpt>
<trkpt lat="43.0515650000" lon="0.1815370000"><ele>831</ele><time>2026-03-17T08:07:30Z</time></trkpt>
<trkpt lat="43.0515570000" lon="0.1814970000"><ele>836</ele><time>2026-03-17T08:07:59Z</time></trkpt>
<trkpt lat="43.0515570000" lon="0.1814500000"><ele>837</ele><time>2026-03-17T08:08:01Z</time></trkpt>
<trkpt lat="43.0515520000" lon="0.1814170000"><ele>837</ele><time>2026-03-17T08:08:03Z</time></trkpt>
<trkpt lat="43.0515400000" lon="0.1813870000"><ele>837</ele><time>2026-03-17T08:08:05Z</time></trkpt>
<trkpt lat="43.0515220000" lon="0.1813700000"><ele>837</ele><time>2026-03-17T08:08:06Z</time></trkpt>
<trkpt lat="43.0515170000" lon="0.1813420000"><ele>838</ele><time>2026-03-17T08:08:08Z</time></trkpt>
<trkpt lat="43.0515250000" lon="0.1813150000"><ele>839</ele><time>2026-03-17T08:08:15Z</time></trkpt>
<trkpt lat="43.0515450000" lon="0.1813070000"><ele>839</ele><time>2026-03-17T08:08:18Z</time></trkpt>
<trkpt lat="43.0515520000" lon="0.1812780000"><ele>840</ele><time>2026-03-17T08:08:34Z</time></trkpt>
<trkpt lat="43.0515370000" lon="0.1812620000"><ele>839</ele><time>2026-03-17T08:08:38Z</time></trkpt>
<trkpt lat="43.0515550000" lon="0.1812420000"><ele>840</ele><time>2026-03-17T08:08:41Z</time></trkpt>
<trkpt lat="43.0515750000" lon="0.1812370000"><ele>840</ele><time>2026-03-17T08:08:43Z</time></trkpt>
<trkpt lat="43.0515620000" lon="0.1812020000"><ele>844</ele><time>2026-03-17T08:09:14Z</time></trkpt>
<trkpt lat="43.0515420000" lon="0.1811720000"><ele>845</ele><time>2026-03-17T08:09:16Z</time></trkpt>
<trkpt lat="43.0515270000" lon="0.1811470000"><ele>845</ele><time>2026-03-17T08:09:18Z</time></trkpt>
<trkpt lat="43.0515250000" lon="0.1811170000"><ele>846</ele><time>2026-03-17T08:09:25Z</time></trkpt>
<trkpt lat="43.0515350000" lon="0.1810750000"><ele>854</ele><time>2026-03-17T08:10:40Z</time></trkpt>
<trkpt lat="43.0515420000" lon="0.1810450000"><ele>854</ele><time>2026-03-17T08:10:41Z</time></trkpt>
<trkpt lat="43.0515500000" lon="0.1810150000"><ele>854</ele><time>2026-03-17T08:10:42Z</time></trkpt>
<trkpt lat="43.0515620000" lon="0.1809920000"><ele>854</ele><time>2026-03-17T08:10:43Z</time></trkpt>
<trkpt lat="43.0515870000" lon="0.1809620000"><ele>854</ele><time>2026-03-17T08:10:45Z</time></trkpt>
<trkpt lat="43.0516120000" lon="0.1809650000"><ele>855</ele><time>2026-03-17T08:10:47Z</time></trkpt>
<trkpt lat="43.0516170000" lon="0.1809370000"><ele>856</ele><time>2026-03-17T08:10:54Z</time></trkpt>
<trkpt lat="43.0516000000" lon="0.1809270000"><ele>857</ele><time>2026-03-17T08:11:06Z</time></trkpt>
<trkpt lat="43.0515870000" lon="0.1809020000"><ele>858</ele><time>2026-03-17T08:11:09Z</time></trkpt>
<trkpt lat="43.0515900000" lon="0.1808770000"><ele>858</ele><time>2026-03-17T08:11:12Z</time></trkpt>
<trkpt lat="43.0516050000" lon="0.1808570000"><ele>859</ele><time>2026-03-17T08:11:15Z</time></trkpt>
<trkpt lat="43.0516120000" lon="0.1808320000"><ele>859</ele><time>2026-03-17T08:11:19Z</time></trkpt>
<trkpt lat="43.0516220000" lon="0.1808070000"><ele>859</ele><time>2026-03-17T08:11:21Z</time></trkpt>
<trkpt lat="43.0516300000" lon="0.1807770000"><ele>860</ele><time>2026-03-17T08:11:24Z</time></trkpt>
<trkpt lat="43.0516420000" lon="0.1807550000"><ele>860</ele><time>2026-03-17T08:11:27Z</time></trkpt>
<trkpt lat="43.0516370000" lon="0.1807270000"><ele>860</ele><time>2026-03-17T08:11:32Z</time></trkpt>
<trkpt lat="43.0516520000" lon="0.1807050000"><ele>860</ele><time>2026-03-17T08:11:35Z</time></trkpt>
<trkpt lat="43.0516720000" lon="0.1806900000"><ele>861</ele><time>2026-03-17T08:11:37Z</time></trkpt>
<trkpt lat="43.0516920000" lon="0.1806870000"><ele>861</ele><time>2026-03-17T08:11:39Z</time></trkpt>
<trkpt lat="43.0517150000" lon="0.1806970000"><ele>861</ele><time>2026-03-17T08:11:41Z</time></trkpt>
<trkpt lat="43.0517320000" lon="0.1807020000"><ele>861</ele><time>2026-03-17T08:11:43Z</time></trkpt>
<trkpt lat="43.0517500000" lon="0.1806920000"><ele>861</ele><time>2026-03-17T08:11:47Z</time></trkpt>
<trkpt lat="43.0517770000" lon="0.1806950000"><ele>862</ele><time>2026-03-17T08:11:52Z</time></trkpt>
<trkpt lat="43.0518020000" lon="0.1806820000"><ele>862</ele><time>2026-03-17T08:11:55Z</time></trkpt>
<trkpt lat="43.0518220000" lon="0.1806670000"><ele>862</ele><time>2026-03-17T08:11:57Z</time></trkpt>
<trkpt lat="43.0518270000" lon="0.1806420000"><ele>862</ele><time>2026-03-17T08:12:00Z</time></trkpt>
<trkpt lat="43.0518420000" lon="0.1806220000"><ele>862</ele><time>2026-03-17T08:13:43Z</time></trkpt>
<trkpt lat="43.0518600000" lon="0.1806020000"><ele>862</ele><time>2026-03-17T08:13:44Z</time></trkpt>
<trkpt lat="43.0518770000" lon="0.1805820000"><ele>862</ele><time>2026-03-17T08:13:45Z</time></trkpt>
<trkpt lat="43.0518650000" lon="0.1806020000"><ele>863</ele><time>2026-03-17T08:14:49Z</time></trkpt>
<trkpt lat="43.0518470000" lon="0.1805920000"><ele>863</ele><time>2026-03-17T08:14:58Z</time></trkpt>
<trkpt lat="43.0518350000" lon="0.1805720000"><ele>864</ele><time>2026-03-17T08:16:21Z</time></trkpt>
<trkpt lat="43.0518200000" lon="0.1805350000"><ele>864</ele><time>2026-03-17T08:16:23Z</time></trkpt>
<trkpt lat="43.0518120000" lon="0.1805070000"><ele>864</ele><time>2026-03-17T08:16:25Z</time></trkpt>
<trkpt lat="43.0518270000" lon="0.1805220000"><ele>864</ele><time>2026-03-17T08:16:29Z</time></trkpt>
<trkpt lat="43.0518300000" lon="0.1805500000"><ele>864</ele><time>2026-03-17T08:17:35Z</time></trkpt>
<trkpt lat="43.0518520000" lon="0.1805570000"><ele>865</ele><time>2026-03-17T08:17:38Z</time></trkpt>
<trkpt lat="43.0518750000" lon="0.1805670000"><ele>864</ele><time>2026-03-17T08:17:42Z</time></trkpt>
<trkpt lat="43.0518520000" lon="0.1805920000"><ele>864</ele><time>2026-03-17T08:18:40Z</time></trkpt>
<trkpt lat="43.0518270000" lon="0.1806020000"><ele>864</ele><time>2026-03-17T08:18:42Z</time></trkpt>
<trkpt lat="43.0518270000" lon="0.1805720000"><ele>865</ele><time>2026-03-17T08:18:52Z</time></trkpt>
<trkpt lat="43.0518170000" lon="0.1805450000"><ele>864</ele><time>2026-03-17T08:20:04Z</time></trkpt>
<trkpt lat="43.0518320000" lon="0.1805670000"><ele>864</ele><time>2026-03-17T08:21:09Z</time></trkpt>
<trkpt lat="43.0518300000" lon="0.1805970000"><ele>864</ele><time>2026-03-17T08:21:13Z</time></trkpt>
<trkpt lat="43.0518400000" lon="0.1806220000"><ele>863</ele><time>2026-03-17T08:22:30Z</time></trkpt>
<trkpt lat="43.0518670000" lon="0.1806420000"><ele>863</ele><time>2026-03-17T08:22:32Z</time></trkpt>
<trkpt lat="43.0518870000" lon="0.1806550000"><ele>863</ele><time>2026-03-17T08:22:34Z</time></trkpt>
<trkpt lat="43.0518770000" lon="0.1806320000"><ele>863</ele><time>2026-03-17T08:23:43Z</time></trkpt>
<trkpt lat="43.0518500000" lon="0.1806200000"><ele>863</ele><time>2026-03-17T08:23:46Z</time></trkpt>
<trkpt lat="43.0518270000" lon="0.1806080000"><ele>863</ele><time>2026-03-17T08:23:48Z</time></trkpt>
<trkpt lat="43.0518200000" lon="0.1805830000"><ele>863</ele><time>2026-03-17T08:24:56Z</time></trkpt>
<trkpt lat="43.0518020000" lon="0.1805830000"><ele>863</ele><time>2026-03-17T08:24:58Z</time></trkpt>
<trkpt lat="43.0517820000" lon="0.1805970000"><ele>863</ele><time>2026-03-17T08:25:01Z</time></trkpt>
<trkpt lat="43.0518050000" lon="0.1805970000"><ele>862</ele><time>2026-03-17T08:26:13Z</time></trkpt>
<trkpt lat="43.0518220000" lon="0.1806220000"><ele>862</ele><time>2026-03-17T08:26:15Z</time></trkpt>
<trkpt lat="43.0518320000" lon="0.1805950000"><ele>862</ele><time>2026-03-17T08:26:33Z</time></trkpt>
<trkpt lat="43.0518500000" lon="0.1805820000"><ele>862</ele><time>2026-03-17T08:26:37Z</time></trkpt>
<trkpt lat="43.0518370000" lon="0.1805650000"><ele>862</ele><time>2026-03-17T08:27:46Z</time></trkpt>
<trkpt lat="43.0518570000" lon="0.1805520000"><ele>862</ele><time>2026-03-17T08:28:32Z</time></trkpt>
<trkpt lat="43.0518820000" lon="0.1805570000"><ele>862</ele><time>2026-03-17T08:29:00Z</time></trkpt>
<trkpt lat="43.0519070000" lon="0.1805620000"><ele>862</ele><time>2026-03-17T08:29:02Z</time></trkpt>
<trkpt lat="43.0518970000" lon="0.1805830000"><ele>861</ele><time>2026-03-17T08:30:05Z</time></trkpt>
<trkpt lat="43.0518770000" lon="0.1806080000"><ele>861</ele><time>2026-03-17T08:30:07Z</time></trkpt>
<trkpt lat="43.0518670000" lon="0.1806300000"><ele>861</ele><time>2026-03-17T08:30:11Z</time></trkpt>
<trkpt lat="43.0518470000" lon="0.1806120000"><ele>861</ele><time>2026-03-17T08:31:21Z</time></trkpt>
<trkpt lat="43.0518400000" lon="0.1805870000"><ele>861</ele><time>2026-03-17T08:31:39Z</time></trkpt>
<trkpt lat="43.0518220000" lon="0.1805870000"><ele>861</ele><time>2026-03-17T08:32:50Z</time></trkpt>
<trkpt lat="43.0518020000" lon="0.1805870000"><ele>861</ele><time>2026-03-17T08:32:53Z</time></trkpt>
<trkpt lat="43.0518250000" lon="0.1805950000"><ele>862</ele><time>2026-03-17T08:34:05Z</time></trkpt>
<trkpt lat="43.0518150000" lon="0.1806200000"><ele>862</ele><time>2026-03-17T08:35:11Z</time></trkpt>
<trkpt lat="43.0517970000" lon="0.1806000000"><ele>862</ele><time>2026-03-17T08:35:17Z</time></trkpt>
<trkpt lat="43.0518120000" lon="0.1806270000"><ele>862</ele><time>2026-03-17T08:36:22Z</time></trkpt>
<trkpt lat="43.0518220000" lon="0.1806570000"><ele>862</ele><time>2026-03-17T08:36:24Z</time></trkpt>
<trkpt lat="43.0518350000" lon="0.1806370000"><ele>862</ele><time>2026-03-17T08:36:46Z</time></trkpt>
<trkpt lat="43.0518500000" lon="0.1806150000"><ele>862</ele><time>2026-03-17T08:36:50Z</time></trkpt>
<trkpt lat="43.0518220000" lon="0.1805970000"><ele>862</ele><time>2026-03-17T08:37:55Z</time></trkpt>
<trkpt lat="43.0518050000" lon="0.1805920000"><ele>862</ele><time>2026-03-17T08:37:56Z</time></trkpt>
<trkpt lat="43.0517770000" lon="0.1805920000"><ele>862</ele><time>2026-03-17T08:37:58Z</time></trkpt>
<trkpt lat="43.0517850000" lon="0.1806170000"><ele>863</ele><time>2026-03-17T08:38:58Z</time></trkpt>
<trkpt lat="43.0518170000" lon="0.1806470000"><ele>863</ele><time>2026-03-17T08:39:00Z</time></trkpt>
<trkpt lat="43.0518320000" lon="0.1806670000"><ele>863</ele><time>2026-03-17T08:39:01Z</time></trkpt>
<trkpt lat="43.0518420000" lon="0.1807020000"><ele>862</ele><time>2026-03-17T08:39:03Z</time></trkpt>
<trkpt lat="43.0518200000" lon="0.1807220000"><ele>862</ele><time>2026-03-17T08:39:05Z</time></trkpt>
<trkpt lat="43.0517970000" lon="0.1807370000"><ele>862</ele><time>2026-03-17T08:39:07Z</time></trkpt>
<trkpt lat="43.0517800000" lon="0.1807550000"><ele>862</ele><time>2026-03-17T08:39:08Z</time></trkpt>
<trkpt lat="43.0517570000" lon="0.1807670000"><ele>862</ele><time>2026-03-17T08:39:10Z</time></trkpt>
<trkpt lat="43.0517270000" lon="0.1807820000"><ele>862</ele><time>2026-03-17T08:39:12Z</time></trkpt>
<trkpt lat="43.0517070000" lon="0.1807820000"><ele>862</ele><time>2026-03-17T08:39:13Z</time></trkpt>
<trkpt lat="43.0516770000" lon="0.1807770000"><ele>862</ele><time>2026-03-17T08:39:15Z</time></trkpt>
<trkpt lat="43.0516520000" lon="0.1807670000"><ele>862</ele><time>2026-03-17T08:39:17Z</time></trkpt>
<trkpt lat="43.0516300000" lon="0.1807620000"><ele>862</ele><time>2026-03-17T08:39:19Z</time></trkpt>
<trkpt lat="43.0516120000" lon="0.1807480000"><ele>862</ele><time>2026-03-17T08:39:21Z</time></trkpt>
<trkpt lat="43.0515900000" lon="0.1807420000"><ele>861</ele><time>2026-03-17T08:39:23Z</time></trkpt>
<trkpt lat="43.0515670000" lon="0.1807470000"><ele>861</ele><time>2026-03-17T08:39:25Z</time></trkpt>
<trkpt lat="43.0515470000" lon="0.1807470000"><ele>861</ele><time>2026-03-17T08:39:27Z</time></trkpt>
<trkpt lat="43.0515200000" lon="0.1807570000"><ele>860</ele><time>2026-03-17T08:39:30Z</time></trkpt>
<trkpt lat="43.0514980000" lon="0.1807650000"><ele>860</ele><time>2026-03-17T08:39:32Z</time></trkpt>
<trkpt lat="43.0514720000" lon="0.1807670000"><ele>860</ele><time>2026-03-17T08:39:35Z</time></trkpt>
<trkpt lat="43.0514570000" lon="0.1807870000"><ele>859</ele><time>2026-03-17T08:39:38Z</time></trkpt>
<trkpt lat="43.0514370000" lon="0.1808000000"><ele>859</ele><time>2026-03-17T08:39:40Z</time></trkpt>
<trkpt lat="43.0514200000" lon="0.1808250000"><ele>859</ele><time>2026-03-17T08:39:43Z</time></trkpt>
<trkpt lat="43.0514050000" lon="0.1808530000"><ele>859</ele><time>2026-03-17T08:39:46Z</time></trkpt>
<trkpt lat="43.0513800000" lon="0.1808720000"><ele>858</ele><time>2026-03-17T08:39:49Z</time></trkpt>
<trkpt lat="43.0513570000" lon="0.1808870000"><ele>858</ele><time>2026-03-17T08:39:51Z</time></trkpt>
<trkpt lat="43.0513400000" lon="0.1809200000"><ele>858</ele><time>2026-03-17T08:39:54Z</time></trkpt>
<trkpt lat="43.0513220000" lon="0.1809370000"><ele>858</ele><time>2026-03-17T08:39:56Z</time></trkpt>
<trkpt lat="43.0513020000" lon="0.1809620000"><ele>858</ele><time>2026-03-17T08:39:58Z</time></trkpt>
<trkpt lat="43.0512820000" lon="0.1809750000"><ele>858</ele><time>2026-03-17T08:40:00Z</time></trkpt>
<trkpt lat="43.0512620000" lon="0.1809900000"><ele>858</ele><time>2026-03-17T08:40:02Z</time></trkpt>
<trkpt lat="43.0512500000" lon="0.1810120000"><ele>858</ele><time>2026-03-17T08:40:04Z</time></trkpt>
<trkpt lat="43.0512320000" lon="0.1810220000"><ele>858</ele><time>2026-03-17T08:40:06Z</time></trkpt>
<trkpt lat="43.0512020000" lon="0.1810370000"><ele>858</ele><time>2026-03-17T08:40:08Z</time></trkpt>
<trkpt lat="43.0511770000" lon="0.1810520000"><ele>858</ele><time>2026-03-17T08:40:10Z</time></trkpt>
<trkpt lat="43.0511520000" lon="0.1810720000"><ele>858</ele><time>2026-03-17T08:40:12Z</time></trkpt>
<trkpt lat="43.0511320000" lon="0.1810820000"><ele>858</ele><time>2026-03-17T08:40:14Z</time></trkpt>
<trkpt lat="43.0511150000" lon="0.1810850000"><ele>857</ele><time>2026-03-17T08:40:16Z</time></trkpt>
<trkpt lat="43.0510900000" lon="0.1810970000"><ele>857</ele><time>2026-03-17T08:40:18Z</time></trkpt>
<trkpt lat="43.0510670000" lon="0.1811050000"><ele>857</ele><time>2026-03-17T08:40:20Z</time></trkpt>
<trkpt lat="43.0510370000" lon="0.1811170000"><ele>857</ele><time>2026-03-17T08:40:22Z</time></trkpt>
<trkpt lat="43.0510050000" lon="0.1811370000"><ele>857</ele><time>2026-03-17T08:40:24Z</time></trkpt>
<trkpt lat="43.0509820000" lon="0.1811300000"><ele>857</ele><time>2026-03-17T08:40:27Z</time></trkpt>
<trkpt lat="43.0509620000" lon="0.1811250000"><ele>857</ele><time>2026-03-17T08:40:29Z</time></trkpt>
<trkpt lat="43.0509420000" lon="0.1811100000"><ele>856</ele><time>2026-03-17T08:40:32Z</time></trkpt>
<trkpt lat="43.0509270000" lon="0.1810870000"><ele>856</ele><time>2026-03-17T08:40:36Z</time></trkpt>
<trkpt lat="43.0509320000" lon="0.1810400000"><ele>856</ele><time>2026-03-17T08:40:38Z</time></trkpt>
<trkpt lat="43.0509120000" lon="0.1810520000"><ele>855</ele><time>2026-03-17T08:41:19Z</time></trkpt>
<trkpt lat="43.0509120000" lon="0.1810820000"><ele>855</ele><time>2026-03-17T08:41:46Z</time></trkpt>
<trkpt lat="43.0509070000" lon="0.1811170000"><ele>855</ele><time>2026-03-17T08:41:48Z</time></trkpt>
<trkpt lat="43.0509020000" lon="0.1811420000"><ele>855</ele><time>2026-03-17T08:41:50Z</time></trkpt>
<trkpt lat="43.0508870000" lon="0.1811580000"><ele>855</ele><time>2026-03-17T08:41:52Z</time></trkpt>
<trkpt lat="43.0508720000" lon="0.1811320000"><ele>857</ele><time>2026-03-17T08:42:55Z</time></trkpt>
<trkpt lat="43.0508750000" lon="0.1810870000"><ele>857</ele><time>2026-03-17T08:42:57Z</time></trkpt>
<trkpt lat="43.0508930000" lon="0.1810670000"><ele>857</ele><time>2026-03-17T08:42:59Z</time></trkpt>
<trkpt lat="43.0509220000" lon="0.1810900000"><ele>857</ele><time>2026-03-17T08:43:01Z</time></trkpt>
<trkpt lat="43.0509350000" lon="0.1811120000"><ele>856</ele><time>2026-03-17T08:43:02Z</time></trkpt>
<trkpt lat="43.0509420000" lon="0.1811470000"><ele>856</ele><time>2026-03-17T08:43:04Z</time></trkpt>
<trkpt lat="43.0509250000" lon="0.1811870000"><ele>855</ele><time>2026-03-17T08:43:06Z</time></trkpt>
<trkpt lat="43.0509050000" lon="0.1812270000"><ele>855</ele><time>2026-03-17T08:43:08Z</time></trkpt>
<trkpt lat="43.0508870000" lon="0.1812620000"><ele>855</ele><time>2026-03-17T08:43:10Z</time></trkpt>
<trkpt lat="43.0508670000" lon="0.1812870000"><ele>855</ele><time>2026-03-17T08:43:12Z</time></trkpt>
<trkpt lat="43.0508470000" lon="0.1813170000"><ele>855</ele><time>2026-03-17T08:43:14Z</time></trkpt>
<trkpt lat="43.0508370000" lon="0.1813420000"><ele>855</ele><time>2026-03-17T08:43:16Z</time></trkpt>
<trkpt lat="43.0508150000" lon="0.1813750000"><ele>855</ele><time>2026-03-17T08:43:18Z</time></trkpt>
<trkpt lat="43.0508020000" lon="0.1814000000"><ele>855</ele><time>2026-03-17T08:43:20Z</time></trkpt>
<trkpt lat="43.0507870000" lon="0.1814180000"><ele>855</ele><time>2026-03-17T08:43:23Z</time></trkpt>
<trkpt lat="43.0507720000" lon="0.1814570000"><ele>855</ele><time>2026-03-17T08:43:26Z</time></trkpt>
<trkpt lat="43.0507520000" lon="0.1814870000"><ele>855</ele><time>2026-03-17T08:43:28Z</time></trkpt>
<trkpt lat="43.0507270000" lon="0.1815120000"><ele>855</ele><time>2026-03-17T08:43:30Z</time></trkpt>
<trkpt lat="43.0507150000" lon="0.1815400000"><ele>855</ele><time>2026-03-17T08:43:32Z</time></trkpt>
<trkpt lat="43.0507000000" lon="0.1815700000"><ele>856</ele><time>2026-03-17T08:43:42Z</time></trkpt>
<trkpt lat="43.0506870000" lon="0.1815970000"><ele>856</ele><time>2026-03-17T08:43:44Z</time></trkpt>
<trkpt lat="43.0506720000" lon="0.1816220000"><ele>856</ele><time>2026-03-17T08:43:46Z</time></trkpt>
<trkpt lat="43.0506620000" lon="0.1816550000"><ele>856</ele><time>2026-03-17T08:43:48Z</time></trkpt>
<trkpt lat="43.0506520000" lon="0.1816820000"><ele>856</ele><time>2026-03-17T08:43:49Z</time></trkpt>
<trkpt lat="43.0506420000" lon="0.1817130000"><ele>856</ele><time>2026-03-17T08:43:51Z</time></trkpt>
<trkpt lat="43.0506320000" lon="0.1817470000"><ele>856</ele><time>2026-03-17T08:43:53Z</time></trkpt>
<trkpt lat="43.0506320000" lon="0.1817800000"><ele>856</ele><time>2026-03-17T08:43:55Z</time></trkpt>
<trkpt lat="43.0506320000" lon="0.1818170000"><ele>856</ele><time>2026-03-17T08:43:58Z</time></trkpt>
<trkpt lat="43.0506270000" lon="0.1818470000"><ele>856</ele><time>2026-03-17T08:44:00Z</time></trkpt>
<trkpt lat="43.0506220000" lon="0.1818750000"><ele>856</ele><time>2026-03-17T08:44:02Z</time></trkpt>
<trkpt lat="43.0506120000" lon="0.1819020000"><ele>856</ele><time>2026-03-17T08:44:04Z</time></trkpt>
<trkpt lat="43.0506070000" lon="0.1819250000"><ele>856</ele><time>2026-03-17T08:44:06Z</time></trkpt>
<trkpt lat="43.0506020000" lon="0.1819520000"><ele>857</ele><time>2026-03-17T08:44:08Z</time></trkpt>
<trkpt lat="43.0505970000" lon="0.1819770000"><ele>857</ele><time>2026-03-17T08:44:10Z</time></trkpt>
<trkpt lat="43.0505870000" lon="0.1820070000"><ele>857</ele><time>2026-03-17T08:44:12Z</time></trkpt>
<trkpt lat="43.0505800000" lon="0.1820420000"><ele>857</ele><time>2026-03-17T08:44:14Z</time></trkpt>
<trkpt lat="43.0505750000" lon="0.1820820000"><ele>857</ele><time>2026-03-17T08:44:16Z</time></trkpt>
<trkpt lat="43.0505750000" lon="0.1821170000"><ele>857</ele><time>2026-03-17T08:44:18Z</time></trkpt>
<trkpt lat="43.0505720000" lon="0.1821580000"><ele>857</ele><time>2026-03-17T08:44:20Z</time></trkpt>
<trkpt lat="43.0505570000" lon="0.1821920000"><ele>857</ele><time>2026-03-17T08:44:22Z</time></trkpt>
<trkpt lat="43.0505450000" lon="0.1822220000"><ele>857</ele><time>2026-03-17T08:44:25Z</time></trkpt>
<trkpt lat="43.0505350000" lon="0.1822570000"><ele>857</ele><time>2026-03-17T08:44:28Z</time></trkpt>
<trkpt lat="43.0505300000" lon="0.1822850000"><ele>857</ele><time>2026-03-17T08:44:30Z</time></trkpt>
<trkpt lat="43.0505220000" lon="0.1823120000"><ele>857</ele><time>2026-03-17T08:44:32Z</time></trkpt>
<trkpt lat="43.0505120000" lon="0.1823520000"><ele>858</ele><time>2026-03-17T08:44:34Z</time></trkpt>
<trkpt lat="43.0505000000" lon="0.1823870000"><ele>858</ele><time>2026-03-17T08:44:36Z</time></trkpt>
<trkpt lat="43.0504900000" lon="0.1824220000"><ele>858</ele><time>2026-03-17T08:44:38Z</time></trkpt>
<trkpt lat="43.0504820000" lon="0.1824620000"><ele>858</ele><time>2026-03-17T08:44:40Z</time></trkpt>
<trkpt lat="43.0504650000" lon="0.1824820000"><ele>858</ele><time>2026-03-17T08:44:42Z</time></trkpt>
<trkpt lat="43.0504500000" lon="0.1825100000"><ele>858</ele><time>2026-03-17T08:44:45Z</time></trkpt>
<trkpt lat="43.0504420000" lon="0.1825420000"><ele>858</ele><time>2026-03-17T08:44:48Z</time></trkpt>
<trkpt lat="43.0504370000" lon="0.1825780000"><ele>858</ele><time>2026-03-17T08:44:50Z</time></trkpt>
<trkpt lat="43.0504350000" lon="0.1826070000"><ele>858</ele><time>2026-03-17T08:44:52Z</time></trkpt>
<trkpt lat="43.0504300000" lon="0.1826320000"><ele>858</ele><time>2026-03-17T08:44:54Z</time></trkpt>
<trkpt lat="43.0504220000" lon="0.1826570000"><ele>859</ele><time>2026-03-17T08:44:56Z</time></trkpt>
<trkpt lat="43.0504170000" lon="0.1826880000"><ele>859</ele><time>2026-03-17T08:44:58Z</time></trkpt>
<trkpt lat="43.0504070000" lon="0.1827220000"><ele>859</ele><time>2026-03-17T08:45:01Z</time></trkpt>
<trkpt lat="43.0503950000" lon="0.1827550000"><ele>859</ele><time>2026-03-17T08:45:04Z</time></trkpt>
<trkpt lat="43.0503820000" lon="0.1827870000"><ele>860</ele><time>2026-03-17T08:45:07Z</time></trkpt>
<trkpt lat="43.0503700000" lon="0.1828070000"><ele>860</ele><time>2026-03-17T08:45:09Z</time></trkpt>
<trkpt lat="43.0503570000" lon="0.1828400000"><ele>860</ele><time>2026-03-17T08:45:12Z</time></trkpt>
<trkpt lat="43.0503420000" lon="0.1828650000"><ele>860</ele><time>2026-03-17T08:45:15Z</time></trkpt>
<trkpt lat="43.0503320000" lon="0.1828900000"><ele>861</ele><time>2026-03-17T08:45:17Z</time></trkpt>
<trkpt lat="43.0503250000" lon="0.1829150000"><ele>861</ele><time>2026-03-17T08:45:19Z</time></trkpt>
<trkpt lat="43.0503120000" lon="0.1829370000"><ele>861</ele><time>2026-03-17T08:45:21Z</time></trkpt>
<trkpt lat="43.0503020000" lon="0.1829720000"><ele>861</ele><time>2026-03-17T08:45:24Z</time></trkpt>
<trkpt lat="43.0503020000" lon="0.1830120000"><ele>861</ele><time>2026-03-17T08:45:27Z</time></trkpt>
<trkpt lat="43.0503020000" lon="0.1830400000"><ele>862</ele><time>2026-03-17T08:45:29Z</time></trkpt>
<trkpt lat="43.0503020000" lon="0.1830700000"><ele>862</ele><time>2026-03-17T08:45:31Z</time></trkpt>
<trkpt lat="43.0503000000" lon="0.1830970000"><ele>862</ele><time>2026-03-17T08:45:33Z</time></trkpt>
<trkpt lat="43.0502870000" lon="0.1831220000"><ele>862</ele><time>2026-03-17T08:45:36Z</time></trkpt>
<trkpt lat="43.0502720000" lon="0.1831420000"><ele>863</ele><time>2026-03-17T08:45:38Z</time></trkpt>
<trkpt lat="43.0502620000" lon="0.1831750000"><ele>863</ele><time>2026-03-17T08:45:41Z</time></trkpt>
<trkpt lat="43.0502570000" lon="0.1832050000"><ele>863</ele><time>2026-03-17T08:45:44Z</time></trkpt>
<trkpt lat="43.0502400000" lon="0.1832270000"><ele>864</ele><time>2026-03-17T08:45:48Z</time></trkpt>
<trkpt lat="43.0502220000" lon="0.1832420000"><ele>865</ele><time>2026-03-17T08:45:55Z</time></trkpt>
<trkpt lat="43.0502120000" lon="0.1832770000"><ele>865</ele><time>2026-03-17T08:45:58Z</time></trkpt>
<trkpt lat="43.0502030000" lon="0.1833120000"><ele>865</ele><time>2026-03-17T08:46:01Z</time></trkpt>
<trkpt lat="43.0501920000" lon="0.1833420000"><ele>866</ele><time>2026-03-17T08:46:04Z</time></trkpt>
<trkpt lat="43.0501820000" lon="0.1833750000"><ele>866</ele><time>2026-03-17T08:46:07Z</time></trkpt>
<trkpt lat="43.0501670000" lon="0.1834070000"><ele>867</ele><time>2026-03-17T08:46:10Z</time></trkpt>
<trkpt lat="43.0501570000" lon="0.1834300000"><ele>867</ele><time>2026-03-17T08:46:12Z</time></trkpt>
<trkpt lat="43.0501470000" lon="0.1834520000"><ele>867</ele><time>2026-03-17T08:46:15Z</time></trkpt>
<trkpt lat="43.0501370000" lon="0.1834770000"><ele>868</ele><time>2026-03-17T08:46:19Z</time></trkpt>
<trkpt lat="43.0501170000" lon="0.1834970000"><ele>868</ele><time>2026-03-17T08:46:23Z</time></trkpt>
<trkpt lat="43.0501120000" lon="0.1835270000"><ele>868</ele><time>2026-03-17T08:46:26Z</time></trkpt>
<trkpt lat="43.0501070000" lon="0.1835620000"><ele>869</ele><time>2026-03-17T08:46:28Z</time></trkpt>
<trkpt lat="43.0501050000" lon="0.1835970000"><ele>869</ele><time>2026-03-17T08:46:31Z</time></trkpt>
<trkpt lat="43.0501170000" lon="0.1836220000"><ele>869</ele><time>2026-03-17T08:46:33Z</time></trkpt>
<trkpt lat="43.0501220000" lon="0.1836470000"><ele>869</ele><time>2026-03-17T08:46:35Z</time></trkpt>
<trkpt lat="43.0501150000" lon="0.1836750000"><ele>870</ele><time>2026-03-17T08:46:39Z</time></trkpt>
<trkpt lat="43.0501020000" lon="0.1837020000"><ele>870</ele><time>2026-03-17T08:46:43Z</time></trkpt>
<trkpt lat="43.0501070000" lon="0.1837320000"><ele>871</ele><time>2026-03-17T08:46:46Z</time></trkpt>
<trkpt lat="43.0500900000" lon="0.1837550000"><ele>871</ele><time>2026-03-17T08:46:50Z</time></trkpt>
<trkpt lat="43.0500800000" lon="0.1837870000"><ele>872</ele><time>2026-03-17T08:46:53Z</time></trkpt>
<trkpt lat="43.0500820000" lon="0.1838120000"><ele>872</ele><time>2026-03-17T08:46:55Z</time></trkpt>
<trkpt lat="43.0500820000" lon="0.1838370000"><ele>873</ele><time>2026-03-17T08:47:01Z</time></trkpt>
<trkpt lat="43.0500670000" lon="0.1838570000"><ele>873</ele><time>2026-03-17T08:47:05Z</time></trkpt>
<trkpt lat="43.0500600000" lon="0.1838820000"><ele>873</ele><time>2026-03-17T08:47:08Z</time></trkpt>
<trkpt lat="43.0500520000" lon="0.1839050000"><ele>874</ele><time>2026-03-17T08:47:10Z</time></trkpt>
<trkpt lat="43.0500370000" lon="0.1839270000"><ele>874</ele><time>2026-03-17T08:47:12Z</time></trkpt>
<trkpt lat="43.0500220000" lon="0.1839470000"><ele>874</ele><time>2026-03-17T08:47:14Z</time></trkpt>
<trkpt lat="43.0500120000" lon="0.1839720000"><ele>875</ele><time>2026-03-17T08:47:17Z</time></trkpt>
<trkpt lat="43.0500000000" lon="0.1840050000"><ele>875</ele><time>2026-03-17T08:47:20Z</time></trkpt>
<trkpt lat="43.0499970000" lon="0.1840320000"><ele>875</ele><time>2026-03-17T08:47:23Z</time></trkpt>
<trkpt lat="43.0499950000" lon="0.1840570000"><ele>876</ele><time>2026-03-17T08:47:26Z</time></trkpt>
<trkpt lat="43.0499870000" lon="0.1840870000"><ele>877</ele><time>2026-03-17T08:47:29Z</time></trkpt>
<trkpt lat="43.0499820000" lon="0.1841170000"><ele>877</ele><time>2026-03-17T08:47:31Z</time></trkpt>
<trkpt lat="43.0499770000" lon="0.1841450000"><ele>877</ele><time>2026-03-17T08:47:33Z</time></trkpt>
<trkpt lat="43.0499650000" lon="0.1841620000"><ele>877</ele><time>2026-03-17T08:47:36Z</time></trkpt>
<trkpt lat="43.0499570000" lon="0.1841920000"><ele>878</ele><time>2026-03-17T08:47:40Z</time></trkpt>
<trkpt lat="43.0499550000" lon="0.1842220000"><ele>878</ele><time>2026-03-17T08:47:43Z</time></trkpt>
<trkpt lat="43.0499370000" lon="0.1842520000"><ele>879</ele><time>2026-03-17T08:47:46Z</time></trkpt>
<trkpt lat="43.0499300000" lon="0.1842770000"><ele>879</ele><time>2026-03-17T08:47:48Z</time></trkpt>
<trkpt lat="43.0499250000" lon="0.1843050000"><ele>879</ele><time>2026-03-17T08:47:51Z</time></trkpt>
<trkpt lat="43.0499200000" lon="0.1843320000"><ele>880</ele><time>2026-03-17T08:47:54Z</time></trkpt>
<trkpt lat="43.0499170000" lon="0.1843570000"><ele>880</ele><time>2026-03-17T08:47:56Z</time></trkpt>
<trkpt lat="43.0499020000" lon="0.1843770000"><ele>880</ele><time>2026-03-17T08:47:59Z</time></trkpt>
<trkpt lat="43.0498920000" lon="0.1844050000"><ele>881</ele><time>2026-03-17T08:48:05Z</time></trkpt>
<trkpt lat="43.0498820000" lon="0.1844270000"><ele>882</ele><time>2026-03-17T08:48:07Z</time></trkpt>
<trkpt lat="43.0498720000" lon="0.1844600000"><ele>882</ele><time>2026-03-17T08:48:10Z</time></trkpt>
<trkpt lat="43.0498620000" lon="0.1844820000"><ele>882</ele><time>2026-03-17T08:48:12Z</time></trkpt>
<trkpt lat="43.0498450000" lon="0.1845000000"><ele>883</ele><time>2026-03-17T08:48:15Z</time></trkpt>
<trkpt lat="43.0498420000" lon="0.1845270000"><ele>883</ele><time>2026-03-17T08:48:18Z</time></trkpt>
<trkpt lat="43.0498320000" lon="0.1845570000"><ele>884</ele><time>2026-03-17T08:48:23Z</time></trkpt>
<trkpt lat="43.0498220000" lon="0.1845820000"><ele>884</ele><time>2026-03-17T08:48:27Z</time></trkpt>
<trkpt lat="43.0498220000" lon="0.1846070000"><ele>884</ele><time>2026-03-17T08:48:29Z</time></trkpt>
<trkpt lat="43.0498230000" lon="0.1846370000"><ele>885</ele><time>2026-03-17T08:48:33Z</time></trkpt>
<trkpt lat="43.0498200000" lon="0.1846700000"><ele>885</ele><time>2026-03-17T08:48:36Z</time></trkpt>
<trkpt lat="43.0498120000" lon="0.1846970000"><ele>886</ele><time>2026-03-17T08:48:39Z</time></trkpt>
<trkpt lat="43.0497970000" lon="0.1847170000"><ele>886</ele><time>2026-03-17T08:48:42Z</time></trkpt>
<trkpt lat="43.0497750000" lon="0.1847300000"><ele>886</ele><time>2026-03-17T08:48:45Z</time></trkpt>
<trkpt lat="43.0497600000" lon="0.1847550000"><ele>887</ele><time>2026-03-17T08:48:48Z</time></trkpt>
<trkpt lat="43.0497530000" lon="0.1847870000"><ele>887</ele><time>2026-03-17T08:48:52Z</time></trkpt>
<trkpt lat="43.0497500000" lon="0.1848150000"><ele>888</ele><time>2026-03-17T08:48:54Z</time></trkpt>
<trkpt lat="43.0497370000" lon="0.1848350000"><ele>888</ele><time>2026-03-17T08:48:57Z</time></trkpt>
<trkpt lat="43.0497320000" lon="0.1848600000"><ele>889</ele><time>2026-03-17T08:49:01Z</time></trkpt>
<trkpt lat="43.0497270000" lon="0.1848830000"><ele>889</ele><time>2026-03-17T08:49:04Z</time></trkpt>
<trkpt lat="43.0497100000" lon="0.1849070000"><ele>890</ele><time>2026-03-17T08:49:08Z</time></trkpt>
<trkpt lat="43.0497020000" lon="0.1849320000"><ele>890</ele><time>2026-03-17T08:49:11Z</time></trkpt>
<trkpt lat="43.0497070000" lon="0.1849620000"><ele>890</ele><time>2026-03-17T08:49:13Z</time></trkpt>
<trkpt lat="43.0497100000" lon="0.1849870000"><ele>891</ele><time>2026-03-17T08:49:15Z</time></trkpt>
<trkpt lat="43.0496970000" lon="0.1850170000"><ele>891</ele><time>2026-03-17T08:49:18Z</time></trkpt>
<trkpt lat="43.0496820000" lon="0.1850420000"><ele>891</ele><time>2026-03-17T08:49:20Z</time></trkpt>
<trkpt lat="43.0496720000" lon="0.1850700000"><ele>891</ele><time>2026-03-17T08:49:22Z</time></trkpt>
<trkpt lat="43.0496670000" lon="0.1851020000"><ele>892</ele><time>2026-03-17T08:49:26Z</time></trkpt>
<trkpt lat="43.0496620000" lon="0.1851300000"><ele>892</ele><time>2026-03-17T08:49:29Z</time></trkpt>
<trkpt lat="43.0496550000" lon="0.1851570000"><ele>893</ele><time>2026-03-17T08:49:32Z</time></trkpt>
<trkpt lat="43.0496420000" lon="0.1851770000"><ele>893</ele><time>2026-03-17T08:49:34Z</time></trkpt>
<trkpt lat="43.0496400000" lon="0.1852050000"><ele>893</ele><time>2026-03-17T08:49:37Z</time></trkpt>
<trkpt lat="43.0496300000" lon="0.1852370000"><ele>894</ele><time>2026-03-17T08:49:40Z</time></trkpt>
<trkpt lat="43.0496170000" lon="0.1852720000"><ele>894</ele><time>2026-03-17T08:49:43Z</time></trkpt>
<trkpt lat="43.0496100000" lon="0.1852930000"><ele>895</ele><time>2026-03-17T08:49:46Z</time></trkpt>
<trkpt lat="43.0495920000" lon="0.1853220000"><ele>895</ele><time>2026-03-17T08:49:48Z</time></trkpt>
<trkpt lat="43.0495870000" lon="0.1853470000"><ele>895</ele><time>2026-03-17T08:49:49Z</time></trkpt>
<trkpt lat="43.0495850000" lon="0.1853770000"><ele>895</ele><time>2026-03-17T08:49:53Z</time></trkpt>
<trkpt lat="43.0495700000" lon="0.1854050000"><ele>896</ele><time>2026-03-17T08:49:58Z</time></trkpt>
<trkpt lat="43.0495620000" lon="0.1854320000"><ele>896</ele><time>2026-03-17T08:50:01Z</time></trkpt>
<trkpt lat="43.0495500000" lon="0.1854520000"><ele>897</ele><time>2026-03-17T08:50:04Z</time></trkpt>
<trkpt lat="43.0495280000" lon="0.1854720000"><ele>897</ele><time>2026-03-17T08:50:07Z</time></trkpt>
<trkpt lat="43.0495120000" lon="0.1855000000"><ele>897</ele><time>2026-03-17T08:50:10Z</time></trkpt>
<trkpt lat="43.0494970000" lon="0.1855200000"><ele>898</ele><time>2026-03-17T08:50:13Z</time></trkpt>
<trkpt lat="43.0494900000" lon="0.1855420000"><ele>898</ele><time>2026-03-17T08:50:15Z</time></trkpt>
<trkpt lat="43.0494820000" lon="0.1855700000"><ele>898</ele><time>2026-03-17T08:50:17Z</time></trkpt>
<trkpt lat="43.0494720000" lon="0.1855970000"><ele>899</ele><time>2026-03-17T08:50:19Z</time></trkpt>
<trkpt lat="43.0494670000" lon="0.1856320000"><ele>899</ele><time>2026-03-17T08:50:22Z</time></trkpt>
<trkpt lat="43.0494550000" lon="0.1856530000"><ele>899</ele><time>2026-03-17T08:50:24Z</time></trkpt>
<trkpt lat="43.0494400000" lon="0.1856870000"><ele>899</ele><time>2026-03-17T08:50:27Z</time></trkpt>
<trkpt lat="43.0494400000" lon="0.1857180000"><ele>900</ele><time>2026-03-17T08:50:30Z</time></trkpt>
<trkpt lat="43.0494170000" lon="0.1857420000"><ele>900</ele><time>2026-03-17T08:50:32Z</time></trkpt>
<trkpt lat="43.0494120000" lon="0.1857650000"><ele>900</ele><time>2026-03-17T08:50:35Z</time></trkpt>
<trkpt lat="43.0493950000" lon="0.1857850000"><ele>901</ele><time>2026-03-17T08:50:39Z</time></trkpt>
<trkpt lat="43.0493870000" lon="0.1858120000"><ele>901</ele><time>2026-03-17T08:50:42Z</time></trkpt>
<trkpt lat="43.0493730000" lon="0.1858420000"><ele>901</ele><time>2026-03-17T08:50:45Z</time></trkpt>
<trkpt lat="43.0493650000" lon="0.1858670000"><ele>902</ele><time>2026-03-17T08:50:47Z</time></trkpt>
<trkpt lat="43.0493570000" lon="0.1858900000"><ele>902</ele><time>2026-03-17T08:50:49Z</time></trkpt>
<trkpt lat="43.0493570000" lon="0.1859270000"><ele>902</ele><time>2026-03-17T08:50:52Z</time></trkpt>
<trkpt lat="43.0493500000" lon="0.1859500000"><ele>902</ele><time>2026-03-17T08:50:54Z</time></trkpt>
<trkpt lat="43.0493470000" lon="0.1859770000"><ele>903</ele><time>2026-03-17T08:50:56Z</time></trkpt>
<trkpt lat="43.0493320000" lon="0.1860050000"><ele>903</ele><time>2026-03-17T08:50:59Z</time></trkpt>
<trkpt lat="43.0493070000" lon="0.1860370000"><ele>903</ele><time>2026-03-17T08:51:02Z</time></trkpt>
<trkpt lat="43.0492970000" lon="0.1860650000"><ele>903</ele><time>2026-03-17T08:51:04Z</time></trkpt>
<trkpt lat="43.0492870000" lon="0.1860970000"><ele>904</ele><time>2026-03-17T08:51:07Z</time></trkpt>
<trkpt lat="43.0492750000" lon="0.1861170000"><ele>904</ele><time>2026-03-17T08:51:09Z</time></trkpt>
<trkpt lat="43.0492650000" lon="0.1861450000"><ele>904</ele><time>2026-03-17T08:51:12Z</time></trkpt>
<trkpt lat="43.0492570000" lon="0.1861670000"><ele>905</ele><time>2026-03-17T08:51:15Z</time></trkpt>
<trkpt lat="43.0492500000" lon="0.1861920000"><ele>905</ele><time>2026-03-17T08:51:17Z</time></trkpt>
<trkpt lat="43.0492370000" lon="0.1862220000"><ele>905</ele><time>2026-03-17T08:51:20Z</time></trkpt>
<trkpt lat="43.0492170000" lon="0.1862420000"><ele>905</ele><time>2026-03-17T08:51:22Z</time></trkpt>
<trkpt lat="43.0492070000" lon="0.1862630000"><ele>905</ele><time>2026-03-17T08:51:24Z</time></trkpt>
<trkpt lat="43.0492000000" lon="0.1862970000"><ele>906</ele><time>2026-03-17T08:51:27Z</time></trkpt>
<trkpt lat="43.0491850000" lon="0.1863270000"><ele>906</ele><time>2026-03-17T08:51:30Z</time></trkpt>
<trkpt lat="43.0491820000" lon="0.1863650000"><ele>906</ele><time>2026-03-17T08:51:33Z</time></trkpt>
<trkpt lat="43.0491800000" lon="0.1863920000"><ele>906</ele><time>2026-03-17T08:51:35Z</time></trkpt>
<trkpt lat="43.0491720000" lon="0.1864200000"><ele>906</ele><time>2026-03-17T08:51:38Z</time></trkpt>
<trkpt lat="43.0491670000" lon="0.1864520000"><ele>907</ele><time>2026-03-17T08:51:41Z</time></trkpt>
<trkpt lat="43.0491600000" lon="0.1864750000"><ele>907</ele><time>2026-03-17T08:51:44Z</time></trkpt>
<trkpt lat="43.0491320000" lon="0.1864670000"><ele>907</ele><time>2026-03-17T08:51:45Z</time></trkpt>
<trkpt lat="43.0491070000" lon="0.1864720000"><ele>908</ele><time>2026-03-17T08:51:47Z</time></trkpt>
<trkpt lat="43.0490920000" lon="0.1864570000"><ele>908</ele><time>2026-03-17T08:51:49Z</time></trkpt>
<trkpt lat="43.0490850000" lon="0.1864320000"><ele>908</ele><time>2026-03-17T08:51:53Z</time></trkpt>
<trkpt lat="43.0490770000" lon="0.1864580000"><ele>908</ele><time>2026-03-17T08:52:01Z</time></trkpt>
<trkpt lat="43.0490700000" lon="0.1865050000"><ele>908</ele><time>2026-03-17T08:52:03Z</time></trkpt>
<trkpt lat="43.0490520000" lon="0.1865420000"><ele>908</ele><time>2026-03-17T08:52:05Z</time></trkpt>
<trkpt lat="43.0490420000" lon="0.1865620000"><ele>909</ele><time>2026-03-17T08:52:08Z</time></trkpt>
<trkpt lat="43.0490300000" lon="0.1865870000"><ele>909</ele><time>2026-03-17T08:52:11Z</time></trkpt>
<trkpt lat="43.0490150000" lon="0.1866150000"><ele>909</ele><time>2026-03-17T08:52:15Z</time></trkpt>
<trkpt lat="43.0489970000" lon="0.1866420000"><ele>909</ele><time>2026-03-17T08:52:18Z</time></trkpt>
<trkpt lat="43.0489720000" lon="0.1866570000"><ele>910</ele><time>2026-03-17T08:52:21Z</time></trkpt>
<trkpt lat="43.0489550000" lon="0.1866720000"><ele>910</ele><time>2026-03-17T08:52:23Z</time></trkpt>
<trkpt lat="43.0489450000" lon="0.1867020000"><ele>910</ele><time>2026-03-17T08:52:26Z</time></trkpt>
<trkpt lat="43.0489450000" lon="0.1867300000"><ele>910</ele><time>2026-03-17T08:52:28Z</time></trkpt>
<trkpt lat="43.0489270000" lon="0.1867520000"><ele>910</ele><time>2026-03-17T08:52:30Z</time></trkpt>
<trkpt lat="43.0489100000" lon="0.1867720000"><ele>910</ele><time>2026-03-17T08:52:32Z</time></trkpt>
<trkpt lat="43.0488950000" lon="0.1867900000"><ele>910</ele><time>2026-03-17T08:52:34Z</time></trkpt>
<trkpt lat="43.0488770000" lon="0.1868070000"><ele>911</ele><time>2026-03-17T08:52:36Z</time></trkpt>
<trkpt lat="43.0488550000" lon="0.1868120000"><ele>911</ele><time>2026-03-17T08:52:40Z</time></trkpt>
<trkpt lat="43.0488570000" lon="0.1867870000"><ele>911</ele><time>2026-03-17T08:52:44Z</time></trkpt>
<trkpt lat="43.0488720000" lon="0.1867630000"><ele>911</ele><time>2026-03-17T08:52:46Z</time></trkpt>
<trkpt lat="43.0488800000" lon="0.1867370000"><ele>911</ele><time>2026-03-17T08:52:48Z</time></trkpt>
<trkpt lat="43.0488920000" lon="0.1867070000"><ele>911</ele><time>2026-03-17T08:52:50Z</time></trkpt>
<trkpt lat="43.0489070000" lon="0.1866820000"><ele>911</ele><time>2026-03-17T08:52:58Z</time></trkpt>
<trkpt lat="43.0489220000" lon="0.1866520000"><ele>911</ele><time>2026-03-17T08:53:00Z</time></trkpt>
<trkpt lat="43.0489400000" lon="0.1866220000"><ele>911</ele><time>2026-03-17T08:53:02Z</time></trkpt>
<trkpt lat="43.0489570000" lon="0.1866020000"><ele>910</ele><time>2026-03-17T08:53:04Z</time></trkpt>
<trkpt lat="43.0489800000" lon="0.1865900000"><ele>910</ele><time>2026-03-17T08:53:06Z</time></trkpt>
<trkpt lat="43.0489620000" lon="0.1865820000"><ele>910</ele><time>2026-03-17T08:53:12Z</time></trkpt>
<trkpt lat="43.0489420000" lon="0.1865820000"><ele>911</ele><time>2026-03-17T08:53:15Z</time></trkpt>
<trkpt lat="43.0489220000" lon="0.1865570000"><ele>912</ele><time>2026-03-17T08:53:25Z</time></trkpt>
<trkpt lat="43.0488950000" lon="0.1865420000"><ele>913</ele><time>2026-03-17T08:53:27Z</time></trkpt>
<trkpt lat="43.0488650000" lon="0.1865400000"><ele>913</ele><time>2026-03-17T08:53:29Z</time></trkpt>
<trkpt lat="43.0488450000" lon="0.1865470000"><ele>913</ele><time>2026-03-17T08:53:31Z</time></trkpt>
<trkpt lat="43.0488270000" lon="0.1865530000"><ele>914</ele><time>2026-03-17T08:53:33Z</time></trkpt>
<trkpt lat="43.0488020000" lon="0.1865620000"><ele>914</ele><time>2026-03-17T08:53:36Z</time></trkpt>
<trkpt lat="43.0487820000" lon="0.1865720000"><ele>915</ele><time>2026-03-17T08:53:39Z</time></trkpt>
<trkpt lat="43.0487620000" lon="0.1865820000"><ele>915</ele><time>2026-03-17T08:53:42Z</time></trkpt>
<trkpt lat="43.0487400000" lon="0.1865970000"><ele>915</ele><time>2026-03-17T08:53:45Z</time></trkpt>
<trkpt lat="43.0487300000" lon="0.1866220000"><ele>916</ele><time>2026-03-17T08:53:48Z</time></trkpt>
<trkpt lat="43.0487320000" lon="0.1866550000"><ele>916</ele><time>2026-03-17T08:53:51Z</time></trkpt>
<trkpt lat="43.0487170000" lon="0.1866800000"><ele>916</ele><time>2026-03-17T08:53:54Z</time></trkpt>
<trkpt lat="43.0487070000" lon="0.1867020000"><ele>917</ele><time>2026-03-17T08:53:57Z</time></trkpt>
<trkpt lat="43.0486800000" lon="0.1866930000"><ele>917</ele><time>2026-03-17T08:53:59Z</time></trkpt>
<trkpt lat="43.0486570000" lon="0.1866870000"><ele>917</ele><time>2026-03-17T08:54:01Z</time></trkpt>
<trkpt lat="43.0486370000" lon="0.1866970000"><ele>918</ele><time>2026-03-17T08:54:04Z</time></trkpt>
<trkpt lat="43.0486220000" lon="0.1867120000"><ele>918</ele><time>2026-03-17T08:54:07Z</time></trkpt>
<trkpt lat="43.0486020000" lon="0.1867270000"><ele>919</ele><time>2026-03-17T08:54:10Z</time></trkpt>
<trkpt lat="43.0485770000" lon="0.1867370000"><ele>919</ele><time>2026-03-17T08:54:16Z</time></trkpt>
<trkpt lat="43.0485620000" lon="0.1867520000"><ele>918</ele><time>2026-03-17T08:54:18Z</time></trkpt>
<trkpt lat="43.0485820000" lon="0.1867420000"><ele>918</ele><time>2026-03-17T08:54:24Z</time></trkpt>
<trkpt lat="43.0486050000" lon="0.1867420000"><ele>918</ele><time>2026-03-17T08:54:25Z</time></trkpt>
<trkpt lat="43.0486270000" lon="0.1867370000"><ele>918</ele><time>2026-03-17T08:54:26Z</time></trkpt>
<trkpt lat="43.0486470000" lon="0.1867320000"><ele>918</ele><time>2026-03-17T08:54:27Z</time></trkpt>
<trkpt lat="43.0486270000" lon="0.1867380000"><ele>918</ele><time>2026-03-17T08:55:05Z</time></trkpt>
<trkpt lat="43.0485870000" lon="0.1867570000"><ele>918</ele><time>2026-03-17T08:55:07Z</time></trkpt>
<trkpt lat="43.0485620000" lon="0.1867630000"><ele>918</ele><time>2026-03-17T08:55:08Z</time></trkpt>
<trkpt lat="43.0485430000" lon="0.1867720000"><ele>918</ele><time>2026-03-17T08:55:09Z</time></trkpt>
<trkpt lat="43.0485270000" lon="0.1867850000"><ele>918</ele><time>2026-03-17T08:55:10Z</time></trkpt>
<trkpt lat="43.0485070000" lon="0.1867970000"><ele>918</ele><time>2026-03-17T08:55:11Z</time></trkpt>
<trkpt lat="43.0484820000" lon="0.1868220000"><ele>918</ele><time>2026-03-17T08:55:13Z</time></trkpt>
<trkpt lat="43.0484600000" lon="0.1868270000"><ele>918</ele><time>2026-03-17T08:55:15Z</time></trkpt>
<trkpt lat="43.0484300000" lon="0.1868370000"><ele>918</ele><time>2026-03-17T08:55:17Z</time></trkpt>
<trkpt lat="43.0483970000" lon="0.1868480000"><ele>918</ele><time>2026-03-17T08:55:19Z</time></trkpt>
<trkpt lat="43.0483670000" lon="0.1868650000"><ele>918</ele><time>2026-03-17T08:55:21Z</time></trkpt>
<trkpt lat="43.0483450000" lon="0.1868850000"><ele>918</ele><time>2026-03-17T08:55:23Z</time></trkpt>
<trkpt lat="43.0483120000" lon="0.1868900000"><ele>918</ele><time>2026-03-17T08:55:25Z</time></trkpt>
<trkpt lat="43.0482970000" lon="0.1869070000"><ele>918</ele><time>2026-03-17T08:55:27Z</time></trkpt>
<trkpt lat="43.0482770000" lon="0.1869220000"><ele>918</ele><time>2026-03-17T08:55:30Z</time></trkpt>
<trkpt lat="43.0482550000" lon="0.1869320000"><ele>918</ele><time>2026-03-17T08:55:32Z</time></trkpt>
<trkpt lat="43.0482470000" lon="0.1869570000"><ele>918</ele><time>2026-03-17T08:55:34Z</time></trkpt>
<trkpt lat="43.0482370000" lon="0.1869820000"><ele>918</ele><time>2026-03-17T08:55:36Z</time></trkpt>
<trkpt lat="43.0482220000" lon="0.1870270000"><ele>918</ele><time>2026-03-17T08:55:38Z</time></trkpt>
<trkpt lat="43.0482120000" lon="0.1870750000"><ele>918</ele><time>2026-03-17T08:55:40Z</time></trkpt>
<trkpt lat="43.0482000000" lon="0.1871070000"><ele>919</ele><time>2026-03-17T08:55:42Z</time></trkpt>
<trkpt lat="43.0481820000" lon="0.1871250000"><ele>919</ele><time>2026-03-17T08:55:46Z</time></trkpt>
<trkpt lat="43.0481770000" lon="0.1871470000"><ele>919</ele><time>2026-03-17T08:56:07Z</time></trkpt>
<trkpt lat="43.0481770000" lon="0.1871770000"><ele>919</ele><time>2026-03-17T08:56:09Z</time></trkpt>
<trkpt lat="43.0481870000" lon="0.1872070000"><ele>919</ele><time>2026-03-17T08:56:12Z</time></trkpt>
<trkpt lat="43.0481820000" lon="0.1872320000"><ele>919</ele><time>2026-03-17T08:56:13Z</time></trkpt>
<trkpt lat="43.0481820000" lon="0.1872620000"><ele>919</ele><time>2026-03-17T08:56:15Z</time></trkpt>
<trkpt lat="43.0481770000" lon="0.1872870000"><ele>919</ele><time>2026-03-17T08:56:17Z</time></trkpt>
<trkpt lat="43.0481870000" lon="0.1873220000"><ele>919</ele><time>2026-03-17T08:56:21Z</time></trkpt>
<trkpt lat="43.0481950000" lon="0.1873520000"><ele>919</ele><time>2026-03-17T08:56:24Z</time></trkpt>
<trkpt lat="43.0481920000" lon="0.1873780000"><ele>919</ele><time>2026-03-17T08:56:27Z</time></trkpt>
<trkpt lat="43.0481820000" lon="0.1874080000"><ele>919</ele><time>2026-03-17T08:56:31Z</time></trkpt>
<trkpt lat="43.0481670000" lon="0.1874220000"><ele>919</ele><time>2026-03-17T08:56:34Z</time></trkpt>
<trkpt lat="43.0481550000" lon="0.1874470000"><ele>919</ele><time>2026-03-17T08:56:36Z</time></trkpt>
<trkpt lat="43.0481520000" lon="0.1874800000"><ele>920</ele><time>2026-03-17T08:56:38Z</time></trkpt>
<trkpt lat="43.0481520000" lon="0.1875100000"><ele>920</ele><time>2026-03-17T08:56:41Z</time></trkpt>
<trkpt lat="43.0481370000" lon="0.1875220000"><ele>920</ele><time>2026-03-17T08:56:44Z</time></trkpt>
<trkpt lat="43.0481270000" lon="0.1875430000"><ele>921</ele><time>2026-03-17T08:56:48Z</time></trkpt>
<trkpt lat="43.0481120000" lon="0.1875680000"><ele>921</ele><time>2026-03-17T08:56:51Z</time></trkpt>
<trkpt lat="43.0480970000" lon="0.1875970000"><ele>922</ele><time>2026-03-17T08:56:54Z</time></trkpt>
<trkpt lat="43.0480820000" lon="0.1876200000"><ele>923</ele><time>2026-03-17T08:56:59Z</time></trkpt>
<trkpt lat="43.0480620000" lon="0.1876320000"><ele>923</ele><time>2026-03-17T08:57:01Z</time></trkpt>
<trkpt lat="43.0480500000" lon="0.1876670000"><ele>924</ele><time>2026-03-17T08:57:03Z</time></trkpt>
<trkpt lat="43.0480250000" lon="0.1876820000"><ele>924</ele><time>2026-03-17T08:57:05Z</time></trkpt>
<trkpt lat="43.0480050000" lon="0.1877070000"><ele>924</ele><time>2026-03-17T08:57:07Z</time></trkpt>
<trkpt lat="43.0479850000" lon="0.1877220000"><ele>925</ele><time>2026-03-17T08:57:09Z</time></trkpt>
<trkpt lat="43.0479600000" lon="0.1877420000"><ele>925</ele><time>2026-03-17T08:57:11Z</time></trkpt>
<trkpt lat="43.0479450000" lon="0.1877620000"><ele>925</ele><time>2026-03-17T08:57:14Z</time></trkpt>
<trkpt lat="43.0479270000" lon="0.1877770000"><ele>926</ele><time>2026-03-17T08:57:17Z</time></trkpt>
<trkpt lat="43.0479100000" lon="0.1877780000"><ele>926</ele><time>2026-03-17T08:57:21Z</time></trkpt>
<trkpt lat="43.0479100000" lon="0.1877550000"><ele>927</ele><time>2026-03-17T08:57:24Z</time></trkpt>
<trkpt lat="43.0478920000" lon="0.1877820000"><ele>927</ele><time>2026-03-17T08:57:27Z</time></trkpt>
<trkpt lat="43.0478820000" lon="0.1878020000"><ele>927</ele><time>2026-03-17T08:57:29Z</time></trkpt>
<trkpt lat="43.0478620000" lon="0.1878170000"><ele>928</ele><time>2026-03-17T08:57:35Z</time></trkpt>
<trkpt lat="43.0478370000" lon="0.1878020000"><ele>929</ele><time>2026-03-17T08:57:39Z</time></trkpt>
<trkpt lat="43.0478170000" lon="0.1878020000"><ele>929</ele><time>2026-03-17T08:57:42Z</time></trkpt>
<trkpt lat="43.0477920000" lon="0.1877870000"><ele>930</ele><time>2026-03-17T08:57:45Z</time></trkpt>
<trkpt lat="43.0477700000" lon="0.1877680000"><ele>930</ele><time>2026-03-17T08:57:48Z</time></trkpt>
<trkpt lat="43.0477550000" lon="0.1877450000"><ele>930</ele><time>2026-03-17T08:57:50Z</time></trkpt>
<trkpt lat="43.0477220000" lon="0.1877270000"><ele>930</ele><time>2026-03-17T08:57:52Z</time></trkpt>
<trkpt lat="43.0477020000" lon="0.1877120000"><ele>930</ele><time>2026-03-17T08:57:54Z</time></trkpt>
<trkpt lat="43.0476800000" lon="0.1877000000"><ele>930</ele><time>2026-03-17T08:57:59Z</time></trkpt>
<trkpt lat="43.0476570000" lon="0.1877120000"><ele>930</ele><time>2026-03-17T08:58:03Z</time></trkpt>
<trkpt lat="43.0476400000" lon="0.1877070000"><ele>931</ele><time>2026-03-17T08:58:06Z</time></trkpt>
<trkpt lat="43.0476250000" lon="0.1877220000"><ele>931</ele><time>2026-03-17T08:58:07Z</time></trkpt>
<trkpt lat="43.0476070000" lon="0.1877200000"><ele>931</ele><time>2026-03-17T08:58:09Z</time></trkpt>
<trkpt lat="43.0476250000" lon="0.1877080000"><ele>932</ele><time>2026-03-17T08:58:20Z</time></trkpt>
<trkpt lat="43.0476170000" lon="0.1877450000"><ele>934</ele><time>2026-03-17T08:58:37Z</time></trkpt>
<trkpt lat="43.0476020000" lon="0.1877680000"><ele>934</ele><time>2026-03-17T08:58:38Z</time></trkpt>
<trkpt lat="43.0475820000" lon="0.1877970000"><ele>934</ele><time>2026-03-17T08:58:39Z</time></trkpt>
<trkpt lat="43.0475670000" lon="0.1878270000"><ele>934</ele><time>2026-03-17T08:58:40Z</time></trkpt>
<trkpt lat="43.0475550000" lon="0.1878470000"><ele>935</ele><time>2026-03-17T08:58:41Z</time></trkpt>
<trkpt lat="43.0475420000" lon="0.1878820000"><ele>935</ele><time>2026-03-17T08:58:43Z</time></trkpt>
<trkpt lat="43.0475400000" lon="0.1879080000"><ele>935</ele><time>2026-03-17T08:58:46Z</time></trkpt>
<trkpt lat="43.0475250000" lon="0.1879320000"><ele>936</ele><time>2026-03-17T08:58:49Z</time></trkpt>
<trkpt lat="43.0475200000" lon="0.1879570000"><ele>936</ele><time>2026-03-17T08:58:54Z</time></trkpt>
<trkpt lat="43.0475070000" lon="0.1879770000"><ele>937</ele><time>2026-03-17T08:58:58Z</time></trkpt>
<trkpt lat="43.0474920000" lon="0.1880000000"><ele>938</ele><time>2026-03-17T08:59:01Z</time></trkpt>
<trkpt lat="43.0474770000" lon="0.1880170000"><ele>939</ele><time>2026-03-17T08:59:06Z</time></trkpt>
<trkpt lat="43.0474600000" lon="0.1880320000"><ele>939</ele><time>2026-03-17T08:59:09Z</time></trkpt>
<trkpt lat="43.0474550000" lon="0.1880620000"><ele>940</ele><time>2026-03-17T08:59:17Z</time></trkpt>
<trkpt lat="43.0474470000" lon="0.1880920000"><ele>941</ele><time>2026-03-17T08:59:20Z</time></trkpt>
<trkpt lat="43.0474320000" lon="0.1881200000"><ele>942</ele><time>2026-03-17T08:59:27Z</time></trkpt>
<trkpt lat="43.0474170000" lon="0.1881350000"><ele>942</ele><time>2026-03-17T08:59:29Z</time></trkpt>
<trkpt lat="43.0474020000" lon="0.1881570000"><ele>942</ele><time>2026-03-17T08:59:32Z</time></trkpt>
<trkpt lat="43.0473900000" lon="0.1881820000"><ele>943</ele><time>2026-03-17T08:59:35Z</time></trkpt>
<trkpt lat="43.0473700000" lon="0.1882020000"><ele>943</ele><time>2026-03-17T08:59:38Z</time></trkpt>
<trkpt lat="43.0473520000" lon="0.1882120000"><ele>944</ele><time>2026-03-17T08:59:42Z</time></trkpt>
<trkpt lat="43.0473320000" lon="0.1882220000"><ele>947</ele><time>2026-03-17T09:00:07Z</time></trkpt>
<trkpt lat="43.0473070000" lon="0.1882620000"><ele>947</ele><time>2026-03-17T09:00:09Z</time></trkpt>
<trkpt lat="43.0472920000" lon="0.1882850000"><ele>947</ele><time>2026-03-17T09:00:10Z</time></trkpt>
<trkpt lat="43.0472770000" lon="0.1883070000"><ele>947</ele><time>2026-03-17T09:00:11Z</time></trkpt>
<trkpt lat="43.0472570000" lon="0.1883400000"><ele>948</ele><time>2026-03-17T09:00:13Z</time></trkpt>
<trkpt lat="43.0472470000" lon="0.1883670000"><ele>948</ele><time>2026-03-17T09:00:15Z</time></trkpt>
<trkpt lat="43.0472320000" lon="0.1883900000"><ele>948</ele><time>2026-03-17T09:00:18Z</time></trkpt>
<trkpt lat="43.0472200000" lon="0.1884070000"><ele>949</ele><time>2026-03-17T09:00:21Z</time></trkpt>
<trkpt lat="43.0471970000" lon="0.1884220000"><ele>949</ele><time>2026-03-17T09:00:24Z</time></trkpt>
<trkpt lat="43.0471900000" lon="0.1884500000"><ele>949</ele><time>2026-03-17T09:00:27Z</time></trkpt>
<trkpt lat="43.0471770000" lon="0.1884800000"><ele>950</ele><time>2026-03-17T09:00:30Z</time></trkpt>
<trkpt lat="43.0471650000" lon="0.1885070000"><ele>950</ele><time>2026-03-17T09:00:33Z</time></trkpt>
<trkpt lat="43.0471470000" lon="0.1885300000"><ele>951</ele><time>2026-03-17T09:00:36Z</time></trkpt>
<trkpt lat="43.0471320000" lon="0.1885520000"><ele>951</ele><time>2026-03-17T09:00:38Z</time></trkpt>
<trkpt lat="43.0471150000" lon="0.1885770000"><ele>951</ele><time>2026-03-17T09:00:41Z</time></trkpt>
<trkpt lat="43.0470970000" lon="0.1885950000"><ele>952</ele><time>2026-03-17T09:00:43Z</time></trkpt>
<trkpt lat="43.0470720000" lon="0.1886070000"><ele>952</ele><time>2026-03-17T09:00:45Z</time></trkpt>
<trkpt lat="43.0470550000" lon="0.1886080000"><ele>952</ele><time>2026-03-17T09:00:47Z</time></trkpt>
<trkpt lat="43.0470370000" lon="0.1886020000"><ele>952</ele><time>2026-03-17T09:00:49Z</time></trkpt>
<trkpt lat="43.0470120000" lon="0.1885970000"><ele>953</ele><time>2026-03-17T09:00:52Z</time></trkpt>
<trkpt lat="43.0469970000" lon="0.1885800000"><ele>953</ele><time>2026-03-17T09:00:55Z</time></trkpt>
<trkpt lat="43.0469850000" lon="0.1885600000"><ele>953</ele><time>2026-03-17T09:00:57Z</time></trkpt>
<trkpt lat="43.0469800000" lon="0.1885320000"><ele>954</ele><time>2026-03-17T09:01:00Z</time></trkpt>
<trkpt lat="43.0469720000" lon="0.1885070000"><ele>954</ele><time>2026-03-17T09:01:13Z</time></trkpt>
<trkpt lat="43.0469570000" lon="0.1884770000"><ele>954</ele><time>2026-03-17T09:01:16Z</time></trkpt>
<trkpt lat="43.0469370000" lon="0.1884470000"><ele>954</ele><time>2026-03-17T09:01:18Z</time></trkpt>
<trkpt lat="43.0469150000" lon="0.1884320000"><ele>954</ele><time>2026-03-17T09:01:20Z</time></trkpt>
<trkpt lat="43.0469300000" lon="0.1883950000"><ele>954</ele><time>2026-03-17T09:01:32Z</time></trkpt>
<trkpt lat="43.0469320000" lon="0.1883570000"><ele>954</ele><time>2026-03-17T09:01:36Z</time></trkpt>
<trkpt lat="43.0469370000" lon="0.1883320000"><ele>954</ele><time>2026-03-17T09:01:37Z</time></trkpt>
<trkpt lat="43.0469450000" lon="0.1882870000"><ele>954</ele><time>2026-03-17T09:01:39Z</time></trkpt>
<trkpt lat="43.0469600000" lon="0.1882600000"><ele>954</ele><time>2026-03-17T09:01:41Z</time></trkpt>
<trkpt lat="43.0469420000" lon="0.1882420000"><ele>954</ele><time>2026-03-17T09:02:07Z</time></trkpt>
<trkpt lat="43.0469300000" lon="0.1882250000"><ele>954</ele><time>2026-03-17T09:02:09Z</time></trkpt>
<trkpt lat="43.0469200000" lon="0.1881980000"><ele>954</ele><time>2026-03-17T09:02:11Z</time></trkpt>
<trkpt lat="43.0469070000" lon="0.1881670000"><ele>953</ele><time>2026-03-17T09:02:13Z</time></trkpt>
<trkpt lat="43.0469020000" lon="0.1881350000"><ele>953</ele><time>2026-03-17T09:02:15Z</time></trkpt>
<trkpt lat="43.0468950000" lon="0.1881070000"><ele>953</ele><time>2026-03-17T09:02:17Z</time></trkpt>
<trkpt lat="43.0468920000" lon="0.1880780000"><ele>953</ele><time>2026-03-17T09:02:19Z</time></trkpt>
<trkpt lat="43.0468920000" lon="0.1880520000"><ele>953</ele><time>2026-03-17T09:02:21Z</time></trkpt>
<trkpt lat="43.0468870000" lon="0.1880170000"><ele>953</ele><time>2026-03-17T09:02:23Z</time></trkpt>
<trkpt lat="43.0468820000" lon="0.1879920000"><ele>953</ele><time>2026-03-17T09:02:25Z</time></trkpt>
<trkpt lat="43.0468770000" lon="0.1879570000"><ele>953</ele><time>2026-03-17T09:02:28Z</time></trkpt>
<trkpt lat="43.0468720000" lon="0.1879300000"><ele>953</ele><time>2026-03-17T09:02:30Z</time></trkpt>
<trkpt lat="43.0468670000" lon="0.1879020000"><ele>954</ele><time>2026-03-17T09:02:32Z</time></trkpt>
<trkpt lat="43.0468620000" lon="0.1878720000"><ele>954</ele><time>2026-03-17T09:02:34Z</time></trkpt>
<trkpt lat="43.0468500000" lon="0.1878420000"><ele>954</ele><time>2026-03-17T09:02:37Z</time></trkpt>
<trkpt lat="43.0468420000" lon="0.1878170000"><ele>954</ele><time>2026-03-17T09:02:39Z</time></trkpt>
<trkpt lat="43.0468320000" lon="0.1877870000"><ele>955</ele><time>2026-03-17T09:02:42Z</time></trkpt>
<trkpt lat="43.0468270000" lon="0.1877620000"><ele>955</ele><time>2026-03-17T09:02:44Z</time></trkpt>
<trkpt lat="43.0468270000" lon="0.1877270000"><ele>955</ele><time>2026-03-17T09:02:46Z</time></trkpt>
<trkpt lat="43.0468220000" lon="0.1877020000"><ele>956</ele><time>2026-03-17T09:02:49Z</time></trkpt>
<trkpt lat="43.0468120000" lon="0.1876700000"><ele>957</ele><time>2026-03-17T09:02:52Z</time></trkpt>
<trkpt lat="43.0467970000" lon="0.1876420000"><ele>957</ele><time>2026-03-17T09:02:55Z</time></trkpt>
<trkpt lat="43.0467980000" lon="0.1876120000"><ele>957</ele><time>2026-03-17T09:02:58Z</time></trkpt>
<trkpt lat="43.0468050000" lon="0.1875870000"><ele>958</ele><time>2026-03-17T09:03:01Z</time></trkpt>
<trkpt lat="43.0468170000" lon="0.1875620000"><ele>958</ele><time>2026-03-17T09:03:04Z</time></trkpt>
<trkpt lat="43.0468270000" lon="0.1875420000"><ele>959</ele><time>2026-03-17T09:03:10Z</time></trkpt>
<trkpt lat="43.0468170000" lon="0.1875220000"><ele>960</ele><time>2026-03-17T09:03:14Z</time></trkpt>
<trkpt lat="43.0468220000" lon="0.1874920000"><ele>961</ele><time>2026-03-17T09:03:21Z</time></trkpt>
<trkpt lat="43.0468220000" lon="0.1874650000"><ele>962</ele><time>2026-03-17T09:03:23Z</time></trkpt>
<trkpt lat="43.0468270000" lon="0.1874400000"><ele>962</ele><time>2026-03-17T09:03:25Z</time></trkpt>
<trkpt lat="43.0468320000" lon="0.1874080000"><ele>962</ele><time>2026-03-17T09:03:28Z</time></trkpt>
<trkpt lat="43.0468400000" lon="0.1873820000"><ele>963</ele><time>2026-03-17T09:03:32Z</time></trkpt>
<trkpt lat="43.0468320000" lon="0.1873570000"><ele>964</ele><time>2026-03-17T09:03:39Z</time></trkpt>
<trkpt lat="43.0468170000" lon="0.1873250000"><ele>969</ele><time>2026-03-17T09:04:05Z</time></trkpt>
<trkpt lat="43.0468200000" lon="0.1872720000"><ele>969</ele><time>2026-03-17T09:04:07Z</time></trkpt>
<trkpt lat="43.0468220000" lon="0.1872380000"><ele>969</ele><time>2026-03-17T09:04:08Z</time></trkpt>
<trkpt lat="43.0468270000" lon="0.1872120000"><ele>969</ele><time>2026-03-17T09:04:09Z</time></trkpt>
<trkpt lat="43.0468350000" lon="0.1871720000"><ele>970</ele><time>2026-03-17T09:04:11Z</time></trkpt>
<trkpt lat="43.0468470000" lon="0.1871520000"><ele>970</ele><time>2026-03-17T09:04:13Z</time></trkpt>
<trkpt lat="43.0468600000" lon="0.1871270000"><ele>970</ele><time>2026-03-17T09:04:17Z</time></trkpt>
<trkpt lat="43.0468720000" lon="0.1871070000"><ele>971</ele><time>2026-03-17T09:04:20Z</time></trkpt>
<trkpt lat="43.0468800000" lon="0.1870650000"><ele>971</ele><time>2026-03-17T09:05:00Z</time></trkpt>
<trkpt lat="43.0468820000" lon="0.1870370000"><ele>971</ele><time>2026-03-17T09:05:01Z</time></trkpt>
<trkpt lat="43.0468870000" lon="0.1870120000"><ele>971</ele><time>2026-03-17T09:05:02Z</time></trkpt>
<trkpt lat="43.0469000000" lon="0.1869750000"><ele>971</ele><time>2026-03-17T09:05:04Z</time></trkpt>
<trkpt lat="43.0469120000" lon="0.1869470000"><ele>971</ele><time>2026-03-17T09:05:06Z</time></trkpt>
<trkpt lat="43.0469220000" lon="0.1869170000"><ele>971</ele><time>2026-03-17T09:05:09Z</time></trkpt>
<trkpt lat="43.0469250000" lon="0.1868850000"><ele>971</ele><time>2026-03-17T09:05:12Z</time></trkpt>
<trkpt lat="43.0469350000" lon="0.1868600000"><ele>971</ele><time>2026-03-17T09:05:14Z</time></trkpt>
<trkpt lat="43.0469370000" lon="0.1868230000"><ele>971</ele><time>2026-03-17T09:05:17Z</time></trkpt>
<trkpt lat="43.0469370000" lon="0.1867970000"><ele>971</ele><time>2026-03-17T09:05:19Z</time></trkpt>
<trkpt lat="43.0469450000" lon="0.1867720000"><ele>971</ele><time>2026-03-17T09:05:21Z</time></trkpt>
<trkpt lat="43.0469500000" lon="0.1867350000"><ele>972</ele><time>2026-03-17T09:05:24Z</time></trkpt>
<trkpt lat="43.0469520000" lon="0.1867080000"><ele>972</ele><time>2026-03-17T09:05:26Z</time></trkpt>
<trkpt lat="43.0469600000" lon="0.1866770000"><ele>972</ele><time>2026-03-17T09:05:29Z</time></trkpt>
<trkpt lat="43.0469530000" lon="0.1866420000"><ele>971</ele><time>2026-03-17T09:05:32Z</time></trkpt>
<trkpt lat="43.0469570000" lon="0.1866120000"><ele>972</ele><time>2026-03-17T09:05:35Z</time></trkpt>
<trkpt lat="43.0469600000" lon="0.1865850000"><ele>972</ele><time>2026-03-17T09:05:38Z</time></trkpt>
<trkpt lat="43.0469600000" lon="0.1865570000"><ele>972</ele><time>2026-03-17T09:05:47Z</time></trkpt>
<trkpt lat="43.0469720000" lon="0.1865350000"><ele>972</ele><time>2026-03-17T09:05:49Z</time></trkpt>
<trkpt lat="43.0469870000" lon="0.1865100000"><ele>972</ele><time>2026-03-17T09:05:51Z</time></trkpt>
<trkpt lat="43.0469920000" lon="0.1864820000"><ele>971</ele><time>2026-03-17T09:05:57Z</time></trkpt>
<trkpt lat="43.0469970000" lon="0.1864570000"><ele>971</ele><time>2026-03-17T09:05:59Z</time></trkpt>
<trkpt lat="43.0470050000" lon="0.1864250000"><ele>971</ele><time>2026-03-17T09:06:01Z</time></trkpt>
<trkpt lat="43.0470120000" lon="0.1864000000"><ele>971</ele><time>2026-03-17T09:06:03Z</time></trkpt>
<trkpt lat="43.0470200000" lon="0.1863620000"><ele>971</ele><time>2026-03-17T09:06:06Z</time></trkpt>
<trkpt lat="43.0470200000" lon="0.1863350000"><ele>971</ele><time>2026-03-17T09:06:09Z</time></trkpt>
<trkpt lat="43.0470070000" lon="0.1863150000"><ele>971</ele><time>2026-03-17T09:06:13Z</time></trkpt>
<trkpt lat="43.0470320000" lon="0.1863320000"><ele>972</ele><time>2026-03-17T09:07:03Z</time></trkpt>
<trkpt lat="43.0470400000" lon="0.1863070000"><ele>971</ele><time>2026-03-17T09:08:27Z</time></trkpt>
<trkpt lat="43.0470120000" lon="0.1863070000"><ele>972</ele><time>2026-03-17T09:10:42Z</time></trkpt>
<trkpt lat="43.0469870000" lon="0.1863070000"><ele>972</ele><time>2026-03-17T09:10:44Z</time></trkpt>
<trkpt lat="43.0469670000" lon="0.1863100000"><ele>972</ele><time>2026-03-17T09:10:47Z</time></trkpt>
<trkpt lat="43.0469920000" lon="0.1863150000"><ele>971</ele><time>2026-03-17T09:11:54Z</time></trkpt>
<trkpt lat="43.0470170000" lon="0.1863170000"><ele>971</ele><time>2026-03-17T09:11:56Z</time></trkpt>
<trkpt lat="43.0470000000" lon="0.1863120000"><ele>971</ele><time>2026-03-17T09:13:26Z</time></trkpt>
<trkpt lat="43.0469870000" lon="0.1862920000"><ele>971</ele><time>2026-03-17T09:14:45Z</time></trkpt>
<trkpt lat="43.0470070000" lon="0.1863070000"><ele>972</ele><time>2026-03-17T09:15:50Z</time></trkpt>
<trkpt lat="43.0470300000" lon="0.1863270000"><ele>972</ele><time>2026-03-17T09:15:52Z</time></trkpt>
<trkpt lat="43.0470370000" lon="0.1863520000"><ele>972</ele><time>2026-03-17T09:15:56Z</time></trkpt>
<trkpt lat="43.0470170000" lon="0.1863770000"><ele>972</ele><time>2026-03-17T09:16:43Z</time></trkpt>
<trkpt lat="43.0470070000" lon="0.1864120000"><ele>972</ele><time>2026-03-17T09:16:45Z</time></trkpt>
<trkpt lat="43.0469920000" lon="0.1864420000"><ele>972</ele><time>2026-03-17T09:16:47Z</time></trkpt>
<trkpt lat="43.0469820000" lon="0.1864720000"><ele>972</ele><time>2026-03-17T09:16:49Z</time></trkpt>
<trkpt lat="43.0469700000" lon="0.1865020000"><ele>972</ele><time>2026-03-17T09:16:51Z</time></trkpt>
<trkpt lat="43.0469570000" lon="0.1865270000"><ele>972</ele><time>2026-03-17T09:16:53Z</time></trkpt>
<trkpt lat="43.0469450000" lon="0.1865480000"><ele>972</ele><time>2026-03-17T09:16:55Z</time></trkpt>
<trkpt lat="43.0469320000" lon="0.1865720000"><ele>972</ele><time>2026-03-17T09:16:57Z</time></trkpt>
<trkpt lat="43.0469150000" lon="0.1865980000"><ele>972</ele><time>2026-03-17T09:16:59Z</time></trkpt>
<trkpt lat="43.0469020000" lon="0.1866220000"><ele>972</ele><time>2026-03-17T09:17:01Z</time></trkpt>
<trkpt lat="43.0468900000" lon="0.1866470000"><ele>972</ele><time>2026-03-17T09:17:03Z</time></trkpt>
<trkpt lat="43.0468770000" lon="0.1866750000"><ele>972</ele><time>2026-03-17T09:17:05Z</time></trkpt>
<trkpt lat="43.0468650000" lon="0.1867000000"><ele>972</ele><time>2026-03-17T09:17:07Z</time></trkpt>
<trkpt lat="43.0468550000" lon="0.1867220000"><ele>972</ele><time>2026-03-17T09:17:09Z</time></trkpt>
<trkpt lat="43.0468370000" lon="0.1867470000"><ele>972</ele><time>2026-03-17T09:17:11Z</time></trkpt>
<trkpt lat="43.0468220000" lon="0.1867700000"><ele>972</ele><time>2026-03-17T09:17:13Z</time></trkpt>
<trkpt lat="43.0468070000" lon="0.1867870000"><ele>972</ele><time>2026-03-17T09:17:15Z</time></trkpt>
<trkpt lat="43.0467970000" lon="0.1868120000"><ele>972</ele><time>2026-03-17T09:17:17Z</time></trkpt>
<trkpt lat="43.0468100000" lon="0.1868320000"><ele>972</ele><time>2026-03-17T09:17:20Z</time></trkpt>
<trkpt lat="43.0468320000" lon="0.1868420000"><ele>972</ele><time>2026-03-17T09:17:22Z</time></trkpt>
<trkpt lat="43.0468520000" lon="0.1868530000"><ele>972</ele><time>2026-03-17T09:17:25Z</time></trkpt>
<trkpt lat="43.0468680000" lon="0.1868530000"><ele>972</ele><time>2026-03-17T09:17:29Z</time></trkpt>
<trkpt lat="43.0468920000" lon="0.1868570000"><ele>972</ele><time>2026-03-17T09:17:31Z</time></trkpt>
<trkpt lat="43.0469120000" lon="0.1868480000"><ele>972</ele><time>2026-03-17T09:17:36Z</time></trkpt>
<trkpt lat="43.0469370000" lon="0.1868420000"><ele>972</ele><time>2026-03-17T09:17:38Z</time></trkpt>
<trkpt lat="43.0469570000" lon="0.1868400000"><ele>972</ele><time>2026-03-17T09:17:40Z</time></trkpt>
<trkpt lat="43.0469770000" lon="0.1868370000"><ele>972</ele><time>2026-03-17T09:17:42Z</time></trkpt>
<trkpt lat="43.0469970000" lon="0.1868470000"><ele>972</ele><time>2026-03-17T09:17:46Z</time></trkpt>
<trkpt lat="43.0470220000" lon="0.1868520000"><ele>972</ele><time>2026-03-17T09:17:50Z</time></trkpt>
<trkpt lat="43.0469870000" lon="0.1868530000"><ele>971</ele><time>2026-03-17T09:19:11Z</time></trkpt>
<trkpt lat="43.0469620000" lon="0.1868520000"><ele>971</ele><time>2026-03-17T09:19:12Z</time></trkpt>
<trkpt lat="43.0469400000" lon="0.1868470000"><ele>971</ele><time>2026-03-17T09:19:13Z</time></trkpt>
<trkpt lat="43.0469220000" lon="0.1868470000"><ele>971</ele><time>2026-03-17T09:19:14Z</time></trkpt>
<trkpt lat="43.0469000000" lon="0.1868570000"><ele>971</ele><time>2026-03-17T09:19:16Z</time></trkpt>
<trkpt lat="43.0468770000" lon="0.1868420000"><ele>972</ele><time>2026-03-17T09:19:18Z</time></trkpt>
<trkpt lat="43.0468620000" lon="0.1868270000"><ele>972</ele><time>2026-03-17T09:19:20Z</time></trkpt>
<trkpt lat="43.0468420000" lon="0.1868070000"><ele>972</ele><time>2026-03-17T09:19:22Z</time></trkpt>
<trkpt lat="43.0468250000" lon="0.1867820000"><ele>972</ele><time>2026-03-17T09:19:25Z</time></trkpt>
<trkpt lat="43.0468020000" lon="0.1867770000"><ele>972</ele><time>2026-03-17T09:19:28Z</time></trkpt>
<trkpt lat="43.0467850000" lon="0.1867920000"><ele>972</ele><time>2026-03-17T09:19:30Z</time></trkpt>
<trkpt lat="43.0467620000" lon="0.1868120000"><ele>972</ele><time>2026-03-17T09:19:33Z</time></trkpt>
<trkpt lat="43.0467450000" lon="0.1868230000"><ele>972</ele><time>2026-03-17T09:19:35Z</time></trkpt>
<trkpt lat="43.0467270000" lon="0.1868450000"><ele>971</ele><time>2026-03-17T09:19:37Z</time></trkpt>
<trkpt lat="43.0467020000" lon="0.1868720000"><ele>971</ele><time>2026-03-17T09:19:39Z</time></trkpt>
<trkpt lat="43.0466820000" lon="0.1868950000"><ele>971</ele><time>2026-03-17T09:19:42Z</time></trkpt>
<trkpt lat="43.0466720000" lon="0.1869270000"><ele>971</ele><time>2026-03-17T09:19:44Z</time></trkpt>
<trkpt lat="43.0466600000" lon="0.1869570000"><ele>971</ele><time>2026-03-17T09:19:46Z</time></trkpt>
<trkpt lat="43.0466430000" lon="0.1869820000"><ele>971</ele><time>2026-03-17T09:19:48Z</time></trkpt>
<trkpt lat="43.0466350000" lon="0.1870180000"><ele>970</ele><time>2026-03-17T09:19:50Z</time></trkpt>
<trkpt lat="43.0466270000" lon="0.1870420000"><ele>970</ele><time>2026-03-17T09:19:52Z</time></trkpt>
<trkpt lat="43.0466150000" lon="0.1870650000"><ele>970</ele><time>2026-03-17T09:19:54Z</time></trkpt>
<trkpt lat="43.0466050000" lon="0.1870920000"><ele>970</ele><time>2026-03-17T09:19:56Z</time></trkpt>
<trkpt lat="43.0466020000" lon="0.1871250000"><ele>969</ele><time>2026-03-17T09:19:59Z</time></trkpt>
<trkpt lat="43.0465870000" lon="0.1871570000"><ele>969</ele><time>2026-03-17T09:20:02Z</time></trkpt>
<trkpt lat="43.0465720000" lon="0.1871820000"><ele>969</ele><time>2026-03-17T09:20:04Z</time></trkpt>
<trkpt lat="43.0465650000" lon="0.1872200000"><ele>968</ele><time>2026-03-17T09:20:06Z</time></trkpt>
<trkpt lat="43.0465550000" lon="0.1872480000"><ele>968</ele><time>2026-03-17T09:20:08Z</time></trkpt>
<trkpt lat="43.0465450000" lon="0.1872820000"><ele>968</ele><time>2026-03-17T09:20:11Z</time></trkpt>
<trkpt lat="43.0465400000" lon="0.1873220000"><ele>967</ele><time>2026-03-17T09:20:14Z</time></trkpt>
<trkpt lat="43.0465400000" lon="0.1873550000"><ele>967</ele><time>2026-03-17T09:20:16Z</time></trkpt>
<trkpt lat="43.0465370000" lon="0.1873830000"><ele>966</ele><time>2026-03-17T09:20:18Z</time></trkpt>
<trkpt lat="43.0465550000" lon="0.1874020000"><ele>966</ele><time>2026-03-17T09:20:20Z</time></trkpt>
<trkpt lat="43.0465700000" lon="0.1874170000"><ele>966</ele><time>2026-03-17T09:20:22Z</time></trkpt>
<trkpt lat="43.0465820000" lon="0.1874370000"><ele>966</ele><time>2026-03-17T09:20:24Z</time></trkpt>
<trkpt lat="43.0466020000" lon="0.1874500000"><ele>965</ele><time>2026-03-17T09:20:26Z</time></trkpt>
<trkpt lat="43.0466250000" lon="0.1874650000"><ele>965</ele><time>2026-03-17T09:20:28Z</time></trkpt>
<trkpt lat="43.0466430000" lon="0.1874770000"><ele>964</ele><time>2026-03-17T09:20:33Z</time></trkpt>
<trkpt lat="43.0466670000" lon="0.1874920000"><ele>964</ele><time>2026-03-17T09:20:35Z</time></trkpt>
<trkpt lat="43.0466820000" lon="0.1875020000"><ele>964</ele><time>2026-03-17T09:20:36Z</time></trkpt>
<trkpt lat="43.0467070000" lon="0.1875300000"><ele>963</ele><time>2026-03-17T09:20:38Z</time></trkpt>
<trkpt lat="43.0467220000" lon="0.1875550000"><ele>963</ele><time>2026-03-17T09:20:40Z</time></trkpt>
<trkpt lat="43.0467370000" lon="0.1875730000"><ele>962</ele><time>2026-03-17T09:20:42Z</time></trkpt>
<trkpt lat="43.0467620000" lon="0.1875920000"><ele>961</ele><time>2026-03-17T09:20:45Z</time></trkpt>
<trkpt lat="43.0467770000" lon="0.1876050000"><ele>961</ele><time>2026-03-17T09:20:47Z</time></trkpt>
<trkpt lat="43.0467950000" lon="0.1876280000"><ele>960</ele><time>2026-03-17T09:20:50Z</time></trkpt>
<trkpt lat="43.0467980000" lon="0.1876620000"><ele>960</ele><time>2026-03-17T09:20:53Z</time></trkpt>
<trkpt lat="43.0468020000" lon="0.1876880000"><ele>960</ele><time>2026-03-17T09:20:55Z</time></trkpt>
<trkpt lat="43.0468150000" lon="0.1877170000"><ele>959</ele><time>2026-03-17T09:20:57Z</time></trkpt>
<trkpt lat="43.0468370000" lon="0.1877420000"><ele>959</ele><time>2026-03-17T09:20:59Z</time></trkpt>
<trkpt lat="43.0468570000" lon="0.1877670000"><ele>959</ele><time>2026-03-17T09:21:01Z</time></trkpt>
<trkpt lat="43.0468670000" lon="0.1877920000"><ele>958</ele><time>2026-03-17T09:21:03Z</time></trkpt>
<trkpt lat="43.0468750000" lon="0.1878220000"><ele>958</ele><time>2026-03-17T09:21:05Z</time></trkpt>
<trkpt lat="43.0468820000" lon="0.1878550000"><ele>957</ele><time>2026-03-17T09:21:08Z</time></trkpt>
<trkpt lat="43.0468970000" lon="0.1878800000"><ele>957</ele><time>2026-03-17T09:21:10Z</time></trkpt>
<trkpt lat="43.0469070000" lon="0.1879120000"><ele>956</ele><time>2026-03-17T09:21:12Z</time></trkpt>
<trkpt lat="43.0469170000" lon="0.1879380000"><ele>956</ele><time>2026-03-17T09:21:14Z</time></trkpt>
<trkpt lat="43.0469250000" lon="0.1879720000"><ele>956</ele><time>2026-03-17T09:21:16Z</time></trkpt>
<trkpt lat="43.0469270000" lon="0.1880020000"><ele>955</ele><time>2026-03-17T09:21:18Z</time></trkpt>
<trkpt lat="43.0469320000" lon="0.1880320000"><ele>955</ele><time>2026-03-17T09:21:20Z</time></trkpt>
<trkpt lat="43.0469470000" lon="0.1880620000"><ele>955</ele><time>2026-03-17T09:21:22Z</time></trkpt>
<trkpt lat="43.0469500000" lon="0.1880950000"><ele>955</ele><time>2026-03-17T09:21:25Z</time></trkpt>
<trkpt lat="43.0469570000" lon="0.1881270000"><ele>955</ele><time>2026-03-17T09:21:28Z</time></trkpt>
<trkpt lat="43.0469620000" lon="0.1881570000"><ele>954</ele><time>2026-03-17T09:21:30Z</time></trkpt>
<trkpt lat="43.0469670000" lon="0.1881870000"><ele>954</ele><time>2026-03-17T09:21:32Z</time></trkpt>
<trkpt lat="43.0469670000" lon="0.1882220000"><ele>954</ele><time>2026-03-17T09:21:34Z</time></trkpt>
<trkpt lat="43.0469870000" lon="0.1882370000"><ele>954</ele><time>2026-03-17T09:21:37Z</time></trkpt>
<trkpt lat="43.0469870000" lon="0.1882630000"><ele>955</ele><time>2026-03-17T09:21:45Z</time></trkpt>
<trkpt lat="43.0469820000" lon="0.1882870000"><ele>955</ele><time>2026-03-17T09:21:47Z</time></trkpt>
<trkpt lat="43.0469750000" lon="0.1883270000"><ele>955</ele><time>2026-03-17T09:21:49Z</time></trkpt>
<trkpt lat="43.0469750000" lon="0.1883650000"><ele>955</ele><time>2026-03-17T09:21:51Z</time></trkpt>
<trkpt lat="43.0469850000" lon="0.1884070000"><ele>956</ele><time>2026-03-17T09:21:53Z</time></trkpt>
<trkpt lat="43.0469920000" lon="0.1884400000"><ele>956</ele><time>2026-03-17T09:21:55Z</time></trkpt>
<trkpt lat="43.0469970000" lon="0.1884720000"><ele>956</ele><time>2026-03-17T09:21:57Z</time></trkpt>
<trkpt lat="43.0469970000" lon="0.1885070000"><ele>956</ele><time>2026-03-17T09:21:59Z</time></trkpt>
<trkpt lat="43.0470020000" lon="0.1885370000"><ele>956</ele><time>2026-03-17T09:22:01Z</time></trkpt>
<trkpt lat="43.0470070000" lon="0.1885670000"><ele>957</ele><time>2026-03-17T09:22:04Z</time></trkpt>
<trkpt lat="43.0470120000" lon="0.1885970000"><ele>957</ele><time>2026-03-17T09:22:06Z</time></trkpt>
<trkpt lat="43.0470150000" lon="0.1886270000"><ele>956</ele><time>2026-03-17T09:22:08Z</time></trkpt>
<trkpt lat="43.0470200000" lon="0.1886530000"><ele>956</ele><time>2026-03-17T09:22:10Z</time></trkpt>
<trkpt lat="43.0470170000" lon="0.1886870000"><ele>956</ele><time>2026-03-17T09:22:12Z</time></trkpt>
<trkpt lat="43.0470200000" lon="0.1887170000"><ele>956</ele><time>2026-03-17T09:22:14Z</time></trkpt>
<trkpt lat="43.0470270000" lon="0.1887420000"><ele>956</ele><time>2026-03-17T09:22:16Z</time></trkpt>
<trkpt lat="43.0470420000" lon="0.1887630000"><ele>956</ele><time>2026-03-17T09:22:18Z</time></trkpt>
<trkpt lat="43.0470520000" lon="0.1887900000"><ele>957</ele><time>2026-03-17T09:22:20Z</time></trkpt>
<trkpt lat="43.0470570000" lon="0.1888180000"><ele>957</ele><time>2026-03-17T09:22:22Z</time></trkpt>
<trkpt lat="43.0470670000" lon="0.1888470000"><ele>957</ele><time>2026-03-17T09:22:24Z</time></trkpt>
<trkpt lat="43.0470770000" lon="0.1888720000"><ele>957</ele><time>2026-03-17T09:22:26Z</time></trkpt>
<trkpt lat="43.0470850000" lon="0.1889020000"><ele>957</ele><time>2026-03-17T09:22:28Z</time></trkpt>
<trkpt lat="43.0470900000" lon="0.1889270000"><ele>957</ele><time>2026-03-17T09:22:30Z</time></trkpt>
<trkpt lat="43.0470970000" lon="0.1889620000"><ele>958</ele><time>2026-03-17T09:22:33Z</time></trkpt>
<trkpt lat="43.0471050000" lon="0.1890000000"><ele>958</ele><time>2026-03-17T09:22:36Z</time></trkpt>
<trkpt lat="43.0471220000" lon="0.1890130000"><ele>959</ele><time>2026-03-17T09:22:45Z</time></trkpt>
<trkpt lat="43.0471320000" lon="0.1889950000"><ele>958</ele><time>2026-03-17T09:25:05Z</time></trkpt>
<trkpt lat="43.0471450000" lon="0.1889750000"><ele>958</ele><time>2026-03-17T09:25:09Z</time></trkpt>
<trkpt lat="43.0471520000" lon="0.1890070000"><ele>958</ele><time>2026-03-17T09:25:23Z</time></trkpt>
<trkpt lat="43.0471600000" lon="0.1890470000"><ele>958</ele><time>2026-03-17T09:25:25Z</time></trkpt>
<trkpt lat="43.0471600000" lon="0.1890870000"><ele>958</ele><time>2026-03-17T09:25:27Z</time></trkpt>
<trkpt lat="43.0471620000" lon="0.1891200000"><ele>958</ele><time>2026-03-17T09:25:29Z</time></trkpt>
<trkpt lat="43.0471620000" lon="0.1891470000"><ele>959</ele><time>2026-03-17T09:25:31Z</time></trkpt>
<trkpt lat="43.0471720000" lon="0.1891750000"><ele>959</ele><time>2026-03-17T09:25:34Z</time></trkpt>
<trkpt lat="43.0471770000" lon="0.1892000000"><ele>960</ele><time>2026-03-17T09:25:41Z</time></trkpt>
<trkpt lat="43.0471820000" lon="0.1892270000"><ele>959</ele><time>2026-03-17T09:25:43Z</time></trkpt>
<trkpt lat="43.0471920000" lon="0.1892570000"><ele>960</ele><time>2026-03-17T09:25:46Z</time></trkpt>
<trkpt lat="43.0472050000" lon="0.1892770000"><ele>960</ele><time>2026-03-17T09:25:49Z</time></trkpt>
<trkpt lat="43.0472120000" lon="0.1893120000"><ele>960</ele><time>2026-03-17T09:25:51Z</time></trkpt>
<trkpt lat="43.0472120000" lon="0.1893520000"><ele>960</ele><time>2026-03-17T09:25:53Z</time></trkpt>
<trkpt lat="43.0472150000" lon="0.1893800000"><ele>961</ele><time>2026-03-17T09:25:55Z</time></trkpt>
<trkpt lat="43.0472170000" lon="0.1894100000"><ele>961</ele><time>2026-03-17T09:25:57Z</time></trkpt>
<trkpt lat="43.0472120000" lon="0.1894370000"><ele>961</ele><time>2026-03-17T09:25:59Z</time></trkpt>
<trkpt lat="43.0472120000" lon="0.1894680000"><ele>961</ele><time>2026-03-17T09:26:01Z</time></trkpt>
<trkpt lat="43.0472170000" lon="0.1895050000"><ele>962</ele><time>2026-03-17T09:26:03Z</time></trkpt>
<trkpt lat="43.0472170000" lon="0.1895420000"><ele>962</ele><time>2026-03-17T09:26:06Z</time></trkpt>
<trkpt lat="43.0472220000" lon="0.1895730000"><ele>962</ele><time>2026-03-17T09:26:08Z</time></trkpt>
<trkpt lat="43.0472300000" lon="0.1896020000"><ele>962</ele><time>2026-03-17T09:26:10Z</time></trkpt>
<trkpt lat="43.0472370000" lon="0.1896320000"><ele>962</ele><time>2026-03-17T09:26:12Z</time></trkpt>
<trkpt lat="43.0472470000" lon="0.1896570000"><ele>963</ele><time>2026-03-17T09:26:14Z</time></trkpt>
<trkpt lat="43.0472600000" lon="0.1896870000"><ele>963</ele><time>2026-03-17T09:26:17Z</time></trkpt>
<trkpt lat="43.0472770000" lon="0.1897130000"><ele>963</ele><time>2026-03-17T09:26:20Z</time></trkpt>
<trkpt lat="43.0472900000" lon="0.1897380000"><ele>963</ele><time>2026-03-17T09:26:23Z</time></trkpt>
<trkpt lat="43.0473070000" lon="0.1897600000"><ele>964</ele><time>2026-03-17T09:26:28Z</time></trkpt>
<trkpt lat="43.0473250000" lon="0.1897820000"><ele>964</ele><time>2026-03-17T09:26:31Z</time></trkpt>
<trkpt lat="43.0473370000" lon="0.1898070000"><ele>965</ele><time>2026-03-17T09:26:34Z</time></trkpt>
<trkpt lat="43.0473570000" lon="0.1898270000"><ele>965</ele><time>2026-03-17T09:26:37Z</time></trkpt>
<trkpt lat="43.0473750000" lon="0.1898470000"><ele>966</ele><time>2026-03-17T09:26:39Z</time></trkpt>
<trkpt lat="43.0473900000" lon="0.1898620000"><ele>966</ele><time>2026-03-17T09:26:41Z</time></trkpt>
<trkpt lat="43.0474070000" lon="0.1898820000"><ele>966</ele><time>2026-03-17T09:26:43Z</time></trkpt>
<trkpt lat="43.0474220000" lon="0.1899020000"><ele>966</ele><time>2026-03-17T09:26:45Z</time></trkpt>
<trkpt lat="43.0474450000" lon="0.1899250000"><ele>966</ele><time>2026-03-17T09:26:48Z</time></trkpt>
<trkpt lat="43.0474500000" lon="0.1899520000"><ele>967</ele><time>2026-03-17T09:26:51Z</time></trkpt>
<trkpt lat="43.0474470000" lon="0.1899820000"><ele>967</ele><time>2026-03-17T09:26:54Z</time></trkpt>
<trkpt lat="43.0474500000" lon="0.1900170000"><ele>967</ele><time>2026-03-17T09:26:57Z</time></trkpt>
<trkpt lat="43.0474470000" lon="0.1900420000"><ele>968</ele><time>2026-03-17T09:26:59Z</time></trkpt>
<trkpt lat="43.0474570000" lon="0.1900750000"><ele>968</ele><time>2026-03-17T09:27:03Z</time></trkpt>
<trkpt lat="43.0474500000" lon="0.1901120000"><ele>968</ele><time>2026-03-17T09:27:06Z</time></trkpt>
<trkpt lat="43.0474470000" lon="0.1901470000"><ele>969</ele><time>2026-03-17T09:27:09Z</time></trkpt>
<trkpt lat="43.0474470000" lon="0.1901750000"><ele>969</ele><time>2026-03-17T09:27:11Z</time></trkpt>
<trkpt lat="43.0474400000" lon="0.1902070000"><ele>969</ele><time>2026-03-17T09:27:14Z</time></trkpt>
<trkpt lat="43.0474400000" lon="0.1902320000"><ele>969</ele><time>2026-03-17T09:27:16Z</time></trkpt>
<trkpt lat="43.0474320000" lon="0.1902620000"><ele>969</ele><time>2026-03-17T09:27:19Z</time></trkpt>
<trkpt lat="43.0474320000" lon="0.1902920000"><ele>970</ele><time>2026-03-17T09:27:22Z</time></trkpt>
<trkpt lat="43.0474350000" lon="0.1903220000"><ele>970</ele><time>2026-03-17T09:27:25Z</time></trkpt>
<trkpt lat="43.0474320000" lon="0.1903470000"><ele>970</ele><time>2026-03-17T09:27:27Z</time></trkpt>
<trkpt lat="43.0474350000" lon="0.1903770000"><ele>971</ele><time>2026-03-17T09:27:29Z</time></trkpt>
<trkpt lat="43.0474370000" lon="0.1904020000"><ele>971</ele><time>2026-03-17T09:27:31Z</time></trkpt>
<trkpt lat="43.0474420000" lon="0.1904250000"><ele>971</ele><time>2026-03-17T09:27:33Z</time></trkpt>
<trkpt lat="43.0474420000" lon="0.1904520000"><ele>972</ele><time>2026-03-17T09:27:36Z</time></trkpt>
<trkpt lat="43.0474470000" lon="0.1904870000"><ele>972</ele><time>2026-03-17T09:27:39Z</time></trkpt>
<trkpt lat="43.0474520000" lon="0.1905170000"><ele>972</ele><time>2026-03-17T09:27:41Z</time></trkpt>
<trkpt lat="43.0474520000" lon="0.1905480000"><ele>972</ele><time>2026-03-17T09:27:44Z</time></trkpt>
<trkpt lat="43.0474570000" lon="0.1905780000"><ele>972</ele><time>2026-03-17T09:27:47Z</time></trkpt>
<trkpt lat="43.0474600000" lon="0.1906150000"><ele>972</ele><time>2026-03-17T09:27:50Z</time></trkpt>
<trkpt lat="43.0474620000" lon="0.1906470000"><ele>972</ele><time>2026-03-17T09:27:52Z</time></trkpt>
<trkpt lat="43.0474720000" lon="0.1906750000"><ele>972</ele><time>2026-03-17T09:27:54Z</time></trkpt>
<trkpt lat="43.0474870000" lon="0.1906930000"><ele>972</ele><time>2026-03-17T09:27:56Z</time></trkpt>
<trkpt lat="43.0474870000" lon="0.1907250000"><ele>972</ele><time>2026-03-17T09:27:58Z</time></trkpt>
<trkpt lat="43.0474870000" lon="0.1907600000"><ele>973</ele><time>2026-03-17T09:28:01Z</time></trkpt>
<trkpt lat="43.0474850000" lon="0.1907920000"><ele>973</ele><time>2026-03-17T09:28:04Z</time></trkpt>
<trkpt lat="43.0474820000" lon="0.1908270000"><ele>973</ele><time>2026-03-17T09:28:06Z</time></trkpt>
<trkpt lat="43.0474820000" lon="0.1908620000"><ele>973</ele><time>2026-03-17T09:28:08Z</time></trkpt>
<trkpt lat="43.0474850000" lon="0.1908870000"><ele>973</ele><time>2026-03-17T09:28:10Z</time></trkpt>
<trkpt lat="43.0474850000" lon="0.1909250000"><ele>973</ele><time>2026-03-17T09:28:13Z</time></trkpt>
<trkpt lat="43.0474670000" lon="0.1909350000"><ele>973</ele><time>2026-03-17T09:28:32Z</time></trkpt>
<trkpt lat="43.0474670000" lon="0.1909720000"><ele>973</ele><time>2026-03-17T09:28:35Z</time></trkpt>
<trkpt lat="43.0474570000" lon="0.1910000000"><ele>973</ele><time>2026-03-17T09:28:37Z</time></trkpt>
<trkpt lat="43.0474520000" lon="0.1910300000"><ele>973</ele><time>2026-03-17T09:28:39Z</time></trkpt>
<trkpt lat="43.0474270000" lon="0.1910270000"><ele>974</ele><time>2026-03-17T09:28:54Z</time></trkpt>
<trkpt lat="43.0474270000" lon="0.1910000000"><ele>974</ele><time>2026-03-17T09:28:57Z</time></trkpt>
<trkpt lat="43.0474300000" lon="0.1909720000"><ele>974</ele><time>2026-03-17T09:29:01Z</time></trkpt>
<trkpt lat="43.0474450000" lon="0.1910070000"><ele>973</ele><time>2026-03-17T09:29:27Z</time></trkpt>
<trkpt lat="43.0474520000" lon="0.1910420000"><ele>973</ele><time>2026-03-17T09:29:29Z</time></trkpt>
<trkpt lat="43.0474470000" lon="0.1910770000"><ele>973</ele><time>2026-03-17T09:29:31Z</time></trkpt>
<trkpt lat="43.0474500000" lon="0.1911120000"><ele>974</ele><time>2026-03-17T09:29:33Z</time></trkpt>
<trkpt lat="43.0474470000" lon="0.1911400000"><ele>974</ele><time>2026-03-17T09:29:35Z</time></trkpt>
<trkpt lat="43.0474350000" lon="0.1911570000"><ele>974</ele><time>2026-03-17T09:29:37Z</time></trkpt>
<trkpt lat="43.0474220000" lon="0.1911870000"><ele>975</ele><time>2026-03-17T09:29:40Z</time></trkpt>
<trkpt lat="43.0474170000" lon="0.1912150000"><ele>975</ele><time>2026-03-17T09:29:42Z</time></trkpt>
<trkpt lat="43.0474100000" lon="0.1912420000"><ele>975</ele><time>2026-03-17T09:29:44Z</time></trkpt>
<trkpt lat="43.0474020000" lon="0.1912730000"><ele>975</ele><time>2026-03-17T09:29:47Z</time></trkpt>
<trkpt lat="43.0473920000" lon="0.1912970000"><ele>975</ele><time>2026-03-17T09:29:49Z</time></trkpt>
<trkpt lat="43.0473870000" lon="0.1913350000"><ele>976</ele><time>2026-03-17T09:29:52Z</time></trkpt>
<trkpt lat="43.0473820000" lon="0.1913620000"><ele>976</ele><time>2026-03-17T09:29:54Z</time></trkpt>
<trkpt lat="43.0473750000" lon="0.1913970000"><ele>976</ele><time>2026-03-17T09:29:57Z</time></trkpt>
<trkpt lat="43.0473750000" lon="0.1914270000"><ele>976</ele><time>2026-03-17T09:29:59Z</time></trkpt>
<trkpt lat="43.0473700000" lon="0.1914530000"><ele>976</ele><time>2026-03-17T09:30:02Z</time></trkpt>
<trkpt lat="43.0473620000" lon="0.1914870000"><ele>977</ele><time>2026-03-17T09:30:05Z</time></trkpt>
<trkpt lat="43.0473620000" lon="0.1915120000"><ele>977</ele><time>2026-03-17T09:30:07Z</time></trkpt>
<trkpt lat="43.0473600000" lon="0.1915420000"><ele>977</ele><time>2026-03-17T09:30:10Z</time></trkpt>
<trkpt lat="43.0473550000" lon="0.1915770000"><ele>977</ele><time>2026-03-17T09:30:13Z</time></trkpt>
<trkpt lat="43.0473570000" lon="0.1916070000"><ele>978</ele><time>2026-03-17T09:30:15Z</time></trkpt>
<trkpt lat="43.0473550000" lon="0.1916420000"><ele>978</ele><time>2026-03-17T09:30:18Z</time></trkpt>
<trkpt lat="43.0473520000" lon="0.1916700000"><ele>978</ele><time>2026-03-17T09:30:21Z</time></trkpt>
<trkpt lat="43.0473520000" lon="0.1916970000"><ele>978</ele><time>2026-03-17T09:30:23Z</time></trkpt>
<trkpt lat="43.0473420000" lon="0.1917270000"><ele>979</ele><time>2026-03-17T09:30:25Z</time></trkpt>
<trkpt lat="43.0473370000" lon="0.1917520000"><ele>979</ele><time>2026-03-17T09:30:27Z</time></trkpt>
<trkpt lat="43.0473320000" lon="0.1917850000"><ele>979</ele><time>2026-03-17T09:30:29Z</time></trkpt>
<trkpt lat="43.0473300000" lon="0.1918100000"><ele>979</ele><time>2026-03-17T09:30:31Z</time></trkpt>
<trkpt lat="43.0473250000" lon="0.1918370000"><ele>979</ele><time>2026-03-17T09:30:33Z</time></trkpt>
<trkpt lat="43.0473170000" lon="0.1918620000"><ele>979</ele><time>2026-03-17T09:30:35Z</time></trkpt>
<trkpt lat="43.0473120000" lon="0.1918900000"><ele>980</ele><time>2026-03-17T09:30:38Z</time></trkpt>
<trkpt lat="43.0473020000" lon="0.1919170000"><ele>980</ele><time>2026-03-17T09:30:41Z</time></trkpt>
<trkpt lat="43.0472920000" lon="0.1919430000"><ele>980</ele><time>2026-03-17T09:30:44Z</time></trkpt>
<trkpt lat="43.0472870000" lon="0.1919800000"><ele>980</ele><time>2026-03-17T09:30:47Z</time></trkpt>
<trkpt lat="43.0472800000" lon="0.1920020000"><ele>981</ele><time>2026-03-17T09:30:49Z</time></trkpt>
<trkpt lat="43.0472700000" lon="0.1920370000"><ele>981</ele><time>2026-03-17T09:30:52Z</time></trkpt>
<trkpt lat="43.0472620000" lon="0.1920680000"><ele>981</ele><time>2026-03-17T09:30:55Z</time></trkpt>
<trkpt lat="43.0472570000" lon="0.1920930000"><ele>981</ele><time>2026-03-17T09:30:57Z</time></trkpt>
<trkpt lat="43.0472520000" lon="0.1921230000"><ele>981</ele><time>2026-03-17T09:31:00Z</time></trkpt>
<trkpt lat="43.0472570000" lon="0.1921570000"><ele>981</ele><time>2026-03-17T09:31:04Z</time></trkpt>
<trkpt lat="43.0472470000" lon="0.1921800000"><ele>982</ele><time>2026-03-17T09:31:42Z</time></trkpt>
<trkpt lat="43.0472270000" lon="0.1921750000"><ele>982</ele><time>2026-03-17T09:31:45Z</time></trkpt>
<trkpt lat="43.0472170000" lon="0.1921970000"><ele>982</ele><time>2026-03-17T09:32:04Z</time></trkpt>
<trkpt lat="43.0472170000" lon="0.1922370000"><ele>983</ele><time>2026-03-17T09:32:06Z</time></trkpt>
<trkpt lat="43.0472120000" lon="0.1922720000"><ele>983</ele><time>2026-03-17T09:32:08Z</time></trkpt>
<trkpt lat="43.0472220000" lon="0.1922950000"><ele>983</ele><time>2026-03-17T09:32:10Z</time></trkpt>
<trkpt lat="43.0472270000" lon="0.1923200000"><ele>983</ele><time>2026-03-17T09:32:12Z</time></trkpt>
<trkpt lat="43.0472170000" lon="0.1923520000"><ele>983</ele><time>2026-03-17T09:32:16Z</time></trkpt>
<trkpt lat="43.0472120000" lon="0.1923780000"><ele>983</ele><time>2026-03-17T09:32:19Z</time></trkpt>
<trkpt lat="43.0472070000" lon="0.1924030000"><ele>984</ele><time>2026-03-17T09:32:21Z</time></trkpt>
<trkpt lat="43.0472000000" lon="0.1924370000"><ele>984</ele><time>2026-03-17T09:32:24Z</time></trkpt>
<trkpt lat="43.0471920000" lon="0.1924720000"><ele>984</ele><time>2026-03-17T09:32:27Z</time></trkpt>
<trkpt lat="43.0471870000" lon="0.1924970000"><ele>984</ele><time>2026-03-17T09:32:29Z</time></trkpt>
<trkpt lat="43.0471870000" lon="0.1925220000"><ele>984</ele><time>2026-03-17T09:32:31Z</time></trkpt>
<trkpt lat="43.0471850000" lon="0.1925570000"><ele>984</ele><time>2026-03-17T09:32:33Z</time></trkpt>
<trkpt lat="43.0471820000" lon="0.1925900000"><ele>984</ele><time>2026-03-17T09:32:35Z</time></trkpt>
<trkpt lat="43.0471770000" lon="0.1926150000"><ele>984</ele><time>2026-03-17T09:32:37Z</time></trkpt>
<trkpt lat="43.0471750000" lon="0.1926450000"><ele>984</ele><time>2026-03-17T09:32:39Z</time></trkpt>
<trkpt lat="43.0471720000" lon="0.1926780000"><ele>985</ele><time>2026-03-17T09:32:42Z</time></trkpt>
<trkpt lat="43.0471720000" lon="0.1927120000"><ele>985</ele><time>2026-03-17T09:32:45Z</time></trkpt>
<trkpt lat="43.0471720000" lon="0.1927370000"><ele>985</ele><time>2026-03-17T09:32:47Z</time></trkpt>
<trkpt lat="43.0471670000" lon="0.1927730000"><ele>985</ele><time>2026-03-17T09:32:50Z</time></trkpt>
<trkpt lat="43.0471670000" lon="0.1928120000"><ele>985</ele><time>2026-03-17T09:32:52Z</time></trkpt>
<trkpt lat="43.0471770000" lon="0.1928470000"><ele>986</ele><time>2026-03-17T09:32:55Z</time></trkpt>
<trkpt lat="43.0471700000" lon="0.1928770000"><ele>986</ele><time>2026-03-17T09:32:57Z</time></trkpt>
<trkpt lat="43.0471570000" lon="0.1929120000"><ele>986</ele><time>2026-03-17T09:32:59Z</time></trkpt>
<trkpt lat="43.0471420000" lon="0.1929370000"><ele>987</ele><time>2026-03-17T09:33:01Z</time></trkpt>
<trkpt lat="43.0471300000" lon="0.1929670000"><ele>987</ele><time>2026-03-17T09:33:04Z</time></trkpt>
<trkpt lat="43.0471270000" lon="0.1929950000"><ele>987</ele><time>2026-03-17T09:33:07Z</time></trkpt>
<trkpt lat="43.0471220000" lon="0.1930250000"><ele>988</ele><time>2026-03-17T09:33:10Z</time></trkpt>
<trkpt lat="43.0471120000" lon="0.1930520000"><ele>988</ele><time>2026-03-17T09:33:13Z</time></trkpt>
<trkpt lat="43.0471020000" lon="0.1930820000"><ele>988</ele><time>2026-03-17T09:33:16Z</time></trkpt>
<trkpt lat="43.0470970000" lon="0.1931050000"><ele>988</ele><time>2026-03-17T09:33:19Z</time></trkpt>
<trkpt lat="43.0470950000" lon="0.1931300000"><ele>989</ele><time>2026-03-17T09:33:22Z</time></trkpt>
<trkpt lat="43.0470870000" lon="0.1931620000"><ele>989</ele><time>2026-03-17T09:33:25Z</time></trkpt>
<trkpt lat="43.0470820000" lon="0.1931870000"><ele>989</ele><time>2026-03-17T09:33:28Z</time></trkpt>
<trkpt lat="43.0470770000" lon="0.1932130000"><ele>990</ele><time>2026-03-17T09:33:31Z</time></trkpt>
<trkpt lat="43.0470700000" lon="0.1932470000"><ele>990</ele><time>2026-03-17T09:33:34Z</time></trkpt>
<trkpt lat="43.0470620000" lon="0.1932750000"><ele>990</ele><time>2026-03-17T09:33:37Z</time></trkpt>
<trkpt lat="43.0470570000" lon="0.1933020000"><ele>991</ele><time>2026-03-17T09:33:40Z</time></trkpt>
<trkpt lat="43.0470470000" lon="0.1933270000"><ele>991</ele><time>2026-03-17T09:33:44Z</time></trkpt>
<trkpt lat="43.0470370000" lon="0.1933570000"><ele>991</ele><time>2026-03-17T09:33:47Z</time></trkpt>
<trkpt lat="43.0470320000" lon="0.1933900000"><ele>992</ele><time>2026-03-17T09:33:50Z</time></trkpt>
<trkpt lat="43.0470300000" lon="0.1934220000"><ele>992</ele><time>2026-03-17T09:33:53Z</time></trkpt>
<trkpt lat="43.0470370000" lon="0.1934470000"><ele>992</ele><time>2026-03-17T09:33:56Z</time></trkpt>
<trkpt lat="43.0470220000" lon="0.1934580000"><ele>994</ele><time>2026-03-17T09:34:21Z</time></trkpt>
<trkpt lat="43.0470100000" lon="0.1934800000"><ele>994</ele><time>2026-03-17T09:34:24Z</time></trkpt>
<trkpt lat="43.0470170000" lon="0.1935070000"><ele>994</ele><time>2026-03-17T09:34:26Z</time></trkpt>
<trkpt lat="43.0470270000" lon="0.1935300000"><ele>994</ele><time>2026-03-17T09:34:28Z</time></trkpt>
<trkpt lat="43.0470320000" lon="0.1935570000"><ele>995</ele><time>2026-03-17T09:34:31Z</time></trkpt>
<trkpt lat="43.0470320000" lon="0.1935870000"><ele>995</ele><time>2026-03-17T09:34:34Z</time></trkpt>
<trkpt lat="43.0470220000" lon="0.1936150000"><ele>995</ele><time>2026-03-17T09:34:37Z</time></trkpt>
<trkpt lat="43.0470170000" lon="0.1936450000"><ele>996</ele><time>2026-03-17T09:34:43Z</time></trkpt>
<trkpt lat="43.0470100000" lon="0.1936700000"><ele>997</ele><time>2026-03-17T09:34:46Z</time></trkpt>
<trkpt lat="43.0470020000" lon="0.1937050000"><ele>997</ele><time>2026-03-17T09:34:49Z</time></trkpt>
<trkpt lat="43.0470020000" lon="0.1937370000"><ele>997</ele><time>2026-03-17T09:34:52Z</time></trkpt>
<trkpt lat="43.0469920000" lon="0.1937620000"><ele>998</ele><time>2026-03-17T09:34:55Z</time></trkpt>
<trkpt lat="43.0469820000" lon="0.1937850000"><ele>998</ele><time>2026-03-17T09:34:58Z</time></trkpt>
<trkpt lat="43.0469720000" lon="0.1938120000"><ele>998</ele><time>2026-03-17T09:35:02Z</time></trkpt>
<trkpt lat="43.0469600000" lon="0.1938320000"><ele>998</ele><time>2026-03-17T09:35:05Z</time></trkpt>
<trkpt lat="43.0469530000" lon="0.1938600000"><ele>999</ele><time>2026-03-17T09:35:08Z</time></trkpt>
<trkpt lat="43.0469470000" lon="0.1938870000"><ele>999</ele><time>2026-03-17T09:35:10Z</time></trkpt>
<trkpt lat="43.0469520000" lon="0.1939170000"><ele>999</ele><time>2026-03-17T09:35:13Z</time></trkpt>
<trkpt lat="43.0469500000" lon="0.1939420000"><ele>1000</ele><time>2026-03-17T09:35:16Z</time></trkpt>
<trkpt lat="43.0469350000" lon="0.1939620000"><ele>1000</ele><time>2026-03-17T09:35:20Z</time></trkpt>
<trkpt lat="43.0469170000" lon="0.1939850000"><ele>1000</ele><time>2026-03-17T09:35:22Z</time></trkpt>
<trkpt lat="43.0469050000" lon="0.1940080000"><ele>1001</ele><time>2026-03-17T09:35:24Z</time></trkpt>
<trkpt lat="43.0468820000" lon="0.1940480000"><ele>1001</ele><time>2026-03-17T09:35:26Z</time></trkpt>
<trkpt lat="43.0468670000" lon="0.1940720000"><ele>1001</ele><time>2026-03-17T09:35:28Z</time></trkpt>
<trkpt lat="43.0468600000" lon="0.1940970000"><ele>1002</ele><time>2026-03-17T09:35:31Z</time></trkpt>
<trkpt lat="43.0468500000" lon="0.1941250000"><ele>1002</ele><time>2026-03-17T09:35:33Z</time></trkpt>
<trkpt lat="43.0468400000" lon="0.1941520000"><ele>1002</ele><time>2026-03-17T09:35:35Z</time></trkpt>
<trkpt lat="43.0468370000" lon="0.1941780000"><ele>1003</ele><time>2026-03-17T09:35:37Z</time></trkpt>
<trkpt lat="43.0468370000" lon="0.1942120000"><ele>1003</ele><time>2026-03-17T09:35:39Z</time></trkpt>
<trkpt lat="43.0468420000" lon="0.1942500000"><ele>1003</ele><time>2026-03-17T09:35:41Z</time></trkpt>
<trkpt lat="43.0468370000" lon="0.1942800000"><ele>1004</ele><time>2026-03-17T09:35:45Z</time></trkpt>
<trkpt lat="43.0468220000" lon="0.1943100000"><ele>1004</ele><time>2026-03-17T09:35:48Z</time></trkpt>
<trkpt lat="43.0468150000" lon="0.1943370000"><ele>1005</ele><time>2026-03-17T09:35:54Z</time></trkpt>
<trkpt lat="43.0468170000" lon="0.1943670000"><ele>1005</ele><time>2026-03-17T09:35:57Z</time></trkpt>
<trkpt lat="43.0468050000" lon="0.1943870000"><ele>1006</ele><time>2026-03-17T09:36:00Z</time></trkpt>
<trkpt lat="43.0467920000" lon="0.1944150000"><ele>1006</ele><time>2026-03-17T09:36:04Z</time></trkpt>
<trkpt lat="43.0467770000" lon="0.1944370000"><ele>1007</ele><time>2026-03-17T09:36:07Z</time></trkpt>
<trkpt lat="43.0467750000" lon="0.1944670000"><ele>1007</ele><time>2026-03-17T09:36:10Z</time></trkpt>
<trkpt lat="43.0467770000" lon="0.1945020000"><ele>1008</ele><time>2026-03-17T09:36:13Z</time></trkpt>
<trkpt lat="43.0467900000" lon="0.1945250000"><ele>1008</ele><time>2026-03-17T09:36:15Z</time></trkpt>
<trkpt lat="43.0467720000" lon="0.1945520000"><ele>1008</ele><time>2026-03-17T09:36:18Z</time></trkpt>
<trkpt lat="43.0467570000" lon="0.1945670000"><ele>1009</ele><time>2026-03-17T09:36:22Z</time></trkpt>
<trkpt lat="43.0467420000" lon="0.1945930000"><ele>1009</ele><time>2026-03-17T09:36:26Z</time></trkpt>
<trkpt lat="43.0467470000" lon="0.1946230000"><ele>1010</ele><time>2026-03-17T09:36:30Z</time></trkpt>
<trkpt lat="43.0467420000" lon="0.1946570000"><ele>1010</ele><time>2026-03-17T09:36:33Z</time></trkpt>
<trkpt lat="43.0467570000" lon="0.1946820000"><ele>1010</ele><time>2026-03-17T09:36:36Z</time></trkpt>
<trkpt lat="43.0467600000" lon="0.1947070000"><ele>1011</ele><time>2026-03-17T09:36:40Z</time></trkpt>
<trkpt lat="43.0467520000" lon="0.1947380000"><ele>1012</ele><time>2026-03-17T09:36:46Z</time></trkpt>
<trkpt lat="43.0467470000" lon="0.1947800000"><ele>1012</ele><time>2026-03-17T09:36:49Z</time></trkpt>
<trkpt lat="43.0467220000" lon="0.1947620000"><ele>1013</ele><time>2026-03-17T09:36:55Z</time></trkpt>
<trkpt lat="43.0467100000" lon="0.1947920000"><ele>1013</ele><time>2026-03-17T09:37:21Z</time></trkpt>
<trkpt lat="43.0467050000" lon="0.1948370000"><ele>1013</ele><time>2026-03-17T09:37:23Z</time></trkpt>
<trkpt lat="43.0467050000" lon="0.1948620000"><ele>1014</ele><time>2026-03-17T09:37:24Z</time></trkpt>
<trkpt lat="43.0467020000" lon="0.1948980000"><ele>1014</ele><time>2026-03-17T09:37:26Z</time></trkpt>
<trkpt lat="43.0467020000" lon="0.1949320000"><ele>1014</ele><time>2026-03-17T09:37:29Z</time></trkpt>
<trkpt lat="43.0466950000" lon="0.1949620000"><ele>1015</ele><time>2026-03-17T09:37:32Z</time></trkpt>
<trkpt lat="43.0466820000" lon="0.1949820000"><ele>1015</ele><time>2026-03-17T09:37:35Z</time></trkpt>
<trkpt lat="43.0466770000" lon="0.1950050000"><ele>1016</ele><time>2026-03-17T09:37:40Z</time></trkpt>
<trkpt lat="43.0466520000" lon="0.1950220000"><ele>1016</ele><time>2026-03-17T09:37:43Z</time></trkpt>
<trkpt lat="43.0466350000" lon="0.1950370000"><ele>1016</ele><time>2026-03-17T09:37:45Z</time></trkpt>
<trkpt lat="43.0466170000" lon="0.1950470000"><ele>1017</ele><time>2026-03-17T09:37:47Z</time></trkpt>
<trkpt lat="43.0465970000" lon="0.1950550000"><ele>1017</ele><time>2026-03-17T09:37:51Z</time></trkpt>
<trkpt lat="43.0465720000" lon="0.1950620000"><ele>1017</ele><time>2026-03-17T09:37:54Z</time></trkpt>
<trkpt lat="43.0465600000" lon="0.1950850000"><ele>1017</ele><time>2026-03-17T09:37:56Z</time></trkpt>
<trkpt lat="43.0465470000" lon="0.1951170000"><ele>1017</ele><time>2026-03-17T09:37:59Z</time></trkpt>
<trkpt lat="43.0465420000" lon="0.1951480000"><ele>1017</ele><time>2026-03-17T09:38:01Z</time></trkpt>
<trkpt lat="43.0465350000" lon="0.1951730000"><ele>1017</ele><time>2026-03-17T09:38:03Z</time></trkpt>
<trkpt lat="43.0465200000" lon="0.1952030000"><ele>1017</ele><time>2026-03-17T09:38:06Z</time></trkpt>
<trkpt lat="43.0465120000" lon="0.1952280000"><ele>1018</ele><time>2026-03-17T09:38:17Z</time></trkpt>
<trkpt lat="43.0465020000" lon="0.1952520000"><ele>1018</ele><time>2026-03-17T09:38:19Z</time></trkpt>
<trkpt lat="43.0464950000" lon="0.1952870000"><ele>1018</ele><time>2026-03-17T09:38:21Z</time></trkpt>
<trkpt lat="43.0464920000" lon="0.1953170000"><ele>1019</ele><time>2026-03-17T09:38:23Z</time></trkpt>
<trkpt lat="43.0464850000" lon="0.1953550000"><ele>1019</ele><time>2026-03-17T09:38:26Z</time></trkpt>
<trkpt lat="43.0464800000" lon="0.1953870000"><ele>1019</ele><time>2026-03-17T09:38:29Z</time></trkpt>
<trkpt lat="43.0464720000" lon="0.1954170000"><ele>1019</ele><time>2026-03-17T09:38:32Z</time></trkpt>
<trkpt lat="43.0464570000" lon="0.1954420000"><ele>1020</ele><time>2026-03-17T09:38:35Z</time></trkpt>
<trkpt lat="43.0464450000" lon="0.1954700000"><ele>1020</ele><time>2026-03-17T09:38:38Z</time></trkpt>
<trkpt lat="43.0464400000" lon="0.1954950000"><ele>1020</ele><time>2026-03-17T09:38:40Z</time></trkpt>
<trkpt lat="43.0464350000" lon="0.1955200000"><ele>1021</ele><time>2026-03-17T09:38:42Z</time></trkpt>
<trkpt lat="43.0464320000" lon="0.1955470000"><ele>1021</ele><time>2026-03-17T09:38:44Z</time></trkpt>
<trkpt lat="43.0464270000" lon="0.1955720000"><ele>1021</ele><time>2026-03-17T09:38:46Z</time></trkpt>
<trkpt lat="43.0464220000" lon="0.1955930000"><ele>1021</ele><time>2026-03-17T09:38:48Z</time></trkpt>
<trkpt lat="43.0464270000" lon="0.1956270000"><ele>1021</ele><time>2026-03-17T09:38:51Z</time></trkpt>
<trkpt lat="43.0464370000" lon="0.1956600000"><ele>1022</ele><time>2026-03-17T09:38:54Z</time></trkpt>
<trkpt lat="43.0464450000" lon="0.1956820000"><ele>1022</ele><time>2026-03-17T09:38:56Z</time></trkpt>
<trkpt lat="43.0464470000" lon="0.1957080000"><ele>1022</ele><time>2026-03-17T09:38:58Z</time></trkpt>
<trkpt lat="43.0464520000" lon="0.1957330000"><ele>1023</ele><time>2026-03-17T09:39:00Z</time></trkpt>
<trkpt lat="43.0464600000" lon="0.1957670000"><ele>1023</ele><time>2026-03-17T09:39:03Z</time></trkpt>
<trkpt lat="43.0464670000" lon="0.1957920000"><ele>1023</ele><time>2026-03-17T09:39:05Z</time></trkpt>
<trkpt lat="43.0464850000" lon="0.1958170000"><ele>1023</ele><time>2026-03-17T09:39:08Z</time></trkpt>
<trkpt lat="43.0464970000" lon="0.1958320000"><ele>1024</ele><time>2026-03-17T09:39:10Z</time></trkpt>
<trkpt lat="43.0465150000" lon="0.1958530000"><ele>1024</ele><time>2026-03-17T09:39:12Z</time></trkpt>
<trkpt lat="43.0465320000" lon="0.1958730000"><ele>1024</ele><time>2026-03-17T09:39:14Z</time></trkpt>
<trkpt lat="43.0465370000" lon="0.1959020000"><ele>1024</ele><time>2026-03-17T09:39:16Z</time></trkpt>
<trkpt lat="43.0465370000" lon="0.1959320000"><ele>1024</ele><time>2026-03-17T09:39:18Z</time></trkpt>
<trkpt lat="43.0465420000" lon="0.1959580000"><ele>1024</ele><time>2026-03-17T09:39:20Z</time></trkpt>
<trkpt lat="43.0465520000" lon="0.1959830000"><ele>1024</ele><time>2026-03-17T09:39:23Z</time></trkpt>
<trkpt lat="43.0465550000" lon="0.1960120000"><ele>1025</ele><time>2026-03-17T09:39:25Z</time></trkpt>
<trkpt lat="43.0465470000" lon="0.1960380000"><ele>1025</ele><time>2026-03-17T09:39:28Z</time></trkpt>
<trkpt lat="43.0465420000" lon="0.1960670000"><ele>1025</ele><time>2026-03-17T09:39:31Z</time></trkpt>
<trkpt lat="43.0465270000" lon="0.1960820000"><ele>1025</ele><time>2026-03-17T09:39:33Z</time></trkpt>
<trkpt lat="43.0465120000" lon="0.1961070000"><ele>1026</ele><time>2026-03-17T09:39:36Z</time></trkpt>
<trkpt lat="43.0465020000" lon="0.1961320000"><ele>1026</ele><time>2026-03-17T09:40:02Z</time></trkpt>
<trkpt lat="43.0464970000" lon="0.1961570000"><ele>1026</ele><time>2026-03-17T09:40:34Z</time></trkpt>
<trkpt lat="43.0464920000" lon="0.1961850000"><ele>1026</ele><time>2026-03-17T09:40:36Z</time></trkpt>
<trkpt lat="43.0464800000" lon="0.1962120000"><ele>1026</ele><time>2026-03-17T09:40:38Z</time></trkpt>
<trkpt lat="43.0464720000" lon="0.1962420000"><ele>1025</ele><time>2026-03-17T09:40:40Z</time></trkpt>
<trkpt lat="43.0464720000" lon="0.1962770000"><ele>1026</ele><time>2026-03-17T09:40:42Z</time></trkpt>
<trkpt lat="43.0464670000" lon="0.1963070000"><ele>1026</ele><time>2026-03-17T09:40:44Z</time></trkpt>
<trkpt lat="43.0464550000" lon="0.1963370000"><ele>1025</ele><time>2026-03-17T09:40:46Z</time></trkpt>
<trkpt lat="43.0464420000" lon="0.1963620000"><ele>1026</ele><time>2026-03-17T09:40:48Z</time></trkpt>
<trkpt lat="43.0464320000" lon="0.1963900000"><ele>1026</ele><time>2026-03-17T09:42:34Z</time></trkpt>
<trkpt lat="43.0464300000" lon="0.1964150000"><ele>1026</ele><time>2026-03-17T09:42:35Z</time></trkpt>
<trkpt lat="43.0464220000" lon="0.1964470000"><ele>1026</ele><time>2026-03-17T09:42:36Z</time></trkpt>
<trkpt lat="43.0464150000" lon="0.1964820000"><ele>1025</ele><time>2026-03-17T09:42:37Z</time></trkpt>
<trkpt lat="43.0464070000" lon="0.1965130000"><ele>1025</ele><time>2026-03-17T09:42:38Z</time></trkpt>
<trkpt lat="43.0464070000" lon="0.1965420000"><ele>1025</ele><time>2026-03-17T09:42:39Z</time></trkpt>
<trkpt lat="43.0464070000" lon="0.1965770000"><ele>1025</ele><time>2026-03-17T09:42:41Z</time></trkpt>
<trkpt lat="43.0464100000" lon="0.1966050000"><ele>1024</ele><time>2026-03-17T09:42:44Z</time></trkpt>
<trkpt lat="43.0464120000" lon="0.1966300000"><ele>1024</ele><time>2026-03-17T09:42:48Z</time></trkpt>
<trkpt lat="43.0464050000" lon="0.1966520000"><ele>1024</ele><time>2026-03-17T09:42:51Z</time></trkpt>
<trkpt lat="43.0463800000" lon="0.1966570000"><ele>1023</ele><time>2026-03-17T09:43:06Z</time></trkpt>
<trkpt lat="43.0463570000" lon="0.1966520000"><ele>1022</ele><time>2026-03-17T09:43:08Z</time></trkpt>
<trkpt lat="43.0463400000" lon="0.1966350000"><ele>1022</ele><time>2026-03-17T09:43:19Z</time></trkpt>
<trkpt lat="43.0463170000" lon="0.1966120000"><ele>1022</ele><time>2026-03-17T09:43:21Z</time></trkpt>
<trkpt lat="43.0463020000" lon="0.1965880000"><ele>1022</ele><time>2026-03-17T09:43:23Z</time></trkpt>
<trkpt lat="43.0462870000" lon="0.1965630000"><ele>1022</ele><time>2026-03-17T09:43:25Z</time></trkpt>
<trkpt lat="43.0462670000" lon="0.1965370000"><ele>1022</ele><time>2026-03-17T09:43:28Z</time></trkpt>
<trkpt lat="43.0462520000" lon="0.1965080000"><ele>1022</ele><time>2026-03-17T09:43:31Z</time></trkpt>
<trkpt lat="43.0462320000" lon="0.1965020000"><ele>1020</ele><time>2026-03-17T09:43:41Z</time></trkpt>
<trkpt lat="43.0462150000" lon="0.1964820000"><ele>1020</ele><time>2026-03-17T09:43:46Z</time></trkpt>
<trkpt lat="43.0461900000" lon="0.1964650000"><ele>1020</ele><time>2026-03-17T09:43:48Z</time></trkpt>
<trkpt lat="43.0461670000" lon="0.1964470000"><ele>1020</ele><time>2026-03-17T09:43:50Z</time></trkpt>
<trkpt lat="43.0461500000" lon="0.1964350000"><ele>1019</ele><time>2026-03-17T09:43:52Z</time></trkpt>
<trkpt lat="43.0461350000" lon="0.1964120000"><ele>1019</ele><time>2026-03-17T09:43:54Z</time></trkpt>
<trkpt lat="43.0461200000" lon="0.1963920000"><ele>1019</ele><time>2026-03-17T09:43:56Z</time></trkpt>
<trkpt lat="43.0460970000" lon="0.1963780000"><ele>1018</ele><time>2026-03-17T09:43:59Z</time></trkpt>
<trkpt lat="43.0460800000" lon="0.1963620000"><ele>1017</ele><time>2026-03-17T09:44:02Z</time></trkpt>
<trkpt lat="43.0460650000" lon="0.1963470000"><ele>1017</ele><time>2026-03-17T09:44:04Z</time></trkpt>
<trkpt lat="43.0460520000" lon="0.1963170000"><ele>1016</ele><time>2026-03-17T09:44:07Z</time></trkpt>
<trkpt lat="43.0460420000" lon="0.1962970000"><ele>1016</ele><time>2026-03-17T09:44:09Z</time></trkpt>
<trkpt lat="43.0460320000" lon="0.1962720000"><ele>1016</ele><time>2026-03-17T09:44:11Z</time></trkpt>
<trkpt lat="43.0460200000" lon="0.1962420000"><ele>1015</ele><time>2026-03-17T09:44:14Z</time></trkpt>
<trkpt lat="43.0460100000" lon="0.1962170000"><ele>1015</ele><time>2026-03-17T09:44:16Z</time></trkpt>
<trkpt lat="43.0459970000" lon="0.1961920000"><ele>1015</ele><time>2026-03-17T09:44:18Z</time></trkpt>
<trkpt lat="43.0459820000" lon="0.1961720000"><ele>1015</ele><time>2026-03-17T09:44:20Z</time></trkpt>
<trkpt lat="43.0459720000" lon="0.1961450000"><ele>1014</ele><time>2026-03-17T09:44:23Z</time></trkpt>
<trkpt lat="43.0459550000" lon="0.1961220000"><ele>1014</ele><time>2026-03-17T09:44:31Z</time></trkpt>
<trkpt lat="43.0459420000" lon="0.1960970000"><ele>1014</ele><time>2026-03-17T09:44:33Z</time></trkpt>
<trkpt lat="43.0459270000" lon="0.1960750000"><ele>1014</ele><time>2026-03-17T09:44:35Z</time></trkpt>
<trkpt lat="43.0459200000" lon="0.1960500000"><ele>1014</ele><time>2026-03-17T09:44:37Z</time></trkpt>
<trkpt lat="43.0459120000" lon="0.1960220000"><ele>1013</ele><time>2026-03-17T09:44:39Z</time></trkpt>
<trkpt lat="43.0459020000" lon="0.1960000000"><ele>1013</ele><time>2026-03-17T09:44:41Z</time></trkpt>
<trkpt lat="43.0458970000" lon="0.1959680000"><ele>1013</ele><time>2026-03-17T09:44:44Z</time></trkpt>
<trkpt lat="43.0458720000" lon="0.1959570000"><ele>1013</ele><time>2026-03-17T09:44:47Z</time></trkpt>
<trkpt lat="43.0458570000" lon="0.1959320000"><ele>1013</ele><time>2026-03-17T09:44:49Z</time></trkpt>
<trkpt lat="43.0458500000" lon="0.1959070000"><ele>1013</ele><time>2026-03-17T09:44:51Z</time></trkpt>
<trkpt lat="43.0458420000" lon="0.1958800000"><ele>1012</ele><time>2026-03-17T09:44:53Z</time></trkpt>
<trkpt lat="43.0458270000" lon="0.1958520000"><ele>1012</ele><time>2026-03-17T09:44:55Z</time></trkpt>
<trkpt lat="43.0458120000" lon="0.1958270000"><ele>1012</ele><time>2026-03-17T09:44:58Z</time></trkpt>
<trkpt lat="43.0457920000" lon="0.1958180000"><ele>1012</ele><time>2026-03-17T09:45:00Z</time></trkpt>
<trkpt lat="43.0457770000" lon="0.1958070000"><ele>1012</ele><time>2026-03-17T09:45:02Z</time></trkpt>
<trkpt lat="43.0457570000" lon="0.1957900000"><ele>1011</ele><time>2026-03-17T09:45:04Z</time></trkpt>
<trkpt lat="43.0457420000" lon="0.1957700000"><ele>1011</ele><time>2026-03-17T09:45:06Z</time></trkpt>
<trkpt lat="43.0457220000" lon="0.1957470000"><ele>1011</ele><time>2026-03-17T09:45:09Z</time></trkpt>
<trkpt lat="43.0457070000" lon="0.1957320000"><ele>1011</ele><time>2026-03-17T09:45:11Z</time></trkpt>
<trkpt lat="43.0456900000" lon="0.1957200000"><ele>1010</ele><time>2026-03-17T09:45:13Z</time></trkpt>
<trkpt lat="43.0456750000" lon="0.1957000000"><ele>1010</ele><time>2026-03-17T09:45:15Z</time></trkpt>
<trkpt lat="43.0456570000" lon="0.1956820000"><ele>1009</ele><time>2026-03-17T09:45:17Z</time></trkpt>
<trkpt lat="43.0456420000" lon="0.1956600000"><ele>1009</ele><time>2026-03-17T09:45:19Z</time></trkpt>
<trkpt lat="43.0456320000" lon="0.1956320000"><ele>1009</ele><time>2026-03-17T09:45:21Z</time></trkpt>
<trkpt lat="43.0456270000" lon="0.1956070000"><ele>1009</ele><time>2026-03-17T09:45:23Z</time></trkpt>
<trkpt lat="43.0456200000" lon="0.1955820000"><ele>1008</ele><time>2026-03-17T09:45:25Z</time></trkpt>
<trkpt lat="43.0456070000" lon="0.1955620000"><ele>1008</ele><time>2026-03-17T09:45:27Z</time></trkpt>
<trkpt lat="43.0455970000" lon="0.1955420000"><ele>1008</ele><time>2026-03-17T09:45:29Z</time></trkpt>
<trkpt lat="43.0455770000" lon="0.1955270000"><ele>1008</ele><time>2026-03-17T09:45:31Z</time></trkpt>
<trkpt lat="43.0455570000" lon="0.1955220000"><ele>1008</ele><time>2026-03-17T09:45:33Z</time></trkpt>
<trkpt lat="43.0455370000" lon="0.1955120000"><ele>1008</ele><time>2026-03-17T09:45:35Z</time></trkpt>
<trkpt lat="43.0455150000" lon="0.1955120000"><ele>1008</ele><time>2026-03-17T09:45:37Z</time></trkpt>
<trkpt lat="43.0454920000" lon="0.1955070000"><ele>1007</ele><time>2026-03-17T09:45:39Z</time></trkpt>
<trkpt lat="43.0454700000" lon="0.1955020000"><ele>1007</ele><time>2026-03-17T09:45:41Z</time></trkpt>
<trkpt lat="43.0454470000" lon="0.1954920000"><ele>1007</ele><time>2026-03-17T09:45:43Z</time></trkpt>
<trkpt lat="43.0454270000" lon="0.1954720000"><ele>1007</ele><time>2026-03-17T09:45:45Z</time></trkpt>
<trkpt lat="43.0454100000" lon="0.1954530000"><ele>1007</ele><time>2026-03-17T09:45:47Z</time></trkpt>
<trkpt lat="43.0453920000" lon="0.1954370000"><ele>1007</ele><time>2026-03-17T09:45:49Z</time></trkpt>
<trkpt lat="43.0453750000" lon="0.1954270000"><ele>1007</ele><time>2026-03-17T09:45:51Z</time></trkpt>
<trkpt lat="43.0453570000" lon="0.1954170000"><ele>1006</ele><time>2026-03-17T09:45:53Z</time></trkpt>
<trkpt lat="43.0453320000" lon="0.1954020000"><ele>1006</ele><time>2026-03-17T09:45:56Z</time></trkpt>
<trkpt lat="43.0453120000" lon="0.1953970000"><ele>1006</ele><time>2026-03-17T09:45:58Z</time></trkpt>
<trkpt lat="43.0452900000" lon="0.1953920000"><ele>1006</ele><time>2026-03-17T09:46:00Z</time></trkpt>
<trkpt lat="43.0452670000" lon="0.1953850000"><ele>1006</ele><time>2026-03-17T09:46:02Z</time></trkpt>
<trkpt lat="43.0452470000" lon="0.1953770000"><ele>1006</ele><time>2026-03-17T09:46:04Z</time></trkpt>
<trkpt lat="43.0452270000" lon="0.1953670000"><ele>1005</ele><time>2026-03-17T09:46:06Z</time></trkpt>
<trkpt lat="43.0452050000" lon="0.1953520000"><ele>1005</ele><time>2026-03-17T09:46:08Z</time></trkpt>
<trkpt lat="43.0451870000" lon="0.1953470000"><ele>1005</ele><time>2026-03-17T09:46:10Z</time></trkpt>
<trkpt lat="43.0451600000" lon="0.1953320000"><ele>1005</ele><time>2026-03-17T09:46:13Z</time></trkpt>
<trkpt lat="43.0451420000" lon="0.1953220000"><ele>1005</ele><time>2026-03-17T09:46:15Z</time></trkpt>
<trkpt lat="43.0451170000" lon="0.1953180000"><ele>1005</ele><time>2026-03-17T09:46:17Z</time></trkpt>
<trkpt lat="43.0450950000" lon="0.1953170000"><ele>1004</ele><time>2026-03-17T09:46:19Z</time></trkpt>
<trkpt lat="43.0450770000" lon="0.1953250000"><ele>1004</ele><time>2026-03-17T09:46:21Z</time></trkpt>
<trkpt lat="43.0450570000" lon="0.1953400000"><ele>1004</ele><time>2026-03-17T09:46:23Z</time></trkpt>
<trkpt lat="43.0450320000" lon="0.1953470000"><ele>1004</ele><time>2026-03-17T09:46:25Z</time></trkpt>
<trkpt lat="43.0450120000" lon="0.1953570000"><ele>1003</ele><time>2026-03-17T09:46:27Z</time></trkpt>
<trkpt lat="43.0449900000" lon="0.1953620000"><ele>1003</ele><time>2026-03-17T09:46:29Z</time></trkpt>
<trkpt lat="43.0449670000" lon="0.1953620000"><ele>1003</ele><time>2026-03-17T09:46:31Z</time></trkpt>
<trkpt lat="43.0449420000" lon="0.1953670000"><ele>1002</ele><time>2026-03-17T09:46:33Z</time></trkpt>
<trkpt lat="43.0449220000" lon="0.1953720000"><ele>1002</ele><time>2026-03-17T09:46:35Z</time></trkpt>
<trkpt lat="43.0449020000" lon="0.1953720000"><ele>1002</ele><time>2026-03-17T09:46:37Z</time></trkpt>
<trkpt lat="43.0448820000" lon="0.1953770000"><ele>1001</ele><time>2026-03-17T09:46:39Z</time></trkpt>
<trkpt lat="43.0448620000" lon="0.1953770000"><ele>1001</ele><time>2026-03-17T09:46:41Z</time></trkpt>
<trkpt lat="43.0448400000" lon="0.1953770000"><ele>1001</ele><time>2026-03-17T09:46:43Z</time></trkpt>
<trkpt lat="43.0448200000" lon="0.1953770000"><ele>1000</ele><time>2026-03-17T09:46:45Z</time></trkpt>
<trkpt lat="43.0447970000" lon="0.1953800000"><ele>1000</ele><time>2026-03-17T09:46:47Z</time></trkpt>
<trkpt lat="43.0447750000" lon="0.1953870000"><ele>1000</ele><time>2026-03-17T09:46:49Z</time></trkpt>
<trkpt lat="43.0447550000" lon="0.1953870000"><ele>999</ele><time>2026-03-17T09:46:51Z</time></trkpt>
<trkpt lat="43.0447350000" lon="0.1953970000"><ele>999</ele><time>2026-03-17T09:46:53Z</time></trkpt>
<trkpt lat="43.0447150000" lon="0.1954170000"><ele>999</ele><time>2026-03-17T09:46:55Z</time></trkpt>
<trkpt lat="43.0446950000" lon="0.1954280000"><ele>998</ele><time>2026-03-17T09:46:57Z</time></trkpt>
<trkpt lat="43.0446770000" lon="0.1954470000"><ele>998</ele><time>2026-03-17T09:46:59Z</time></trkpt>
<trkpt lat="43.0446600000" lon="0.1954580000"><ele>997</ele><time>2026-03-17T09:47:01Z</time></trkpt>
<trkpt lat="43.0446370000" lon="0.1954770000"><ele>996</ele><time>2026-03-17T09:47:04Z</time></trkpt>
<trkpt lat="43.0446170000" lon="0.1954820000"><ele>996</ele><time>2026-03-17T09:47:06Z</time></trkpt>
<trkpt lat="43.0446000000" lon="0.1954870000"><ele>996</ele><time>2026-03-17T09:47:08Z</time></trkpt>
<trkpt lat="43.0445800000" lon="0.1954920000"><ele>995</ele><time>2026-03-17T09:47:10Z</time></trkpt>
<trkpt lat="43.0445620000" lon="0.1955020000"><ele>995</ele><time>2026-03-17T09:47:12Z</time></trkpt>
<trkpt lat="43.0445400000" lon="0.1955150000"><ele>994</ele><time>2026-03-17T09:47:14Z</time></trkpt>
<trkpt lat="43.0445200000" lon="0.1955200000"><ele>994</ele><time>2026-03-17T09:47:16Z</time></trkpt>
<trkpt lat="43.0445020000" lon="0.1955200000"><ele>993</ele><time>2026-03-17T09:47:18Z</time></trkpt>
<trkpt lat="43.0444720000" lon="0.1955250000"><ele>993</ele><time>2026-03-17T09:47:21Z</time></trkpt>
<trkpt lat="43.0444520000" lon="0.1955220000"><ele>992</ele><time>2026-03-17T09:47:23Z</time></trkpt>
<trkpt lat="43.0444320000" lon="0.1955250000"><ele>992</ele><time>2026-03-17T09:47:25Z</time></trkpt>
<trkpt lat="43.0444120000" lon="0.1955300000"><ele>992</ele><time>2026-03-17T09:47:27Z</time></trkpt>
<trkpt lat="43.0443920000" lon="0.1955320000"><ele>991</ele><time>2026-03-17T09:47:29Z</time></trkpt>
<trkpt lat="43.0443670000" lon="0.1955370000"><ele>991</ele><time>2026-03-17T09:47:31Z</time></trkpt>
<trkpt lat="43.0443470000" lon="0.1955520000"><ele>991</ele><time>2026-03-17T09:47:33Z</time></trkpt>
<trkpt lat="43.0443270000" lon="0.1955520000"><ele>990</ele><time>2026-03-17T09:47:35Z</time></trkpt>
<trkpt lat="43.0443100000" lon="0.1955670000"><ele>989</ele><time>2026-03-17T09:47:37Z</time></trkpt>
<trkpt lat="43.0442900000" lon="0.1955800000"><ele>989</ele><time>2026-03-17T09:47:39Z</time></trkpt>
<trkpt lat="43.0442720000" lon="0.1955930000"><ele>989</ele><time>2026-03-17T09:47:41Z</time></trkpt>
<trkpt lat="43.0442520000" lon="0.1956120000"><ele>989</ele><time>2026-03-17T09:47:43Z</time></trkpt>
<trkpt lat="43.0442350000" lon="0.1956270000"><ele>988</ele><time>2026-03-17T09:47:45Z</time></trkpt>
<trkpt lat="43.0442170000" lon="0.1956420000"><ele>988</ele><time>2026-03-17T09:47:47Z</time></trkpt>
<trkpt lat="43.0441970000" lon="0.1956570000"><ele>987</ele><time>2026-03-17T09:47:49Z</time></trkpt>
<trkpt lat="43.0441750000" lon="0.1956720000"><ele>987</ele><time>2026-03-17T09:47:51Z</time></trkpt>
<trkpt lat="43.0441550000" lon="0.1956830000"><ele>987</ele><time>2026-03-17T09:47:53Z</time></trkpt>
<trkpt lat="43.0441370000" lon="0.1956970000"><ele>987</ele><time>2026-03-17T09:47:55Z</time></trkpt>
<trkpt lat="43.0441170000" lon="0.1957070000"><ele>987</ele><time>2026-03-17T09:47:57Z</time></trkpt>
<trkpt lat="43.0440950000" lon="0.1957200000"><ele>987</ele><time>2026-03-17T09:47:59Z</time></trkpt>
<trkpt lat="43.0440770000" lon="0.1957370000"><ele>986</ele><time>2026-03-17T09:48:01Z</time></trkpt>
<trkpt lat="43.0440650000" lon="0.1957550000"><ele>986</ele><time>2026-03-17T09:48:03Z</time></trkpt>
<trkpt lat="43.0440470000" lon="0.1957670000"><ele>986</ele><time>2026-03-17T09:48:05Z</time></trkpt>
<trkpt lat="43.0440270000" lon="0.1957820000"><ele>986</ele><time>2026-03-17T09:48:07Z</time></trkpt>
<trkpt lat="43.0440120000" lon="0.1958050000"><ele>986</ele><time>2026-03-17T09:48:09Z</time></trkpt>
<trkpt lat="43.0439920000" lon="0.1958180000"><ele>985</ele><time>2026-03-17T09:48:11Z</time></trkpt>
<trkpt lat="43.0439720000" lon="0.1958270000"><ele>985</ele><time>2026-03-17T09:48:13Z</time></trkpt>
<trkpt lat="43.0439520000" lon="0.1958320000"><ele>985</ele><time>2026-03-17T09:48:15Z</time></trkpt>
<trkpt lat="43.0439320000" lon="0.1958430000"><ele>984</ele><time>2026-03-17T09:48:17Z</time></trkpt>
<trkpt lat="43.0439070000" lon="0.1958600000"><ele>983</ele><time>2026-03-17T09:48:20Z</time></trkpt>
<trkpt lat="43.0438900000" lon="0.1958680000"><ele>983</ele><time>2026-03-17T09:48:22Z</time></trkpt>
<trkpt lat="43.0438670000" lon="0.1958900000"><ele>982</ele><time>2026-03-17T09:48:25Z</time></trkpt>
<trkpt lat="43.0438500000" lon="0.1958970000"><ele>981</ele><time>2026-03-17T09:48:27Z</time></trkpt>
<trkpt lat="43.0438320000" lon="0.1959120000"><ele>980</ele><time>2026-03-17T09:48:29Z</time></trkpt>
<trkpt lat="43.0438120000" lon="0.1959250000"><ele>980</ele><time>2026-03-17T09:48:31Z</time></trkpt>
<trkpt lat="43.0437900000" lon="0.1959300000"><ele>980</ele><time>2026-03-17T09:48:33Z</time></trkpt>
<trkpt lat="43.0437670000" lon="0.1959350000"><ele>979</ele><time>2026-03-17T09:48:36Z</time></trkpt>
<trkpt lat="43.0437500000" lon="0.1959520000"><ele>979</ele><time>2026-03-17T09:48:38Z</time></trkpt>
<trkpt lat="43.0437320000" lon="0.1959750000"><ele>978</ele><time>2026-03-17T09:48:40Z</time></trkpt>
<trkpt lat="43.0437150000" lon="0.1959920000"><ele>978</ele><time>2026-03-17T09:48:42Z</time></trkpt>
<trkpt lat="43.0437000000" lon="0.1960070000"><ele>977</ele><time>2026-03-17T09:48:44Z</time></trkpt>
<trkpt lat="43.0436850000" lon="0.1960220000"><ele>977</ele><time>2026-03-17T09:48:46Z</time></trkpt>
<trkpt lat="43.0436670000" lon="0.1960320000"><ele>977</ele><time>2026-03-17T09:49:04Z</time></trkpt>
<trkpt lat="43.0436520000" lon="0.1960470000"><ele>977</ele><time>2026-03-17T09:49:06Z</time></trkpt>
<trkpt lat="43.0436300000" lon="0.1960720000"><ele>976</ele><time>2026-03-17T09:49:08Z</time></trkpt>
<trkpt lat="43.0436100000" lon="0.1960930000"><ele>976</ele><time>2026-03-17T09:49:10Z</time></trkpt>
<trkpt lat="43.0435920000" lon="0.1961100000"><ele>976</ele><time>2026-03-17T09:49:12Z</time></trkpt>
<trkpt lat="43.0435750000" lon="0.1961220000"><ele>976</ele><time>2026-03-17T09:49:14Z</time></trkpt>
<trkpt lat="43.0435570000" lon="0.1961420000"><ele>975</ele><time>2026-03-17T09:49:16Z</time></trkpt>
<trkpt lat="43.0435420000" lon="0.1961700000"><ele>975</ele><time>2026-03-17T09:49:18Z</time></trkpt>
<trkpt lat="43.0435250000" lon="0.1961970000"><ele>975</ele><time>2026-03-17T09:49:20Z</time></trkpt>
<trkpt lat="43.0435070000" lon="0.1962320000"><ele>975</ele><time>2026-03-17T09:49:22Z</time></trkpt>
<trkpt lat="43.0434900000" lon="0.1962630000"><ele>974</ele><time>2026-03-17T09:49:24Z</time></trkpt>
<trkpt lat="43.0434770000" lon="0.1962820000"><ele>974</ele><time>2026-03-17T09:49:26Z</time></trkpt>
<trkpt lat="43.0434620000" lon="0.1963020000"><ele>974</ele><time>2026-03-17T09:49:28Z</time></trkpt>
<trkpt lat="43.0434450000" lon="0.1963220000"><ele>974</ele><time>2026-03-17T09:49:30Z</time></trkpt>
<trkpt lat="43.0434270000" lon="0.1963380000"><ele>973</ele><time>2026-03-17T09:49:32Z</time></trkpt>
<trkpt lat="43.0434070000" lon="0.1963520000"><ele>973</ele><time>2026-03-17T09:49:34Z</time></trkpt>
<trkpt lat="43.0433900000" lon="0.1963670000"><ele>973</ele><time>2026-03-17T09:49:36Z</time></trkpt>
<trkpt lat="43.0433720000" lon="0.1963770000"><ele>973</ele><time>2026-03-17T09:49:38Z</time></trkpt>
<trkpt lat="43.0433570000" lon="0.1963920000"><ele>973</ele><time>2026-03-17T09:49:40Z</time></trkpt>
<trkpt lat="43.0433370000" lon="0.1964080000"><ele>973</ele><time>2026-03-17T09:49:42Z</time></trkpt>
<trkpt lat="43.0433170000" lon="0.1964220000"><ele>973</ele><time>2026-03-17T09:49:44Z</time></trkpt>
<trkpt lat="43.0433000000" lon="0.1964320000"><ele>973</ele><time>2026-03-17T09:49:46Z</time></trkpt>
<trkpt lat="43.0432850000" lon="0.1964500000"><ele>972</ele><time>2026-03-17T09:49:48Z</time></trkpt>
<trkpt lat="43.0432700000" lon="0.1964720000"><ele>972</ele><time>2026-03-17T09:49:50Z</time></trkpt>
<trkpt lat="43.0432520000" lon="0.1964900000"><ele>972</ele><time>2026-03-17T09:49:52Z</time></trkpt>
<trkpt lat="43.0432380000" lon="0.1965070000"><ele>972</ele><time>2026-03-17T09:49:54Z</time></trkpt>
<trkpt lat="43.0432220000" lon="0.1965230000"><ele>972</ele><time>2026-03-17T09:49:56Z</time></trkpt>
<trkpt lat="43.0432050000" lon="0.1965470000"><ele>972</ele><time>2026-03-17T09:49:58Z</time></trkpt>
<trkpt lat="43.0431920000" lon="0.1965720000"><ele>972</ele><time>2026-03-17T09:50:00Z</time></trkpt>
<trkpt lat="43.0431800000" lon="0.1965970000"><ele>971</ele><time>2026-03-17T09:50:02Z</time></trkpt>
<trkpt lat="43.0431670000" lon="0.1966200000"><ele>971</ele><time>2026-03-17T09:50:04Z</time></trkpt>
<trkpt lat="43.0431520000" lon="0.1966420000"><ele>971</ele><time>2026-03-17T09:50:06Z</time></trkpt>
<trkpt lat="43.0431420000" lon="0.1966700000"><ele>971</ele><time>2026-03-17T09:50:08Z</time></trkpt>
<trkpt lat="43.0431270000" lon="0.1966970000"><ele>970</ele><time>2026-03-17T09:50:11Z</time></trkpt>
<trkpt lat="43.0431200000" lon="0.1967270000"><ele>971</ele><time>2026-03-17T09:50:14Z</time></trkpt>
<trkpt lat="43.0431220000" lon="0.1967600000"><ele>970</ele><time>2026-03-17T09:50:17Z</time></trkpt>
<trkpt lat="43.0431220000" lon="0.1967880000"><ele>970</ele><time>2026-03-17T09:50:19Z</time></trkpt>
<trkpt lat="43.0431270000" lon="0.1968170000"><ele>970</ele><time>2026-03-17T09:50:21Z</time></trkpt>
<trkpt lat="43.0431350000" lon="0.1968420000"><ele>970</ele><time>2026-03-17T09:50:23Z</time></trkpt>
<trkpt lat="43.0431350000" lon="0.1968770000"><ele>969</ele><time>2026-03-17T09:50:26Z</time></trkpt>
<trkpt lat="43.0431350000" lon="0.1969020000"><ele>969</ele><time>2026-03-17T09:50:28Z</time></trkpt>
<trkpt lat="43.0431500000" lon="0.1969270000"><ele>969</ele><time>2026-03-17T09:50:31Z</time></trkpt>
<trkpt lat="43.0431620000" lon="0.1969470000"><ele>968</ele><time>2026-03-17T09:50:33Z</time></trkpt>
<trkpt lat="43.0431850000" lon="0.1969620000"><ele>968</ele><time>2026-03-17T09:50:35Z</time></trkpt>
<trkpt lat="43.0432070000" lon="0.1969720000"><ele>968</ele><time>2026-03-17T09:50:37Z</time></trkpt>
<trkpt lat="43.0432250000" lon="0.1969870000"><ele>968</ele><time>2026-03-17T09:50:39Z</time></trkpt>
<trkpt lat="43.0432170000" lon="0.1970170000"><ele>968</ele><time>2026-03-17T09:50:42Z</time></trkpt>
<trkpt lat="43.0432100000" lon="0.1970400000"><ele>967</ele><time>2026-03-17T09:50:45Z</time></trkpt>
<trkpt lat="43.0432050000" lon="0.1970670000"><ele>967</ele><time>2026-03-17T09:50:47Z</time></trkpt>
<trkpt lat="43.0432020000" lon="0.1970970000"><ele>966</ele><time>2026-03-17T09:50:49Z</time></trkpt>
<trkpt lat="43.0432050000" lon="0.1971320000"><ele>966</ele><time>2026-03-17T09:50:51Z</time></trkpt>
<trkpt lat="43.0432020000" lon="0.1971620000"><ele>966</ele><time>2026-03-17T09:50:53Z</time></trkpt>
<trkpt lat="43.0431970000" lon="0.1971900000"><ele>966</ele><time>2026-03-17T09:50:56Z</time></trkpt>
<trkpt lat="43.0432020000" lon="0.1972200000"><ele>966</ele><time>2026-03-17T09:51:11Z</time></trkpt>
<trkpt lat="43.0432150000" lon="0.1972450000"><ele>965</ele><time>2026-03-17T09:51:13Z</time></trkpt>
<trkpt lat="43.0432220000" lon="0.1972820000"><ele>965</ele><time>2026-03-17T09:51:15Z</time></trkpt>
<trkpt lat="43.0432170000" lon="0.1973200000"><ele>965</ele><time>2026-03-17T09:51:17Z</time></trkpt>
<trkpt lat="43.0432020000" lon="0.1973520000"><ele>964</ele><time>2026-03-17T09:51:19Z</time></trkpt>
<trkpt lat="43.0431970000" lon="0.1973820000"><ele>964</ele><time>2026-03-17T09:51:21Z</time></trkpt>
<trkpt lat="43.0431900000" lon="0.1974120000"><ele>964</ele><time>2026-03-17T09:51:23Z</time></trkpt>
<trkpt lat="43.0431820000" lon="0.1974420000"><ele>964</ele><time>2026-03-17T09:51:25Z</time></trkpt>
<trkpt lat="43.0431750000" lon="0.1974670000"><ele>963</ele><time>2026-03-17T09:51:27Z</time></trkpt>
<trkpt lat="43.0431720000" lon="0.1974930000"><ele>963</ele><time>2026-03-17T09:51:29Z</time></trkpt>
<trkpt lat="43.0431620000" lon="0.1975270000"><ele>963</ele><time>2026-03-17T09:51:31Z</time></trkpt>
<trkpt lat="43.0431570000" lon="0.1975570000"><ele>963</ele><time>2026-03-17T09:51:33Z</time></trkpt>
<trkpt lat="43.0431470000" lon="0.1975870000"><ele>963</ele><time>2026-03-17T09:51:35Z</time></trkpt>
<trkpt lat="43.0431420000" lon="0.1976150000"><ele>963</ele><time>2026-03-17T09:51:37Z</time></trkpt>
<trkpt lat="43.0431420000" lon="0.1976470000"><ele>963</ele><time>2026-03-17T09:51:39Z</time></trkpt>
<trkpt lat="43.0431350000" lon="0.1976770000"><ele>963</ele><time>2026-03-17T09:51:41Z</time></trkpt>
<trkpt lat="43.0431250000" lon="0.1977100000"><ele>962</ele><time>2026-03-17T09:51:43Z</time></trkpt>
<trkpt lat="43.0431170000" lon="0.1977420000"><ele>962</ele><time>2026-03-17T09:51:45Z</time></trkpt>
<trkpt lat="43.0431120000" lon="0.1977680000"><ele>962</ele><time>2026-03-17T09:51:47Z</time></trkpt>
<trkpt lat="43.0431020000" lon="0.1977970000"><ele>962</ele><time>2026-03-17T09:51:49Z</time></trkpt>
<trkpt lat="43.0430920000" lon="0.1978250000"><ele>962</ele><time>2026-03-17T09:51:51Z</time></trkpt>
<trkpt lat="43.0430820000" lon="0.1978520000"><ele>962</ele><time>2026-03-17T09:51:53Z</time></trkpt>
<trkpt lat="43.0430720000" lon="0.1978800000"><ele>962</ele><time>2026-03-17T09:51:55Z</time></trkpt>
<trkpt lat="43.0430670000" lon="0.1979120000"><ele>962</ele><time>2026-03-17T09:51:57Z</time></trkpt>
<trkpt lat="43.0430620000" lon="0.1979620000"><ele>962</ele><time>2026-03-17T09:51:59Z</time></trkpt>
<trkpt lat="43.0430570000" lon="0.1980000000"><ele>962</ele><time>2026-03-17T09:52:01Z</time></trkpt>
<trkpt lat="43.0430520000" lon="0.1980330000"><ele>962</ele><time>2026-03-17T09:52:03Z</time></trkpt>
<trkpt lat="43.0430450000" lon="0.1980670000"><ele>962</ele><time>2026-03-17T09:52:05Z</time></trkpt>
<trkpt lat="43.0430420000" lon="0.1980970000"><ele>962</ele><time>2026-03-17T09:52:07Z</time></trkpt>
<trkpt lat="43.0430400000" lon="0.1981270000"><ele>962</ele><time>2026-03-17T09:52:09Z</time></trkpt>
<trkpt lat="43.0430370000" lon="0.1981520000"><ele>962</ele><time>2026-03-17T09:52:11Z</time></trkpt>
<trkpt lat="43.0430270000" lon="0.1981820000"><ele>962</ele><time>2026-03-17T09:52:13Z</time></trkpt>
<trkpt lat="43.0430220000" lon="0.1982070000"><ele>962</ele><time>2026-03-17T09:52:15Z</time></trkpt>
<trkpt lat="43.0430200000" lon="0.1982370000"><ele>961</ele><time>2026-03-17T09:52:17Z</time></trkpt>
<trkpt lat="43.0430120000" lon="0.1982670000"><ele>961</ele><time>2026-03-17T09:52:19Z</time></trkpt>
<trkpt lat="43.0430070000" lon="0.1982950000"><ele>961</ele><time>2026-03-17T09:52:21Z</time></trkpt>
<trkpt lat="43.0430020000" lon="0.1983220000"><ele>961</ele><time>2026-03-17T09:52:23Z</time></trkpt>
<trkpt lat="43.0429970000" lon="0.1983520000"><ele>961</ele><time>2026-03-17T09:52:25Z</time></trkpt>
<trkpt lat="43.0429900000" lon="0.1983820000"><ele>961</ele><time>2026-03-17T09:52:27Z</time></trkpt>
<trkpt lat="43.0429870000" lon="0.1984150000"><ele>961</ele><time>2026-03-17T09:52:29Z</time></trkpt>
<trkpt lat="43.0429870000" lon="0.1984470000"><ele>961</ele><time>2026-03-17T09:52:31Z</time></trkpt>
<trkpt lat="43.0429820000" lon="0.1984780000"><ele>961</ele><time>2026-03-17T09:52:33Z</time></trkpt>
<trkpt lat="43.0429770000" lon="0.1985130000"><ele>960</ele><time>2026-03-17T09:52:35Z</time></trkpt>
<trkpt lat="43.0429720000" lon="0.1985470000"><ele>960</ele><time>2026-03-17T09:52:37Z</time></trkpt>
<trkpt lat="43.0429670000" lon="0.1985770000"><ele>960</ele><time>2026-03-17T09:52:39Z</time></trkpt>
<trkpt lat="43.0429470000" lon="0.1985570000"><ele>959</ele><time>2026-03-17T09:53:09Z</time></trkpt>
<trkpt lat="43.0429470000" lon="0.1985970000"><ele>959</ele><time>2026-03-17T09:54:01Z</time></trkpt>
<trkpt lat="43.0429450000" lon="0.1986470000"><ele>959</ele><time>2026-03-17T09:54:03Z</time></trkpt>
<trkpt lat="43.0429470000" lon="0.1986720000"><ele>959</ele><time>2026-03-17T09:54:04Z</time></trkpt>
<trkpt lat="43.0429470000" lon="0.1986970000"><ele>959</ele><time>2026-03-17T09:54:05Z</time></trkpt>
<trkpt lat="43.0429450000" lon="0.1987370000"><ele>959</ele><time>2026-03-17T09:54:07Z</time></trkpt>
<trkpt lat="43.0429450000" lon="0.1987720000"><ele>959</ele><time>2026-03-17T09:54:09Z</time></trkpt>
<trkpt lat="43.0429550000" lon="0.1988020000"><ele>959</ele><time>2026-03-17T09:54:11Z</time></trkpt>
<trkpt lat="43.0429570000" lon="0.1988350000"><ele>959</ele><time>2026-03-17T09:54:13Z</time></trkpt>
<trkpt lat="43.0429570000" lon="0.1988620000"><ele>959</ele><time>2026-03-17T09:54:15Z</time></trkpt>
<trkpt lat="43.0429520000" lon="0.1988930000"><ele>958</ele><time>2026-03-17T09:54:17Z</time></trkpt>
<trkpt lat="43.0429420000" lon="0.1989170000"><ele>958</ele><time>2026-03-17T09:54:19Z</time></trkpt>
<trkpt lat="43.0429370000" lon="0.1989420000"><ele>958</ele><time>2026-03-17T09:54:21Z</time></trkpt>
<trkpt lat="43.0429350000" lon="0.1989720000"><ele>958</ele><time>2026-03-17T09:54:23Z</time></trkpt>
<trkpt lat="43.0429280000" lon="0.1990020000"><ele>958</ele><time>2026-03-17T09:54:25Z</time></trkpt>
<trkpt lat="43.0429320000" lon="0.1990420000"><ele>958</ele><time>2026-03-17T09:54:27Z</time></trkpt>
<trkpt lat="43.0429320000" lon="0.1990870000"><ele>958</ele><time>2026-03-17T09:54:29Z</time></trkpt>
<trkpt lat="43.0429320000" lon="0.1991250000"><ele>958</ele><time>2026-03-17T09:54:31Z</time></trkpt>
<trkpt lat="43.0429320000" lon="0.1991620000"><ele>958</ele><time>2026-03-17T09:54:33Z</time></trkpt>
<trkpt lat="43.0429220000" lon="0.1991920000"><ele>957</ele><time>2026-03-17T09:54:35Z</time></trkpt>
<trkpt lat="43.0429070000" lon="0.1992200000"><ele>957</ele><time>2026-03-17T09:54:37Z</time></trkpt>
<trkpt lat="43.0428970000" lon="0.1992500000"><ele>957</ele><time>2026-03-17T09:54:39Z</time></trkpt>
<trkpt lat="43.0428820000" lon="0.1992770000"><ele>957</ele><time>2026-03-17T09:54:41Z</time></trkpt>
<trkpt lat="43.0428670000" lon="0.1993070000"><ele>957</ele><time>2026-03-17T09:54:43Z</time></trkpt>
<trkpt lat="43.0428470000" lon="0.1993370000"><ele>957</ele><time>2026-03-17T09:54:45Z</time></trkpt>
<trkpt lat="43.0428300000" lon="0.1993620000"><ele>957</ele><time>2026-03-17T09:54:47Z</time></trkpt>
<trkpt lat="43.0428170000" lon="0.1993870000"><ele>957</ele><time>2026-03-17T09:54:49Z</time></trkpt>
<trkpt lat="43.0428020000" lon="0.1994120000"><ele>956</ele><time>2026-03-17T09:54:51Z</time></trkpt>
<trkpt lat="43.0427880000" lon="0.1994370000"><ele>956</ele><time>2026-03-17T09:54:53Z</time></trkpt>
<trkpt lat="43.0427750000" lon="0.1994620000"><ele>956</ele><time>2026-03-17T09:54:55Z</time></trkpt>
<trkpt lat="43.0427550000" lon="0.1994870000"><ele>956</ele><time>2026-03-17T09:54:57Z</time></trkpt>
<trkpt lat="43.0427370000" lon="0.1995070000"><ele>956</ele><time>2026-03-17T09:54:59Z</time></trkpt>
<trkpt lat="43.0427150000" lon="0.1995320000"><ele>955</ele><time>2026-03-17T09:55:01Z</time></trkpt>
<trkpt lat="43.0426950000" lon="0.1995520000"><ele>955</ele><time>2026-03-17T09:55:03Z</time></trkpt>
<trkpt lat="43.0426770000" lon="0.1995670000"><ele>955</ele><time>2026-03-17T09:55:05Z</time></trkpt>
<trkpt lat="43.0426570000" lon="0.1995880000"><ele>955</ele><time>2026-03-17T09:55:07Z</time></trkpt>
<trkpt lat="43.0426420000" lon="0.1996120000"><ele>955</ele><time>2026-03-17T09:55:09Z</time></trkpt>
<trkpt lat="43.0426200000" lon="0.1996320000"><ele>955</ele><time>2026-03-17T09:55:11Z</time></trkpt>
<trkpt lat="43.0426020000" lon="0.1996570000"><ele>955</ele><time>2026-03-17T09:55:13Z</time></trkpt>
<trkpt lat="43.0425870000" lon="0.1996800000"><ele>955</ele><time>2026-03-17T09:55:15Z</time></trkpt>
<trkpt lat="43.0425670000" lon="0.1996980000"><ele>955</ele><time>2026-03-17T09:55:17Z</time></trkpt>
<trkpt lat="43.0425470000" lon="0.1997170000"><ele>955</ele><time>2026-03-17T09:55:19Z</time></trkpt>
<trkpt lat="43.0425320000" lon="0.1997470000"><ele>955</ele><time>2026-03-17T09:55:21Z</time></trkpt>
<trkpt lat="43.0425170000" lon="0.1997750000"><ele>955</ele><time>2026-03-17T09:55:23Z</time></trkpt>
<trkpt lat="43.0425020000" lon="0.1997970000"><ele>955</ele><time>2026-03-17T09:55:25Z</time></trkpt>
<trkpt lat="43.0424820000" lon="0.1998150000"><ele>955</ele><time>2026-03-17T09:55:27Z</time></trkpt>
<trkpt lat="43.0424620000" lon="0.1998270000"><ele>955</ele><time>2026-03-17T09:55:29Z</time></trkpt>
<trkpt lat="43.0424420000" lon="0.1998380000"><ele>955</ele><time>2026-03-17T09:55:31Z</time></trkpt>
<trkpt lat="43.0424200000" lon="0.1998620000"><ele>955</ele><time>2026-03-17T09:55:34Z</time></trkpt>
<trkpt lat="43.0424070000" lon="0.1998820000"><ele>954</ele><time>2026-03-17T09:55:36Z</time></trkpt>
<trkpt lat="43.0423820000" lon="0.1998970000"><ele>954</ele><time>2026-03-17T09:55:38Z</time></trkpt>
<trkpt lat="43.0423670000" lon="0.1999180000"><ele>954</ele><time>2026-03-17T09:55:40Z</time></trkpt>
<trkpt lat="43.0423520000" lon="0.1999570000"><ele>954</ele><time>2026-03-17T09:55:42Z</time></trkpt>
<trkpt lat="43.0423470000" lon="0.1999870000"><ele>954</ele><time>2026-03-17T09:55:44Z</time></trkpt>
<trkpt lat="43.0423400000" lon="0.2000250000"><ele>954</ele><time>2026-03-17T09:55:46Z</time></trkpt>
<trkpt lat="43.0423270000" lon="0.2000520000"><ele>954</ele><time>2026-03-17T09:55:48Z</time></trkpt>
<trkpt lat="43.0423070000" lon="0.2000720000"><ele>954</ele><time>2026-03-17T09:55:50Z</time></trkpt>
<trkpt lat="43.0423000000" lon="0.2000970000"><ele>953</ele><time>2026-03-17T09:55:52Z</time></trkpt>
<trkpt lat="43.0422920000" lon="0.2001230000"><ele>953</ele><time>2026-03-17T09:55:54Z</time></trkpt>
<trkpt lat="43.0422720000" lon="0.2001570000"><ele>953</ele><time>2026-03-17T09:55:56Z</time></trkpt>
<trkpt lat="43.0422470000" lon="0.2001780000"><ele>953</ele><time>2026-03-17T09:55:58Z</time></trkpt>
<trkpt lat="43.0422270000" lon="0.2001950000"><ele>953</ele><time>2026-03-17T09:55:59Z</time></trkpt>
<trkpt lat="43.0421970000" lon="0.2002100000"><ele>953</ele><time>2026-03-17T09:56:01Z</time></trkpt>
<trkpt lat="43.0421750000" lon="0.2002220000"><ele>953</ele><time>2026-03-17T09:56:03Z</time></trkpt>
<trkpt lat="43.0421570000" lon="0.2002400000"><ele>953</ele><time>2026-03-17T09:56:05Z</time></trkpt>
<trkpt lat="43.0421420000" lon="0.2002570000"><ele>952</ele><time>2026-03-17T09:56:07Z</time></trkpt>
<trkpt lat="43.0421270000" lon="0.2002800000"><ele>952</ele><time>2026-03-17T09:56:09Z</time></trkpt>
<trkpt lat="43.0421170000" lon="0.2003020000"><ele>952</ele><time>2026-03-17T09:56:11Z</time></trkpt>
<trkpt lat="43.0420980000" lon="0.2003200000"><ele>952</ele><time>2026-03-17T09:56:13Z</time></trkpt>
<trkpt lat="43.0420770000" lon="0.2003350000"><ele>952</ele><time>2026-03-17T09:56:15Z</time></trkpt>
<trkpt lat="43.0420620000" lon="0.2003600000"><ele>952</ele><time>2026-03-17T09:56:17Z</time></trkpt>
<trkpt lat="43.0420520000" lon="0.2003920000"><ele>952</ele><time>2026-03-17T09:56:19Z</time></trkpt>
<trkpt lat="43.0420420000" lon="0.2004170000"><ele>952</ele><time>2026-03-17T09:56:21Z</time></trkpt>
<trkpt lat="43.0420370000" lon="0.2004420000"><ele>951</ele><time>2026-03-17T09:56:23Z</time></trkpt>
<trkpt lat="43.0420280000" lon="0.2004720000"><ele>951</ele><time>2026-03-17T09:56:25Z</time></trkpt>
<trkpt lat="43.0420220000" lon="0.2005020000"><ele>951</ele><time>2026-03-17T09:56:27Z</time></trkpt>
<trkpt lat="43.0420170000" lon="0.2005270000"><ele>951</ele><time>2026-03-17T09:56:29Z</time></trkpt>
<trkpt lat="43.0420020000" lon="0.2005520000"><ele>951</ele><time>2026-03-17T09:56:31Z</time></trkpt>
<trkpt lat="43.0419900000" lon="0.2005800000"><ele>951</ele><time>2026-03-17T09:56:33Z</time></trkpt>
<trkpt lat="43.0419820000" lon="0.2006170000"><ele>951</ele><time>2026-03-17T09:56:35Z</time></trkpt>
<trkpt lat="43.0419770000" lon="0.2006470000"><ele>951</ele><time>2026-03-17T09:56:37Z</time></trkpt>
<trkpt lat="43.0419720000" lon="0.2006770000"><ele>951</ele><time>2026-03-17T09:56:39Z</time></trkpt>
<trkpt lat="43.0419620000" lon="0.2007070000"><ele>951</ele><time>2026-03-17T09:56:41Z</time></trkpt>
<trkpt lat="43.0419570000" lon="0.2007370000"><ele>950</ele><time>2026-03-17T09:56:43Z</time></trkpt>
<trkpt lat="43.0419470000" lon="0.2007700000"><ele>950</ele><time>2026-03-17T09:56:45Z</time></trkpt>
<trkpt lat="43.0419370000" lon="0.2008000000"><ele>950</ele><time>2026-03-17T09:56:47Z</time></trkpt>
<trkpt lat="43.0419300000" lon="0.2008270000"><ele>950</ele><time>2026-03-17T09:56:49Z</time></trkpt>
<trkpt lat="43.0419270000" lon="0.2008570000"><ele>950</ele><time>2026-03-17T09:56:51Z</time></trkpt>
<trkpt lat="43.0419220000" lon="0.2008850000"><ele>950</ele><time>2026-03-17T09:56:53Z</time></trkpt>
<trkpt lat="43.0419120000" lon="0.2009170000"><ele>950</ele><time>2026-03-17T09:56:55Z</time></trkpt>
<trkpt lat="43.0418970000" lon="0.2009480000"><ele>950</ele><time>2026-03-17T09:56:57Z</time></trkpt>
<trkpt lat="43.0418850000" lon="0.2009730000"><ele>950</ele><time>2026-03-17T09:56:59Z</time></trkpt>
<trkpt lat="43.0418720000" lon="0.2010020000"><ele>950</ele><time>2026-03-17T09:57:01Z</time></trkpt>
<trkpt lat="43.0418700000" lon="0.2010320000"><ele>949</ele><time>2026-03-17T09:57:03Z</time></trkpt>
<trkpt lat="43.0418730000" lon="0.2010570000"><ele>949</ele><time>2026-03-17T09:57:05Z</time></trkpt>
<trkpt lat="43.0418700000" lon="0.2010820000"><ele>949</ele><time>2026-03-17T09:57:07Z</time></trkpt>
<trkpt lat="43.0418600000" lon="0.2011170000"><ele>949</ele><time>2026-03-17T09:57:09Z</time></trkpt>
<trkpt lat="43.0418520000" lon="0.2011470000"><ele>949</ele><time>2026-03-17T09:57:11Z</time></trkpt>
<trkpt lat="43.0418450000" lon="0.2011770000"><ele>949</ele><time>2026-03-17T09:57:13Z</time></trkpt>
<trkpt lat="43.0418350000" lon="0.2012050000"><ele>949</ele><time>2026-03-17T09:57:15Z</time></trkpt>
<trkpt lat="43.0418300000" lon="0.2012370000"><ele>949</ele><time>2026-03-17T09:57:17Z</time></trkpt>
<trkpt lat="43.0418270000" lon="0.2012720000"><ele>949</ele><time>2026-03-17T09:57:19Z</time></trkpt>
<trkpt lat="43.0418220000" lon="0.2013070000"><ele>949</ele><time>2026-03-17T09:57:21Z</time></trkpt>
<trkpt lat="43.0418170000" lon="0.2013420000"><ele>948</ele><time>2026-03-17T09:57:23Z</time></trkpt>
<trkpt lat="43.0418030000" lon="0.2013730000"><ele>948</ele><time>2026-03-17T09:57:25Z</time></trkpt>
<trkpt lat="43.0417920000" lon="0.2013970000"><ele>948</ele><time>2026-03-17T09:57:27Z</time></trkpt>
<trkpt lat="43.0417800000" lon="0.2014180000"><ele>948</ele><time>2026-03-17T09:57:29Z</time></trkpt>
<trkpt lat="43.0417620000" lon="0.2014470000"><ele>947</ele><time>2026-03-17T09:57:31Z</time></trkpt>
<trkpt lat="43.0417520000" lon="0.2014720000"><ele>947</ele><time>2026-03-17T09:57:33Z</time></trkpt>
<trkpt lat="43.0417320000" lon="0.2015070000"><ele>947</ele><time>2026-03-17T09:57:35Z</time></trkpt>
<trkpt lat="43.0417150000" lon="0.2015370000"><ele>947</ele><time>2026-03-17T09:57:37Z</time></trkpt>
<trkpt lat="43.0416920000" lon="0.2015580000"><ele>947</ele><time>2026-03-17T09:57:39Z</time></trkpt>
<trkpt lat="43.0416720000" lon="0.2015820000"><ele>947</ele><time>2026-03-17T09:57:41Z</time></trkpt>
<trkpt lat="43.0416550000" lon="0.2016070000"><ele>947</ele><time>2026-03-17T09:57:43Z</time></trkpt>
<trkpt lat="43.0416400000" lon="0.2016320000"><ele>947</ele><time>2026-03-17T09:57:45Z</time></trkpt>
<trkpt lat="43.0416220000" lon="0.2016580000"><ele>947</ele><time>2026-03-17T09:57:47Z</time></trkpt>
<trkpt lat="43.0416020000" lon="0.2016820000"><ele>946</ele><time>2026-03-17T09:57:49Z</time></trkpt>
<trkpt lat="43.0415820000" lon="0.2016980000"><ele>946</ele><time>2026-03-17T09:57:51Z</time></trkpt>
<trkpt lat="43.0415620000" lon="0.2017170000"><ele>946</ele><time>2026-03-17T09:57:53Z</time></trkpt>
<trkpt lat="43.0415420000" lon="0.2017320000"><ele>946</ele><time>2026-03-17T09:57:55Z</time></trkpt>
<trkpt lat="43.0415150000" lon="0.2017500000"><ele>945</ele><time>2026-03-17T09:57:57Z</time></trkpt>
<trkpt lat="43.0414900000" lon="0.2017620000"><ele>945</ele><time>2026-03-17T09:57:59Z</time></trkpt>
<trkpt lat="43.0414670000" lon="0.2017780000"><ele>945</ele><time>2026-03-17T09:58:01Z</time></trkpt>
<trkpt lat="43.0414450000" lon="0.2017930000"><ele>945</ele><time>2026-03-17T09:58:03Z</time></trkpt>
<trkpt lat="43.0414220000" lon="0.2017970000"><ele>945</ele><time>2026-03-17T09:58:05Z</time></trkpt>
<trkpt lat="43.0414020000" lon="0.2018120000"><ele>945</ele><time>2026-03-17T09:58:07Z</time></trkpt>
<trkpt lat="43.0413820000" lon="0.2018250000"><ele>945</ele><time>2026-03-17T09:58:09Z</time></trkpt>
<trkpt lat="43.0413620000" lon="0.2018320000"><ele>945</ele><time>2026-03-17T09:58:11Z</time></trkpt>
<trkpt lat="43.0413350000" lon="0.2018370000"><ele>945</ele><time>2026-03-17T09:58:14Z</time></trkpt>
<trkpt lat="43.0413120000" lon="0.2018420000"><ele>944</ele><time>2026-03-17T09:58:16Z</time></trkpt>
<trkpt lat="43.0412900000" lon="0.2018570000"><ele>944</ele><time>2026-03-17T09:58:18Z</time></trkpt>
<trkpt lat="43.0412680000" lon="0.2018800000"><ele>944</ele><time>2026-03-17T09:58:20Z</time></trkpt>
<trkpt lat="43.0412400000" lon="0.2018970000"><ele>944</ele><time>2026-03-17T09:58:22Z</time></trkpt>
<trkpt lat="43.0412100000" lon="0.2019170000"><ele>944</ele><time>2026-03-17T09:58:24Z</time></trkpt>
<trkpt lat="43.0411870000" lon="0.2019330000"><ele>944</ele><time>2026-03-17T09:58:26Z</time></trkpt>
<trkpt lat="43.0411720000" lon="0.2019530000"><ele>944</ele><time>2026-03-17T09:58:28Z</time></trkpt>
<trkpt lat="43.0411520000" lon="0.2019820000"><ele>944</ele><time>2026-03-17T09:58:31Z</time></trkpt>
<trkpt lat="43.0411400000" lon="0.2020070000"><ele>943</ele><time>2026-03-17T09:58:33Z</time></trkpt>
<trkpt lat="43.0411300000" lon="0.2020320000"><ele>943</ele><time>2026-03-17T09:58:35Z</time></trkpt>
<trkpt lat="43.0411220000" lon="0.2020570000"><ele>943</ele><time>2026-03-17T09:58:37Z</time></trkpt>
<trkpt lat="43.0411250000" lon="0.2020930000"><ele>943</ele><time>2026-03-17T09:58:42Z</time></trkpt>
<trkpt lat="43.0411270000" lon="0.2021270000"><ele>943</ele><time>2026-03-17T09:58:44Z</time></trkpt>
<trkpt lat="43.0411270000" lon="0.2021600000"><ele>943</ele><time>2026-03-17T09:58:46Z</time></trkpt>
<trkpt lat="43.0411270000" lon="0.2021920000"><ele>943</ele><time>2026-03-17T09:58:48Z</time></trkpt>
<trkpt lat="43.0411270000" lon="0.2022220000"><ele>943</ele><time>2026-03-17T09:58:50Z</time></trkpt>
<trkpt lat="43.0411420000" lon="0.2022530000"><ele>943</ele><time>2026-03-17T09:58:52Z</time></trkpt>
<trkpt lat="43.0411570000" lon="0.2022820000"><ele>942</ele><time>2026-03-17T09:58:54Z</time></trkpt>
<trkpt lat="43.0411770000" lon="0.2023070000"><ele>942</ele><time>2026-03-17T09:58:56Z</time></trkpt>
<trkpt lat="43.0411950000" lon="0.2023330000"><ele>942</ele><time>2026-03-17T09:58:58Z</time></trkpt>
<trkpt lat="43.0412120000" lon="0.2023600000"><ele>942</ele><time>2026-03-17T09:59:00Z</time></trkpt>
<trkpt lat="43.0412250000" lon="0.2023880000"><ele>942</ele><time>2026-03-17T09:59:02Z</time></trkpt>
<trkpt lat="43.0412420000" lon="0.2024180000"><ele>942</ele><time>2026-03-17T09:59:04Z</time></trkpt>
<trkpt lat="43.0412570000" lon="0.2024450000"><ele>942</ele><time>2026-03-17T09:59:06Z</time></trkpt>
<trkpt lat="43.0412720000" lon="0.2024700000"><ele>942</ele><time>2026-03-17T09:59:08Z</time></trkpt>
<trkpt lat="43.0412920000" lon="0.2024920000"><ele>942</ele><time>2026-03-17T09:59:10Z</time></trkpt>
<trkpt lat="43.0413150000" lon="0.2025130000"><ele>942</ele><time>2026-03-17T09:59:12Z</time></trkpt>
<trkpt lat="43.0413320000" lon="0.2025370000"><ele>942</ele><time>2026-03-17T09:59:14Z</time></trkpt>
<trkpt lat="43.0413520000" lon="0.2025580000"><ele>942</ele><time>2026-03-17T09:59:16Z</time></trkpt>
<trkpt lat="43.0413670000" lon="0.2025820000"><ele>942</ele><time>2026-03-17T09:59:18Z</time></trkpt>
<trkpt lat="43.0413820000" lon="0.2026070000"><ele>942</ele><time>2026-03-17T09:59:20Z</time></trkpt>
<trkpt lat="43.0413970000" lon="0.2026370000"><ele>941</ele><time>2026-03-17T09:59:22Z</time></trkpt>
<trkpt lat="43.0414070000" lon="0.2026620000"><ele>941</ele><time>2026-03-17T09:59:24Z</time></trkpt>
<trkpt lat="43.0414220000" lon="0.2026870000"><ele>941</ele><time>2026-03-17T09:59:26Z</time></trkpt>
<trkpt lat="43.0414370000" lon="0.2027170000"><ele>941</ele><time>2026-03-17T09:59:28Z</time></trkpt>
<trkpt lat="43.0414500000" lon="0.2027470000"><ele>941</ele><time>2026-03-17T09:59:30Z</time></trkpt>
<trkpt lat="43.0414720000" lon="0.2027770000"><ele>941</ele><time>2026-03-17T09:59:32Z</time></trkpt>
<trkpt lat="43.0414920000" lon="0.2028020000"><ele>941</ele><time>2026-03-17T09:59:34Z</time></trkpt>
<trkpt lat="43.0414930000" lon="0.2028300000"><ele>941</ele><time>2026-03-17T09:59:54Z</time></trkpt>
<trkpt lat="43.0415100000" lon="0.2028620000"><ele>940</ele><time>2026-03-17T09:59:56Z</time></trkpt>
<trkpt lat="43.0415250000" lon="0.2029020000"><ele>940</ele><time>2026-03-17T09:59:58Z</time></trkpt>
<trkpt lat="43.0415400000" lon="0.2029400000"><ele>940</ele><time>2026-03-17T10:00:00Z</time></trkpt>
<trkpt lat="43.0415550000" lon="0.2029700000"><ele>940</ele><time>2026-03-17T10:00:02Z</time></trkpt>
<trkpt lat="43.0415630000" lon="0.2029970000"><ele>940</ele><time>2026-03-17T10:00:04Z</time></trkpt>
<trkpt lat="43.0415720000" lon="0.2030220000"><ele>940</ele><time>2026-03-17T10:00:06Z</time></trkpt>
<trkpt lat="43.0415700000" lon="0.2030550000"><ele>939</ele><time>2026-03-17T10:00:19Z</time></trkpt>
<trkpt lat="43.0415800000" lon="0.2030920000"><ele>939</ele><time>2026-03-17T10:00:21Z</time></trkpt>
<trkpt lat="43.0415900000" lon="0.2031320000"><ele>939</ele><time>2026-03-17T10:00:23Z</time></trkpt>
<trkpt lat="43.0416020000" lon="0.2031680000"><ele>939</ele><time>2026-03-17T10:00:25Z</time></trkpt>
<trkpt lat="43.0416120000" lon="0.2032030000"><ele>939</ele><time>2026-03-17T10:00:27Z</time></trkpt>
<trkpt lat="43.0416170000" lon="0.2032370000"><ele>939</ele><time>2026-03-17T10:00:29Z</time></trkpt>
<trkpt lat="43.0416250000" lon="0.2032670000"><ele>939</ele><time>2026-03-17T10:00:31Z</time></trkpt>
<trkpt lat="43.0416320000" lon="0.2032970000"><ele>939</ele><time>2026-03-17T10:00:33Z</time></trkpt>
<trkpt lat="43.0416320000" lon="0.2033320000"><ele>939</ele><time>2026-03-17T10:00:35Z</time></trkpt>
<trkpt lat="43.0416320000" lon="0.2033620000"><ele>939</ele><time>2026-03-17T10:00:37Z</time></trkpt>
<trkpt lat="43.0416320000" lon="0.2033970000"><ele>938</ele><time>2026-03-17T10:00:39Z</time></trkpt>
<trkpt lat="43.0416420000" lon="0.2034300000"><ele>938</ele><time>2026-03-17T10:00:41Z</time></trkpt>
<trkpt lat="43.0416520000" lon="0.2034620000"><ele>938</ele><time>2026-03-17T10:00:43Z</time></trkpt>
<trkpt lat="43.0416620000" lon="0.2034950000"><ele>938</ele><time>2026-03-17T10:00:45Z</time></trkpt>
<trkpt lat="43.0416720000" lon="0.2035270000"><ele>938</ele><time>2026-03-17T10:00:47Z</time></trkpt>
<trkpt lat="43.0416800000" lon="0.2035570000"><ele>938</ele><time>2026-03-17T10:00:49Z</time></trkpt>
<trkpt lat="43.0416850000" lon="0.2035920000"><ele>938</ele><time>2026-03-17T10:00:51Z</time></trkpt>
<trkpt lat="43.0416920000" lon="0.2036220000"><ele>938</ele><time>2026-03-17T10:00:53Z</time></trkpt>
<trkpt lat="43.0417000000" lon="0.2036570000"><ele>938</ele><time>2026-03-17T10:00:55Z</time></trkpt>
<trkpt lat="43.0417180000" lon="0.2036920000"><ele>937</ele><time>2026-03-17T10:00:57Z</time></trkpt>
<trkpt lat="43.0417420000" lon="0.2037270000"><ele>937</ele><time>2026-03-17T10:00:59Z</time></trkpt>
<trkpt lat="43.0417550000" lon="0.2037570000"><ele>937</ele><time>2026-03-17T10:01:01Z</time></trkpt>
<trkpt lat="43.0417670000" lon="0.2037830000"><ele>937</ele><time>2026-03-17T10:01:03Z</time></trkpt>
<trkpt lat="43.0417770000" lon="0.2038150000"><ele>937</ele><time>2026-03-17T10:01:05Z</time></trkpt>
<trkpt lat="43.0417850000" lon="0.2038450000"><ele>937</ele><time>2026-03-17T10:01:07Z</time></trkpt>
<trkpt lat="43.0417870000" lon="0.2038770000"><ele>937</ele><time>2026-03-17T10:01:09Z</time></trkpt>
<trkpt lat="43.0417920000" lon="0.2039070000"><ele>937</ele><time>2026-03-17T10:01:11Z</time></trkpt>
<trkpt lat="43.0418000000" lon="0.2039370000"><ele>936</ele><time>2026-03-17T10:01:13Z</time></trkpt>
<trkpt lat="43.0418000000" lon="0.2039700000"><ele>936</ele><time>2026-03-17T10:01:15Z</time></trkpt>
<trkpt lat="43.0418020000" lon="0.2040020000"><ele>936</ele><time>2026-03-17T10:01:17Z</time></trkpt>
<trkpt lat="43.0418020000" lon="0.2040370000"><ele>936</ele><time>2026-03-17T10:01:19Z</time></trkpt>
<trkpt lat="43.0418000000" lon="0.2040750000"><ele>936</ele><time>2026-03-17T10:01:21Z</time></trkpt>
<trkpt lat="43.0417970000" lon="0.2041070000"><ele>936</ele><time>2026-03-17T10:01:23Z</time></trkpt>
<trkpt lat="43.0417970000" lon="0.2041420000"><ele>936</ele><time>2026-03-17T10:01:25Z</time></trkpt>
<trkpt lat="43.0417920000" lon="0.2041770000"><ele>935</ele><time>2026-03-17T10:01:27Z</time></trkpt>
<trkpt lat="43.0417870000" lon="0.2042120000"><ele>935</ele><time>2026-03-17T10:01:29Z</time></trkpt>
<trkpt lat="43.0417820000" lon="0.2042450000"><ele>935</ele><time>2026-03-17T10:01:31Z</time></trkpt>
<trkpt lat="43.0417750000" lon="0.2042770000"><ele>935</ele><time>2026-03-17T10:01:33Z</time></trkpt>
<trkpt lat="43.0417670000" lon="0.2043120000"><ele>935</ele><time>2026-03-17T10:01:35Z</time></trkpt>
<trkpt lat="43.0417570000" lon="0.2043420000"><ele>935</ele><time>2026-03-17T10:01:37Z</time></trkpt>
<trkpt lat="43.0417500000" lon="0.2043700000"><ele>935</ele><time>2026-03-17T10:01:39Z</time></trkpt>
<trkpt lat="43.0417400000" lon="0.2044020000"><ele>935</ele><time>2026-03-17T10:01:41Z</time></trkpt>
<trkpt lat="43.0417270000" lon="0.2044280000"><ele>935</ele><time>2026-03-17T10:01:43Z</time></trkpt>
<trkpt lat="43.0417170000" lon="0.2044570000"><ele>935</ele><time>2026-03-17T10:01:45Z</time></trkpt>
<trkpt lat="43.0417050000" lon="0.2044870000"><ele>934</ele><time>2026-03-17T10:01:47Z</time></trkpt>
<trkpt lat="43.0416950000" lon="0.2045220000"><ele>934</ele><time>2026-03-17T10:01:49Z</time></trkpt>
<trkpt lat="43.0416820000" lon="0.2045520000"><ele>934</ele><time>2026-03-17T10:01:51Z</time></trkpt>
<trkpt lat="43.0416720000" lon="0.2045800000"><ele>934</ele><time>2026-03-17T10:01:53Z</time></trkpt>
<trkpt lat="43.0416620000" lon="0.2046070000"><ele>934</ele><time>2026-03-17T10:01:55Z</time></trkpt>
<trkpt lat="43.0416480000" lon="0.2046320000"><ele>934</ele><time>2026-03-17T10:01:57Z</time></trkpt>
<trkpt lat="43.0416320000" lon="0.2046600000"><ele>933</ele><time>2026-03-17T10:01:59Z</time></trkpt>
<trkpt lat="43.0416120000" lon="0.2046820000"><ele>933</ele><time>2026-03-17T10:02:01Z</time></trkpt>
<trkpt lat="43.0415970000" lon="0.2047070000"><ele>933</ele><time>2026-03-17T10:02:03Z</time></trkpt>
<trkpt lat="43.0415800000" lon="0.2047270000"><ele>933</ele><time>2026-03-17T10:02:05Z</time></trkpt>
<trkpt lat="43.0415600000" lon="0.2047520000"><ele>933</ele><time>2026-03-17T10:02:07Z</time></trkpt>
<trkpt lat="43.0415420000" lon="0.2047820000"><ele>933</ele><time>2026-03-17T10:02:09Z</time></trkpt>
<trkpt lat="43.0415270000" lon="0.2048170000"><ele>933</ele><time>2026-03-17T10:02:11Z</time></trkpt>
<trkpt lat="43.0415150000" lon="0.2048470000"><ele>933</ele><time>2026-03-17T10:02:13Z</time></trkpt>
<trkpt lat="43.0414970000" lon="0.2048720000"><ele>933</ele><time>2026-03-17T10:02:15Z</time></trkpt>
<trkpt lat="43.0414800000" lon="0.2048930000"><ele>933</ele><time>2026-03-17T10:02:17Z</time></trkpt>
<trkpt lat="43.0414670000" lon="0.2049120000"><ele>933</ele><time>2026-03-17T10:02:19Z</time></trkpt>
<trkpt lat="43.0414500000" lon="0.2049400000"><ele>933</ele><time>2026-03-17T10:02:21Z</time></trkpt>
<trkpt lat="43.0414300000" lon="0.2049650000"><ele>932</ele><time>2026-03-17T10:02:23Z</time></trkpt>
<trkpt lat="43.0414170000" lon="0.2049880000"><ele>932</ele><time>2026-03-17T10:02:25Z</time></trkpt>
<trkpt lat="43.0414050000" lon="0.2050150000"><ele>932</ele><time>2026-03-17T10:02:27Z</time></trkpt>
<trkpt lat="43.0413970000" lon="0.2050450000"><ele>932</ele><time>2026-03-17T10:02:29Z</time></trkpt>
<trkpt lat="43.0413820000" lon="0.2050720000"><ele>932</ele><time>2026-03-17T10:02:31Z</time></trkpt>
<trkpt lat="43.0413670000" lon="0.2050970000"><ele>932</ele><time>2026-03-17T10:02:33Z</time></trkpt>
<trkpt lat="43.0413500000" lon="0.2051230000"><ele>932</ele><time>2026-03-17T10:02:35Z</time></trkpt>
<trkpt lat="43.0413420000" lon="0.2051570000"><ele>932</ele><time>2026-03-17T10:02:37Z</time></trkpt>
<trkpt lat="43.0413300000" lon="0.2051850000"><ele>932</ele><time>2026-03-17T10:02:39Z</time></trkpt>
<trkpt lat="43.0413170000" lon="0.2052120000"><ele>932</ele><time>2026-03-17T10:02:41Z</time></trkpt>
<trkpt lat="43.0412970000" lon="0.2052450000"><ele>932</ele><time>2026-03-17T10:02:43Z</time></trkpt>
<trkpt lat="43.0412820000" lon="0.2052720000"><ele>932</ele><time>2026-03-17T10:02:45Z</time></trkpt>
<trkpt lat="43.0412670000" lon="0.2052970000"><ele>931</ele><time>2026-03-17T10:02:47Z</time></trkpt>
<trkpt lat="43.0412520000" lon="0.2053270000"><ele>931</ele><time>2026-03-17T10:02:49Z</time></trkpt>
<trkpt lat="43.0412400000" lon="0.2053570000"><ele>931</ele><time>2026-03-17T10:02:51Z</time></trkpt>
<trkpt lat="43.0412220000" lon="0.2053850000"><ele>931</ele><time>2026-03-17T10:02:53Z</time></trkpt>
<trkpt lat="43.0412070000" lon="0.2054070000"><ele>931</ele><time>2026-03-17T10:02:55Z</time></trkpt>
<trkpt lat="43.0411920000" lon="0.2054270000"><ele>931</ele><time>2026-03-17T10:02:57Z</time></trkpt>
<trkpt lat="43.0411800000" lon="0.2054520000"><ele>931</ele><time>2026-03-17T10:02:59Z</time></trkpt>
<trkpt lat="43.0411670000" lon="0.2054820000"><ele>931</ele><time>2026-03-17T10:03:01Z</time></trkpt>
<trkpt lat="43.0411600000" lon="0.2055150000"><ele>930</ele><time>2026-03-17T10:03:03Z</time></trkpt>
<trkpt lat="43.0411500000" lon="0.2055430000"><ele>930</ele><time>2026-03-17T10:03:05Z</time></trkpt>
<trkpt lat="43.0411450000" lon="0.2055750000"><ele>930</ele><time>2026-03-17T10:03:07Z</time></trkpt>
<trkpt lat="43.0411370000" lon="0.2056070000"><ele>930</ele><time>2026-03-17T10:03:09Z</time></trkpt>
<trkpt lat="43.0411370000" lon="0.2056420000"><ele>930</ele><time>2026-03-17T10:03:11Z</time></trkpt>
<trkpt lat="43.0411350000" lon="0.2056770000"><ele>930</ele><time>2026-03-17T10:03:13Z</time></trkpt>
<trkpt lat="43.0411300000" lon="0.2057070000"><ele>930</ele><time>2026-03-17T10:03:15Z</time></trkpt>
<trkpt lat="43.0411250000" lon="0.2057370000"><ele>929</ele><time>2026-03-17T10:03:17Z</time></trkpt>
<trkpt lat="43.0411250000" lon="0.2057700000"><ele>929</ele><time>2026-03-17T10:03:19Z</time></trkpt>
<trkpt lat="43.0411270000" lon="0.2058000000"><ele>929</ele><time>2026-03-17T10:03:21Z</time></trkpt>
<trkpt lat="43.0411400000" lon="0.2058370000"><ele>929</ele><time>2026-03-17T10:03:23Z</time></trkpt>
<trkpt lat="43.0411570000" lon="0.2058720000"><ele>929</ele><time>2026-03-17T10:03:25Z</time></trkpt>
<trkpt lat="43.0411720000" lon="0.2059070000"><ele>929</ele><time>2026-03-17T10:03:27Z</time></trkpt>
<trkpt lat="43.0411850000" lon="0.2059420000"><ele>929</ele><time>2026-03-17T10:03:29Z</time></trkpt>
<trkpt lat="43.0411950000" lon="0.2059730000"><ele>929</ele><time>2026-03-17T10:03:31Z</time></trkpt>
<trkpt lat="43.0412070000" lon="0.2060070000"><ele>929</ele><time>2026-03-17T10:03:33Z</time></trkpt>
<trkpt lat="43.0412170000" lon="0.2060370000"><ele>929</ele><time>2026-03-17T10:03:35Z</time></trkpt>
<trkpt lat="43.0412270000" lon="0.2060720000"><ele>930</ele><time>2026-03-17T10:03:37Z</time></trkpt>
<trkpt lat="43.0412370000" lon="0.2061020000"><ele>929</ele><time>2026-03-17T10:03:39Z</time></trkpt>
<trkpt lat="43.0412500000" lon="0.2061320000"><ele>929</ele><time>2026-03-17T10:03:41Z</time></trkpt>
<trkpt lat="43.0412600000" lon="0.2061620000"><ele>929</ele><time>2026-03-17T10:03:43Z</time></trkpt>
<trkpt lat="43.0412720000" lon="0.2061920000"><ele>929</ele><time>2026-03-17T10:03:45Z</time></trkpt>
<trkpt lat="43.0412820000" lon="0.2062220000"><ele>929</ele><time>2026-03-17T10:03:47Z</time></trkpt>
<trkpt lat="43.0412920000" lon="0.2062530000"><ele>929</ele><time>2026-03-17T10:03:49Z</time></trkpt>
<trkpt lat="43.0413050000" lon="0.2062830000"><ele>929</ele><time>2026-03-17T10:03:51Z</time></trkpt>
<trkpt lat="43.0413170000" lon="0.2063170000"><ele>929</ele><time>2026-03-17T10:03:53Z</time></trkpt>
<trkpt lat="43.0413270000" lon="0.2063470000"><ele>928</ele><time>2026-03-17T10:03:55Z</time></trkpt>
<trkpt lat="43.0413370000" lon="0.2063730000"><ele>928</ele><time>2026-03-17T10:03:57Z</time></trkpt>
<trkpt lat="43.0413450000" lon="0.2064070000"><ele>928</ele><time>2026-03-17T10:03:59Z</time></trkpt>
<trkpt lat="43.0413520000" lon="0.2064370000"><ele>928</ele><time>2026-03-17T10:04:01Z</time></trkpt>
<trkpt lat="43.0413620000" lon="0.2064670000"><ele>928</ele><time>2026-03-17T10:04:03Z</time></trkpt>
<trkpt lat="43.0413670000" lon="0.2064980000"><ele>927</ele><time>2026-03-17T10:04:05Z</time></trkpt>
<trkpt lat="43.0413770000" lon="0.2065320000"><ele>927</ele><time>2026-03-17T10:04:07Z</time></trkpt>
<trkpt lat="43.0413900000" lon="0.2065620000"><ele>927</ele><time>2026-03-17T10:04:09Z</time></trkpt>
<trkpt lat="43.0413970000" lon="0.2065970000"><ele>927</ele><time>2026-03-17T10:04:11Z</time></trkpt>
<trkpt lat="43.0414120000" lon="0.2066270000"><ele>927</ele><time>2026-03-17T10:04:13Z</time></trkpt>
<trkpt lat="43.0414220000" lon="0.2066570000"><ele>927</ele><time>2026-03-17T10:04:15Z</time></trkpt>
<trkpt lat="43.0414320000" lon="0.2066870000"><ele>927</ele><time>2026-03-17T10:04:17Z</time></trkpt>
<trkpt lat="43.0414420000" lon="0.2067170000"><ele>926</ele><time>2026-03-17T10:04:19Z</time></trkpt>
<trkpt lat="43.0414570000" lon="0.2067470000"><ele>926</ele><time>2026-03-17T10:04:21Z</time></trkpt>
<trkpt lat="43.0414620000" lon="0.2067730000"><ele>926</ele><time>2026-03-17T10:04:23Z</time></trkpt>
<trkpt lat="43.0414720000" lon="0.2068020000"><ele>926</ele><time>2026-03-17T10:04:25Z</time></trkpt>
<trkpt lat="43.0414770000" lon="0.2068320000"><ele>926</ele><time>2026-03-17T10:04:27Z</time></trkpt>
<trkpt lat="43.0414850000" lon="0.2068620000"><ele>926</ele><time>2026-03-17T10:04:29Z</time></trkpt>
<trkpt lat="43.0414900000" lon="0.2068920000"><ele>926</ele><time>2026-03-17T10:04:31Z</time></trkpt>
<trkpt lat="43.0415000000" lon="0.2069220000"><ele>926</ele><time>2026-03-17T10:04:33Z</time></trkpt>
<trkpt lat="43.0415070000" lon="0.2069530000"><ele>925</ele><time>2026-03-17T10:04:35Z</time></trkpt>
<trkpt lat="43.0415220000" lon="0.2069900000"><ele>925</ele><time>2026-03-17T10:04:37Z</time></trkpt>
<trkpt lat="43.0415420000" lon="0.2070220000"><ele>925</ele><time>2026-03-17T10:04:39Z</time></trkpt>
<trkpt lat="43.0415600000" lon="0.2070530000"><ele>925</ele><time>2026-03-17T10:04:41Z</time></trkpt>
<trkpt lat="43.0415720000" lon="0.2070870000"><ele>925</ele><time>2026-03-17T10:04:43Z</time></trkpt>
<trkpt lat="43.0415820000" lon="0.2071200000"><ele>925</ele><time>2026-03-17T10:04:45Z</time></trkpt>
<trkpt lat="43.0415870000" lon="0.2071520000"><ele>925</ele><time>2026-03-17T10:04:47Z</time></trkpt>
<trkpt lat="43.0416000000" lon="0.2071820000"><ele>925</ele><time>2026-03-17T10:04:49Z</time></trkpt>
<trkpt lat="43.0416120000" lon="0.2072080000"><ele>925</ele><time>2026-03-17T10:04:51Z</time></trkpt>
<trkpt lat="43.0416220000" lon="0.2072400000"><ele>924</ele><time>2026-03-17T10:04:53Z</time></trkpt>
<trkpt lat="43.0416270000" lon="0.2072720000"><ele>924</ele><time>2026-03-17T10:04:55Z</time></trkpt>
<trkpt lat="43.0416370000" lon="0.2073020000"><ele>924</ele><time>2026-03-17T10:04:57Z</time></trkpt>
<trkpt lat="43.0416470000" lon="0.2073320000"><ele>924</ele><time>2026-03-17T10:04:59Z</time></trkpt>
<trkpt lat="43.0416620000" lon="0.2073620000"><ele>924</ele><time>2026-03-17T10:05:01Z</time></trkpt>
<trkpt lat="43.0416820000" lon="0.2073850000"><ele>924</ele><time>2026-03-17T10:05:03Z</time></trkpt>
<trkpt lat="43.0416950000" lon="0.2074100000"><ele>923</ele><time>2026-03-17T10:05:05Z</time></trkpt>
<trkpt lat="43.0417070000" lon="0.2074320000"><ele>923</ele><time>2026-03-17T10:05:07Z</time></trkpt>
<trkpt lat="43.0417250000" lon="0.2074520000"><ele>923</ele><time>2026-03-17T10:05:09Z</time></trkpt>
<trkpt lat="43.0417420000" lon="0.2074670000"><ele>923</ele><time>2026-03-17T10:05:11Z</time></trkpt>
<trkpt lat="43.0417670000" lon="0.2074730000"><ele>923</ele><time>2026-03-17T10:05:13Z</time></trkpt>
<trkpt lat="43.0417870000" lon="0.2074830000"><ele>923</ele><time>2026-03-17T10:05:15Z</time></trkpt>
<trkpt lat="43.0418070000" lon="0.2074920000"><ele>922</ele><time>2026-03-17T10:05:17Z</time></trkpt>
<trkpt lat="43.0418270000" lon="0.2075020000"><ele>922</ele><time>2026-03-17T10:05:19Z</time></trkpt>
<trkpt lat="43.0418470000" lon="0.2075120000"><ele>922</ele><time>2026-03-17T10:05:21Z</time></trkpt>
<trkpt lat="43.0418670000" lon="0.2075220000"><ele>922</ele><time>2026-03-17T10:05:23Z</time></trkpt>
<trkpt lat="43.0418850000" lon="0.2075320000"><ele>922</ele><time>2026-03-17T10:05:25Z</time></trkpt>
<trkpt lat="43.0419070000" lon="0.2075370000"><ele>922</ele><time>2026-03-17T10:05:27Z</time></trkpt>
<trkpt lat="43.0419270000" lon="0.2075470000"><ele>921</ele><time>2026-03-17T10:05:34Z</time></trkpt>
<trkpt lat="43.0419470000" lon="0.2075620000"><ele>921</ele><time>2026-03-17T10:05:36Z</time></trkpt>
<trkpt lat="43.0419720000" lon="0.2075750000"><ele>921</ele><time>2026-03-17T10:05:38Z</time></trkpt>
<trkpt lat="43.0419950000" lon="0.2075820000"><ele>921</ele><time>2026-03-17T10:05:40Z</time></trkpt>
<trkpt lat="43.0420220000" lon="0.2075920000"><ele>921</ele><time>2026-03-17T10:05:43Z</time></trkpt>
<trkpt lat="43.0420420000" lon="0.2075920000"><ele>921</ele><time>2026-03-17T10:05:45Z</time></trkpt>
<trkpt lat="43.0420620000" lon="0.2075970000"><ele>921</ele><time>2026-03-17T10:05:47Z</time></trkpt>
<trkpt lat="43.0420800000" lon="0.2076070000"><ele>921</ele><time>2026-03-17T10:05:49Z</time></trkpt>
<trkpt lat="43.0421020000" lon="0.2076120000"><ele>920</ele><time>2026-03-17T10:05:51Z</time></trkpt>
<trkpt lat="43.0421170000" lon="0.2076230000"><ele>920</ele><time>2026-03-17T10:05:53Z</time></trkpt>
<trkpt lat="43.0421370000" lon="0.2076420000"><ele>920</ele><time>2026-03-17T10:05:56Z</time></trkpt>
<trkpt lat="43.0421600000" lon="0.2076630000"><ele>920</ele><time>2026-03-17T10:06:06Z</time></trkpt>
<trkpt lat="43.0421770000" lon="0.2076770000"><ele>920</ele><time>2026-03-17T10:06:07Z</time></trkpt>
<trkpt lat="43.0422070000" lon="0.2076970000"><ele>919</ele><time>2026-03-17T10:06:09Z</time></trkpt>
<trkpt lat="43.0422370000" lon="0.2077070000"><ele>919</ele><time>2026-03-17T10:06:11Z</time></trkpt>
<trkpt lat="43.0422650000" lon="0.2077170000"><ele>919</ele><time>2026-03-17T10:06:13Z</time></trkpt>
<trkpt lat="43.0422900000" lon="0.2077320000"><ele>919</ele><time>2026-03-17T10:06:15Z</time></trkpt>
<trkpt lat="43.0423120000" lon="0.2077420000"><ele>919</ele><time>2026-03-17T10:06:17Z</time></trkpt>
<trkpt lat="43.0423350000" lon="0.2077570000"><ele>919</ele><time>2026-03-17T10:06:19Z</time></trkpt>
<trkpt lat="43.0423500000" lon="0.2077770000"><ele>919</ele><time>2026-03-17T10:06:21Z</time></trkpt>
<trkpt lat="43.0423670000" lon="0.2077970000"><ele>919</ele><time>2026-03-17T10:06:23Z</time></trkpt>
<trkpt lat="43.0423850000" lon="0.2078120000"><ele>919</ele><time>2026-03-17T10:06:25Z</time></trkpt>
<trkpt lat="43.0424020000" lon="0.2078280000"><ele>919</ele><time>2026-03-17T10:06:27Z</time></trkpt>
<trkpt lat="43.0424150000" lon="0.2078470000"><ele>919</ele><time>2026-03-17T10:06:29Z</time></trkpt>
<trkpt lat="43.0424320000" lon="0.2078620000"><ele>919</ele><time>2026-03-17T10:06:31Z</time></trkpt>
<trkpt lat="43.0424470000" lon="0.2078880000"><ele>919</ele><time>2026-03-17T10:06:34Z</time></trkpt>
<trkpt lat="43.0424650000" lon="0.2079170000"><ele>920</ele><time>2026-03-17T10:06:37Z</time></trkpt>
<trkpt lat="43.0424820000" lon="0.2079320000"><ele>920</ele><time>2026-03-17T10:06:39Z</time></trkpt>
<trkpt lat="43.0425000000" lon="0.2079520000"><ele>920</ele><time>2026-03-17T10:06:41Z</time></trkpt>
<trkpt lat="43.0425220000" lon="0.2079650000"><ele>920</ele><time>2026-03-17T10:06:44Z</time></trkpt>
<trkpt lat="43.0425420000" lon="0.2079770000"><ele>921</ele><time>2026-03-17T10:06:46Z</time></trkpt>
<trkpt lat="43.0425570000" lon="0.2079900000"><ele>921</ele><time>2026-03-17T10:06:48Z</time></trkpt>
<trkpt lat="43.0425750000" lon="0.2080120000"><ele>921</ele><time>2026-03-17T10:06:51Z</time></trkpt>
<trkpt lat="43.0425900000" lon="0.2080330000"><ele>921</ele><time>2026-03-17T10:06:54Z</time></trkpt>
<trkpt lat="43.0426070000" lon="0.2080520000"><ele>922</ele><time>2026-03-17T10:06:57Z</time></trkpt>
<trkpt lat="43.0426270000" lon="0.2080670000"><ele>922</ele><time>2026-03-17T10:07:00Z</time></trkpt>
<trkpt lat="43.0426470000" lon="0.2080820000"><ele>922</ele><time>2026-03-17T10:07:03Z</time></trkpt>
<trkpt lat="43.0426620000" lon="0.2081000000"><ele>922</ele><time>2026-03-17T10:07:06Z</time></trkpt>
<trkpt lat="43.0426770000" lon="0.2081220000"><ele>923</ele><time>2026-03-17T10:07:10Z</time></trkpt>
<trkpt lat="43.0427000000" lon="0.2081370000"><ele>923</ele><time>2026-03-17T10:07:14Z</time></trkpt>
<trkpt lat="43.0427220000" lon="0.2081250000"><ele>923</ele><time>2026-03-17T10:07:16Z</time></trkpt>
<trkpt lat="43.0427450000" lon="0.2081200000"><ele>924</ele><time>2026-03-17T10:07:19Z</time></trkpt>
<trkpt lat="43.0427650000" lon="0.2081320000"><ele>924</ele><time>2026-03-17T10:07:22Z</time></trkpt>
<trkpt lat="43.0427800000" lon="0.2081470000"><ele>924</ele><time>2026-03-17T10:07:27Z</time></trkpt>
<trkpt lat="43.0428020000" lon="0.2081520000"><ele>925</ele><time>2026-03-17T10:07:30Z</time></trkpt>
<trkpt lat="43.0428250000" lon="0.2081600000"><ele>925</ele><time>2026-03-17T10:07:33Z</time></trkpt>
<trkpt lat="43.0428470000" lon="0.2081720000"><ele>926</ele><time>2026-03-17T10:07:40Z</time></trkpt>
<trkpt lat="43.0428820000" lon="0.2081880000"><ele>933</ele><time>2026-03-17T10:08:29Z</time></trkpt>
<trkpt lat="43.0429170000" lon="0.2081970000"><ele>933</ele><time>2026-03-17T10:08:30Z</time></trkpt>
<trkpt lat="43.0429600000" lon="0.2082030000"><ele>933</ele><time>2026-03-17T10:08:31Z</time></trkpt>
<trkpt lat="43.0430000000" lon="0.2082120000"><ele>933</ele><time>2026-03-17T10:08:32Z</time></trkpt>
<trkpt lat="43.0430320000" lon="0.2082170000"><ele>933</ele><time>2026-03-17T10:08:33Z</time></trkpt>
<trkpt lat="43.0430570000" lon="0.2082170000"><ele>933</ele><time>2026-03-17T10:08:34Z</time></trkpt>
<trkpt lat="43.0430770000" lon="0.2082220000"><ele>934</ele><time>2026-03-17T10:08:36Z</time></trkpt>
<trkpt lat="43.0430970000" lon="0.2082320000"><ele>934</ele><time>2026-03-17T10:08:40Z</time></trkpt>
<trkpt lat="43.0431120000" lon="0.2082480000"><ele>934</ele><time>2026-03-17T10:08:43Z</time></trkpt>
<trkpt lat="43.0431220000" lon="0.2082720000"><ele>935</ele><time>2026-03-17T10:08:49Z</time></trkpt>
<trkpt lat="43.0431470000" lon="0.2082720000"><ele>936</ele><time>2026-03-17T10:09:26Z</time></trkpt>
<trkpt lat="43.0431270000" lon="0.2082900000"><ele>935</ele><time>2026-03-17T10:09:50Z</time></trkpt>
<trkpt lat="43.0431050000" lon="0.2082950000"><ele>935</ele><time>2026-03-17T10:09:52Z</time></trkpt>
<trkpt lat="43.0431200000" lon="0.2082770000"><ele>935</ele><time>2026-03-17T10:10:02Z</time></trkpt>
<trkpt lat="43.0431470000" lon="0.2082670000"><ele>935</ele><time>2026-03-17T10:10:05Z</time></trkpt>
<trkpt lat="43.0431700000" lon="0.2082700000"><ele>935</ele><time>2026-03-17T10:10:07Z</time></trkpt>
<trkpt lat="43.0431520000" lon="0.2082620000"><ele>936</ele><time>2026-03-17T10:10:21Z</time></trkpt>
<trkpt lat="43.0431750000" lon="0.2082620000"><ele>938</ele><time>2026-03-17T10:11:32Z</time></trkpt>
<trkpt lat="43.0432020000" lon="0.2082720000"><ele>939</ele><time>2026-03-17T10:11:34Z</time></trkpt>
<trkpt lat="43.0432220000" lon="0.2082820000"><ele>939</ele><time>2026-03-17T10:11:36Z</time></trkpt>
<trkpt lat="43.0432420000" lon="0.2082970000"><ele>940</ele><time>2026-03-17T10:11:39Z</time></trkpt>
<trkpt lat="43.0432600000" lon="0.2082920000"><ele>941</ele><time>2026-03-17T10:11:46Z</time></trkpt>
<trkpt lat="43.0432770000" lon="0.2082920000"><ele>941</ele><time>2026-03-17T10:11:49Z</time></trkpt>
<trkpt lat="43.0432970000" lon="0.2083170000"><ele>943</ele><time>2026-03-17T10:12:27Z</time></trkpt>
<trkpt lat="43.0433120000" lon="0.2083400000"><ele>943</ele><time>2026-03-17T10:12:29Z</time></trkpt>
<trkpt lat="43.0433270000" lon="0.2083720000"><ele>944</ele><time>2026-03-17T10:12:40Z</time></trkpt>
<trkpt lat="43.0433420000" lon="0.2083880000"><ele>944</ele><time>2026-03-17T10:12:42Z</time></trkpt>
<trkpt lat="43.0433600000" lon="0.2084120000"><ele>945</ele><time>2026-03-17T10:12:45Z</time></trkpt>
<trkpt lat="43.0433720000" lon="0.2084370000"><ele>945</ele><time>2026-03-17T10:12:49Z</time></trkpt>
<trkpt lat="43.0433820000" lon="0.2084650000"><ele>946</ele><time>2026-03-17T10:12:55Z</time></trkpt>
<trkpt lat="43.0433900000" lon="0.2084920000"><ele>946</ele><time>2026-03-17T10:12:57Z</time></trkpt>
<trkpt lat="43.0434050000" lon="0.2084600000"><ele>946</ele><time>2026-03-17T10:13:12Z</time></trkpt>
<trkpt lat="43.0434120000" lon="0.2084370000"><ele>947</ele><time>2026-03-17T10:13:44Z</time></trkpt>
<trkpt lat="43.0434320000" lon="0.2084470000"><ele>947</ele><time>2026-03-17T10:13:47Z</time></trkpt>
<trkpt lat="43.0434450000" lon="0.2084700000"><ele>947</ele><time>2026-03-17T10:13:49Z</time></trkpt>
<trkpt lat="43.0434570000" lon="0.2084920000"><ele>947</ele><time>2026-03-17T10:13:51Z</time></trkpt>
<trkpt lat="43.0434700000" lon="0.2085120000"><ele>947</ele><time>2026-03-17T10:13:54Z</time></trkpt>
<trkpt lat="43.0434900000" lon="0.2085120000"><ele>948</ele><time>2026-03-17T10:13:57Z</time></trkpt>
<trkpt lat="43.0435050000" lon="0.2084920000"><ele>948</ele><time>2026-03-17T10:14:01Z</time></trkpt>
<trkpt lat="43.0435250000" lon="0.2084770000"><ele>948</ele><time>2026-03-17T10:14:04Z</time></trkpt>
<trkpt lat="43.0435450000" lon="0.2084620000"><ele>949</ele><time>2026-03-17T10:14:07Z</time></trkpt>
<trkpt lat="43.0435650000" lon="0.2084570000"><ele>949</ele><time>2026-03-17T10:14:10Z</time></trkpt>
<trkpt lat="43.0435900000" lon="0.2084530000"><ele>949</ele><time>2026-03-17T10:14:13Z</time></trkpt>
<trkpt lat="43.0436070000" lon="0.2084650000"><ele>950</ele><time>2026-03-17T10:14:16Z</time></trkpt>
<trkpt lat="43.0436300000" lon="0.2084720000"><ele>950</ele><time>2026-03-17T10:14:19Z</time></trkpt>
<trkpt lat="43.0436520000" lon="0.2084870000"><ele>950</ele><time>2026-03-17T10:14:39Z</time></trkpt>
<trkpt lat="43.0436420000" lon="0.2084570000"><ele>949</ele><time>2026-03-17T10:15:41Z</time></trkpt>
<trkpt lat="43.0436450000" lon="0.2084320000"><ele>949</ele><time>2026-03-17T10:15:43Z</time></trkpt>
<trkpt lat="43.0436520000" lon="0.2084070000"><ele>950</ele><time>2026-03-17T10:15:48Z</time></trkpt>
<trkpt lat="43.0436720000" lon="0.2083970000"><ele>950</ele><time>2026-03-17T10:15:52Z</time></trkpt>
<trkpt lat="43.0436820000" lon="0.2083770000"><ele>950</ele><time>2026-03-17T10:15:54Z</time></trkpt>
<trkpt lat="43.0437020000" lon="0.2083770000"><ele>950</ele><time>2026-03-17T10:16:02Z</time></trkpt>
<trkpt lat="43.0437220000" lon="0.2083770000"><ele>949</ele><time>2026-03-17T10:16:18Z</time></trkpt>
<trkpt lat="43.0437370000" lon="0.2084070000"><ele>949</ele><time>2026-03-17T10:16:20Z</time></trkpt>
<trkpt lat="43.0437520000" lon="0.2084250000"><ele>949</ele><time>2026-03-17T10:16:22Z</time></trkpt>
<trkpt lat="43.0437320000" lon="0.2084020000"><ele>950</ele><time>2026-03-17T10:17:39Z</time></trkpt>
<trkpt lat="43.0437100000" lon="0.2083670000"><ele>950</ele><time>2026-03-17T10:17:41Z</time></trkpt>
<trkpt lat="43.0436920000" lon="0.2083520000"><ele>949</ele><time>2026-03-17T10:19:17Z</time></trkpt>
<trkpt lat="43.0436770000" lon="0.2083370000"><ele>949</ele><time>2026-03-17T10:19:19Z</time></trkpt>
<trkpt lat="43.0437000000" lon="0.2083500000"><ele>949</ele><time>2026-03-17T10:20:47Z</time></trkpt>
<trkpt lat="43.0437170000" lon="0.2083620000"><ele>949</ele><time>2026-03-17T10:20:49Z</time></trkpt>
<trkpt lat="43.0437400000" lon="0.2083630000"><ele>949</ele><time>2026-03-17T10:20:52Z</time></trkpt>
<trkpt lat="43.0437570000" lon="0.2083800000"><ele>949</ele><time>2026-03-17T10:20:55Z</time></trkpt>
<trkpt lat="43.0437470000" lon="0.2083980000"><ele>949</ele><time>2026-03-17T10:21:01Z</time></trkpt>
<trkpt lat="43.0437200000" lon="0.2083830000"><ele>949</ele><time>2026-03-17T10:21:55Z</time></trkpt>
<trkpt lat="43.0436880000" lon="0.2083620000"><ele>949</ele><time>2026-03-17T10:21:57Z</time></trkpt>
<trkpt lat="43.0436650000" lon="0.2083370000"><ele>949</ele><time>2026-03-17T10:21:59Z</time></trkpt>
<trkpt lat="43.0436500000" lon="0.2083120000"><ele>949</ele><time>2026-03-17T10:22:02Z</time></trkpt>
<trkpt lat="43.0436650000" lon="0.2083270000"><ele>949</ele><time>2026-03-17T10:23:08Z</time></trkpt>
<trkpt lat="43.0436620000" lon="0.2083550000"><ele>951</ele><time>2026-03-17T10:26:53Z</time></trkpt>
<trkpt lat="43.0436820000" lon="0.2083630000"><ele>950</ele><time>2026-03-17T10:28:04Z</time></trkpt>
<trkpt lat="43.0436950000" lon="0.2083830000"><ele>951</ele><time>2026-03-17T10:28:16Z</time></trkpt>
<trkpt lat="43.0437000000" lon="0.2083570000"><ele>951</ele><time>2026-03-17T10:29:26Z</time></trkpt>
<trkpt lat="43.0437120000" lon="0.2083770000"><ele>951</ele><time>2026-03-17T10:30:06Z</time></trkpt>
<trkpt lat="43.0436950000" lon="0.2083420000"><ele>951</ele><time>2026-03-17T10:30:33Z</time></trkpt>
<trkpt lat="43.0436750000" lon="0.2083180000"><ele>951</ele><time>2026-03-17T10:30:35Z</time></trkpt>
<trkpt lat="43.0436720000" lon="0.2082920000"><ele>951</ele><time>2026-03-17T10:30:41Z</time></trkpt>
<trkpt lat="43.0436880000" lon="0.2082750000"><ele>951</ele><time>2026-03-17T10:30:53Z</time></trkpt>
<trkpt lat="43.0437120000" lon="0.2082820000"><ele>951</ele><time>2026-03-17T10:30:55Z</time></trkpt>
<trkpt lat="43.0437350000" lon="0.2083030000"><ele>951</ele><time>2026-03-17T10:30:57Z</time></trkpt>
<trkpt lat="43.0437400000" lon="0.2083320000"><ele>951</ele><time>2026-03-17T10:31:00Z</time></trkpt>
<trkpt lat="43.0437350000" lon="0.2083670000"><ele>951</ele><time>2026-03-17T10:31:04Z</time></trkpt>
<trkpt lat="43.0437120000" lon="0.2083550000"><ele>951</ele><time>2026-03-17T10:32:00Z</time></trkpt>
<trkpt lat="43.0436970000" lon="0.2083370000"><ele>951</ele><time>2026-03-17T10:32:03Z</time></trkpt>
<trkpt lat="43.0436720000" lon="0.2083320000"><ele>950</ele><time>2026-03-17T10:34:37Z</time></trkpt>
<trkpt lat="43.0436550000" lon="0.2083180000"><ele>950</ele><time>2026-03-17T10:34:39Z</time></trkpt>
<trkpt lat="43.0436570000" lon="0.2083470000"><ele>950</ele><time>2026-03-17T10:35:42Z</time></trkpt>
<trkpt lat="43.0436520000" lon="0.2083720000"><ele>950</ele><time>2026-03-17T10:35:46Z</time></trkpt>
<trkpt lat="43.0436600000" lon="0.2083500000"><ele>951</ele><time>2026-03-17T10:37:16Z</time></trkpt>
<trkpt lat="43.0436600000" lon="0.2083250000"><ele>951</ele><time>2026-03-17T10:37:20Z</time></trkpt>
<trkpt lat="43.0436820000" lon="0.2083270000"><ele>951</ele><time>2026-03-17T10:38:13Z</time></trkpt>
<trkpt lat="43.0437020000" lon="0.2083180000"><ele>951</ele><time>2026-03-17T10:38:17Z</time></trkpt>
<trkpt lat="43.0437050000" lon="0.2082920000"><ele>951</ele><time>2026-03-17T10:38:20Z</time></trkpt>
<trkpt lat="43.0437050000" lon="0.2082600000"><ele>951</ele><time>2026-03-17T10:38:26Z</time></trkpt>
<trkpt lat="43.0436970000" lon="0.2082300000"><ele>951</ele><time>2026-03-17T10:38:28Z</time></trkpt>
<trkpt lat="43.0436950000" lon="0.2081980000"><ele>951</ele><time>2026-03-17T10:38:30Z</time></trkpt>
<trkpt lat="43.0436950000" lon="0.2081670000"><ele>951</ele><time>2026-03-17T10:38:32Z</time></trkpt>
<trkpt lat="43.0437020000" lon="0.2081420000"><ele>951</ele><time>2026-03-17T10:38:34Z</time></trkpt>
<trkpt lat="43.0437070000" lon="0.2081070000"><ele>951</ele><time>2026-03-17T10:38:37Z</time></trkpt>
<trkpt lat="43.0437170000" lon="0.2080820000"><ele>950</ele><time>2026-03-17T10:38:41Z</time></trkpt>
<trkpt lat="43.0437320000" lon="0.2080620000"><ele>950</ele><time>2026-03-17T10:38:45Z</time></trkpt>
<trkpt lat="43.0437420000" lon="0.2080420000"><ele>950</ele><time>2026-03-17T10:38:49Z</time></trkpt>
<trkpt lat="43.0437620000" lon="0.2080270000"><ele>950</ele><time>2026-03-17T10:38:53Z</time></trkpt>
<trkpt lat="43.0437470000" lon="0.2080720000"><ele>950</ele><time>2026-03-17T10:39:20Z</time></trkpt>
<trkpt lat="43.0437350000" lon="0.2080970000"><ele>950</ele><time>2026-03-17T10:39:21Z</time></trkpt>
<trkpt lat="43.0437270000" lon="0.2081200000"><ele>950</ele><time>2026-03-17T10:39:22Z</time></trkpt>
<trkpt lat="43.0437120000" lon="0.2081570000"><ele>950</ele><time>2026-03-17T10:39:24Z</time></trkpt>
<trkpt lat="43.0437050000" lon="0.2081870000"><ele>950</ele><time>2026-03-17T10:39:26Z</time></trkpt>
<trkpt lat="43.0437000000" lon="0.2082120000"><ele>950</ele><time>2026-03-17T10:39:30Z</time></trkpt>
<trkpt lat="43.0437020000" lon="0.2082470000"><ele>951</ele><time>2026-03-17T10:39:32Z</time></trkpt>
<trkpt lat="43.0437020000" lon="0.2082770000"><ele>951</ele><time>2026-03-17T10:39:34Z</time></trkpt>
<trkpt lat="43.0437070000" lon="0.2083020000"><ele>951</ele><time>2026-03-17T10:39:37Z</time></trkpt>
<trkpt lat="43.0437000000" lon="0.2083320000"><ele>951</ele><time>2026-03-17T10:39:42Z</time></trkpt>
<trkpt lat="43.0437000000" lon="0.2083580000"><ele>951</ele><time>2026-03-17T10:39:45Z</time></trkpt>
<trkpt lat="43.0436950000" lon="0.2083870000"><ele>951</ele><time>2026-03-17T10:39:48Z</time></trkpt>
<trkpt lat="43.0437070000" lon="0.2084070000"><ele>951</ele><time>2026-03-17T10:39:57Z</time></trkpt>
<trkpt lat="43.0436880000" lon="0.2083970000"><ele>952</ele><time>2026-03-17T10:41:03Z</time></trkpt>
<trkpt lat="43.0436570000" lon="0.2083720000"><ele>951</ele><time>2026-03-17T10:41:05Z</time></trkpt>
<trkpt lat="43.0436350000" lon="0.2083670000"><ele>952</ele><time>2026-03-17T10:41:07Z</time></trkpt>
<trkpt lat="43.0436170000" lon="0.2083670000"><ele>952</ele><time>2026-03-17T10:41:11Z</time></trkpt>
<trkpt lat="43.0436270000" lon="0.2083920000"><ele>952</ele><time>2026-03-17T10:41:39Z</time></trkpt>
<trkpt lat="43.0436370000" lon="0.2084320000"><ele>952</ele><time>2026-03-17T10:41:41Z</time></trkpt>
<trkpt lat="43.0436420000" lon="0.2084700000"><ele>952</ele><time>2026-03-17T10:41:43Z</time></trkpt>
<trkpt lat="43.0436400000" lon="0.2084970000"><ele>952</ele><time>2026-03-17T10:41:45Z</time></trkpt>
<trkpt lat="43.0436220000" lon="0.2085100000"><ele>952</ele><time>2026-03-17T10:41:50Z</time></trkpt>
<trkpt lat="43.0435970000" lon="0.2084980000"><ele>952</ele><time>2026-03-17T10:42:01Z</time></trkpt>
<trkpt lat="43.0435720000" lon="0.2084870000"><ele>952</ele><time>2026-03-17T10:42:03Z</time></trkpt>
<trkpt lat="43.0435500000" lon="0.2084720000"><ele>952</ele><time>2026-03-17T10:42:05Z</time></trkpt>
<trkpt lat="43.0435370000" lon="0.2084480000"><ele>952</ele><time>2026-03-17T10:42:08Z</time></trkpt>
<trkpt lat="43.0435170000" lon="0.2084350000"><ele>951</ele><time>2026-03-17T10:42:12Z</time></trkpt>
<trkpt lat="43.0434970000" lon="0.2084200000"><ele>951</ele><time>2026-03-17T10:42:16Z</time></trkpt>
<trkpt lat="43.0434770000" lon="0.2084070000"><ele>951</ele><time>2026-03-17T10:42:20Z</time></trkpt>
<trkpt lat="43.0434520000" lon="0.2083930000"><ele>949</ele><time>2026-03-17T10:43:14Z</time></trkpt>
<trkpt lat="43.0434320000" lon="0.2083800000"><ele>949</ele><time>2026-03-17T10:43:16Z</time></trkpt>
<trkpt lat="43.0434120000" lon="0.2083630000"><ele>949</ele><time>2026-03-17T10:43:19Z</time></trkpt>
<trkpt lat="43.0433870000" lon="0.2083800000"><ele>947</ele><time>2026-03-17T10:43:31Z</time></trkpt>
<trkpt lat="43.0433620000" lon="0.2083770000"><ele>946</ele><time>2026-03-17T10:44:21Z</time></trkpt>
<trkpt lat="43.0433370000" lon="0.2083620000"><ele>946</ele><time>2026-03-17T10:44:23Z</time></trkpt>
<trkpt lat="43.0433250000" lon="0.2083420000"><ele>946</ele><time>2026-03-17T10:44:25Z</time></trkpt>
<trkpt lat="43.0433120000" lon="0.2083250000"><ele>946</ele><time>2026-03-17T10:44:27Z</time></trkpt>
<trkpt lat="43.0432920000" lon="0.2083120000"><ele>945</ele><time>2026-03-17T10:44:29Z</time></trkpt>
<trkpt lat="43.0432750000" lon="0.2083000000"><ele>945</ele><time>2026-03-17T10:44:32Z</time></trkpt>
<trkpt lat="43.0432520000" lon="0.2082920000"><ele>944</ele><time>2026-03-17T10:44:35Z</time></trkpt>
<trkpt lat="43.0432300000" lon="0.2082820000"><ele>943</ele><time>2026-03-17T10:44:38Z</time></trkpt>
<trkpt lat="43.0432050000" lon="0.2082770000"><ele>942</ele><time>2026-03-17T10:44:41Z</time></trkpt>
<trkpt lat="43.0431800000" lon="0.2082770000"><ele>941</ele><time>2026-03-17T10:44:44Z</time></trkpt>
<trkpt lat="43.0431570000" lon="0.2082720000"><ele>941</ele><time>2026-03-17T10:44:47Z</time></trkpt>
<trkpt lat="43.0431400000" lon="0.2082620000"><ele>940</ele><time>2026-03-17T10:44:50Z</time></trkpt>
<trkpt lat="43.0431220000" lon="0.2082450000"><ele>939</ele><time>2026-03-17T10:44:54Z</time></trkpt>
<trkpt lat="43.0431050000" lon="0.2082270000"><ele>938</ele><time>2026-03-17T10:44:58Z</time></trkpt>
<trkpt lat="43.0430820000" lon="0.2082220000"><ele>937</ele><time>2026-03-17T10:45:01Z</time></trkpt>
<trkpt lat="43.0430620000" lon="0.2082180000"><ele>936</ele><time>2026-03-17T10:45:03Z</time></trkpt>
<trkpt lat="43.0430400000" lon="0.2082150000"><ele>935</ele><time>2026-03-17T10:45:06Z</time></trkpt>
<trkpt lat="43.0430130000" lon="0.2082020000"><ele>934</ele><time>2026-03-17T10:45:09Z</time></trkpt>
<trkpt lat="43.0429900000" lon="0.2081970000"><ele>934</ele><time>2026-03-17T10:45:12Z</time></trkpt>
<trkpt lat="43.0429670000" lon="0.2081870000"><ele>933</ele><time>2026-03-17T10:45:15Z</time></trkpt>
<trkpt lat="43.0429500000" lon="0.2081870000"><ele>932</ele><time>2026-03-17T10:45:17Z</time></trkpt>
<trkpt lat="43.0429320000" lon="0.2081850000"><ele>932</ele><time>2026-03-17T10:45:19Z</time></trkpt>
<trkpt lat="43.0429050000" lon="0.2081820000"><ele>931</ele><time>2026-03-17T10:45:22Z</time></trkpt>
<trkpt lat="43.0428800000" lon="0.2081720000"><ele>930</ele><time>2026-03-17T10:45:25Z</time></trkpt>
<trkpt lat="43.0428520000" lon="0.2081620000"><ele>929</ele><time>2026-03-17T10:45:28Z</time></trkpt>
<trkpt lat="43.0428350000" lon="0.2081550000"><ele>928</ele><time>2026-03-17T10:45:30Z</time></trkpt>
<trkpt lat="43.0428120000" lon="0.2081420000"><ele>928</ele><time>2026-03-17T10:45:33Z</time></trkpt>
<trkpt lat="43.0427870000" lon="0.2081370000"><ele>927</ele><time>2026-03-17T10:45:36Z</time></trkpt>
<trkpt lat="43.0427620000" lon="0.2081270000"><ele>926</ele><time>2026-03-17T10:45:39Z</time></trkpt>
<trkpt lat="43.0427400000" lon="0.2081220000"><ele>926</ele><time>2026-03-17T10:45:42Z</time></trkpt>
<trkpt lat="43.0427220000" lon="0.2081220000"><ele>925</ele><time>2026-03-17T10:45:44Z</time></trkpt>
<trkpt lat="43.0427000000" lon="0.2081080000"><ele>925</ele><time>2026-03-17T10:45:47Z</time></trkpt>
<trkpt lat="43.0426770000" lon="0.2080920000"><ele>924</ele><time>2026-03-17T10:45:50Z</time></trkpt>
<trkpt lat="43.0426650000" lon="0.2080750000"><ele>924</ele><time>2026-03-17T10:45:52Z</time></trkpt>
<trkpt lat="43.0426470000" lon="0.2080630000"><ele>924</ele><time>2026-03-17T10:45:54Z</time></trkpt>
<trkpt lat="43.0426320000" lon="0.2080500000"><ele>923</ele><time>2026-03-17T10:45:56Z</time></trkpt>
<trkpt lat="43.0426170000" lon="0.2080320000"><ele>923</ele><time>2026-03-17T10:45:58Z</time></trkpt>
<trkpt lat="43.0426020000" lon="0.2080170000"><ele>923</ele><time>2026-03-17T10:46:00Z</time></trkpt>
<trkpt lat="43.0425820000" lon="0.2080070000"><ele>923</ele><time>2026-03-17T10:46:02Z</time></trkpt>
<trkpt lat="43.0425670000" lon="0.2079920000"><ele>922</ele><time>2026-03-17T10:46:04Z</time></trkpt>
<trkpt lat="43.0425420000" lon="0.2079820000"><ele>922</ele><time>2026-03-17T10:46:06Z</time></trkpt>
<trkpt lat="43.0425250000" lon="0.2079720000"><ele>922</ele><time>2026-03-17T10:46:08Z</time></trkpt>
<trkpt lat="43.0425020000" lon="0.2079550000"><ele>922</ele><time>2026-03-17T10:46:11Z</time></trkpt>
<trkpt lat="43.0424870000" lon="0.2079420000"><ele>922</ele><time>2026-03-17T10:46:13Z</time></trkpt>
<trkpt lat="43.0424700000" lon="0.2079170000"><ele>921</ele><time>2026-03-17T10:46:16Z</time></trkpt>
<trkpt lat="43.0424520000" lon="0.2078920000"><ele>921</ele><time>2026-03-17T10:46:19Z</time></trkpt>
<trkpt lat="43.0424350000" lon="0.2078720000"><ele>921</ele><time>2026-03-17T10:46:21Z</time></trkpt>
<trkpt lat="43.0424200000" lon="0.2078520000"><ele>920</ele><time>2026-03-17T10:46:23Z</time></trkpt>
<trkpt lat="43.0424070000" lon="0.2078320000"><ele>920</ele><time>2026-03-17T10:46:25Z</time></trkpt>
<trkpt lat="43.0423920000" lon="0.2078070000"><ele>920</ele><time>2026-03-17T10:46:27Z</time></trkpt>
<trkpt lat="43.0423770000" lon="0.2077950000"><ele>920</ele><time>2026-03-17T10:46:29Z</time></trkpt>
<trkpt lat="43.0423620000" lon="0.2077780000"><ele>920</ele><time>2026-03-17T10:46:31Z</time></trkpt>
<trkpt lat="43.0423420000" lon="0.2077570000"><ele>919</ele><time>2026-03-17T10:46:34Z</time></trkpt>
<trkpt lat="43.0423230000" lon="0.2077420000"><ele>919</ele><time>2026-03-17T10:46:36Z</time></trkpt>
<trkpt lat="43.0423000000" lon="0.2077270000"><ele>919</ele><time>2026-03-17T10:46:38Z</time></trkpt>
<trkpt lat="43.0422770000" lon="0.2077200000"><ele>919</ele><time>2026-03-17T10:46:40Z</time></trkpt>
<trkpt lat="43.0422600000" lon="0.2077070000"><ele>919</ele><time>2026-03-17T10:46:42Z</time></trkpt>
<trkpt lat="43.0422370000" lon="0.2076920000"><ele>919</ele><time>2026-03-17T10:46:45Z</time></trkpt>
<trkpt lat="43.0422170000" lon="0.2076770000"><ele>919</ele><time>2026-03-17T10:46:47Z</time></trkpt>
<trkpt lat="43.0422000000" lon="0.2076670000"><ele>919</ele><time>2026-03-17T10:46:49Z</time></trkpt>
<trkpt lat="43.0421820000" lon="0.2076520000"><ele>919</ele><time>2026-03-17T10:46:51Z</time></trkpt>
<trkpt lat="43.0421670000" lon="0.2076370000"><ele>919</ele><time>2026-03-17T10:46:53Z</time></trkpt>
<trkpt lat="43.0421470000" lon="0.2076230000"><ele>919</ele><time>2026-03-17T10:46:55Z</time></trkpt>
<trkpt lat="43.0421270000" lon="0.2076080000"><ele>919</ele><time>2026-03-17T10:46:59Z</time></trkpt>
<trkpt lat="43.0421020000" lon="0.2075970000"><ele>919</ele><time>2026-03-17T10:47:02Z</time></trkpt>
<trkpt lat="43.0420800000" lon="0.2075920000"><ele>920</ele><time>2026-03-17T10:47:04Z</time></trkpt>
<trkpt lat="43.0420620000" lon="0.2075750000"><ele>920</ele><time>2026-03-17T10:47:06Z</time></trkpt>
<trkpt lat="43.0420550000" lon="0.2075420000"><ele>920</ele><time>2026-03-17T10:47:09Z</time></trkpt>
<trkpt lat="43.0420470000" lon="0.2075170000"><ele>920</ele><time>2026-03-17T10:47:12Z</time></trkpt>
<trkpt lat="43.0420570000" lon="0.2074900000"><ele>920</ele><time>2026-03-17T10:47:37Z</time></trkpt>
<trkpt lat="43.0420620000" lon="0.2074570000"><ele>920</ele><time>2026-03-17T10:47:39Z</time></trkpt>
<trkpt lat="43.0420670000" lon="0.2074250000"><ele>920</ele><time>2026-03-17T10:47:41Z</time></trkpt>
<trkpt lat="43.0420820000" lon="0.2074020000"><ele>920</ele><time>2026-03-17T10:47:43Z</time></trkpt>
<trkpt lat="43.0420970000" lon="0.2073850000"><ele>920</ele><time>2026-03-17T10:47:45Z</time></trkpt>
<trkpt lat="43.0421120000" lon="0.2073630000"><ele>920</ele><time>2026-03-17T10:47:47Z</time></trkpt>
<trkpt lat="43.0421370000" lon="0.2073500000"><ele>920</ele><time>2026-03-17T10:47:50Z</time></trkpt>
<trkpt lat="43.0421570000" lon="0.2073420000"><ele>920</ele><time>2026-03-17T10:47:52Z</time></trkpt>
<trkpt lat="43.0421770000" lon="0.2073270000"><ele>920</ele><time>2026-03-17T10:47:54Z</time></trkpt>
<trkpt lat="43.0421950000" lon="0.2073170000"><ele>919</ele><time>2026-03-17T10:47:56Z</time></trkpt>
<trkpt lat="43.0422200000" lon="0.2073150000"><ele>919</ele><time>2026-03-17T10:47:59Z</time></trkpt>
<trkpt lat="43.0422370000" lon="0.2073100000"><ele>919</ele><time>2026-03-17T10:48:01Z</time></trkpt>
<trkpt lat="43.0422530000" lon="0.2073000000"><ele>919</ele><time>2026-03-17T10:48:03Z</time></trkpt>
<trkpt lat="43.0422800000" lon="0.2072900000"><ele>919</ele><time>2026-03-17T10:48:06Z</time></trkpt>
<trkpt lat="43.0423020000" lon="0.2072850000"><ele>919</ele><time>2026-03-17T10:48:09Z</time></trkpt>
<trkpt lat="43.0423220000" lon="0.2072620000"><ele>918</ele><time>2026-03-17T10:48:12Z</time></trkpt>
<trkpt lat="43.0423350000" lon="0.2072320000"><ele>918</ele><time>2026-03-17T10:48:15Z</time></trkpt>
<trkpt lat="43.0423420000" lon="0.2071970000"><ele>917</ele><time>2026-03-17T10:48:18Z</time></trkpt>
<trkpt lat="43.0423520000" lon="0.2071700000"><ele>917</ele><time>2026-03-17T10:48:21Z</time></trkpt>
<trkpt lat="43.0423720000" lon="0.2071570000"><ele>917</ele><time>2026-03-17T10:48:23Z</time></trkpt>
<trkpt lat="43.0423870000" lon="0.2071380000"><ele>917</ele><time>2026-03-17T10:48:25Z</time></trkpt>
<trkpt lat="43.0424070000" lon="0.2071130000"><ele>917</ele><time>2026-03-17T10:48:28Z</time></trkpt>
<trkpt lat="43.0424150000" lon="0.2070870000"><ele>916</ele><time>2026-03-17T10:48:32Z</time></trkpt>
<trkpt lat="43.0424150000" lon="0.2070620000"><ele>916</ele><time>2026-03-17T10:48:35Z</time></trkpt>
<trkpt lat="43.0424120000" lon="0.2070370000"><ele>916</ele><time>2026-03-17T10:48:38Z</time></trkpt>
<trkpt lat="43.0424120000" lon="0.2070070000"><ele>915</ele><time>2026-03-17T10:48:41Z</time></trkpt>
<trkpt lat="43.0424170000" lon="0.2069730000"><ele>915</ele><time>2026-03-17T10:48:43Z</time></trkpt>
<trkpt lat="43.0424250000" lon="0.2069430000"><ele>915</ele><time>2026-03-17T10:48:45Z</time></trkpt>
<trkpt lat="43.0424420000" lon="0.2069220000"><ele>914</ele><time>2026-03-17T10:48:47Z</time></trkpt>
<trkpt lat="43.0424570000" lon="0.2068970000"><ele>914</ele><time>2026-03-17T10:48:49Z</time></trkpt>
<trkpt lat="43.0424520000" lon="0.2068670000"><ele>913</ele><time>2026-03-17T10:48:52Z</time></trkpt>
<trkpt lat="43.0424370000" lon="0.2068380000"><ele>912</ele><time>2026-03-17T10:49:08Z</time></trkpt>
<trkpt lat="43.0424420000" lon="0.2068120000"><ele>912</ele><time>2026-03-17T10:49:11Z</time></trkpt>
<trkpt lat="43.0424320000" lon="0.2067830000"><ele>911</ele><time>2026-03-17T10:49:26Z</time></trkpt>
<trkpt lat="43.0424120000" lon="0.2067520000"><ele>911</ele><time>2026-03-17T10:49:28Z</time></trkpt>
<trkpt lat="43.0424070000" lon="0.2067050000"><ele>911</ele><time>2026-03-17T10:49:30Z</time></trkpt>
<trkpt lat="43.0424150000" lon="0.2066720000"><ele>911</ele><time>2026-03-17T10:49:32Z</time></trkpt>
<trkpt lat="43.0424270000" lon="0.2066470000"><ele>910</ele><time>2026-03-17T10:49:35Z</time></trkpt>
<trkpt lat="43.0424350000" lon="0.2066220000"><ele>909</ele><time>2026-03-17T10:49:41Z</time></trkpt>
<trkpt lat="43.0424420000" lon="0.2065920000"><ele>909</ele><time>2026-03-17T10:49:43Z</time></trkpt>
<trkpt lat="43.0424350000" lon="0.2065620000"><ele>909</ele><time>2026-03-17T10:49:45Z</time></trkpt>
<trkpt lat="43.0424320000" lon="0.2065200000"><ele>908</ele><time>2026-03-17T10:49:47Z</time></trkpt>
<trkpt lat="43.0424270000" lon="0.2064950000"><ele>908</ele><time>2026-03-17T10:49:49Z</time></trkpt>
<trkpt lat="43.0424220000" lon="0.2064670000"><ele>907</ele><time>2026-03-17T10:49:51Z</time></trkpt>
<trkpt lat="43.0424150000" lon="0.2064320000"><ele>907</ele><time>2026-03-17T10:49:53Z</time></trkpt>
<trkpt lat="43.0424020000" lon="0.2064130000"><ele>907</ele><time>2026-03-17T10:49:55Z</time></trkpt>
<trkpt lat="43.0424070000" lon="0.2063870000"><ele>907</ele><time>2026-03-17T10:49:59Z</time></trkpt>
<trkpt lat="43.0424070000" lon="0.2063580000"><ele>907</ele><time>2026-03-17T10:50:01Z</time></trkpt>
<trkpt lat="43.0424170000" lon="0.2063350000"><ele>907</ele><time>2026-03-17T10:50:03Z</time></trkpt>
<trkpt lat="43.0424220000" lon="0.2063030000"><ele>906</ele><time>2026-03-17T10:50:06Z</time></trkpt>
<trkpt lat="43.0424350000" lon="0.2062780000"><ele>906</ele><time>2026-03-17T10:50:10Z</time></trkpt>
<trkpt lat="43.0424270000" lon="0.2062520000"><ele>905</ele><time>2026-03-17T10:50:14Z</time></trkpt>
<trkpt lat="43.0424300000" lon="0.2062220000"><ele>903</ele><time>2026-03-17T10:50:22Z</time></trkpt>
<trkpt lat="43.0424450000" lon="0.2062020000"><ele>902</ele><time>2026-03-17T10:50:49Z</time></trkpt>
<trkpt lat="43.0424720000" lon="0.2061920000"><ele>901</ele><time>2026-03-17T10:50:51Z</time></trkpt>
<trkpt lat="43.0424820000" lon="0.2062170000"><ele>902</ele><time>2026-03-17T10:50:57Z</time></trkpt>
<trkpt lat="43.0424670000" lon="0.2061920000"><ele>901</ele><time>2026-03-17T10:51:13Z</time></trkpt>
<trkpt lat="43.0424850000" lon="0.2062220000"><ele>902</ele><time>2026-03-17T10:52:13Z</time></trkpt>
<trkpt lat="43.0424900000" lon="0.2062470000"><ele>902</ele><time>2026-03-17T10:52:15Z</time></trkpt>
<trkpt lat="43.0424770000" lon="0.2062320000"><ele>902</ele><time>2026-03-17T10:52:24Z</time></trkpt>
<trkpt lat="43.0424650000" lon="0.2062050000"><ele>902</ele><time>2026-03-17T10:52:26Z</time></trkpt>
<trkpt lat="43.0424670000" lon="0.2061630000"><ele>902</ele><time>2026-03-17T10:52:28Z</time></trkpt>
<trkpt lat="43.0424620000" lon="0.2061320000"><ele>902</ele><time>2026-03-17T10:52:30Z</time></trkpt>
<trkpt lat="43.0424620000" lon="0.2060970000"><ele>902</ele><time>2026-03-17T10:52:32Z</time></trkpt>
<trkpt lat="43.0424620000" lon="0.2060700000"><ele>901</ele><time>2026-03-17T10:52:35Z</time></trkpt>
<trkpt lat="43.0424770000" lon="0.2060470000"><ele>901</ele><time>2026-03-17T10:52:39Z</time></trkpt>
<trkpt lat="43.0425000000" lon="0.2060270000"><ele>901</ele><time>2026-03-17T10:52:42Z</time></trkpt>
<trkpt lat="43.0425150000" lon="0.2060070000"><ele>901</ele><time>2026-03-17T10:52:44Z</time></trkpt>
<trkpt lat="43.0425320000" lon="0.2059900000"><ele>900</ele><time>2026-03-17T10:52:46Z</time></trkpt>
<trkpt lat="43.0425470000" lon="0.2059670000"><ele>900</ele><time>2026-03-17T10:52:48Z</time></trkpt>
<trkpt lat="43.0425600000" lon="0.2059470000"><ele>900</ele><time>2026-03-17T10:52:50Z</time></trkpt>
<trkpt lat="43.0425720000" lon="0.2059300000"><ele>899</ele><time>2026-03-17T10:52:52Z</time></trkpt>
<trkpt lat="43.0425920000" lon="0.2059270000"><ele>899</ele><time>2026-03-17T10:52:54Z</time></trkpt>
<trkpt lat="43.0426120000" lon="0.2059120000"><ele>898</ele><time>2026-03-17T10:52:57Z</time></trkpt>
<trkpt lat="43.0426370000" lon="0.2059070000"><ele>897</ele><time>2026-03-17T10:53:02Z</time></trkpt>
<trkpt lat="43.0426550000" lon="0.2059100000"><ele>897</ele><time>2026-03-17T10:53:04Z</time></trkpt>
<trkpt lat="43.0426750000" lon="0.2059070000"><ele>896</ele><time>2026-03-17T10:53:07Z</time></trkpt>
<trkpt lat="43.0426920000" lon="0.2059130000"><ele>896</ele><time>2026-03-17T10:53:08Z</time></trkpt>
<trkpt lat="43.0427170000" lon="0.2059200000"><ele>895</ele><time>2026-03-17T10:53:10Z</time></trkpt>
<trkpt lat="43.0427370000" lon="0.2059100000"><ele>895</ele><time>2026-03-17T10:53:13Z</time></trkpt>
<trkpt lat="43.0427550000" lon="0.2058970000"><ele>894</ele><time>2026-03-17T10:53:15Z</time></trkpt>
<trkpt lat="43.0427800000" lon="0.2058770000"><ele>894</ele><time>2026-03-17T10:53:18Z</time></trkpt>
<trkpt lat="43.0427970000" lon="0.2058570000"><ele>893</ele><time>2026-03-17T10:53:21Z</time></trkpt>
<trkpt lat="43.0428120000" lon="0.2058420000"><ele>893</ele><time>2026-03-17T10:53:23Z</time></trkpt>
<trkpt lat="43.0428320000" lon="0.2058250000"><ele>892</ele><time>2026-03-17T10:53:26Z</time></trkpt>
<trkpt lat="43.0428550000" lon="0.2058130000"><ele>892</ele><time>2026-03-17T10:53:28Z</time></trkpt>
<trkpt lat="43.0428720000" lon="0.2058250000"><ele>891</ele><time>2026-03-17T10:53:32Z</time></trkpt>
<trkpt lat="43.0428550000" lon="0.2057870000"><ele>891</ele><time>2026-03-17T10:53:36Z</time></trkpt>
<trkpt lat="43.0428770000" lon="0.2057450000"><ele>891</ele><time>2026-03-17T10:53:38Z</time></trkpt>
<trkpt lat="43.0428970000" lon="0.2057270000"><ele>891</ele><time>2026-03-17T10:53:40Z</time></trkpt>
<trkpt lat="43.0429050000" lon="0.2056970000"><ele>891</ele><time>2026-03-17T10:53:43Z</time></trkpt>
<trkpt lat="43.0429250000" lon="0.2057070000"><ele>891</ele><time>2026-03-17T10:53:45Z</time></trkpt>
<trkpt lat="43.0429420000" lon="0.2056970000"><ele>891</ele><time>2026-03-17T10:53:48Z</time></trkpt>
<trkpt lat="43.0429620000" lon="0.2056930000"><ele>890</ele><time>2026-03-17T10:53:53Z</time></trkpt>
<trkpt lat="43.0429800000" lon="0.2056770000"><ele>890</ele><time>2026-03-17T10:53:56Z</time></trkpt>
<trkpt lat="43.0430000000" lon="0.2056780000"><ele>890</ele><time>2026-03-17T10:54:00Z</time></trkpt>
<trkpt lat="43.0430200000" lon="0.2056730000"><ele>890</ele><time>2026-03-17T10:54:02Z</time></trkpt>
<trkpt lat="43.0430420000" lon="0.2056520000"><ele>890</ele><time>2026-03-17T10:54:05Z</time></trkpt>
<trkpt lat="43.0430670000" lon="0.2056450000"><ele>889</ele><time>2026-03-17T10:54:08Z</time></trkpt>
<trkpt lat="43.0430820000" lon="0.2056300000"><ele>889</ele><time>2026-03-17T10:54:10Z</time></trkpt>
<trkpt lat="43.0431070000" lon="0.2056220000"><ele>889</ele><time>2026-03-17T10:54:12Z</time></trkpt>
<trkpt lat="43.0431120000" lon="0.2055920000"><ele>888</ele><time>2026-03-17T10:54:15Z</time></trkpt>
<trkpt lat="43.0430950000" lon="0.2056070000"><ele>888</ele><time>2026-03-17T10:54:19Z</time></trkpt>
<trkpt lat="43.0430750000" lon="0.2055830000"><ele>888</ele><time>2026-03-17T10:54:23Z</time></trkpt>
<trkpt lat="43.0431020000" lon="0.2055670000"><ele>887</ele><time>2026-03-17T10:54:27Z</time></trkpt>
<trkpt lat="43.0431200000" lon="0.2055620000"><ele>887</ele><time>2026-03-17T10:54:28Z</time></trkpt>
<trkpt lat="43.0431400000" lon="0.2055570000"><ele>887</ele><time>2026-03-17T10:54:29Z</time></trkpt>
<trkpt lat="43.0431750000" lon="0.2055520000"><ele>887</ele><time>2026-03-17T10:54:31Z</time></trkpt>
<trkpt lat="43.0432020000" lon="0.2055470000"><ele>887</ele><time>2026-03-17T10:54:33Z</time></trkpt>
<trkpt lat="43.0432320000" lon="0.2055500000"><ele>887</ele><time>2026-03-17T10:54:35Z</time></trkpt>
<trkpt lat="43.0432600000" lon="0.2055430000"><ele>887</ele><time>2026-03-17T10:54:37Z</time></trkpt>
<trkpt lat="43.0432850000" lon="0.2055380000"><ele>887</ele><time>2026-03-17T10:54:39Z</time></trkpt>
<trkpt lat="43.0433050000" lon="0.2055270000"><ele>886</ele><time>2026-03-17T10:54:43Z</time></trkpt>
<trkpt lat="43.0433300000" lon="0.2055370000"><ele>886</ele><time>2026-03-17T10:54:45Z</time></trkpt>
<trkpt lat="43.0433470000" lon="0.2055170000"><ele>886</ele><time>2026-03-17T10:54:48Z</time></trkpt>
<trkpt lat="43.0433620000" lon="0.2054770000"><ele>886</ele><time>2026-03-17T10:54:50Z</time></trkpt>
<trkpt lat="43.0433720000" lon="0.2054520000"><ele>886</ele><time>2026-03-17T10:54:51Z</time></trkpt>
<trkpt lat="43.0433920000" lon="0.2054320000"><ele>885</ele><time>2026-03-17T10:54:53Z</time></trkpt>
<trkpt lat="43.0434120000" lon="0.2054230000"><ele>885</ele><time>2026-03-17T10:54:55Z</time></trkpt>
<trkpt lat="43.0434320000" lon="0.2054100000"><ele>885</ele><time>2026-03-17T10:54:58Z</time></trkpt>
<trkpt lat="43.0434520000" lon="0.2053980000"><ele>884</ele><time>2026-03-17T10:55:01Z</time></trkpt>
<trkpt lat="43.0434750000" lon="0.2053800000"><ele>884</ele><time>2026-03-17T10:55:03Z</time></trkpt>
<trkpt lat="43.0434920000" lon="0.2053650000"><ele>884</ele><time>2026-03-17T10:55:05Z</time></trkpt>
<trkpt lat="43.0435120000" lon="0.2053520000"><ele>884</ele><time>2026-03-17T10:55:07Z</time></trkpt>
<trkpt lat="43.0435320000" lon="0.2053550000"><ele>883</ele><time>2026-03-17T10:55:09Z</time></trkpt>
<trkpt lat="43.0435570000" lon="0.2053470000"><ele>883</ele><time>2026-03-17T10:55:12Z</time></trkpt>
<trkpt lat="43.0435720000" lon="0.2053330000"><ele>883</ele><time>2026-03-17T10:55:14Z</time></trkpt>
<trkpt lat="43.0435920000" lon="0.2053300000"><ele>883</ele><time>2026-03-17T10:55:16Z</time></trkpt>
<trkpt lat="43.0436120000" lon="0.2053220000"><ele>883</ele><time>2026-03-17T10:55:19Z</time></trkpt>
<trkpt lat="43.0436400000" lon="0.2053020000"><ele>883</ele><time>2026-03-17T10:55:21Z</time></trkpt>
<trkpt lat="43.0436620000" lon="0.2052920000"><ele>882</ele><time>2026-03-17T10:55:24Z</time></trkpt>
<trkpt lat="43.0436870000" lon="0.2052750000"><ele>882</ele><time>2026-03-17T10:55:27Z</time></trkpt>
<trkpt lat="43.0437170000" lon="0.2052620000"><ele>882</ele><time>2026-03-17T10:55:30Z</time></trkpt>
<trkpt lat="43.0437470000" lon="0.2052630000"><ele>882</ele><time>2026-03-17T10:55:32Z</time></trkpt>
<trkpt lat="43.0437730000" lon="0.2052570000"><ele>881</ele><time>2026-03-17T10:55:34Z</time></trkpt>
<trkpt lat="43.0438020000" lon="0.2052570000"><ele>881</ele><time>2026-03-17T10:55:36Z</time></trkpt>
<trkpt lat="43.0438220000" lon="0.2052580000"><ele>881</ele><time>2026-03-17T10:55:38Z</time></trkpt>
<trkpt lat="43.0438470000" lon="0.2052450000"><ele>881</ele><time>2026-03-17T10:55:41Z</time></trkpt>
<trkpt lat="43.0438650000" lon="0.2052350000"><ele>881</ele><time>2026-03-17T10:55:43Z</time></trkpt>
<trkpt lat="43.0438950000" lon="0.2052370000"><ele>880</ele><time>2026-03-17T10:55:46Z</time></trkpt>
<trkpt lat="43.0439200000" lon="0.2052400000"><ele>880</ele><time>2026-03-17T10:55:48Z</time></trkpt>
<trkpt lat="43.0439370000" lon="0.2052370000"><ele>880</ele><time>2026-03-17T10:55:51Z</time></trkpt>
<trkpt lat="43.0439650000" lon="0.2052370000"><ele>880</ele><time>2026-03-17T10:55:55Z</time></trkpt>
<trkpt lat="43.0439870000" lon="0.2052320000"><ele>880</ele><time>2026-03-17T10:55:57Z</time></trkpt>
<trkpt lat="43.0440120000" lon="0.2052370000"><ele>879</ele><time>2026-03-17T10:55:59Z</time></trkpt>
<trkpt lat="43.0440370000" lon="0.2052270000"><ele>879</ele><time>2026-03-17T10:56:01Z</time></trkpt>
<trkpt lat="43.0440600000" lon="0.2052170000"><ele>879</ele><time>2026-03-17T10:56:03Z</time></trkpt>
<trkpt lat="43.0440920000" lon="0.2052070000"><ele>879</ele><time>2026-03-17T10:56:05Z</time></trkpt>
<trkpt lat="43.0441150000" lon="0.2052070000"><ele>878</ele><time>2026-03-17T10:56:07Z</time></trkpt>
<trkpt lat="43.0441320000" lon="0.2052020000"><ele>878</ele><time>2026-03-17T10:56:09Z</time></trkpt>
<trkpt lat="43.0441600000" lon="0.2051870000"><ele>878</ele><time>2026-03-17T10:56:12Z</time></trkpt>
<trkpt lat="43.0441800000" lon="0.2051720000"><ele>878</ele><time>2026-03-17T10:56:14Z</time></trkpt>
<trkpt lat="43.0442050000" lon="0.2051570000"><ele>877</ele><time>2026-03-17T10:56:17Z</time></trkpt>
<trkpt lat="43.0442220000" lon="0.2051520000"><ele>877</ele><time>2026-03-17T10:56:19Z</time></trkpt>
<trkpt lat="43.0442420000" lon="0.2051370000"><ele>877</ele><time>2026-03-17T10:56:21Z</time></trkpt>
<trkpt lat="43.0442670000" lon="0.2051350000"><ele>877</ele><time>2026-03-17T10:56:23Z</time></trkpt>
<trkpt lat="43.0442900000" lon="0.2051430000"><ele>876</ele><time>2026-03-17T10:56:25Z</time></trkpt>
<trkpt lat="43.0443070000" lon="0.2051520000"><ele>876</ele><time>2026-03-17T10:56:27Z</time></trkpt>
<trkpt lat="43.0443300000" lon="0.2051480000"><ele>876</ele><time>2026-03-17T10:56:29Z</time></trkpt>
<trkpt lat="43.0443470000" lon="0.2051370000"><ele>876</ele><time>2026-03-17T10:56:31Z</time></trkpt>
<trkpt lat="43.0443720000" lon="0.2051270000"><ele>876</ele><time>2026-03-17T10:56:33Z</time></trkpt>
<trkpt lat="43.0443970000" lon="0.2051180000"><ele>875</ele><time>2026-03-17T10:56:35Z</time></trkpt>
<trkpt lat="43.0444200000" lon="0.2051130000"><ele>875</ele><time>2026-03-17T10:56:37Z</time></trkpt>
<trkpt lat="43.0444420000" lon="0.2051000000"><ele>875</ele><time>2026-03-17T10:56:40Z</time></trkpt>
<trkpt lat="43.0444620000" lon="0.2050850000"><ele>875</ele><time>2026-03-17T10:56:42Z</time></trkpt>
<trkpt lat="43.0444900000" lon="0.2050820000"><ele>874</ele><time>2026-03-17T10:56:44Z</time></trkpt>
<trkpt lat="43.0445100000" lon="0.2050850000"><ele>874</ele><time>2026-03-17T10:56:46Z</time></trkpt>
<trkpt lat="43.0445300000" lon="0.2050870000"><ele>874</ele><time>2026-03-17T10:56:48Z</time></trkpt>
<trkpt lat="43.0445550000" lon="0.2050920000"><ele>874</ele><time>2026-03-17T10:56:51Z</time></trkpt>
<trkpt lat="43.0445770000" lon="0.2051000000"><ele>873</ele><time>2026-03-17T10:56:53Z</time></trkpt>
<trkpt lat="43.0445970000" lon="0.2050970000"><ele>873</ele><time>2026-03-17T10:56:55Z</time></trkpt>
<trkpt lat="43.0446220000" lon="0.2051000000"><ele>873</ele><time>2026-03-17T10:56:57Z</time></trkpt>
<trkpt lat="43.0446450000" lon="0.2051080000"><ele>873</ele><time>2026-03-17T10:56:59Z</time></trkpt>
<trkpt lat="43.0446670000" lon="0.2051080000"><ele>873</ele><time>2026-03-17T10:57:03Z</time></trkpt>
<trkpt lat="43.0446850000" lon="0.2051020000"><ele>873</ele><time>2026-03-17T10:57:05Z</time></trkpt>
<trkpt lat="43.0447050000" lon="0.2051020000"><ele>872</ele><time>2026-03-17T10:57:07Z</time></trkpt>
<trkpt lat="43.0447270000" lon="0.2051080000"><ele>872</ele><time>2026-03-17T10:57:09Z</time></trkpt>
<trkpt lat="43.0447500000" lon="0.2051020000"><ele>872</ele><time>2026-03-17T10:57:11Z</time></trkpt>
<trkpt lat="43.0447720000" lon="0.2050970000"><ele>871</ele><time>2026-03-17T10:57:14Z</time></trkpt>
<trkpt lat="43.0447950000" lon="0.2050920000"><ele>871</ele><time>2026-03-17T10:57:16Z</time></trkpt>
<trkpt lat="43.0448280000" lon="0.2051000000"><ele>871</ele><time>2026-03-17T10:57:18Z</time></trkpt>
<trkpt lat="43.0448570000" lon="0.2051020000"><ele>871</ele><time>2026-03-17T10:57:20Z</time></trkpt>
<trkpt lat="43.0448750000" lon="0.2051220000"><ele>870</ele><time>2026-03-17T10:57:22Z</time></trkpt>
<trkpt lat="43.0448970000" lon="0.2051350000"><ele>870</ele><time>2026-03-17T10:57:24Z</time></trkpt>
<trkpt lat="43.0449220000" lon="0.2051420000"><ele>870</ele><time>2026-03-17T10:57:26Z</time></trkpt>
<trkpt lat="43.0449420000" lon="0.2051270000"><ele>870</ele><time>2026-03-17T10:57:28Z</time></trkpt>
<trkpt lat="43.0449670000" lon="0.2051170000"><ele>870</ele><time>2026-03-17T10:57:30Z</time></trkpt>
<trkpt lat="43.0449970000" lon="0.2051220000"><ele>870</ele><time>2026-03-17T10:57:32Z</time></trkpt>
<trkpt lat="43.0450170000" lon="0.2051170000"><ele>869</ele><time>2026-03-17T10:57:34Z</time></trkpt>
<trkpt lat="43.0450450000" lon="0.2051070000"><ele>869</ele><time>2026-03-17T10:57:36Z</time></trkpt>
<trkpt lat="43.0450620000" lon="0.2051120000"><ele>869</ele><time>2026-03-17T10:57:39Z</time></trkpt>
<trkpt lat="43.0450850000" lon="0.2051120000"><ele>869</ele><time>2026-03-17T10:57:41Z</time></trkpt>
<trkpt lat="43.0451070000" lon="0.2051220000"><ele>869</ele><time>2026-03-17T10:57:44Z</time></trkpt>
<trkpt lat="43.0451270000" lon="0.2051180000"><ele>868</ele><time>2026-03-17T10:57:46Z</time></trkpt>
<trkpt lat="43.0451470000" lon="0.2051230000"><ele>868</ele><time>2026-03-17T10:57:48Z</time></trkpt>
<trkpt lat="43.0451720000" lon="0.2051370000"><ele>868</ele><time>2026-03-17T10:57:51Z</time></trkpt>
<trkpt lat="43.0451920000" lon="0.2051420000"><ele>868</ele><time>2026-03-17T10:57:53Z</time></trkpt>
<trkpt lat="43.0452170000" lon="0.2051620000"><ele>867</ele><time>2026-03-17T10:57:57Z</time></trkpt>
<trkpt lat="43.0452350000" lon="0.2051970000"><ele>867</ele><time>2026-03-17T10:57:59Z</time></trkpt>
<trkpt lat="43.0452550000" lon="0.2052170000"><ele>867</ele><time>2026-03-17T10:58:01Z</time></trkpt>
<trkpt lat="43.0452770000" lon="0.2052270000"><ele>867</ele><time>2026-03-17T10:58:02Z</time></trkpt>
<trkpt lat="43.0452970000" lon="0.2052270000"><ele>867</ele><time>2026-03-17T10:58:03Z</time></trkpt>
<trkpt lat="43.0453270000" lon="0.2052400000"><ele>866</ele><time>2026-03-17T10:58:05Z</time></trkpt>
<trkpt lat="43.0453550000" lon="0.2052480000"><ele>866</ele><time>2026-03-17T10:58:07Z</time></trkpt>
<trkpt lat="43.0453770000" lon="0.2052520000"><ele>866</ele><time>2026-03-17T10:58:09Z</time></trkpt>
<trkpt lat="43.0454050000" lon="0.2052670000"><ele>866</ele><time>2026-03-17T10:58:12Z</time></trkpt>
<trkpt lat="43.0454320000" lon="0.2052700000"><ele>866</ele><time>2026-03-17T10:58:15Z</time></trkpt>
<trkpt lat="43.0454570000" lon="0.2052770000"><ele>865</ele><time>2026-03-17T10:58:17Z</time></trkpt>
<trkpt lat="43.0454800000" lon="0.2053020000"><ele>865</ele><time>2026-03-17T10:58:19Z</time></trkpt>
<trkpt lat="43.0455070000" lon="0.2053200000"><ele>865</ele><time>2026-03-17T10:58:21Z</time></trkpt>
<trkpt lat="43.0455320000" lon="0.2053330000"><ele>865</ele><time>2026-03-17T10:58:23Z</time></trkpt>
<trkpt lat="43.0455520000" lon="0.2053520000"><ele>865</ele><time>2026-03-17T10:58:25Z</time></trkpt>
<trkpt lat="43.0455670000" lon="0.2053750000"><ele>865</ele><time>2026-03-17T10:58:27Z</time></trkpt>
<trkpt lat="43.0455820000" lon="0.2053930000"><ele>865</ele><time>2026-03-17T10:58:29Z</time></trkpt>
<trkpt lat="43.0456000000" lon="0.2054170000"><ele>865</ele><time>2026-03-17T10:58:31Z</time></trkpt>
<trkpt lat="43.0456120000" lon="0.2054470000"><ele>865</ele><time>2026-03-17T10:58:34Z</time></trkpt>
<trkpt lat="43.0456270000" lon="0.2054720000"><ele>865</ele><time>2026-03-17T10:58:36Z</time></trkpt>
<trkpt lat="43.0456520000" lon="0.2054950000"><ele>865</ele><time>2026-03-17T10:58:38Z</time></trkpt>
<trkpt lat="43.0456850000" lon="0.2055100000"><ele>865</ele><time>2026-03-17T10:58:40Z</time></trkpt>
<trkpt lat="43.0457020000" lon="0.2055120000"><ele>864</ele><time>2026-03-17T10:58:41Z</time></trkpt>
<trkpt lat="43.0457320000" lon="0.2055220000"><ele>864</ele><time>2026-03-17T10:58:43Z</time></trkpt>
<trkpt lat="43.0457520000" lon="0.2055420000"><ele>864</ele><time>2026-03-17T10:58:45Z</time></trkpt>
<trkpt lat="43.0457670000" lon="0.2055630000"><ele>864</ele><time>2026-03-17T10:58:47Z</time></trkpt>
<trkpt lat="43.0457850000" lon="0.2055880000"><ele>864</ele><time>2026-03-17T10:58:49Z</time></trkpt>
<trkpt lat="43.0457950000" lon="0.2056120000"><ele>864</ele><time>2026-03-17T10:58:51Z</time></trkpt>
<trkpt lat="43.0458120000" lon="0.2056250000"><ele>865</ele><time>2026-03-17T10:58:53Z</time></trkpt>
<trkpt lat="43.0458370000" lon="0.2056400000"><ele>864</ele><time>2026-03-17T10:58:56Z</time></trkpt>
<trkpt lat="43.0458520000" lon="0.2056570000"><ele>864</ele><time>2026-03-17T10:58:58Z</time></trkpt>
<trkpt lat="43.0458720000" lon="0.2056680000"><ele>864</ele><time>2026-03-17T10:59:00Z</time></trkpt>
<trkpt lat="43.0458870000" lon="0.2056870000"><ele>864</ele><time>2026-03-17T10:59:02Z</time></trkpt>
<trkpt lat="43.0459070000" lon="0.2057020000"><ele>864</ele><time>2026-03-17T10:59:04Z</time></trkpt>
<trkpt lat="43.0459220000" lon="0.2057280000"><ele>864</ele><time>2026-03-17T10:59:07Z</time></trkpt>
<trkpt lat="43.0459300000" lon="0.2057670000"><ele>863</ele><time>2026-03-17T10:59:09Z</time></trkpt>
<trkpt lat="43.0459520000" lon="0.2057820000"><ele>863</ele><time>2026-03-17T10:59:11Z</time></trkpt>
<trkpt lat="43.0459680000" lon="0.2058020000"><ele>863</ele><time>2026-03-17T10:59:14Z</time></trkpt>
<trkpt lat="43.0459850000" lon="0.2058300000"><ele>863</ele><time>2026-03-17T10:59:17Z</time></trkpt>
<trkpt lat="43.0460020000" lon="0.2058520000"><ele>862</ele><time>2026-03-17T10:59:19Z</time></trkpt>
<trkpt lat="43.0460170000" lon="0.2058820000"><ele>862</ele><time>2026-03-17T10:59:21Z</time></trkpt>
<trkpt lat="43.0460220000" lon="0.2059270000"><ele>862</ele><time>2026-03-17T10:59:23Z</time></trkpt>
<trkpt lat="43.0460370000" lon="0.2059520000"><ele>862</ele><time>2026-03-17T10:59:25Z</time></trkpt>
<trkpt lat="43.0460570000" lon="0.2059770000"><ele>862</ele><time>2026-03-17T10:59:28Z</time></trkpt>
<trkpt lat="43.0460720000" lon="0.2059950000"><ele>862</ele><time>2026-03-17T10:59:30Z</time></trkpt>
<trkpt lat="43.0460920000" lon="0.2060120000"><ele>861</ele><time>2026-03-17T10:59:32Z</time></trkpt>
<trkpt lat="43.0461050000" lon="0.2060320000"><ele>861</ele><time>2026-03-17T10:59:34Z</time></trkpt>
<trkpt lat="43.0461120000" lon="0.2060600000"><ele>861</ele><time>2026-03-17T10:59:36Z</time></trkpt>
<trkpt lat="43.0461220000" lon="0.2060820000"><ele>861</ele><time>2026-03-17T10:59:38Z</time></trkpt>
<trkpt lat="43.0461270000" lon="0.2061120000"><ele>860</ele><time>2026-03-17T10:59:40Z</time></trkpt>
<trkpt lat="43.0461350000" lon="0.2061430000"><ele>860</ele><time>2026-03-17T10:59:43Z</time></trkpt>
<trkpt lat="43.0461370000" lon="0.2061770000"><ele>860</ele><time>2026-03-17T10:59:45Z</time></trkpt>
<trkpt lat="43.0461350000" lon="0.2062050000"><ele>860</ele><time>2026-03-17T10:59:47Z</time></trkpt>
<trkpt lat="43.0461350000" lon="0.2062320000"><ele>859</ele><time>2026-03-17T10:59:49Z</time></trkpt>
<trkpt lat="43.0461450000" lon="0.2062720000"><ele>859</ele><time>2026-03-17T10:59:52Z</time></trkpt>
<trkpt lat="43.0461570000" lon="0.2063020000"><ele>859</ele><time>2026-03-17T10:59:54Z</time></trkpt>
<trkpt lat="43.0461770000" lon="0.2063250000"><ele>859</ele><time>2026-03-17T10:59:56Z</time></trkpt>
<trkpt lat="43.0461970000" lon="0.2063470000"><ele>858</ele><time>2026-03-17T10:59:59Z</time></trkpt>
<trkpt lat="43.0462050000" lon="0.2063770000"><ele>858</ele><time>2026-03-17T11:00:01Z</time></trkpt>
<trkpt lat="43.0462120000" lon="0.2064050000"><ele>857</ele><time>2026-03-17T11:00:03Z</time></trkpt>
<trkpt lat="43.0462220000" lon="0.2064300000"><ele>857</ele><time>2026-03-17T11:00:05Z</time></trkpt>
<trkpt lat="43.0462370000" lon="0.2064600000"><ele>857</ele><time>2026-03-17T11:00:07Z</time></trkpt>
<trkpt lat="43.0462500000" lon="0.2064770000"><ele>856</ele><time>2026-03-17T11:00:09Z</time></trkpt>
<trkpt lat="43.0462670000" lon="0.2064950000"><ele>856</ele><time>2026-03-17T11:00:11Z</time></trkpt>
<trkpt lat="43.0462800000" lon="0.2065200000"><ele>856</ele><time>2026-03-17T11:00:13Z</time></trkpt>
<trkpt lat="43.0462920000" lon="0.2065420000"><ele>856</ele><time>2026-03-17T11:00:15Z</time></trkpt>
<trkpt lat="43.0463000000" lon="0.2065770000"><ele>855</ele><time>2026-03-17T11:00:17Z</time></trkpt>
<trkpt lat="43.0463150000" lon="0.2066000000"><ele>855</ele><time>2026-03-17T11:00:19Z</time></trkpt>
<trkpt lat="43.0463320000" lon="0.2066100000"><ele>855</ele><time>2026-03-17T11:00:20Z</time></trkpt>
<trkpt lat="43.0463570000" lon="0.2066370000"><ele>855</ele><time>2026-03-17T11:00:22Z</time></trkpt>
<trkpt lat="43.0463650000" lon="0.2066670000"><ele>854</ele><time>2026-03-17T11:00:24Z</time></trkpt>
<trkpt lat="43.0463520000" lon="0.2066920000"><ele>854</ele><time>2026-03-17T11:00:26Z</time></trkpt>
<trkpt lat="43.0463420000" lon="0.2067220000"><ele>854</ele><time>2026-03-17T11:00:28Z</time></trkpt>
<trkpt lat="43.0463450000" lon="0.2067570000"><ele>854</ele><time>2026-03-17T11:00:30Z</time></trkpt>
<trkpt lat="43.0463420000" lon="0.2067880000"><ele>853</ele><time>2026-03-17T11:00:32Z</time></trkpt>
<trkpt lat="43.0463420000" lon="0.2068170000"><ele>853</ele><time>2026-03-17T11:00:34Z</time></trkpt>
<trkpt lat="43.0463470000" lon="0.2068500000"><ele>853</ele><time>2026-03-17T11:00:37Z</time></trkpt>
<trkpt lat="43.0463420000" lon="0.2068850000"><ele>852</ele><time>2026-03-17T11:00:40Z</time></trkpt>
<trkpt lat="43.0463400000" lon="0.2069100000"><ele>852</ele><time>2026-03-17T11:00:42Z</time></trkpt>
<trkpt lat="43.0463420000" lon="0.2069400000"><ele>851</ele><time>2026-03-17T11:00:45Z</time></trkpt>
<trkpt lat="43.0463470000" lon="0.2069670000"><ele>851</ele><time>2026-03-17T11:00:47Z</time></trkpt>
<trkpt lat="43.0463570000" lon="0.2069900000"><ele>851</ele><time>2026-03-17T11:00:49Z</time></trkpt>
<trkpt lat="43.0463620000" lon="0.2070220000"><ele>850</ele><time>2026-03-17T11:00:51Z</time></trkpt>
<trkpt lat="43.0463720000" lon="0.2070470000"><ele>850</ele><time>2026-03-17T11:00:53Z</time></trkpt>
<trkpt lat="43.0463720000" lon="0.2070770000"><ele>850</ele><time>2026-03-17T11:00:55Z</time></trkpt>
<trkpt lat="43.0463650000" lon="0.2071070000"><ele>850</ele><time>2026-03-17T11:00:57Z</time></trkpt>
<trkpt lat="43.0463700000" lon="0.2071450000"><ele>849</ele><time>2026-03-17T11:00:59Z</time></trkpt>
<trkpt lat="43.0463650000" lon="0.2071720000"><ele>849</ele><time>2026-03-17T11:01:01Z</time></trkpt>
<trkpt lat="43.0463770000" lon="0.2072070000"><ele>849</ele><time>2026-03-17T11:01:03Z</time></trkpt>
<trkpt lat="43.0463870000" lon="0.2072400000"><ele>849</ele><time>2026-03-17T11:01:05Z</time></trkpt>
<trkpt lat="43.0463920000" lon="0.2072670000"><ele>848</ele><time>2026-03-17T11:01:07Z</time></trkpt>
<trkpt lat="43.0464120000" lon="0.2072950000"><ele>848</ele><time>2026-03-17T11:01:09Z</time></trkpt>
<trkpt lat="43.0464150000" lon="0.2073220000"><ele>848</ele><time>2026-03-17T11:01:12Z</time></trkpt>
<trkpt lat="43.0464220000" lon="0.2073470000"><ele>848</ele><time>2026-03-17T11:01:14Z</time></trkpt>
<trkpt lat="43.0464370000" lon="0.2073720000"><ele>847</ele><time>2026-03-17T11:01:16Z</time></trkpt>
<trkpt lat="43.0464500000" lon="0.2073920000"><ele>847</ele><time>2026-03-17T11:01:18Z</time></trkpt>
<trkpt lat="43.0464570000" lon="0.2074270000"><ele>847</ele><time>2026-03-17T11:01:20Z</time></trkpt>
<trkpt lat="43.0464650000" lon="0.2074600000"><ele>846</ele><time>2026-03-17T11:01:23Z</time></trkpt>
<trkpt lat="43.0464770000" lon="0.2074900000"><ele>846</ele><time>2026-03-17T11:01:25Z</time></trkpt>
<trkpt lat="43.0464720000" lon="0.2075270000"><ele>846</ele><time>2026-03-17T11:01:27Z</time></trkpt>
<trkpt lat="43.0464670000" lon="0.2075620000"><ele>846</ele><time>2026-03-17T11:01:29Z</time></trkpt>
<trkpt lat="43.0464670000" lon="0.2076000000"><ele>846</ele><time>2026-03-17T11:01:31Z</time></trkpt>
<trkpt lat="43.0464620000" lon="0.2076370000"><ele>845</ele><time>2026-03-17T11:01:33Z</time></trkpt>
<trkpt lat="43.0464570000" lon="0.2076750000"><ele>845</ele><time>2026-03-17T11:01:35Z</time></trkpt>
<trkpt lat="43.0464600000" lon="0.2077100000"><ele>845</ele><time>2026-03-17T11:01:37Z</time></trkpt>
<trkpt lat="43.0464720000" lon="0.2077450000"><ele>845</ele><time>2026-03-17T11:01:40Z</time></trkpt>
<trkpt lat="43.0464720000" lon="0.2077820000"><ele>845</ele><time>2026-03-17T11:01:42Z</time></trkpt>
<trkpt lat="43.0464750000" lon="0.2078250000"><ele>845</ele><time>2026-03-17T11:01:45Z</time></trkpt>
<trkpt lat="43.0464650000" lon="0.2078550000"><ele>845</ele><time>2026-03-17T11:01:46Z</time></trkpt>
<trkpt lat="43.0464670000" lon="0.2078970000"><ele>844</ele><time>2026-03-17T11:01:49Z</time></trkpt>
<trkpt lat="43.0464650000" lon="0.2079350000"><ele>844</ele><time>2026-03-17T11:01:51Z</time></trkpt>
<trkpt lat="43.0464720000" lon="0.2079620000"><ele>844</ele><time>2026-03-17T11:01:53Z</time></trkpt>
<trkpt lat="43.0464800000" lon="0.2079920000"><ele>844</ele><time>2026-03-17T11:01:55Z</time></trkpt>
<trkpt lat="43.0464770000" lon="0.2080170000"><ele>844</ele><time>2026-03-17T11:01:57Z</time></trkpt>
<trkpt lat="43.0464770000" lon="0.2080530000"><ele>844</ele><time>2026-03-17T11:02:01Z</time></trkpt>
<trkpt lat="43.0464750000" lon="0.2080830000"><ele>844</ele><time>2026-03-17T11:02:03Z</time></trkpt>
<trkpt lat="43.0464670000" lon="0.2081120000"><ele>844</ele><time>2026-03-17T11:02:05Z</time></trkpt>
<trkpt lat="43.0464720000" lon="0.2081370000"><ele>844</ele><time>2026-03-17T11:02:07Z</time></trkpt>
<trkpt lat="43.0464770000" lon="0.2081630000"><ele>844</ele><time>2026-03-17T11:02:09Z</time></trkpt>
<trkpt lat="43.0464870000" lon="0.2081880000"><ele>843</ele><time>2026-03-17T11:02:11Z</time></trkpt>
<trkpt lat="43.0465000000" lon="0.2082070000"><ele>843</ele><time>2026-03-17T11:02:14Z</time></trkpt>
<trkpt lat="43.0464950000" lon="0.2082350000"><ele>843</ele><time>2026-03-17T11:02:19Z</time></trkpt>
<trkpt lat="43.0464870000" lon="0.2082570000"><ele>843</ele><time>2026-03-17T11:02:21Z</time></trkpt>
<trkpt lat="43.0464520000" lon="0.2083280000"><ele>843</ele><time>2026-03-17T11:02:23Z</time></trkpt>
<trkpt lat="43.0464370000" lon="0.2083580000"><ele>843</ele><time>2026-03-17T11:02:24Z</time></trkpt>
<trkpt lat="43.0464180000" lon="0.2083750000"><ele>843</ele><time>2026-03-17T11:02:26Z</time></trkpt>
<trkpt lat="43.0464180000" lon="0.2084080000"><ele>842</ele><time>2026-03-17T11:02:29Z</time></trkpt>
<trkpt lat="43.0464220000" lon="0.2084470000"><ele>842</ele><time>2026-03-17T11:02:31Z</time></trkpt>
<trkpt lat="43.0464180000" lon="0.2084770000"><ele>842</ele><time>2026-03-17T11:02:33Z</time></trkpt>
<trkpt lat="43.0464300000" lon="0.2085070000"><ele>842</ele><time>2026-03-17T11:02:36Z</time></trkpt>
<trkpt lat="43.0464420000" lon="0.2085320000"><ele>842</ele><time>2026-03-17T11:02:39Z</time></trkpt>
<trkpt lat="43.0464520000" lon="0.2085600000"><ele>841</ele><time>2026-03-17T11:02:42Z</time></trkpt>
<trkpt lat="43.0464550000" lon="0.2085880000"><ele>841</ele><time>2026-03-17T11:02:44Z</time></trkpt>
<trkpt lat="43.0464520000" lon="0.2086270000"><ele>841</ele><time>2026-03-17T11:02:46Z</time></trkpt>
<trkpt lat="43.0464600000" lon="0.2086550000"><ele>841</ele><time>2026-03-17T11:02:48Z</time></trkpt>
<trkpt lat="43.0464800000" lon="0.2086720000"><ele>840</ele><time>2026-03-17T11:02:50Z</time></trkpt>
<trkpt lat="43.0464870000" lon="0.2087050000"><ele>840</ele><time>2026-03-17T11:02:53Z</time></trkpt>
<trkpt lat="43.0464870000" lon="0.2087280000"><ele>839</ele><time>2026-03-17T11:02:55Z</time></trkpt>
<trkpt lat="43.0464870000" lon="0.2087600000"><ele>839</ele><time>2026-03-17T11:02:57Z</time></trkpt>
<trkpt lat="43.0464920000" lon="0.2088000000"><ele>839</ele><time>2026-03-17T11:02:59Z</time></trkpt>
<trkpt lat="43.0465070000" lon="0.2088270000"><ele>839</ele><time>2026-03-17T11:03:01Z</time></trkpt>
<trkpt lat="43.0465150000" lon="0.2088500000"><ele>838</ele><time>2026-03-17T11:03:03Z</time></trkpt>
<trkpt lat="43.0465200000" lon="0.2088770000"><ele>838</ele><time>2026-03-17T11:03:05Z</time></trkpt>
<trkpt lat="43.0465200000" lon="0.2089070000"><ele>838</ele><time>2026-03-17T11:03:07Z</time></trkpt>
<trkpt lat="43.0465270000" lon="0.2089320000"><ele>838</ele><time>2026-03-17T11:03:10Z</time></trkpt>
<trkpt lat="43.0465400000" lon="0.2089520000"><ele>837</ele><time>2026-03-17T11:03:12Z</time></trkpt>
<trkpt lat="43.0465470000" lon="0.2089770000"><ele>837</ele><time>2026-03-17T11:03:15Z</time></trkpt>
<trkpt lat="43.0465600000" lon="0.2090030000"><ele>837</ele><time>2026-03-17T11:03:17Z</time></trkpt>
<trkpt lat="43.0465720000" lon="0.2090400000"><ele>837</ele><time>2026-03-17T11:03:19Z</time></trkpt>
<trkpt lat="43.0465850000" lon="0.2090700000"><ele>837</ele><time>2026-03-17T11:03:21Z</time></trkpt>
<trkpt lat="43.0465900000" lon="0.2090970000"><ele>837</ele><time>2026-03-17T11:03:23Z</time></trkpt>
<trkpt lat="43.0466020000" lon="0.2091200000"><ele>837</ele><time>2026-03-17T11:03:25Z</time></trkpt>
<trkpt lat="43.0466170000" lon="0.2091420000"><ele>837</ele><time>2026-03-17T11:03:27Z</time></trkpt>
<trkpt lat="43.0466250000" lon="0.2091650000"><ele>836</ele><time>2026-03-17T11:03:29Z</time></trkpt>
<trkpt lat="43.0466420000" lon="0.2091850000"><ele>836</ele><time>2026-03-17T11:03:31Z</time></trkpt>
<trkpt lat="43.0466420000" lon="0.2092180000"><ele>836</ele><time>2026-03-17T11:03:33Z</time></trkpt>
<trkpt lat="43.0466520000" lon="0.2092520000"><ele>836</ele><time>2026-03-17T11:03:36Z</time></trkpt>
<trkpt lat="43.0466620000" lon="0.2092870000"><ele>836</ele><time>2026-03-17T11:03:38Z</time></trkpt>
<trkpt lat="43.0466750000" lon="0.2093170000"><ele>836</ele><time>2026-03-17T11:03:40Z</time></trkpt>
<trkpt lat="43.0467020000" lon="0.2093520000"><ele>836</ele><time>2026-03-17T11:03:42Z</time></trkpt>
<trkpt lat="43.0467220000" lon="0.2093670000"><ele>836</ele><time>2026-03-17T11:03:43Z</time></trkpt>
<trkpt lat="43.0467420000" lon="0.2093900000"><ele>836</ele><time>2026-03-17T11:03:45Z</time></trkpt>
<trkpt lat="43.0467620000" lon="0.2094100000"><ele>836</ele><time>2026-03-17T11:03:47Z</time></trkpt>
<trkpt lat="43.0467770000" lon="0.2094270000"><ele>836</ele><time>2026-03-17T11:03:49Z</time></trkpt>
<trkpt lat="43.0468020000" lon="0.2094500000"><ele>836</ele><time>2026-03-17T11:03:52Z</time></trkpt>
<trkpt lat="43.0468170000" lon="0.2094670000"><ele>836</ele><time>2026-03-17T11:03:54Z</time></trkpt>
<trkpt lat="43.0468320000" lon="0.2094980000"><ele>836</ele><time>2026-03-17T11:03:57Z</time></trkpt>
<trkpt lat="43.0468400000" lon="0.2095250000"><ele>835</ele><time>2026-03-17T11:03:59Z</time></trkpt>
<trkpt lat="43.0468550000" lon="0.2095420000"><ele>835</ele><time>2026-03-17T11:04:01Z</time></trkpt>
<trkpt lat="43.0468750000" lon="0.2095720000"><ele>835</ele><time>2026-03-17T11:04:04Z</time></trkpt>
<trkpt lat="43.0468870000" lon="0.2095970000"><ele>835</ele><time>2026-03-17T11:04:06Z</time></trkpt>
<trkpt lat="43.0468970000" lon="0.2096220000"><ele>835</ele><time>2026-03-17T11:04:08Z</time></trkpt>
<trkpt lat="43.0469120000" lon="0.2096420000"><ele>835</ele><time>2026-03-17T11:04:10Z</time></trkpt>
<trkpt lat="43.0469220000" lon="0.2096700000"><ele>834</ele><time>2026-03-17T11:04:13Z</time></trkpt>
<trkpt lat="43.0469470000" lon="0.2096620000"><ele>833</ele><time>2026-03-17T11:04:30Z</time></trkpt>
<trkpt lat="43.0469700000" lon="0.2096520000"><ele>833</ele><time>2026-03-17T11:04:32Z</time></trkpt>
<trkpt lat="43.0469950000" lon="0.2096320000"><ele>833</ele><time>2026-03-17T11:04:34Z</time></trkpt>
<trkpt lat="43.0470120000" lon="0.2096170000"><ele>833</ele><time>2026-03-17T11:04:36Z</time></trkpt>
<trkpt lat="43.0470230000" lon="0.2096000000"><ele>832</ele><time>2026-03-17T11:04:40Z</time></trkpt>
<trkpt lat="43.0470420000" lon="0.2096000000"><ele>832</ele><time>2026-03-17T11:04:42Z</time></trkpt>
<trkpt lat="43.0470620000" lon="0.2095920000"><ele>832</ele><time>2026-03-17T11:04:44Z</time></trkpt>
<trkpt lat="43.0470820000" lon="0.2095820000"><ele>832</ele><time>2026-03-17T11:04:46Z</time></trkpt>
<trkpt lat="43.0471020000" lon="0.2095920000"><ele>831</ele><time>2026-03-17T11:04:49Z</time></trkpt>
<trkpt lat="43.0471270000" lon="0.2095820000"><ele>831</ele><time>2026-03-17T11:04:52Z</time></trkpt>
<trkpt lat="43.0471500000" lon="0.2095570000"><ele>830</ele><time>2026-03-17T11:04:54Z</time></trkpt>
<trkpt lat="43.0471650000" lon="0.2095300000"><ele>830</ele><time>2026-03-17T11:04:56Z</time></trkpt>
<trkpt lat="43.0471870000" lon="0.2094970000"><ele>830</ele><time>2026-03-17T11:04:58Z</time></trkpt>
<trkpt lat="43.0472120000" lon="0.2094730000"><ele>829</ele><time>2026-03-17T11:05:00Z</time></trkpt>
<trkpt lat="43.0472300000" lon="0.2094520000"><ele>829</ele><time>2026-03-17T11:05:02Z</time></trkpt>
<trkpt lat="43.0472470000" lon="0.2094320000"><ele>829</ele><time>2026-03-17T11:05:04Z</time></trkpt>
<trkpt lat="43.0472670000" lon="0.2094170000"><ele>829</ele><time>2026-03-17T11:05:06Z</time></trkpt>
<trkpt lat="43.0472920000" lon="0.2094170000"><ele>828</ele><time>2026-03-17T11:05:13Z</time></trkpt>
<trkpt lat="43.0473150000" lon="0.2094130000"><ele>828</ele><time>2026-03-17T11:05:15Z</time></trkpt>
<trkpt lat="43.0473420000" lon="0.2094020000"><ele>828</ele><time>2026-03-17T11:05:17Z</time></trkpt>
<trkpt lat="43.0473650000" lon="0.2094000000"><ele>828</ele><time>2026-03-17T11:05:20Z</time></trkpt>
<trkpt lat="43.0473820000" lon="0.2093950000"><ele>828</ele><time>2026-03-17T11:05:22Z</time></trkpt>
<trkpt lat="43.0473970000" lon="0.2093680000"><ele>829</ele><time>2026-03-17T11:05:27Z</time></trkpt>
<trkpt lat="43.0474220000" lon="0.2093580000"><ele>829</ele><time>2026-03-17T11:05:29Z</time></trkpt>
<trkpt lat="43.0474470000" lon="0.2093520000"><ele>829</ele><time>2026-03-17T11:05:32Z</time></trkpt>
<trkpt lat="43.0474670000" lon="0.2093420000"><ele>829</ele><time>2026-03-17T11:05:34Z</time></trkpt>
<trkpt lat="43.0474900000" lon="0.2093250000"><ele>829</ele><time>2026-03-17T11:05:36Z</time></trkpt>
<trkpt lat="43.0475120000" lon="0.2093200000"><ele>829</ele><time>2026-03-17T11:05:38Z</time></trkpt>
<trkpt lat="43.0475300000" lon="0.2093220000"><ele>829</ele><time>2026-03-17T11:05:40Z</time></trkpt>
<trkpt lat="43.0475470000" lon="0.2093120000"><ele>829</ele><time>2026-03-17T11:05:42Z</time></trkpt>
<trkpt lat="43.0475700000" lon="0.2092870000"><ele>829</ele><time>2026-03-17T11:05:46Z</time></trkpt>
<trkpt lat="43.0475970000" lon="0.2092780000"><ele>829</ele><time>2026-03-17T11:05:48Z</time></trkpt>
<trkpt lat="43.0476200000" lon="0.2092620000"><ele>829</ele><time>2026-03-17T11:05:50Z</time></trkpt>
<trkpt lat="43.0476420000" lon="0.2092420000"><ele>829</ele><time>2026-03-17T11:05:52Z</time></trkpt>
<trkpt lat="43.0476570000" lon="0.2092270000"><ele>829</ele><time>2026-03-17T11:05:54Z</time></trkpt>
<trkpt lat="43.0476770000" lon="0.2092220000"><ele>829</ele><time>2026-03-17T11:05:57Z</time></trkpt>
<trkpt lat="43.0476900000" lon="0.2092420000"><ele>830</ele><time>2026-03-17T11:06:03Z</time></trkpt>
<trkpt lat="43.0476770000" lon="0.2092620000"><ele>830</ele><time>2026-03-17T11:06:06Z</time></trkpt>
<trkpt lat="43.0476770000" lon="0.2092970000"><ele>831</ele><time>2026-03-17T11:06:22Z</time></trkpt>
<trkpt lat="43.0476870000" lon="0.2093320000"><ele>831</ele><time>2026-03-17T11:06:24Z</time></trkpt>
<trkpt lat="43.0477000000" lon="0.2093620000"><ele>831</ele><time>2026-03-17T11:06:26Z</time></trkpt>
<trkpt lat="43.0477070000" lon="0.2093870000"><ele>832</ele><time>2026-03-17T11:06:30Z</time></trkpt>
<trkpt lat="43.0477020000" lon="0.2094130000"><ele>834</ele><time>2026-03-17T11:07:31Z</time></trkpt>
<trkpt lat="43.0477020000" lon="0.2094400000"><ele>834</ele><time>2026-03-17T11:07:32Z</time></trkpt>
<trkpt lat="43.0477020000" lon="0.2094680000"><ele>834</ele><time>2026-03-17T11:07:33Z</time></trkpt>
<trkpt lat="43.0477000000" lon="0.2094980000"><ele>834</ele><time>2026-03-17T11:07:34Z</time></trkpt>
<trkpt lat="43.0477020000" lon="0.2095420000"><ele>833</ele><time>2026-03-17T11:07:36Z</time></trkpt>
<trkpt lat="43.0476950000" lon="0.2095670000"><ele>834</ele><time>2026-03-17T11:07:40Z</time></trkpt>
<trkpt lat="43.0476670000" lon="0.2095900000"><ele>833</ele><time>2026-03-17T11:08:05Z</time></trkpt>
<trkpt lat="43.0476320000" lon="0.2096020000"><ele>833</ele><time>2026-03-17T11:08:07Z</time></trkpt>
<trkpt lat="43.0476120000" lon="0.2096120000"><ele>833</ele><time>2026-03-17T11:08:09Z</time></trkpt>
<trkpt lat="43.0476020000" lon="0.2096330000"><ele>833</ele><time>2026-03-17T11:08:45Z</time></trkpt>
<trkpt lat="43.0476020000" lon="0.2096670000"><ele>833</ele><time>2026-03-17T11:08:48Z</time></trkpt>
<trkpt lat="43.0476220000" lon="0.2096930000"><ele>833</ele><time>2026-03-17T11:08:51Z</time></trkpt>
<trkpt lat="43.0476450000" lon="0.2097070000"><ele>833</ele><time>2026-03-17T11:08:53Z</time></trkpt>
<trkpt lat="43.0476450000" lon="0.2097400000"><ele>833</ele><time>2026-03-17T11:08:56Z</time></trkpt>
<trkpt lat="43.0476420000" lon="0.2097670000"><ele>834</ele><time>2026-03-17T11:09:01Z</time></trkpt>
<trkpt lat="43.0476400000" lon="0.2097920000"><ele>834</ele><time>2026-03-17T11:09:05Z</time></trkpt>
<trkpt lat="43.0476280000" lon="0.2098170000"><ele>834</ele><time>2026-03-17T11:09:41Z</time></trkpt>
<trkpt lat="43.0476520000" lon="0.2098420000"><ele>834</ele><time>2026-03-17T11:09:43Z</time></trkpt>
<trkpt lat="43.0476770000" lon="0.2098700000"><ele>834</ele><time>2026-03-17T11:09:45Z</time></trkpt>
<trkpt lat="43.0476970000" lon="0.2098820000"><ele>835</ele><time>2026-03-17T11:09:47Z</time></trkpt>
<trkpt lat="43.0477170000" lon="0.2098970000"><ele>835</ele><time>2026-03-17T11:09:50Z</time></trkpt>
<trkpt lat="43.0477170000" lon="0.2098670000"><ele>835</ele><time>2026-03-17T11:10:00Z</time></trkpt>
<trkpt lat="43.0477170000" lon="0.2098320000"><ele>836</ele><time>2026-03-17T11:10:03Z</time></trkpt>
<trkpt lat="43.0477300000" lon="0.2098100000"><ele>836</ele><time>2026-03-17T11:10:18Z</time></trkpt>
<trkpt lat="43.0477350000" lon="0.2097780000"><ele>836</ele><time>2026-03-17T11:10:20Z</time></trkpt>
<trkpt lat="43.0477420000" lon="0.2097470000"><ele>836</ele><time>2026-03-17T11:10:22Z</time></trkpt>
<trkpt lat="43.0477620000" lon="0.2097470000"><ele>836</ele><time>2026-03-17T11:10:27Z</time></trkpt>
<trkpt lat="43.0477620000" lon="0.2097770000"><ele>836</ele><time>2026-03-17T11:11:05Z</time></trkpt>
<trkpt lat="43.0477570000" lon="0.2098050000"><ele>836</ele><time>2026-03-17T11:11:07Z</time></trkpt>
<trkpt lat="43.0477420000" lon="0.2098250000"><ele>836</ele><time>2026-03-17T11:11:10Z</time></trkpt>
<trkpt lat="43.0477570000" lon="0.2098050000"><ele>836</ele><time>2026-03-17T11:11:25Z</time></trkpt>
<trkpt lat="43.0477770000" lon="0.2098150000"><ele>836</ele><time>2026-03-17T11:11:29Z</time></trkpt>
<trkpt lat="43.0477820000" lon="0.2098380000"><ele>836</ele><time>2026-03-17T11:11:31Z</time></trkpt>
<trkpt lat="43.0477720000" lon="0.2098620000"><ele>836</ele><time>2026-03-17T11:11:37Z</time></trkpt>
<trkpt lat="43.0477550000" lon="0.2098620000"><ele>836</ele><time>2026-03-17T11:11:45Z</time></trkpt>
<trkpt lat="43.0477320000" lon="0.2098570000"><ele>836</ele><time>2026-03-17T11:11:47Z</time></trkpt>
<trkpt lat="43.0477070000" lon="0.2098570000"><ele>836</ele><time>2026-03-17T11:11:49Z</time></trkpt>
<trkpt lat="43.0476920000" lon="0.2098670000"><ele>836</ele><time>2026-03-17T11:11:51Z</time></trkpt>
<trkpt lat="43.0476770000" lon="0.2098870000"><ele>835</ele><time>2026-03-17T11:11:55Z</time></trkpt>
<trkpt lat="43.0476450000" lon="0.2098820000"><ele>833</ele><time>2026-03-17T11:12:18Z</time></trkpt>
<trkpt lat="43.0476220000" lon="0.2098720000"><ele>833</ele><time>2026-03-17T11:12:19Z</time></trkpt>
<trkpt lat="43.0476020000" lon="0.2098620000"><ele>833</ele><time>2026-03-17T11:12:20Z</time></trkpt>
<trkpt lat="43.0475820000" lon="0.2098650000"><ele>833</ele><time>2026-03-17T11:12:21Z</time></trkpt>
<trkpt lat="43.0475620000" lon="0.2098870000"><ele>833</ele><time>2026-03-17T11:12:23Z</time></trkpt>
<trkpt lat="43.0475620000" lon="0.2099170000"><ele>833</ele><time>2026-03-17T11:12:30Z</time></trkpt>
<trkpt lat="43.0475400000" lon="0.2098970000"><ele>832</ele><time>2026-03-17T11:12:33Z</time></trkpt>
<trkpt lat="43.0475150000" lon="0.2099230000"><ele>831</ele><time>2026-03-17T11:12:38Z</time></trkpt>
<trkpt lat="43.0475000000" lon="0.2099620000"><ele>831</ele><time>2026-03-17T11:12:41Z</time></trkpt>
<trkpt lat="43.0474870000" lon="0.2099900000"><ele>831</ele><time>2026-03-17T11:12:43Z</time></trkpt>
<trkpt lat="43.0474670000" lon="0.2099900000"><ele>831</ele><time>2026-03-17T11:12:48Z</time></trkpt>
<trkpt lat="43.0474470000" lon="0.2100100000"><ele>830</ele><time>2026-03-17T11:12:54Z</time></trkpt>
<trkpt lat="43.0474320000" lon="0.2100280000"><ele>830</ele><time>2026-03-17T11:12:59Z</time></trkpt>
<trkpt lat="43.0474200000" lon="0.2100480000"><ele>829</ele><time>2026-03-17T11:13:01Z</time></trkpt>
<trkpt lat="43.0474030000" lon="0.2100720000"><ele>829</ele><time>2026-03-17T11:13:03Z</time></trkpt>
<trkpt lat="43.0473820000" lon="0.2100580000"><ele>829</ele><time>2026-03-17T11:13:05Z</time></trkpt>
<trkpt lat="43.0473600000" lon="0.2100570000"><ele>829</ele><time>2026-03-17T11:13:07Z</time></trkpt>
<trkpt lat="43.0473420000" lon="0.2100720000"><ele>829</ele><time>2026-03-17T11:13:09Z</time></trkpt>
<trkpt lat="43.0473250000" lon="0.2100920000"><ele>828</ele><time>2026-03-17T11:13:11Z</time></trkpt>
<trkpt lat="43.0473050000" lon="0.2101000000"><ele>828</ele><time>2026-03-17T11:13:15Z</time></trkpt>
<trkpt lat="43.0472850000" lon="0.2100920000"><ele>828</ele><time>2026-03-17T11:13:17Z</time></trkpt>
<trkpt lat="43.0472670000" lon="0.2100770000"><ele>828</ele><time>2026-03-17T11:13:19Z</time></trkpt>
<trkpt lat="43.0472520000" lon="0.2100520000"><ele>828</ele><time>2026-03-17T11:13:20Z</time></trkpt>
<trkpt lat="43.0472350000" lon="0.2100320000"><ele>828</ele><time>2026-03-17T11:13:22Z</time></trkpt>
<trkpt lat="43.0472220000" lon="0.2100170000"><ele>828</ele><time>2026-03-17T11:13:24Z</time></trkpt>
<trkpt lat="43.0472120000" lon="0.2099870000"><ele>828</ele><time>2026-03-17T11:13:26Z</time></trkpt>
<trkpt lat="43.0472070000" lon="0.2099620000"><ele>828</ele><time>2026-03-17T11:13:28Z</time></trkpt>
<trkpt lat="43.0472220000" lon="0.2099230000"><ele>828</ele><time>2026-03-17T11:13:30Z</time></trkpt>
<trkpt lat="43.0472200000" lon="0.2098880000"><ele>828</ele><time>2026-03-17T11:13:32Z</time></trkpt>
<trkpt lat="43.0472200000" lon="0.2098600000"><ele>828</ele><time>2026-03-17T11:13:35Z</time></trkpt>
<trkpt lat="43.0472170000" lon="0.2098320000"><ele>828</ele><time>2026-03-17T11:13:39Z</time></trkpt>
<trkpt lat="43.0472250000" lon="0.2098070000"><ele>828</ele><time>2026-03-17T11:13:42Z</time></trkpt>
<trkpt lat="43.0472370000" lon="0.2097820000"><ele>828</ele><time>2026-03-17T11:13:46Z</time></trkpt>
<trkpt lat="43.0472450000" lon="0.2097570000"><ele>828</ele><time>2026-03-17T11:13:48Z</time></trkpt>
<trkpt lat="43.0472520000" lon="0.2097220000"><ele>827</ele><time>2026-03-17T11:13:50Z</time></trkpt>
<trkpt lat="43.0472700000" lon="0.2096870000"><ele>828</ele><time>2026-03-17T11:13:52Z</time></trkpt>
<trkpt lat="43.0472800000" lon="0.2096570000"><ele>827</ele><time>2026-03-17T11:13:54Z</time></trkpt>
<trkpt lat="43.0472850000" lon="0.2096300000"><ele>827</ele><time>2026-03-17T11:13:56Z</time></trkpt>
<trkpt lat="43.0472870000" lon="0.2095970000"><ele>827</ele><time>2026-03-17T11:13:58Z</time></trkpt>
<trkpt lat="43.0472870000" lon="0.2095630000"><ele>827</ele><time>2026-03-17T11:14:01Z</time></trkpt>
<trkpt lat="43.0472970000" lon="0.2095420000"><ele>827</ele><time>2026-03-17T11:14:05Z</time></trkpt>
<trkpt lat="43.0473170000" lon="0.2095300000"><ele>827</ele><time>2026-03-17T11:14:07Z</time></trkpt>
<trkpt lat="43.0473320000" lon="0.2095080000"><ele>827</ele><time>2026-03-17T11:14:09Z</time></trkpt>
<trkpt lat="43.0473370000" lon="0.2094800000"><ele>827</ele><time>2026-03-17T11:14:12Z</time></trkpt>
<trkpt lat="43.0473330000" lon="0.2094520000"><ele>827</ele><time>2026-03-17T11:14:15Z</time></trkpt>
<trkpt lat="43.0473370000" lon="0.2094220000"><ele>826</ele><time>2026-03-17T11:14:18Z</time></trkpt>
<trkpt lat="43.0473070000" lon="0.2094120000"><ele>826</ele><time>2026-03-17T11:14:21Z</time></trkpt>
<trkpt lat="43.0472800000" lon="0.2094220000"><ele>826</ele><time>2026-03-17T11:14:23Z</time></trkpt>
<trkpt lat="43.0472620000" lon="0.2094420000"><ele>826</ele><time>2026-03-17T11:14:25Z</time></trkpt>
<trkpt lat="43.0472370000" lon="0.2094680000"><ele>826</ele><time>2026-03-17T11:14:28Z</time></trkpt>
<trkpt lat="43.0472170000" lon="0.2094970000"><ele>826</ele><time>2026-03-17T11:14:30Z</time></trkpt>
<trkpt lat="43.0471950000" lon="0.2095070000"><ele>826</ele><time>2026-03-17T11:14:32Z</time></trkpt>
<trkpt lat="43.0471770000" lon="0.2095120000"><ele>826</ele><time>2026-03-17T11:14:35Z</time></trkpt>
<trkpt lat="43.0471550000" lon="0.2095220000"><ele>826</ele><time>2026-03-17T11:14:38Z</time></trkpt>
<trkpt lat="43.0471450000" lon="0.2095450000"><ele>826</ele><time>2026-03-17T11:14:41Z</time></trkpt>
<trkpt lat="43.0471320000" lon="0.2095680000"><ele>826</ele><time>2026-03-17T11:14:46Z</time></trkpt>
<trkpt lat="43.0471120000" lon="0.2095770000"><ele>826</ele><time>2026-03-17T11:14:48Z</time></trkpt>
<trkpt lat="43.0470950000" lon="0.2095920000"><ele>827</ele><time>2026-03-17T11:14:51Z</time></trkpt>
<trkpt lat="43.0470700000" lon="0.2096120000"><ele>827</ele><time>2026-03-17T11:14:54Z</time></trkpt>
<trkpt lat="43.0470500000" lon="0.2096200000"><ele>827</ele><time>2026-03-17T11:14:56Z</time></trkpt>
<trkpt lat="43.0470270000" lon="0.2096220000"><ele>828</ele><time>2026-03-17T11:14:59Z</time></trkpt>
<trkpt lat="43.0470070000" lon="0.2096120000"><ele>829</ele><time>2026-03-17T11:15:04Z</time></trkpt>
<trkpt lat="43.0470070000" lon="0.2095870000"><ele>829</ele><time>2026-03-17T11:15:23Z</time></trkpt>
<trkpt lat="43.0470120000" lon="0.2095570000"><ele>829</ele><time>2026-03-17T11:15:25Z</time></trkpt>
<trkpt lat="43.0470120000" lon="0.2095220000"><ele>829</ele><time>2026-03-17T11:15:27Z</time></trkpt>
<trkpt lat="43.0470150000" lon="0.2094920000"><ele>829</ele><time>2026-03-17T11:15:29Z</time></trkpt>
<trkpt lat="43.0470020000" lon="0.2094670000"><ele>828</ele><time>2026-03-17T11:15:31Z</time></trkpt>
<trkpt lat="43.0469870000" lon="0.2094570000"><ele>828</ele><time>2026-03-17T11:15:32Z</time></trkpt>
<trkpt lat="43.0469620000" lon="0.2094280000"><ele>828</ele><time>2026-03-17T11:15:34Z</time></trkpt>
<trkpt lat="43.0469420000" lon="0.2094020000"><ele>828</ele><time>2026-03-17T11:15:36Z</time></trkpt>
<trkpt lat="43.0469170000" lon="0.2093820000"><ele>827</ele><time>2026-03-17T11:16:13Z</time></trkpt>
<trkpt lat="43.0469000000" lon="0.2093680000"><ele>827</ele><time>2026-03-17T11:16:14Z</time></trkpt>
<trkpt lat="43.0468800000" lon="0.2093470000"><ele>827</ele><time>2026-03-17T11:16:16Z</time></trkpt>
<trkpt lat="43.0468650000" lon="0.2093250000"><ele>827</ele><time>2026-03-17T11:16:18Z</time></trkpt>
<trkpt lat="43.0468470000" lon="0.2093000000"><ele>827</ele><time>2026-03-17T11:16:20Z</time></trkpt>
<trkpt lat="43.0468370000" lon="0.2092670000"><ele>827</ele><time>2026-03-17T11:16:22Z</time></trkpt>
<trkpt lat="43.0468400000" lon="0.2092370000"><ele>827</ele><time>2026-03-17T11:16:24Z</time></trkpt>
<trkpt lat="43.0468370000" lon="0.2092050000"><ele>826</ele><time>2026-03-17T11:16:27Z</time></trkpt>
<trkpt lat="43.0468200000" lon="0.2091700000"><ele>826</ele><time>2026-03-17T11:16:29Z</time></trkpt>
<trkpt lat="43.0468100000" lon="0.2091470000"><ele>826</ele><time>2026-03-17T11:16:30Z</time></trkpt>
<trkpt lat="43.0467950000" lon="0.2091270000"><ele>826</ele><time>2026-03-17T11:16:31Z</time></trkpt>
<trkpt lat="43.0467820000" lon="0.2091030000"><ele>826</ele><time>2026-03-17T11:16:32Z</time></trkpt>
<trkpt lat="43.0467550000" lon="0.2090870000"><ele>826</ele><time>2026-03-17T11:16:34Z</time></trkpt>
<trkpt lat="43.0467320000" lon="0.2090820000"><ele>826</ele><time>2026-03-17T11:16:38Z</time></trkpt>
<trkpt lat="43.0467520000" lon="0.2090570000"><ele>826</ele><time>2026-03-17T11:16:41Z</time></trkpt>
<trkpt lat="43.0467520000" lon="0.2090320000"><ele>826</ele><time>2026-03-17T11:16:43Z</time></trkpt>
<trkpt lat="43.0467500000" lon="0.2090070000"><ele>826</ele><time>2026-03-17T11:16:45Z</time></trkpt>
<trkpt lat="43.0467500000" lon="0.2089800000"><ele>826</ele><time>2026-03-17T11:16:48Z</time></trkpt>
<trkpt lat="43.0467720000" lon="0.2089720000"><ele>825</ele><time>2026-03-17T11:16:51Z</time></trkpt>
<trkpt lat="43.0467920000" lon="0.2089670000"><ele>825</ele><time>2026-03-17T11:16:54Z</time></trkpt>
<trkpt lat="43.0468070000" lon="0.2089570000"><ele>825</ele><time>2026-03-17T11:16:59Z</time></trkpt>
<trkpt lat="43.0467970000" lon="0.2089220000"><ele>825</ele><time>2026-03-17T11:17:30Z</time></trkpt>
<trkpt lat="43.0467820000" lon="0.2089070000"><ele>825</ele><time>2026-03-17T11:17:31Z</time></trkpt>
<trkpt lat="43.0467650000" lon="0.2088870000"><ele>825</ele><time>2026-03-17T11:17:32Z</time></trkpt>
<trkpt lat="43.0467520000" lon="0.2088620000"><ele>825</ele><time>2026-03-17T11:17:33Z</time></trkpt>
<trkpt lat="43.0467400000" lon="0.2088370000"><ele>825</ele><time>2026-03-17T11:17:34Z</time></trkpt>
<trkpt lat="43.0467320000" lon="0.2088130000"><ele>825</ele><time>2026-03-17T11:17:35Z</time></trkpt>
<trkpt lat="43.0467270000" lon="0.2087730000"><ele>825</ele><time>2026-03-17T11:17:37Z</time></trkpt>
<trkpt lat="43.0467170000" lon="0.2087420000"><ele>824</ele><time>2026-03-17T11:17:47Z</time></trkpt>
<trkpt lat="43.0467220000" lon="0.2087170000"><ele>824</ele><time>2026-03-17T11:17:49Z</time></trkpt>
<trkpt lat="43.0467400000" lon="0.2086970000"><ele>824</ele><time>2026-03-17T11:17:53Z</time></trkpt>
<trkpt lat="43.0467320000" lon="0.2086730000"><ele>823</ele><time>2026-03-17T11:17:56Z</time></trkpt>
<trkpt lat="43.0467170000" lon="0.2086520000"><ele>824</ele><time>2026-03-17T11:17:59Z</time></trkpt>
<trkpt lat="43.0467150000" lon="0.2086200000"><ele>824</ele><time>2026-03-17T11:18:03Z</time></trkpt>
<trkpt lat="43.0467100000" lon="0.2085920000"><ele>823</ele><time>2026-03-17T11:18:05Z</time></trkpt>
<trkpt lat="43.0467020000" lon="0.2085600000"><ele>823</ele><time>2026-03-17T11:18:07Z</time></trkpt>
<trkpt lat="43.0467020000" lon="0.2085270000"><ele>823</ele><time>2026-03-17T11:18:09Z</time></trkpt>
<trkpt lat="43.0467020000" lon="0.2084900000"><ele>823</ele><time>2026-03-17T11:18:11Z</time></trkpt>
<trkpt lat="43.0467070000" lon="0.2084520000"><ele>822</ele><time>2026-03-17T11:18:13Z</time></trkpt>
<trkpt lat="43.0467270000" lon="0.2084300000"><ele>822</ele><time>2026-03-17T11:18:16Z</time></trkpt>
<trkpt lat="43.0467220000" lon="0.2083970000"><ele>822</ele><time>2026-03-17T11:18:19Z</time></trkpt>
<trkpt lat="43.0467200000" lon="0.2083720000"><ele>822</ele><time>2026-03-17T11:18:21Z</time></trkpt>
<trkpt lat="43.0467250000" lon="0.2083470000"><ele>822</ele><time>2026-03-17T11:18:23Z</time></trkpt>
<trkpt lat="43.0467320000" lon="0.2083080000"><ele>821</ele><time>2026-03-17T11:18:26Z</time></trkpt>
<trkpt lat="43.0467370000" lon="0.2082820000"><ele>821</ele><time>2026-03-17T11:18:28Z</time></trkpt>
<trkpt lat="43.0467470000" lon="0.2082520000"><ele>821</ele><time>2026-03-17T11:18:31Z</time></trkpt>
<trkpt lat="43.0467420000" lon="0.2082220000"><ele>821</ele><time>2026-03-17T11:18:33Z</time></trkpt>
<trkpt lat="43.0467400000" lon="0.2081850000"><ele>821</ele><time>2026-03-17T11:18:35Z</time></trkpt>
<trkpt lat="43.0467470000" lon="0.2081500000"><ele>821</ele><time>2026-03-17T11:18:37Z</time></trkpt>
<trkpt lat="43.0467470000" lon="0.2081220000"><ele>821</ele><time>2026-03-17T11:18:39Z</time></trkpt>
<trkpt lat="43.0467570000" lon="0.2080820000"><ele>821</ele><time>2026-03-17T11:18:41Z</time></trkpt>
<trkpt lat="43.0467700000" lon="0.2080450000"><ele>820</ele><time>2026-03-17T11:18:43Z</time></trkpt>
<trkpt lat="43.0467820000" lon="0.2080100000"><ele>820</ele><time>2026-03-17T11:18:45Z</time></trkpt>
<trkpt lat="43.0467920000" lon="0.2079820000"><ele>820</ele><time>2026-03-17T11:18:48Z</time></trkpt>
<trkpt lat="43.0467920000" lon="0.2079420000"><ele>819</ele><time>2026-03-17T11:18:50Z</time></trkpt>
<trkpt lat="43.0467920000" lon="0.2079100000"><ele>819</ele><time>2026-03-17T11:18:52Z</time></trkpt>
<trkpt lat="43.0468050000" lon="0.2078830000"><ele>819</ele><time>2026-03-17T11:18:54Z</time></trkpt>
<trkpt lat="43.0468100000" lon="0.2078550000"><ele>819</ele><time>2026-03-17T11:18:57Z</time></trkpt>
<trkpt lat="43.0468220000" lon="0.2078220000"><ele>819</ele><time>2026-03-17T11:18:59Z</time></trkpt>
<trkpt lat="43.0468370000" lon="0.2077870000"><ele>818</ele><time>2026-03-17T11:19:01Z</time></trkpt>
<trkpt lat="43.0468450000" lon="0.2077520000"><ele>818</ele><time>2026-03-17T11:19:03Z</time></trkpt>
<trkpt lat="43.0468570000" lon="0.2077100000"><ele>818</ele><time>2026-03-17T11:19:05Z</time></trkpt>
<trkpt lat="43.0468670000" lon="0.2076720000"><ele>818</ele><time>2026-03-17T11:19:07Z</time></trkpt>
<trkpt lat="43.0468750000" lon="0.2076470000"><ele>818</ele><time>2026-03-17T11:19:09Z</time></trkpt>
<trkpt lat="43.0468870000" lon="0.2076220000"><ele>817</ele><time>2026-03-17T11:19:11Z</time></trkpt>
<trkpt lat="43.0468970000" lon="0.2075850000"><ele>817</ele><time>2026-03-17T11:19:14Z</time></trkpt>
<trkpt lat="43.0469020000" lon="0.2075570000"><ele>817</ele><time>2026-03-17T11:19:16Z</time></trkpt>
<trkpt lat="43.0469050000" lon="0.2075200000"><ele>817</ele><time>2026-03-17T11:19:18Z</time></trkpt>
<trkpt lat="43.0469070000" lon="0.2074920000"><ele>817</ele><time>2026-03-17T11:19:20Z</time></trkpt>
<trkpt lat="43.0469120000" lon="0.2074550000"><ele>816</ele><time>2026-03-17T11:19:24Z</time></trkpt>
<trkpt lat="43.0469070000" lon="0.2074200000"><ele>816</ele><time>2026-03-17T11:19:27Z</time></trkpt>
<trkpt lat="43.0469220000" lon="0.2074050000"><ele>816</ele><time>2026-03-17T11:19:28Z</time></trkpt>
<trkpt lat="43.0469370000" lon="0.2073720000"><ele>815</ele><time>2026-03-17T11:19:30Z</time></trkpt>
<trkpt lat="43.0469500000" lon="0.2073420000"><ele>815</ele><time>2026-03-17T11:19:32Z</time></trkpt>
<trkpt lat="43.0469600000" lon="0.2073200000"><ele>815</ele><time>2026-03-17T11:19:34Z</time></trkpt>
<trkpt lat="43.0469700000" lon="0.2072920000"><ele>815</ele><time>2026-03-17T11:19:36Z</time></trkpt>
<trkpt lat="43.0469720000" lon="0.2072480000"><ele>814</ele><time>2026-03-17T11:19:38Z</time></trkpt>
<trkpt lat="43.0469770000" lon="0.2072150000"><ele>814</ele><time>2026-03-17T11:19:40Z</time></trkpt>
<trkpt lat="43.0469820000" lon="0.2071820000"><ele>814</ele><time>2026-03-17T11:19:42Z</time></trkpt>
<trkpt lat="43.0469950000" lon="0.2071550000"><ele>814</ele><time>2026-03-17T11:19:44Z</time></trkpt>
<trkpt lat="43.0470100000" lon="0.2071300000"><ele>813</ele><time>2026-03-17T11:19:46Z</time></trkpt>
<trkpt lat="43.0470300000" lon="0.2071070000"><ele>813</ele><time>2026-03-17T11:19:49Z</time></trkpt>
<trkpt lat="43.0470370000" lon="0.2070770000"><ele>812</ele><time>2026-03-17T11:19:51Z</time></trkpt>
<trkpt lat="43.0470320000" lon="0.2070470000"><ele>812</ele><time>2026-03-17T11:19:54Z</time></trkpt>
<trkpt lat="43.0470470000" lon="0.2070170000"><ele>812</ele><time>2026-03-17T11:19:56Z</time></trkpt>
<trkpt lat="43.0470470000" lon="0.2069870000"><ele>812</ele><time>2026-03-17T11:19:58Z</time></trkpt>
<trkpt lat="43.0470570000" lon="0.2069620000"><ele>811</ele><time>2026-03-17T11:20:00Z</time></trkpt>
<trkpt lat="43.0470670000" lon="0.2069420000"><ele>811</ele><time>2026-03-17T11:20:02Z</time></trkpt>
<trkpt lat="43.0470770000" lon="0.2069120000"><ele>811</ele><time>2026-03-17T11:20:05Z</time></trkpt>
<trkpt lat="43.0470920000" lon="0.2068970000"><ele>810</ele><time>2026-03-17T11:20:07Z</time></trkpt>
<trkpt lat="43.0471100000" lon="0.2068750000"><ele>810</ele><time>2026-03-17T11:20:10Z</time></trkpt>
<trkpt lat="43.0471150000" lon="0.2068420000"><ele>810</ele><time>2026-03-17T11:20:13Z</time></trkpt>
<trkpt lat="43.0471250000" lon="0.2068200000"><ele>810</ele><time>2026-03-17T11:20:14Z</time></trkpt>
<trkpt lat="43.0471420000" lon="0.2067870000"><ele>809</ele><time>2026-03-17T11:20:17Z</time></trkpt>
<trkpt lat="43.0471570000" lon="0.2067550000"><ele>809</ele><time>2026-03-17T11:20:19Z</time></trkpt>
<trkpt lat="43.0471670000" lon="0.2067220000"><ele>809</ele><time>2026-03-17T11:20:21Z</time></trkpt>
<trkpt lat="43.0471780000" lon="0.2066930000"><ele>809</ele><time>2026-03-17T11:20:23Z</time></trkpt>
<trkpt lat="43.0471920000" lon="0.2066620000"><ele>809</ele><time>2026-03-17T11:20:25Z</time></trkpt>
<trkpt lat="43.0472070000" lon="0.2066430000"><ele>809</ele><time>2026-03-17T11:20:26Z</time></trkpt>
<trkpt lat="43.0472270000" lon="0.2066120000"><ele>808</ele><time>2026-03-17T11:20:28Z</time></trkpt>
<trkpt lat="43.0472450000" lon="0.2065970000"><ele>808</ele><time>2026-03-17T11:20:29Z</time></trkpt>
<trkpt lat="43.0472600000" lon="0.2065770000"><ele>808</ele><time>2026-03-17T11:20:30Z</time></trkpt>
<trkpt lat="43.0472700000" lon="0.2065520000"><ele>808</ele><time>2026-03-17T11:20:32Z</time></trkpt>
<trkpt lat="43.0472820000" lon="0.2065320000"><ele>808</ele><time>2026-03-17T11:20:34Z</time></trkpt>
<trkpt lat="43.0473000000" lon="0.2065130000"><ele>808</ele><time>2026-03-17T11:20:37Z</time></trkpt>
<trkpt lat="43.0473220000" lon="0.2065030000"><ele>808</ele><time>2026-03-17T11:20:39Z</time></trkpt>
<trkpt lat="43.0473420000" lon="0.2064920000"><ele>808</ele><time>2026-03-17T11:20:41Z</time></trkpt>
<trkpt lat="43.0473550000" lon="0.2064670000"><ele>808</ele><time>2026-03-17T11:20:43Z</time></trkpt>
<trkpt lat="43.0473700000" lon="0.2064470000"><ele>808</ele><time>2026-03-17T11:20:46Z</time></trkpt>
<trkpt lat="43.0473850000" lon="0.2064270000"><ele>807</ele><time>2026-03-17T11:20:48Z</time></trkpt>
<trkpt lat="43.0474100000" lon="0.2064350000"><ele>807</ele><time>2026-03-17T11:21:17Z</time></trkpt>
<trkpt lat="43.0474270000" lon="0.2064520000"><ele>807</ele><time>2026-03-17T11:21:19Z</time></trkpt>
<trkpt lat="43.0474030000" lon="0.2064550000"><ele>806</ele><time>2026-03-17T11:21:41Z</time></trkpt>
<trkpt lat="43.0474020000" lon="0.2064250000"><ele>806</ele><time>2026-03-17T11:22:46Z</time></trkpt>
<trkpt lat="43.0474070000" lon="0.2063980000"><ele>807</ele><time>2026-03-17T11:23:15Z</time></trkpt>
<trkpt lat="43.0474300000" lon="0.2063870000"><ele>807</ele><time>2026-03-17T11:23:17Z</time></trkpt>
<trkpt lat="43.0474520000" lon="0.2063720000"><ele>807</ele><time>2026-03-17T11:23:19Z</time></trkpt>
<trkpt lat="43.0474770000" lon="0.2063550000"><ele>806</ele><time>2026-03-17T11:23:21Z</time></trkpt>
<trkpt lat="43.0474970000" lon="0.2063270000"><ele>806</ele><time>2026-03-17T11:23:23Z</time></trkpt>
<trkpt lat="43.0475000000" lon="0.2062870000"><ele>806</ele><time>2026-03-17T11:23:25Z</time></trkpt>
<trkpt lat="43.0475020000" lon="0.2062570000"><ele>806</ele><time>2026-03-17T11:23:27Z</time></trkpt>
<trkpt lat="43.0475220000" lon="0.2062280000"><ele>805</ele><time>2026-03-17T11:23:29Z</time></trkpt>
<trkpt lat="43.0475270000" lon="0.2062000000"><ele>805</ele><time>2026-03-17T11:23:31Z</time></trkpt>
<trkpt lat="43.0475320000" lon="0.2061720000"><ele>805</ele><time>2026-03-17T11:23:33Z</time></trkpt>
<trkpt lat="43.0475370000" lon="0.2061430000"><ele>805</ele><time>2026-03-17T11:23:35Z</time></trkpt>
<trkpt lat="43.0475470000" lon="0.2061070000"><ele>804</ele><time>2026-03-17T11:23:37Z</time></trkpt>
<trkpt lat="43.0475570000" lon="0.2060820000"><ele>804</ele><time>2026-03-17T11:23:39Z</time></trkpt>
<trkpt lat="43.0475770000" lon="0.2060570000"><ele>804</ele><time>2026-03-17T11:23:42Z</time></trkpt>
<trkpt lat="43.0475770000" lon="0.2060280000"><ele>804</ele><time>2026-03-17T11:23:45Z</time></trkpt>
<trkpt lat="43.0475770000" lon="0.2060020000"><ele>803</ele><time>2026-03-17T11:23:48Z</time></trkpt>
<trkpt lat="43.0475920000" lon="0.2059770000"><ele>803</ele><time>2026-03-17T11:23:52Z</time></trkpt>
<trkpt lat="43.0476070000" lon="0.2059620000"><ele>803</ele><time>2026-03-17T11:23:54Z</time></trkpt>
<trkpt lat="43.0476250000" lon="0.2059320000"><ele>803</ele><time>2026-03-17T11:23:57Z</time></trkpt>
<trkpt lat="43.0476370000" lon="0.2058970000"><ele>802</ele><time>2026-03-17T11:23:59Z</time></trkpt>
<trkpt lat="43.0476450000" lon="0.2058720000"><ele>802</ele><time>2026-03-17T11:24:01Z</time></trkpt>
<trkpt lat="43.0476470000" lon="0.2058380000"><ele>802</ele><time>2026-03-17T11:24:03Z</time></trkpt>
<trkpt lat="43.0476320000" lon="0.2058250000"><ele>802</ele><time>2026-03-17T11:24:07Z</time></trkpt>
<trkpt lat="43.0476600000" lon="0.2058330000"><ele>801</ele><time>2026-03-17T11:24:10Z</time></trkpt>
<trkpt lat="43.0476770000" lon="0.2058250000"><ele>801</ele><time>2026-03-17T11:24:20Z</time></trkpt>
<trkpt lat="43.0476820000" lon="0.2057970000"><ele>801</ele><time>2026-03-17T11:24:22Z</time></trkpt>
<trkpt lat="43.0476770000" lon="0.2057650000"><ele>801</ele><time>2026-03-17T11:24:24Z</time></trkpt>
<trkpt lat="43.0476720000" lon="0.2057280000"><ele>801</ele><time>2026-03-17T11:24:26Z</time></trkpt>
<trkpt lat="43.0476620000" lon="0.2056970000"><ele>801</ele><time>2026-03-17T11:24:29Z</time></trkpt>
<trkpt lat="43.0476550000" lon="0.2056670000"><ele>800</ele><time>2026-03-17T11:24:32Z</time></trkpt>
<trkpt lat="43.0476500000" lon="0.2056320000"><ele>800</ele><time>2026-03-17T11:24:34Z</time></trkpt>
<trkpt lat="43.0476470000" lon="0.2056070000"><ele>800</ele><time>2026-03-17T11:24:36Z</time></trkpt>
<trkpt lat="43.0476320000" lon="0.2055720000"><ele>800</ele><time>2026-03-17T11:24:38Z</time></trkpt>
<trkpt lat="43.0476170000" lon="0.2055570000"><ele>800</ele><time>2026-03-17T11:24:39Z</time></trkpt>
<trkpt lat="43.0476020000" lon="0.2055320000"><ele>800</ele><time>2026-03-17T11:24:41Z</time></trkpt>
<trkpt lat="43.0475920000" lon="0.2055070000"><ele>799</ele><time>2026-03-17T11:24:43Z</time></trkpt>
<trkpt lat="43.0475820000" lon="0.2054770000"><ele>799</ele><time>2026-03-17T11:24:45Z</time></trkpt>
<trkpt lat="43.0475800000" lon="0.2054420000"><ele>799</ele><time>2026-03-17T11:24:47Z</time></trkpt>
<trkpt lat="43.0475700000" lon="0.2054180000"><ele>799</ele><time>2026-03-17T11:24:49Z</time></trkpt>
<trkpt lat="43.0475580000" lon="0.2053970000"><ele>799</ele><time>2026-03-17T11:24:52Z</time></trkpt>
<trkpt lat="43.0475420000" lon="0.2053850000"><ele>798</ele><time>2026-03-17T11:24:54Z</time></trkpt>
<trkpt lat="43.0475220000" lon="0.2053620000"><ele>798</ele><time>2026-03-17T11:24:57Z</time></trkpt>
<trkpt lat="43.0475020000" lon="0.2053470000"><ele>798</ele><time>2026-03-17T11:24:59Z</time></trkpt>
<trkpt lat="43.0474770000" lon="0.2053250000"><ele>798</ele><time>2026-03-17T11:25:01Z</time></trkpt>
<trkpt lat="43.0474570000" lon="0.2052970000"><ele>797</ele><time>2026-03-17T11:25:03Z</time></trkpt>
<trkpt lat="43.0474420000" lon="0.2052720000"><ele>797</ele><time>2026-03-17T11:25:05Z</time></trkpt>
<trkpt lat="43.0474320000" lon="0.2052520000"><ele>797</ele><time>2026-03-17T11:25:06Z</time></trkpt>
<trkpt lat="43.0474200000" lon="0.2052320000"><ele>797</ele><time>2026-03-17T11:25:07Z</time></trkpt>
<trkpt lat="43.0474120000" lon="0.2051970000"><ele>797</ele><time>2026-03-17T11:25:09Z</time></trkpt>
<trkpt lat="43.0474100000" lon="0.2051620000"><ele>796</ele><time>2026-03-17T11:25:12Z</time></trkpt>
<trkpt lat="43.0473920000" lon="0.2051370000"><ele>796</ele><time>2026-03-17T11:25:15Z</time></trkpt>
<trkpt lat="43.0473770000" lon="0.2051220000"><ele>795</ele><time>2026-03-17T11:25:16Z</time></trkpt>
<trkpt lat="43.0473570000" lon="0.2050900000"><ele>795</ele><time>2026-03-17T11:25:18Z</time></trkpt>
<trkpt lat="43.0473270000" lon="0.2050670000"><ele>795</ele><time>2026-03-17T11:25:20Z</time></trkpt>
<trkpt lat="43.0473100000" lon="0.2050500000"><ele>795</ele><time>2026-03-17T11:25:22Z</time></trkpt>
<trkpt lat="43.0472900000" lon="0.2050370000"><ele>794</ele><time>2026-03-17T11:25:24Z</time></trkpt>
<trkpt lat="43.0472720000" lon="0.2050250000"><ele>794</ele><time>2026-03-17T11:25:26Z</time></trkpt>
<trkpt lat="43.0472470000" lon="0.2050070000"><ele>794</ele><time>2026-03-17T11:25:29Z</time></trkpt>
<trkpt lat="43.0472420000" lon="0.2049770000"><ele>794</ele><time>2026-03-17T11:25:32Z</time></trkpt>
<trkpt lat="43.0472270000" lon="0.2049650000"><ele>794</ele><time>2026-03-17T11:25:34Z</time></trkpt>
<trkpt lat="43.0472070000" lon="0.2049520000"><ele>794</ele><time>2026-03-17T11:25:36Z</time></trkpt>
<trkpt lat="43.0471870000" lon="0.2049420000"><ele>794</ele><time>2026-03-17T11:25:38Z</time></trkpt>
<trkpt lat="43.0471620000" lon="0.2049220000"><ele>793</ele><time>2026-03-17T11:25:41Z</time></trkpt>
<trkpt lat="43.0471420000" lon="0.2049100000"><ele>793</ele><time>2026-03-17T11:25:42Z</time></trkpt>
<trkpt lat="43.0471200000" lon="0.2048920000"><ele>793</ele><time>2026-03-17T11:25:44Z</time></trkpt>
<trkpt lat="43.0471020000" lon="0.2048770000"><ele>793</ele><time>2026-03-17T11:25:46Z</time></trkpt>
<trkpt lat="43.0470800000" lon="0.2048620000"><ele>793</ele><time>2026-03-17T11:25:49Z</time></trkpt>
<trkpt lat="43.0470620000" lon="0.2048470000"><ele>792</ele><time>2026-03-17T11:25:51Z</time></trkpt>
<trkpt lat="43.0470370000" lon="0.2048380000"><ele>792</ele><time>2026-03-17T11:25:53Z</time></trkpt>
<trkpt lat="43.0470170000" lon="0.2048370000"><ele>792</ele><time>2026-03-17T11:25:55Z</time></trkpt>
<trkpt lat="43.0469920000" lon="0.2048170000"><ele>791</ele><time>2026-03-17T11:25:57Z</time></trkpt>
<trkpt lat="43.0469770000" lon="0.2048020000"><ele>791</ele><time>2026-03-17T11:25:59Z</time></trkpt>
<trkpt lat="43.0469670000" lon="0.2047770000"><ele>791</ele><time>2026-03-17T11:26:01Z</time></trkpt>
<trkpt lat="43.0469750000" lon="0.2047420000"><ele>790</ele><time>2026-03-17T11:26:03Z</time></trkpt>
<trkpt lat="43.0469870000" lon="0.2047070000"><ele>790</ele><time>2026-03-17T11:26:05Z</time></trkpt>
<trkpt lat="43.0470070000" lon="0.2046870000"><ele>790</ele><time>2026-03-17T11:26:07Z</time></trkpt>
<trkpt lat="43.0470270000" lon="0.2046720000"><ele>789</ele><time>2026-03-17T11:26:09Z</time></trkpt>
<trkpt lat="43.0470520000" lon="0.2046620000"><ele>789</ele><time>2026-03-17T11:26:11Z</time></trkpt>
<trkpt lat="43.0470700000" lon="0.2046600000"><ele>788</ele><time>2026-03-17T11:26:20Z</time></trkpt>
<trkpt lat="43.0470870000" lon="0.2046750000"><ele>788</ele><time>2026-03-17T11:26:23Z</time></trkpt>
<trkpt lat="43.0471120000" lon="0.2046900000"><ele>788</ele><time>2026-03-17T11:26:25Z</time></trkpt>
<trkpt lat="43.0471300000" lon="0.2047020000"><ele>788</ele><time>2026-03-17T11:26:27Z</time></trkpt>
<trkpt lat="43.0471620000" lon="0.2047070000"><ele>787</ele><time>2026-03-17T11:26:31Z</time></trkpt>
<trkpt lat="43.0471870000" lon="0.2047020000"><ele>787</ele><time>2026-03-17T11:26:33Z</time></trkpt>
<trkpt lat="43.0472070000" lon="0.2046920000"><ele>787</ele><time>2026-03-17T11:26:34Z</time></trkpt>
<trkpt lat="43.0472270000" lon="0.2046900000"><ele>786</ele><time>2026-03-17T11:26:37Z</time></trkpt>
<trkpt lat="43.0472470000" lon="0.2046920000"><ele>786</ele><time>2026-03-17T11:26:39Z</time></trkpt>
<trkpt lat="43.0472770000" lon="0.2046930000"><ele>786</ele><time>2026-03-17T11:26:41Z</time></trkpt>
<trkpt lat="43.0472970000" lon="0.2046900000"><ele>785</ele><time>2026-03-17T11:26:42Z</time></trkpt>
<trkpt lat="43.0473200000" lon="0.2046870000"><ele>785</ele><time>2026-03-17T11:26:44Z</time></trkpt>
<trkpt lat="43.0473400000" lon="0.2046770000"><ele>785</ele><time>2026-03-17T11:26:46Z</time></trkpt>
<trkpt lat="43.0473570000" lon="0.2046600000"><ele>784</ele><time>2026-03-17T11:26:50Z</time></trkpt>
<trkpt lat="43.0473720000" lon="0.2046720000"><ele>784</ele><time>2026-03-17T11:26:54Z</time></trkpt>
<trkpt lat="43.0473850000" lon="0.2046970000"><ele>783</ele><time>2026-03-17T11:27:03Z</time></trkpt>
<trkpt lat="43.0474170000" lon="0.2047080000"><ele>783</ele><time>2026-03-17T11:27:05Z</time></trkpt>
<trkpt lat="43.0474420000" lon="0.2047150000"><ele>783</ele><time>2026-03-17T11:27:07Z</time></trkpt>
<trkpt lat="43.0474720000" lon="0.2047150000"><ele>782</ele><time>2026-03-17T11:27:09Z</time></trkpt>
<trkpt lat="43.0474920000" lon="0.2047120000"><ele>782</ele><time>2026-03-17T11:27:11Z</time></trkpt>
<trkpt lat="43.0475100000" lon="0.2047170000"><ele>782</ele><time>2026-03-17T11:27:13Z</time></trkpt>
<trkpt lat="43.0475350000" lon="0.2047020000"><ele>782</ele><time>2026-03-17T11:27:16Z</time></trkpt>
<trkpt lat="43.0475520000" lon="0.2047200000"><ele>782</ele><time>2026-03-17T11:27:18Z</time></trkpt>
<trkpt lat="43.0475720000" lon="0.2047270000"><ele>781</ele><time>2026-03-17T11:27:20Z</time></trkpt>
<trkpt lat="43.0475920000" lon="0.2047120000"><ele>781</ele><time>2026-03-17T11:27:23Z</time></trkpt>
<trkpt lat="43.0475670000" lon="0.2047170000"><ele>779</ele><time>2026-03-17T11:27:56Z</time></trkpt>
<trkpt lat="43.0475500000" lon="0.2047170000"><ele>779</ele><time>2026-03-17T11:27:58Z</time></trkpt>
<trkpt lat="43.0475520000" lon="0.2046900000"><ele>779</ele><time>2026-03-17T11:28:02Z</time></trkpt>
<trkpt lat="43.0475550000" lon="0.2046470000"><ele>779</ele><time>2026-03-17T11:29:13Z</time></trkpt>
<trkpt lat="43.0475450000" lon="0.2046020000"><ele>778</ele><time>2026-03-17T11:29:15Z</time></trkpt>
<trkpt lat="43.0475370000" lon="0.2045770000"><ele>778</ele><time>2026-03-17T11:29:17Z</time></trkpt>
<trkpt lat="43.0475470000" lon="0.2045450000"><ele>777</ele><time>2026-03-17T11:29:20Z</time></trkpt>
<trkpt lat="43.0475570000" lon="0.2045220000"><ele>777</ele><time>2026-03-17T11:29:23Z</time></trkpt>
<trkpt lat="43.0475670000" lon="0.2044980000"><ele>776</ele><time>2026-03-17T11:29:26Z</time></trkpt>
<trkpt lat="43.0475470000" lon="0.2045030000"><ele>775</ele><time>2026-03-17T11:29:30Z</time></trkpt>
<trkpt lat="43.0475320000" lon="0.2044920000"><ele>775</ele><time>2026-03-17T11:29:35Z</time></trkpt>
<trkpt lat="43.0475370000" lon="0.2044600000"><ele>771</ele><time>2026-03-17T11:29:50Z</time></trkpt>
<trkpt lat="43.0475450000" lon="0.2044270000"><ele>771</ele><time>2026-03-17T11:29:52Z</time></trkpt>
<trkpt lat="43.0475520000" lon="0.2043970000"><ele>770</ele><time>2026-03-17T11:29:54Z</time></trkpt>
<trkpt lat="43.0475580000" lon="0.2043620000"><ele>770</ele><time>2026-03-17T11:29:57Z</time></trkpt>
<trkpt lat="43.0475720000" lon="0.2043470000"><ele>769</ele><time>2026-03-17T11:30:00Z</time></trkpt>
<trkpt lat="43.0475870000" lon="0.2043270000"><ele>768</ele><time>2026-03-17T11:30:03Z</time></trkpt>
<trkpt lat="43.0476000000" lon="0.2042880000"><ele>767</ele><time>2026-03-17T11:30:06Z</time></trkpt>
<trkpt lat="43.0476200000" lon="0.2042770000"><ele>766</ele><time>2026-03-17T11:30:08Z</time></trkpt>
<trkpt lat="43.0475920000" lon="0.2042450000"><ele>765</ele><time>2026-03-17T11:30:17Z</time></trkpt>
<trkpt lat="43.0476070000" lon="0.2042200000"><ele>764</ele><time>2026-03-17T11:30:21Z</time></trkpt>
<trkpt lat="43.0476270000" lon="0.2041870000"><ele>763</ele><time>2026-03-17T11:30:24Z</time></trkpt>
<trkpt lat="43.0476370000" lon="0.2041620000"><ele>763</ele><time>2026-03-17T11:30:25Z</time></trkpt>
<trkpt lat="43.0476500000" lon="0.2041420000"><ele>762</ele><time>2026-03-17T11:30:26Z</time></trkpt>
<trkpt lat="43.0476470000" lon="0.2041120000"><ele>762</ele><time>2026-03-17T11:30:29Z</time></trkpt>
<trkpt lat="43.0476170000" lon="0.2041070000"><ele>761</ele><time>2026-03-17T11:30:33Z</time></trkpt>
<trkpt lat="43.0475820000" lon="0.2041220000"><ele>761</ele><time>2026-03-17T11:30:34Z</time></trkpt>
<trkpt lat="43.0476100000" lon="0.2041150000"><ele>759</ele><time>2026-03-17T11:31:47Z</time></trkpt>
<trkpt lat="43.0476280000" lon="0.2041020000"><ele>758</ele><time>2026-03-17T11:31:49Z</time></trkpt>
<trkpt lat="43.0476470000" lon="0.2040830000"><ele>758</ele><time>2026-03-17T11:31:51Z</time></trkpt>
<trkpt lat="43.0476370000" lon="0.2040580000"><ele>757</ele><time>2026-03-17T11:31:53Z</time></trkpt>
<trkpt lat="43.0476220000" lon="0.2040470000"><ele>757</ele><time>2026-03-17T11:31:56Z</time></trkpt>
<trkpt lat="43.0476400000" lon="0.2040420000"><ele>756</ele><time>2026-03-17T11:32:00Z</time></trkpt>
<trkpt lat="43.0476500000" lon="0.2040120000"><ele>753</ele><time>2026-03-17T11:32:11Z</time></trkpt>
<trkpt lat="43.0476620000" lon="0.2039850000"><ele>752</ele><time>2026-03-17T11:32:14Z</time></trkpt>
<trkpt lat="43.0476750000" lon="0.2039650000"><ele>751</ele><time>2026-03-17T11:32:18Z</time></trkpt>
<trkpt lat="43.0476970000" lon="0.2039550000"><ele>751</ele><time>2026-03-17T11:32:19Z</time></trkpt>
<trkpt lat="43.0477120000" lon="0.2039220000"><ele>751</ele><time>2026-03-17T11:32:21Z</time></trkpt>
<trkpt lat="43.0477270000" lon="0.2039020000"><ele>750</ele><time>2026-03-17T11:32:27Z</time></trkpt>
<trkpt lat="43.0477420000" lon="0.2038820000"><ele>749</ele><time>2026-03-17T11:32:34Z</time></trkpt>
<trkpt lat="43.0477420000" lon="0.2038570000"><ele>745</ele><time>2026-03-17T11:32:48Z</time></trkpt>
<trkpt lat="43.0477420000" lon="0.2038150000"><ele>744</ele><time>2026-03-17T11:32:50Z</time></trkpt>
<trkpt lat="43.0477420000" lon="0.2037770000"><ele>744</ele><time>2026-03-17T11:32:52Z</time></trkpt>
<trkpt lat="43.0477520000" lon="0.2037520000"><ele>743</ele><time>2026-03-17T11:32:54Z</time></trkpt>
<trkpt lat="43.0477370000" lon="0.2037230000"><ele>742</ele><time>2026-03-17T11:32:57Z</time></trkpt>
<trkpt lat="43.0477420000" lon="0.2036970000"><ele>741</ele><time>2026-03-17T11:33:03Z</time></trkpt>
<trkpt lat="43.0477370000" lon="0.2036720000"><ele>740</ele><time>2026-03-17T11:33:06Z</time></trkpt>
<trkpt lat="43.0477370000" lon="0.2036470000"><ele>739</ele><time>2026-03-17T11:33:11Z</time></trkpt>
<trkpt lat="43.0477450000" lon="0.2036180000"><ele>738</ele><time>2026-03-17T11:33:14Z</time></trkpt>
<trkpt lat="43.0477620000" lon="0.2036100000"><ele>738</ele><time>2026-03-17T11:33:16Z</time></trkpt>
<trkpt lat="43.0477800000" lon="0.2035870000"><ele>737</ele><time>2026-03-17T11:33:19Z</time></trkpt>
<trkpt lat="43.0477820000" lon="0.2035620000"><ele>736</ele><time>2026-03-17T11:33:23Z</time></trkpt>
<trkpt lat="43.0477700000" lon="0.2035370000"><ele>736</ele><time>2026-03-17T11:33:26Z</time></trkpt>
<trkpt lat="43.0477720000" lon="0.2035080000"><ele>734</ele><time>2026-03-17T11:33:32Z</time></trkpt>
<trkpt lat="43.0477670000" lon="0.2034720000"><ele>734</ele><time>2026-03-17T11:33:35Z</time></trkpt>
<trkpt lat="43.0477700000" lon="0.2034470000"><ele>733</ele><time>2026-03-17T11:33:37Z</time></trkpt>
<trkpt lat="43.0477750000" lon="0.2034150000"><ele>732</ele><time>2026-03-17T11:33:45Z</time></trkpt>
<trkpt lat="43.0477600000" lon="0.2034000000"><ele>731</ele><time>2026-03-17T11:33:50Z</time></trkpt>
<trkpt lat="43.0477570000" lon="0.2033680000"><ele>728</ele><time>2026-03-17T11:34:20Z</time></trkpt>
<trkpt lat="43.0477770000" lon="0.2033470000"><ele>728</ele><time>2026-03-17T11:34:23Z</time></trkpt>
<trkpt lat="43.0477970000" lon="0.2033470000"><ele>728</ele><time>2026-03-17T11:34:24Z</time></trkpt>
<trkpt lat="43.0478220000" lon="0.2033500000"><ele>728</ele><time>2026-03-17T11:34:25Z</time></trkpt>
<trkpt lat="43.0478220000" lon="0.2033750000"><ele>728</ele><time>2026-03-17T11:34:28Z</time></trkpt>
<trkpt lat="43.0478170000" lon="0.2033970000"><ele>727</ele><time>2026-03-17T11:35:28Z</time></trkpt>
<trkpt lat="43.0477970000" lon="0.2034150000"><ele>727</ele><time>2026-03-17T11:36:00Z</time></trkpt>
<trkpt lat="43.0477700000" lon="0.2034270000"><ele>727</ele><time>2026-03-17T11:36:02Z</time></trkpt>
<trkpt lat="43.0477520000" lon="0.2034470000"><ele>727</ele><time>2026-03-17T11:36:04Z</time></trkpt>
<trkpt lat="43.0477400000" lon="0.2034620000"><ele>730</ele><time>2026-03-17T11:36:23Z</time></trkpt>
<trkpt lat="43.0477320000" lon="0.2034870000"><ele>730</ele><time>2026-03-17T11:36:25Z</time></trkpt>
<trkpt lat="43.0477200000" lon="0.2035120000"><ele>730</ele><time>2026-03-17T11:36:28Z</time></trkpt>
<trkpt lat="43.0476970000" lon="0.2035200000"><ele>731</ele><time>2026-03-17T11:36:32Z</time></trkpt>
<trkpt lat="43.0476770000" lon="0.2035350000"><ele>731</ele><time>2026-03-17T11:36:35Z</time></trkpt>
<trkpt lat="43.0476570000" lon="0.2035350000"><ele>732</ele><time>2026-03-17T11:36:37Z</time></trkpt>
<trkpt lat="43.0476420000" lon="0.2035200000"><ele>732</ele><time>2026-03-17T11:36:38Z</time></trkpt>
<trkpt lat="43.0476120000" lon="0.2034870000"><ele>732</ele><time>2026-03-17T11:36:40Z</time></trkpt>
<trkpt lat="43.0475950000" lon="0.2034830000"><ele>732</ele><time>2026-03-17T11:36:41Z</time></trkpt>
<trkpt lat="43.0475820000" lon="0.2034570000"><ele>732</ele><time>2026-03-17T11:36:46Z</time></trkpt>
<trkpt lat="43.0475720000" lon="0.2034350000"><ele>733</ele><time>2026-03-17T11:37:08Z</time></trkpt>
<trkpt lat="43.0475520000" lon="0.2034220000"><ele>733</ele><time>2026-03-17T11:37:10Z</time></trkpt>
<trkpt lat="43.0475500000" lon="0.2034520000"><ele>733</ele><time>2026-03-17T11:37:28Z</time></trkpt>
<trkpt lat="43.0475270000" lon="0.2034820000"><ele>733</ele><time>2026-03-17T11:37:30Z</time></trkpt>
<trkpt lat="43.0475020000" lon="0.2034970000"><ele>733</ele><time>2026-03-17T11:37:32Z</time></trkpt>
<trkpt lat="43.0474820000" lon="0.2034920000"><ele>733</ele><time>2026-03-17T11:37:34Z</time></trkpt>
<trkpt lat="43.0474570000" lon="0.2034870000"><ele>734</ele><time>2026-03-17T11:37:36Z</time></trkpt>
<trkpt lat="43.0474320000" lon="0.2034870000"><ele>734</ele><time>2026-03-17T11:37:39Z</time></trkpt>
<trkpt lat="43.0474150000" lon="0.2034770000"><ele>734</ele><time>2026-03-17T11:37:59Z</time></trkpt>
<trkpt lat="43.0473970000" lon="0.2034900000"><ele>734</ele><time>2026-03-17T11:38:01Z</time></trkpt>
<trkpt lat="43.0473850000" lon="0.2035080000"><ele>734</ele><time>2026-03-17T11:38:04Z</time></trkpt>
<trkpt lat="43.0473600000" lon="0.2035220000"><ele>735</ele><time>2026-03-17T11:38:06Z</time></trkpt>
<trkpt lat="43.0473420000" lon="0.2035470000"><ele>735</ele><time>2026-03-17T11:38:09Z</time></trkpt>
<trkpt lat="43.0473270000" lon="0.2035650000"><ele>735</ele><time>2026-03-17T11:38:12Z</time></trkpt>
<trkpt lat="43.0473100000" lon="0.2035800000"><ele>736</ele><time>2026-03-17T11:38:23Z</time></trkpt>
<trkpt lat="43.0472920000" lon="0.2035880000"><ele>736</ele><time>2026-03-17T11:38:25Z</time></trkpt>
<trkpt lat="43.0472750000" lon="0.2036020000"><ele>736</ele><time>2026-03-17T11:38:27Z</time></trkpt>
<trkpt lat="43.0472620000" lon="0.2036220000"><ele>736</ele><time>2026-03-17T11:38:31Z</time></trkpt>
<trkpt lat="43.0472420000" lon="0.2036320000"><ele>736</ele><time>2026-03-17T11:38:34Z</time></trkpt>
<trkpt lat="43.0472220000" lon="0.2036350000"><ele>736</ele><time>2026-03-17T11:38:36Z</time></trkpt>
<trkpt lat="43.0472050000" lon="0.2036230000"><ele>736</ele><time>2026-03-17T11:38:39Z</time></trkpt>
<trkpt lat="43.0471850000" lon="0.2036170000"><ele>737</ele><time>2026-03-17T11:38:44Z</time></trkpt>
<trkpt lat="43.0471570000" lon="0.2035970000"><ele>737</ele><time>2026-03-17T11:38:48Z</time></trkpt>
<trkpt lat="43.0471300000" lon="0.2035830000"><ele>737</ele><time>2026-03-17T11:38:49Z</time></trkpt>
<trkpt lat="43.0471050000" lon="0.2035870000"><ele>737</ele><time>2026-03-17T11:38:53Z</time></trkpt>
<trkpt lat="43.0470820000" lon="0.2035820000"><ele>737</ele><time>2026-03-17T11:38:56Z</time></trkpt>
<trkpt lat="43.0470670000" lon="0.2035570000"><ele>737</ele><time>2026-03-17T11:39:01Z</time></trkpt>
<trkpt lat="43.0470500000" lon="0.2035420000"><ele>737</ele><time>2026-03-17T11:39:08Z</time></trkpt>
<trkpt lat="43.0470300000" lon="0.2035370000"><ele>735</ele><time>2026-03-17T11:39:24Z</time></trkpt>
<trkpt lat="43.0470070000" lon="0.2035200000"><ele>735</ele><time>2026-03-17T11:39:26Z</time></trkpt>
<trkpt lat="43.0469900000" lon="0.2035080000"><ele>734</ele><time>2026-03-17T11:39:27Z</time></trkpt>
<trkpt lat="43.0469700000" lon="0.2034920000"><ele>734</ele><time>2026-03-17T11:39:29Z</time></trkpt>
<trkpt lat="43.0469500000" lon="0.2034920000"><ele>734</ele><time>2026-03-17T11:39:32Z</time></trkpt>
<trkpt lat="43.0469300000" lon="0.2034670000"><ele>733</ele><time>2026-03-17T11:39:42Z</time></trkpt>
<trkpt lat="43.0469070000" lon="0.2034420000"><ele>732</ele><time>2026-03-17T11:39:44Z</time></trkpt>
<trkpt lat="43.0468850000" lon="0.2034370000"><ele>732</ele><time>2026-03-17T11:39:46Z</time></trkpt>
<trkpt lat="43.0468670000" lon="0.2034420000"><ele>732</ele><time>2026-03-17T11:40:21Z</time></trkpt>
<trkpt lat="43.0468450000" lon="0.2034270000"><ele>731</ele><time>2026-03-17T11:40:23Z</time></trkpt>
<trkpt lat="43.0468150000" lon="0.2034020000"><ele>731</ele><time>2026-03-17T11:40:25Z</time></trkpt>
<trkpt lat="43.0468050000" lon="0.2033800000"><ele>731</ele><time>2026-03-17T11:40:27Z</time></trkpt>
<trkpt lat="43.0468220000" lon="0.2033670000"><ele>731</ele><time>2026-03-17T11:40:31Z</time></trkpt>
<trkpt lat="43.0467980000" lon="0.2033570000"><ele>729</ele><time>2026-03-17T11:40:59Z</time></trkpt>
<trkpt lat="43.0467750000" lon="0.2033330000"><ele>728</ele><time>2026-03-17T11:41:01Z</time></trkpt>
<trkpt lat="43.0467620000" lon="0.2033170000"><ele>728</ele><time>2026-03-17T11:41:03Z</time></trkpt>
<trkpt lat="43.0467420000" lon="0.2033130000"><ele>727</ele><time>2026-03-17T11:41:27Z</time></trkpt>
<trkpt lat="43.0467170000" lon="0.2033070000"><ele>727</ele><time>2026-03-17T11:41:29Z</time></trkpt>
<trkpt lat="43.0467220000" lon="0.2032820000"><ele>726</ele><time>2026-03-17T11:41:33Z</time></trkpt>
<trkpt lat="43.0467470000" lon="0.2032520000"><ele>720</ele><time>2026-03-17T11:42:34Z</time></trkpt>
<trkpt lat="43.0467670000" lon="0.2032230000"><ele>720</ele><time>2026-03-17T11:42:35Z</time></trkpt>
<trkpt lat="43.0467920000" lon="0.2031900000"><ele>720</ele><time>2026-03-17T11:42:36Z</time></trkpt>
<trkpt lat="43.0468120000" lon="0.2031520000"><ele>720</ele><time>2026-03-17T11:42:37Z</time></trkpt>
<trkpt lat="43.0468270000" lon="0.2031200000"><ele>720</ele><time>2026-03-17T11:42:38Z</time></trkpt>
<trkpt lat="43.0468370000" lon="0.2030920000"><ele>720</ele><time>2026-03-17T11:42:39Z</time></trkpt>
<trkpt lat="43.0468500000" lon="0.2030720000"><ele>719</ele><time>2026-03-17T11:42:44Z</time></trkpt>
<trkpt lat="43.0468670000" lon="0.2030670000"><ele>719</ele><time>2026-03-17T11:42:47Z</time></trkpt>
<trkpt lat="43.0468520000" lon="0.2030370000"><ele>719</ele><time>2026-03-17T11:43:02Z</time></trkpt>
<trkpt lat="43.0468620000" lon="0.2030120000"><ele>719</ele><time>2026-03-17T11:43:05Z</time></trkpt>
<trkpt lat="43.0468770000" lon="0.2029920000"><ele>719</ele><time>2026-03-17T11:43:20Z</time></trkpt>
<trkpt lat="43.0468950000" lon="0.2029620000"><ele>719</ele><time>2026-03-17T11:43:22Z</time></trkpt>
<trkpt lat="43.0469050000" lon="0.2029230000"><ele>719</ele><time>2026-03-17T11:43:24Z</time></trkpt>
<trkpt lat="43.0469120000" lon="0.2028870000"><ele>719</ele><time>2026-03-17T11:43:26Z</time></trkpt>
<trkpt lat="43.0469220000" lon="0.2028570000"><ele>719</ele><time>2026-03-17T11:43:28Z</time></trkpt>
<trkpt lat="43.0469420000" lon="0.2028370000"><ele>719</ele><time>2026-03-17T11:43:31Z</time></trkpt>
<trkpt lat="43.0469620000" lon="0.2028170000"><ele>719</ele><time>2026-03-17T11:43:34Z</time></trkpt>
<trkpt lat="43.0469770000" lon="0.2027970000"><ele>719</ele><time>2026-03-17T11:43:37Z</time></trkpt>
<trkpt lat="43.0469950000" lon="0.2027970000"><ele>720</ele><time>2026-03-17T11:43:41Z</time></trkpt>
<trkpt lat="43.0470170000" lon="0.2027920000"><ele>720</ele><time>2026-03-17T11:43:43Z</time></trkpt>
<trkpt lat="43.0470320000" lon="0.2027750000"><ele>720</ele><time>2026-03-17T11:43:45Z</time></trkpt>
<trkpt lat="43.0470520000" lon="0.2027580000"><ele>720</ele><time>2026-03-17T11:43:47Z</time></trkpt>
<trkpt lat="43.0470720000" lon="0.2027400000"><ele>720</ele><time>2026-03-17T11:43:50Z</time></trkpt>
<trkpt lat="43.0470870000" lon="0.2027250000"><ele>720</ele><time>2026-03-17T11:43:52Z</time></trkpt>
<trkpt lat="43.0471070000" lon="0.2027050000"><ele>720</ele><time>2026-03-17T11:43:54Z</time></trkpt>
<trkpt lat="43.0471220000" lon="0.2026870000"><ele>720</ele><time>2026-03-17T11:43:56Z</time></trkpt>
<trkpt lat="43.0471370000" lon="0.2026720000"><ele>720</ele><time>2026-03-17T11:43:58Z</time></trkpt>
<trkpt lat="43.0471520000" lon="0.2026550000"><ele>720</ele><time>2026-03-17T11:44:00Z</time></trkpt>
<trkpt lat="43.0471720000" lon="0.2026270000"><ele>721</ele><time>2026-03-17T11:44:03Z</time></trkpt>
<trkpt lat="43.0471870000" lon="0.2026070000"><ele>721</ele><time>2026-03-17T11:44:05Z</time></trkpt>
<trkpt lat="43.0471950000" lon="0.2025770000"><ele>721</ele><time>2026-03-17T11:44:07Z</time></trkpt>
<trkpt lat="43.0472070000" lon="0.2025520000"><ele>722</ele><time>2026-03-17T11:44:09Z</time></trkpt>
<trkpt lat="43.0472270000" lon="0.2025400000"><ele>722</ele><time>2026-03-17T11:44:11Z</time></trkpt>
<trkpt lat="43.0472470000" lon="0.2025330000"><ele>722</ele><time>2026-03-17T11:44:13Z</time></trkpt>
<trkpt lat="43.0472620000" lon="0.2025030000"><ele>722</ele><time>2026-03-17T11:44:16Z</time></trkpt>
<trkpt lat="43.0472820000" lon="0.2024970000"><ele>722</ele><time>2026-03-17T11:44:18Z</time></trkpt>
<trkpt lat="43.0473020000" lon="0.2024820000"><ele>722</ele><time>2026-03-17T11:44:20Z</time></trkpt>
<trkpt lat="43.0473170000" lon="0.2024620000"><ele>723</ele><time>2026-03-17T11:44:22Z</time></trkpt>
<trkpt lat="43.0473320000" lon="0.2024350000"><ele>723</ele><time>2026-03-17T11:44:25Z</time></trkpt>
<trkpt lat="43.0473520000" lon="0.2024070000"><ele>723</ele><time>2026-03-17T11:44:29Z</time></trkpt>
<trkpt lat="43.0473750000" lon="0.2023880000"><ele>723</ele><time>2026-03-17T11:44:31Z</time></trkpt>
<trkpt lat="43.0473950000" lon="0.2023680000"><ele>724</ele><time>2026-03-17T11:44:34Z</time></trkpt>
<trkpt lat="43.0474170000" lon="0.2023420000"><ele>724</ele><time>2026-03-17T11:44:37Z</time></trkpt>
<trkpt lat="43.0474320000" lon="0.2023300000"><ele>724</ele><time>2026-03-17T11:44:39Z</time></trkpt>
<trkpt lat="43.0474600000" lon="0.2023070000"><ele>724</ele><time>2026-03-17T11:44:41Z</time></trkpt>
<trkpt lat="43.0474820000" lon="0.2022820000"><ele>724</ele><time>2026-03-17T11:44:43Z</time></trkpt>
<trkpt lat="43.0474970000" lon="0.2022650000"><ele>724</ele><time>2026-03-17T11:44:45Z</time></trkpt>
<trkpt lat="43.0475170000" lon="0.2022520000"><ele>725</ele><time>2026-03-17T11:44:48Z</time></trkpt>
<trkpt lat="43.0475370000" lon="0.2022420000"><ele>725</ele><time>2026-03-17T11:44:50Z</time></trkpt>
<trkpt lat="43.0475500000" lon="0.2022170000"><ele>725</ele><time>2026-03-17T11:44:52Z</time></trkpt>
<trkpt lat="43.0475620000" lon="0.2021870000"><ele>726</ele><time>2026-03-17T11:44:54Z</time></trkpt>
<trkpt lat="43.0475770000" lon="0.2021670000"><ele>726</ele><time>2026-03-17T11:44:56Z</time></trkpt>
<trkpt lat="43.0475850000" lon="0.2021420000"><ele>726</ele><time>2026-03-17T11:44:58Z</time></trkpt>
<trkpt lat="43.0476000000" lon="0.2021270000"><ele>726</ele><time>2026-03-17T11:45:01Z</time></trkpt>
<trkpt lat="43.0476150000" lon="0.2021120000"><ele>727</ele><time>2026-03-17T11:45:03Z</time></trkpt>
<trkpt lat="43.0476280000" lon="0.2020930000"><ele>727</ele><time>2026-03-17T11:45:05Z</time></trkpt>
<trkpt lat="43.0476520000" lon="0.2020820000"><ele>727</ele><time>2026-03-17T11:45:07Z</time></trkpt>
<trkpt lat="43.0476800000" lon="0.2020670000"><ele>728</ele><time>2026-03-17T11:45:09Z</time></trkpt>
<trkpt lat="43.0476970000" lon="0.2020550000"><ele>728</ele><time>2026-03-17T11:45:11Z</time></trkpt>
<trkpt lat="43.0477120000" lon="0.2020320000"><ele>728</ele><time>2026-03-17T11:45:14Z</time></trkpt>
<trkpt lat="43.0477120000" lon="0.2020620000"><ele>729</ele><time>2026-03-17T11:45:21Z</time></trkpt>
<trkpt lat="43.0477220000" lon="0.2020370000"><ele>729</ele><time>2026-03-17T11:45:23Z</time></trkpt>
<trkpt lat="43.0477350000" lon="0.2020150000"><ele>729</ele><time>2026-03-17T11:45:24Z</time></trkpt>
<trkpt lat="43.0477600000" lon="0.2019950000"><ele>729</ele><time>2026-03-17T11:45:26Z</time></trkpt>
<trkpt lat="43.0477800000" lon="0.2019770000"><ele>729</ele><time>2026-03-17T11:45:28Z</time></trkpt>
<trkpt lat="43.0478020000" lon="0.2019770000"><ele>729</ele><time>2026-03-17T11:45:30Z</time></trkpt>
<trkpt lat="43.0478270000" lon="0.2019670000"><ele>729</ele><time>2026-03-17T11:45:32Z</time></trkpt>
<trkpt lat="43.0478520000" lon="0.2019670000"><ele>729</ele><time>2026-03-17T11:45:34Z</time></trkpt>
<trkpt lat="43.0478720000" lon="0.2019570000"><ele>729</ele><time>2026-03-17T11:45:36Z</time></trkpt>
<trkpt lat="43.0478870000" lon="0.2019450000"><ele>729</ele><time>2026-03-17T11:45:37Z</time></trkpt>
<trkpt lat="43.0479150000" lon="0.2019370000"><ele>729</ele><time>2026-03-17T11:45:39Z</time></trkpt>
<trkpt lat="43.0479380000" lon="0.2019420000"><ele>729</ele><time>2026-03-17T11:45:41Z</time></trkpt>
<trkpt lat="43.0479620000" lon="0.2019330000"><ele>730</ele><time>2026-03-17T11:45:43Z</time></trkpt>
<trkpt lat="43.0479770000" lon="0.2019120000"><ele>730</ele><time>2026-03-17T11:45:46Z</time></trkpt>
<trkpt lat="43.0479970000" lon="0.2019020000"><ele>730</ele><time>2026-03-17T11:45:49Z</time></trkpt>
<trkpt lat="43.0480170000" lon="0.2019020000"><ele>730</ele><time>2026-03-17T11:45:51Z</time></trkpt>
<trkpt lat="43.0480370000" lon="0.2019070000"><ele>730</ele><time>2026-03-17T11:45:54Z</time></trkpt>
<trkpt lat="43.0480600000" lon="0.2018870000"><ele>731</ele><time>2026-03-17T11:46:05Z</time></trkpt>
<trkpt lat="43.0480770000" lon="0.2018880000"><ele>731</ele><time>2026-03-17T11:46:06Z</time></trkpt>
<trkpt lat="43.0480970000" lon="0.2018920000"><ele>731</ele><time>2026-03-17T11:46:07Z</time></trkpt>
<trkpt lat="43.0481300000" lon="0.2018820000"><ele>731</ele><time>2026-03-17T11:46:09Z</time></trkpt>
<trkpt lat="43.0481570000" lon="0.2018820000"><ele>731</ele><time>2026-03-17T11:46:11Z</time></trkpt>
<trkpt lat="43.0481870000" lon="0.2018800000"><ele>732</ele><time>2026-03-17T11:46:13Z</time></trkpt>
<trkpt lat="43.0482100000" lon="0.2018720000"><ele>732</ele><time>2026-03-17T11:46:15Z</time></trkpt>
<trkpt lat="43.0482270000" lon="0.2018720000"><ele>732</ele><time>2026-03-17T11:46:17Z</time></trkpt>
<trkpt lat="43.0482470000" lon="0.2018720000"><ele>732</ele><time>2026-03-17T11:46:19Z</time></trkpt>
<trkpt lat="43.0482720000" lon="0.2018700000"><ele>732</ele><time>2026-03-17T11:46:22Z</time></trkpt>
<trkpt lat="43.0482920000" lon="0.2018770000"><ele>733</ele><time>2026-03-17T11:46:24Z</time></trkpt>
<trkpt lat="43.0483120000" lon="0.2018770000"><ele>733</ele><time>2026-03-17T11:46:26Z</time></trkpt>
<trkpt lat="43.0483320000" lon="0.2018700000"><ele>733</ele><time>2026-03-17T11:46:28Z</time></trkpt>
<trkpt lat="43.0483350000" lon="0.2018430000"><ele>734</ele><time>2026-03-17T11:46:37Z</time></trkpt>
<trkpt lat="43.0483600000" lon="0.2018300000"><ele>733</ele><time>2026-03-17T11:46:42Z</time></trkpt>
<trkpt lat="43.0483770000" lon="0.2018220000"><ele>733</ele><time>2026-03-17T11:46:44Z</time></trkpt>
<trkpt lat="43.0484050000" lon="0.2018070000"><ele>734</ele><time>2026-03-17T11:46:46Z</time></trkpt>
<trkpt lat="43.0484220000" lon="0.2017970000"><ele>734</ele><time>2026-03-17T11:46:47Z</time></trkpt>
<trkpt lat="43.0484470000" lon="0.2017820000"><ele>734</ele><time>2026-03-17T11:46:49Z</time></trkpt>
<trkpt lat="43.0484670000" lon="0.2017750000"><ele>734</ele><time>2026-03-17T11:46:51Z</time></trkpt>
<trkpt lat="43.0484870000" lon="0.2017720000"><ele>734</ele><time>2026-03-17T11:46:53Z</time></trkpt>
<trkpt lat="43.0485120000" lon="0.2017620000"><ele>735</ele><time>2026-03-17T11:46:56Z</time></trkpt>
<trkpt lat="43.0485300000" lon="0.2017520000"><ele>735</ele><time>2026-03-17T11:46:58Z</time></trkpt>
<trkpt lat="43.0485470000" lon="0.2017520000"><ele>735</ele><time>2026-03-17T11:47:00Z</time></trkpt>
<trkpt lat="43.0485670000" lon="0.2017370000"><ele>735</ele><time>2026-03-17T11:47:02Z</time></trkpt>
<trkpt lat="43.0485870000" lon="0.2017470000"><ele>736</ele><time>2026-03-17T11:47:38Z</time></trkpt>
<trkpt lat="43.0486120000" lon="0.2017600000"><ele>736</ele><time>2026-03-17T11:47:40Z</time></trkpt>
<trkpt lat="43.0486370000" lon="0.2017720000"><ele>736</ele><time>2026-03-17T11:47:42Z</time></trkpt>
<trkpt lat="43.0486670000" lon="0.2017770000"><ele>736</ele><time>2026-03-17T11:47:45Z</time></trkpt>
<trkpt lat="43.0486920000" lon="0.2017670000"><ele>736</ele><time>2026-03-17T11:47:47Z</time></trkpt>
<trkpt lat="43.0487150000" lon="0.2017570000"><ele>737</ele><time>2026-03-17T11:47:49Z</time></trkpt>
<trkpt lat="43.0487420000" lon="0.2017470000"><ele>737</ele><time>2026-03-17T11:47:51Z</time></trkpt>
<trkpt lat="43.0487720000" lon="0.2017400000"><ele>737</ele><time>2026-03-17T11:47:53Z</time></trkpt>
<trkpt lat="43.0488020000" lon="0.2017270000"><ele>737</ele><time>2026-03-17T11:47:55Z</time></trkpt>
<trkpt lat="43.0488300000" lon="0.2017170000"><ele>738</ele><time>2026-03-17T11:47:57Z</time></trkpt>
<trkpt lat="43.0488570000" lon="0.2017070000"><ele>738</ele><time>2026-03-17T11:47:59Z</time></trkpt>
<trkpt lat="43.0488820000" lon="0.2016950000"><ele>738</ele><time>2026-03-17T11:48:01Z</time></trkpt>
<trkpt lat="43.0489070000" lon="0.2016920000"><ele>738</ele><time>2026-03-17T11:48:03Z</time></trkpt>
<trkpt lat="43.0489320000" lon="0.2017120000"><ele>738</ele><time>2026-03-17T11:48:05Z</time></trkpt>
<trkpt lat="43.0489550000" lon="0.2017420000"><ele>739</ele><time>2026-03-17T11:48:08Z</time></trkpt>
<trkpt lat="43.0489720000" lon="0.2017500000"><ele>739</ele><time>2026-03-17T11:48:10Z</time></trkpt>
<trkpt lat="43.0490000000" lon="0.2017320000"><ele>739</ele><time>2026-03-17T11:48:13Z</time></trkpt>
<trkpt lat="43.0490200000" lon="0.2017200000"><ele>739</ele><time>2026-03-17T11:48:15Z</time></trkpt>
<trkpt lat="43.0490420000" lon="0.2017120000"><ele>740</ele><time>2026-03-17T11:48:17Z</time></trkpt>
<trkpt lat="43.0490620000" lon="0.2017020000"><ele>740</ele><time>2026-03-17T11:48:20Z</time></trkpt>
<trkpt lat="43.0490870000" lon="0.2016920000"><ele>740</ele><time>2026-03-17T11:48:26Z</time></trkpt>
<trkpt lat="43.0491170000" lon="0.2016920000"><ele>740</ele><time>2026-03-17T11:48:28Z</time></trkpt>
<trkpt lat="43.0491370000" lon="0.2016920000"><ele>741</ele><time>2026-03-17T11:48:30Z</time></trkpt>
<trkpt lat="43.0491620000" lon="0.2016870000"><ele>741</ele><time>2026-03-17T11:48:32Z</time></trkpt>
<trkpt lat="43.0491870000" lon="0.2016770000"><ele>741</ele><time>2026-03-17T11:48:34Z</time></trkpt>
<trkpt lat="43.0492120000" lon="0.2016770000"><ele>741</ele><time>2026-03-17T11:48:36Z</time></trkpt>
<trkpt lat="43.0492370000" lon="0.2016770000"><ele>741</ele><time>2026-03-17T11:48:38Z</time></trkpt>
<trkpt lat="43.0492570000" lon="0.2016770000"><ele>741</ele><time>2026-03-17T11:48:40Z</time></trkpt>
<trkpt lat="43.0492820000" lon="0.2016850000"><ele>742</ele><time>2026-03-17T11:48:43Z</time></trkpt>
<trkpt lat="43.0493000000" lon="0.2016980000"><ele>742</ele><time>2026-03-17T11:48:45Z</time></trkpt>
<trkpt lat="43.0493200000" lon="0.2017100000"><ele>742</ele><time>2026-03-17T11:48:47Z</time></trkpt>
<trkpt lat="43.0493420000" lon="0.2017200000"><ele>742</ele><time>2026-03-17T11:48:49Z</time></trkpt>
<trkpt lat="43.0493700000" lon="0.2017200000"><ele>742</ele><time>2026-03-17T11:48:51Z</time></trkpt>
<trkpt lat="43.0493920000" lon="0.2017200000"><ele>742</ele><time>2026-03-17T11:48:53Z</time></trkpt>
<trkpt lat="43.0494170000" lon="0.2017320000"><ele>743</ele><time>2026-03-17T11:48:55Z</time></trkpt>
<trkpt lat="43.0494350000" lon="0.2017320000"><ele>743</ele><time>2026-03-17T11:48:57Z</time></trkpt>
<trkpt lat="43.0494600000" lon="0.2017320000"><ele>743</ele><time>2026-03-17T11:48:59Z</time></trkpt>
<trkpt lat="43.0494820000" lon="0.2017220000"><ele>743</ele><time>2026-03-17T11:49:00Z</time></trkpt>
<trkpt lat="43.0495020000" lon="0.2017230000"><ele>743</ele><time>2026-03-17T11:49:02Z</time></trkpt>
<trkpt lat="43.0495220000" lon="0.2017220000"><ele>743</ele><time>2026-03-17T11:49:04Z</time></trkpt>
<trkpt lat="43.0495400000" lon="0.2017220000"><ele>743</ele><time>2026-03-17T11:49:06Z</time></trkpt>
<trkpt lat="43.0495650000" lon="0.2017320000"><ele>743</ele><time>2026-03-17T11:49:08Z</time></trkpt>
<trkpt lat="43.0495950000" lon="0.2017270000"><ele>743</ele><time>2026-03-17T11:49:10Z</time></trkpt>
<trkpt lat="43.0496220000" lon="0.2017120000"><ele>744</ele><time>2026-03-17T11:49:12Z</time></trkpt>
<trkpt lat="43.0496420000" lon="0.2017020000"><ele>744</ele><time>2026-03-17T11:49:14Z</time></trkpt>
<trkpt lat="43.0496620000" lon="0.2017020000"><ele>744</ele><time>2026-03-17T11:49:16Z</time></trkpt>
<trkpt lat="43.0496800000" lon="0.2017020000"><ele>744</ele><time>2026-03-17T11:49:18Z</time></trkpt>
<trkpt lat="43.0497000000" lon="0.2017120000"><ele>745</ele><time>2026-03-17T11:49:20Z</time></trkpt>
<trkpt lat="43.0497270000" lon="0.2017150000"><ele>745</ele><time>2026-03-17T11:49:23Z</time></trkpt>
<trkpt lat="43.0497520000" lon="0.2017120000"><ele>745</ele><time>2026-03-17T11:49:26Z</time></trkpt>
<trkpt lat="43.0497750000" lon="0.2017020000"><ele>745</ele><time>2026-03-17T11:49:28Z</time></trkpt>
<trkpt lat="43.0498000000" lon="0.2016820000"><ele>746</ele><time>2026-03-17T11:49:30Z</time></trkpt>
<trkpt lat="43.0498220000" lon="0.2016770000"><ele>746</ele><time>2026-03-17T11:49:32Z</time></trkpt>
<trkpt lat="43.0498470000" lon="0.2016680000"><ele>746</ele><time>2026-03-17T11:49:34Z</time></trkpt>
<trkpt lat="43.0498720000" lon="0.2016570000"><ele>746</ele><time>2026-03-17T11:49:36Z</time></trkpt>
<trkpt lat="43.0498870000" lon="0.2016470000"><ele>746</ele><time>2026-03-17T11:49:38Z</time></trkpt>
<trkpt lat="43.0499120000" lon="0.2016430000"><ele>747</ele><time>2026-03-17T11:49:41Z</time></trkpt>
<trkpt lat="43.0499320000" lon="0.2016470000"><ele>747</ele><time>2026-03-17T11:49:43Z</time></trkpt>
<trkpt lat="43.0499550000" lon="0.2016300000"><ele>747</ele><time>2026-03-17T11:49:46Z</time></trkpt>
<trkpt lat="43.0499770000" lon="0.2016270000"><ele>747</ele><time>2026-03-17T11:49:48Z</time></trkpt>
<trkpt lat="43.0500020000" lon="0.2016220000"><ele>747</ele><time>2026-03-17T11:49:50Z</time></trkpt>
<trkpt lat="43.0500270000" lon="0.2016070000"><ele>747</ele><time>2026-03-17T11:49:53Z</time></trkpt>
<trkpt lat="43.0500520000" lon="0.2015920000"><ele>747</ele><time>2026-03-17T11:49:55Z</time></trkpt>
<trkpt lat="43.0500770000" lon="0.2015920000"><ele>747</ele><time>2026-03-17T11:49:57Z</time></trkpt>
<trkpt lat="43.0501000000" lon="0.2015820000"><ele>748</ele><time>2026-03-17T11:50:00Z</time></trkpt>
<trkpt lat="43.0501270000" lon="0.2015570000"><ele>748</ele><time>2026-03-17T11:50:03Z</time></trkpt>
<trkpt lat="43.0501470000" lon="0.2015380000"><ele>748</ele><time>2026-03-17T11:50:05Z</time></trkpt>
<trkpt lat="43.0501620000" lon="0.2015220000"><ele>749</ele><time>2026-03-17T11:50:07Z</time></trkpt>
<trkpt lat="43.0501770000" lon="0.2014900000"><ele>749</ele><time>2026-03-17T11:50:10Z</time></trkpt>
<trkpt lat="43.0501920000" lon="0.2014720000"><ele>749</ele><time>2026-03-17T11:50:12Z</time></trkpt>
<trkpt lat="43.0502120000" lon="0.2014470000"><ele>749</ele><time>2026-03-17T11:50:15Z</time></trkpt>
<trkpt lat="43.0502270000" lon="0.2014270000"><ele>749</ele><time>2026-03-17T11:50:17Z</time></trkpt>
<trkpt lat="43.0502400000" lon="0.2014120000"><ele>749</ele><time>2026-03-17T11:50:19Z</time></trkpt>
<trkpt lat="43.0502520000" lon="0.2013870000"><ele>749</ele><time>2026-03-17T11:50:21Z</time></trkpt>
<trkpt lat="43.0502700000" lon="0.2013670000"><ele>749</ele><time>2026-03-17T11:50:23Z</time></trkpt>
<trkpt lat="43.0502800000" lon="0.2013470000"><ele>750</ele><time>2026-03-17T11:50:25Z</time></trkpt>
<trkpt lat="43.0502880000" lon="0.2013170000"><ele>750</ele><time>2026-03-17T11:50:27Z</time></trkpt>
<trkpt lat="43.0503020000" lon="0.2012920000"><ele>750</ele><time>2026-03-17T11:50:29Z</time></trkpt>
<trkpt lat="43.0503120000" lon="0.2012700000"><ele>750</ele><time>2026-03-17T11:50:31Z</time></trkpt>
<trkpt lat="43.0503220000" lon="0.2012420000"><ele>750</ele><time>2026-03-17T11:50:33Z</time></trkpt>
<trkpt lat="43.0503220000" lon="0.2012070000"><ele>751</ele><time>2026-03-17T11:50:35Z</time></trkpt>
<trkpt lat="43.0503220000" lon="0.2011750000"><ele>751</ele><time>2026-03-17T11:50:37Z</time></trkpt>
<trkpt lat="43.0503200000" lon="0.2011470000"><ele>751</ele><time>2026-03-17T11:50:39Z</time></trkpt>
<trkpt lat="43.0503170000" lon="0.2011120000"><ele>751</ele><time>2026-03-17T11:50:42Z</time></trkpt>
<trkpt lat="43.0503270000" lon="0.2010820000"><ele>752</ele><time>2026-03-17T11:50:44Z</time></trkpt>
<trkpt lat="43.0503350000" lon="0.2010500000"><ele>752</ele><time>2026-03-17T11:50:46Z</time></trkpt>
<trkpt lat="43.0503370000" lon="0.2010120000"><ele>752</ele><time>2026-03-17T11:50:49Z</time></trkpt>
<trkpt lat="43.0503350000" lon="0.2009820000"><ele>752</ele><time>2026-03-17T11:50:51Z</time></trkpt>
<trkpt lat="43.0503370000" lon="0.2009520000"><ele>752</ele><time>2026-03-17T11:50:53Z</time></trkpt>
<trkpt lat="43.0503400000" lon="0.2009270000"><ele>752</ele><time>2026-03-17T11:50:55Z</time></trkpt>
<trkpt lat="43.0503420000" lon="0.2008900000"><ele>753</ele><time>2026-03-17T11:50:58Z</time></trkpt>
<trkpt lat="43.0503400000" lon="0.2008570000"><ele>753</ele><time>2026-03-17T11:51:00Z</time></trkpt>
<trkpt lat="43.0503370000" lon="0.2008230000"><ele>753</ele><time>2026-03-17T11:51:02Z</time></trkpt>
<trkpt lat="43.0503420000" lon="0.2008000000"><ele>753</ele><time>2026-03-17T11:51:04Z</time></trkpt>
<trkpt lat="43.0503400000" lon="0.2007750000"><ele>753</ele><time>2026-03-17T11:51:06Z</time></trkpt>
<trkpt lat="43.0503420000" lon="0.2007470000"><ele>753</ele><time>2026-03-17T11:51:08Z</time></trkpt>
<trkpt lat="43.0503400000" lon="0.2007150000"><ele>753</ele><time>2026-03-17T11:51:10Z</time></trkpt>
<trkpt lat="43.0503370000" lon="0.2006870000"><ele>753</ele><time>2026-03-17T11:51:12Z</time></trkpt>
<trkpt lat="43.0503420000" lon="0.2006570000"><ele>754</ele><time>2026-03-17T11:51:20Z</time></trkpt>
<trkpt lat="43.0503420000" lon="0.2006270000"><ele>754</ele><time>2026-03-17T11:51:22Z</time></trkpt>
<trkpt lat="43.0503420000" lon="0.2005920000"><ele>754</ele><time>2026-03-17T11:51:24Z</time></trkpt>
<trkpt lat="43.0503370000" lon="0.2005580000"><ele>754</ele><time>2026-03-17T11:51:26Z</time></trkpt>
<trkpt lat="43.0503350000" lon="0.2005270000"><ele>755</ele><time>2026-03-17T11:51:28Z</time></trkpt>
<trkpt lat="43.0503350000" lon="0.2005000000"><ele>755</ele><time>2026-03-17T11:51:30Z</time></trkpt>
<trkpt lat="43.0503350000" lon="0.2004730000"><ele>755</ele><time>2026-03-17T11:51:32Z</time></trkpt>
<trkpt lat="43.0503350000" lon="0.2004370000"><ele>755</ele><time>2026-03-17T11:51:35Z</time></trkpt>
<trkpt lat="43.0503250000" lon="0.2004070000"><ele>755</ele><time>2026-03-17T11:51:37Z</time></trkpt>
<trkpt lat="43.0503200000" lon="0.2003750000"><ele>755</ele><time>2026-03-17T11:51:39Z</time></trkpt>
<trkpt lat="43.0503220000" lon="0.2003450000"><ele>755</ele><time>2026-03-17T11:51:41Z</time></trkpt>
<trkpt lat="43.0503270000" lon="0.2003170000"><ele>756</ele><time>2026-03-17T11:51:43Z</time></trkpt>
<trkpt lat="43.0503300000" lon="0.2002920000"><ele>756</ele><time>2026-03-17T11:51:45Z</time></trkpt>
<trkpt lat="43.0503220000" lon="0.2002630000"><ele>756</ele><time>2026-03-17T11:51:47Z</time></trkpt>
<trkpt lat="43.0503170000" lon="0.2002350000"><ele>756</ele><time>2026-03-17T11:51:49Z</time></trkpt>
<trkpt lat="43.0503170000" lon="0.2002020000"><ele>756</ele><time>2026-03-17T11:51:51Z</time></trkpt>
<trkpt lat="43.0503200000" lon="0.2001720000"><ele>756</ele><time>2026-03-17T11:51:53Z</time></trkpt>
<trkpt lat="43.0503200000" lon="0.2001420000"><ele>756</ele><time>2026-03-17T11:51:55Z</time></trkpt>
<trkpt lat="43.0503220000" lon="0.2001130000"><ele>756</ele><time>2026-03-17T11:51:57Z</time></trkpt>
<trkpt lat="43.0503170000" lon="0.2000800000"><ele>757</ele><time>2026-03-17T11:51:59Z</time></trkpt>
<trkpt lat="43.0503170000" lon="0.2000420000"><ele>757</ele><time>2026-03-17T11:52:01Z</time></trkpt>
<trkpt lat="43.0503200000" lon="0.2000080000"><ele>757</ele><time>2026-03-17T11:52:03Z</time></trkpt>
<trkpt lat="43.0503250000" lon="0.1999780000"><ele>757</ele><time>2026-03-17T11:52:05Z</time></trkpt>
<trkpt lat="43.0503170000" lon="0.1999420000"><ele>758</ele><time>2026-03-17T11:52:08Z</time></trkpt>
<trkpt lat="43.0503120000" lon="0.1999150000"><ele>758</ele><time>2026-03-17T11:52:10Z</time></trkpt>
<trkpt lat="43.0503120000" lon="0.1998900000"><ele>758</ele><time>2026-03-17T11:52:12Z</time></trkpt>
<trkpt lat="43.0503150000" lon="0.1998620000"><ele>758</ele><time>2026-03-17T11:52:14Z</time></trkpt>
<trkpt lat="43.0503220000" lon="0.1998350000"><ele>758</ele><time>2026-03-17T11:52:16Z</time></trkpt>
<trkpt lat="43.0503250000" lon="0.1998050000"><ele>759</ele><time>2026-03-17T11:52:18Z</time></trkpt>
<trkpt lat="43.0503320000" lon="0.1997800000"><ele>759</ele><time>2026-03-17T11:52:20Z</time></trkpt>
<trkpt lat="43.0503370000" lon="0.1997520000"><ele>759</ele><time>2026-03-17T11:52:22Z</time></trkpt>
<trkpt lat="43.0503420000" lon="0.1997200000"><ele>759</ele><time>2026-03-17T11:52:24Z</time></trkpt>
<trkpt lat="43.0503450000" lon="0.1996870000"><ele>759</ele><time>2026-03-17T11:52:26Z</time></trkpt>
<trkpt lat="43.0503470000" lon="0.1996570000"><ele>759</ele><time>2026-03-17T11:52:28Z</time></trkpt>
<trkpt lat="43.0503450000" lon="0.1996220000"><ele>760</ele><time>2026-03-17T11:52:30Z</time></trkpt>
<trkpt lat="43.0503470000" lon="0.1995920000"><ele>760</ele><time>2026-03-17T11:52:32Z</time></trkpt>
<trkpt lat="43.0503520000" lon="0.1995670000"><ele>760</ele><time>2026-03-17T11:52:34Z</time></trkpt>
<trkpt lat="43.0503520000" lon="0.1995370000"><ele>760</ele><time>2026-03-17T11:52:37Z</time></trkpt>
<trkpt lat="43.0503620000" lon="0.1995120000"><ele>760</ele><time>2026-03-17T11:52:39Z</time></trkpt>
<trkpt lat="43.0503720000" lon="0.1994780000"><ele>760</ele><time>2026-03-17T11:52:41Z</time></trkpt>
<trkpt lat="43.0503870000" lon="0.1994520000"><ele>761</ele><time>2026-03-17T11:52:43Z</time></trkpt>
<trkpt lat="43.0503900000" lon="0.1994270000"><ele>761</ele><time>2026-03-17T11:52:45Z</time></trkpt>
<trkpt lat="43.0503920000" lon="0.1993970000"><ele>761</ele><time>2026-03-17T11:52:47Z</time></trkpt>
<trkpt lat="43.0503920000" lon="0.1993630000"><ele>761</ele><time>2026-03-17T11:52:49Z</time></trkpt>
<trkpt lat="43.0503920000" lon="0.1993300000"><ele>762</ele><time>2026-03-17T11:52:51Z</time></trkpt>
<trkpt lat="43.0503920000" lon="0.1992970000"><ele>762</ele><time>2026-03-17T11:52:53Z</time></trkpt>
<trkpt lat="43.0503920000" lon="0.1992720000"><ele>762</ele><time>2026-03-17T11:52:55Z</time></trkpt>
<trkpt lat="43.0503970000" lon="0.1992420000"><ele>762</ele><time>2026-03-17T11:52:57Z</time></trkpt>
<trkpt lat="43.0504070000" lon="0.1992170000"><ele>762</ele><time>2026-03-17T11:52:59Z</time></trkpt>
<trkpt lat="43.0504120000" lon="0.1991920000"><ele>762</ele><time>2026-03-17T11:53:01Z</time></trkpt>
<trkpt lat="43.0504170000" lon="0.1991670000"><ele>762</ele><time>2026-03-17T11:53:03Z</time></trkpt>
<trkpt lat="43.0504270000" lon="0.1991350000"><ele>763</ele><time>2026-03-17T11:53:06Z</time></trkpt>
<trkpt lat="43.0504400000" lon="0.1991120000"><ele>763</ele><time>2026-03-17T11:53:08Z</time></trkpt>
<trkpt lat="43.0504520000" lon="0.1990920000"><ele>763</ele><time>2026-03-17T11:53:10Z</time></trkpt>
<trkpt lat="43.0504570000" lon="0.1990620000"><ele>763</ele><time>2026-03-17T11:53:15Z</time></trkpt>
<trkpt lat="43.0504700000" lon="0.1990320000"><ele>764</ele><time>2026-03-17T11:53:18Z</time></trkpt>
<trkpt lat="43.0504970000" lon="0.1990300000"><ele>764</ele><time>2026-03-17T11:53:20Z</time></trkpt>
<trkpt lat="43.0505220000" lon="0.1990270000"><ele>764</ele><time>2026-03-17T11:53:22Z</time></trkpt>
<trkpt lat="43.0505470000" lon="0.1990370000"><ele>764</ele><time>2026-03-17T11:53:24Z</time></trkpt>
<trkpt lat="43.0505650000" lon="0.1990500000"><ele>764</ele><time>2026-03-17T11:53:26Z</time></trkpt>
<trkpt lat="43.0505830000" lon="0.1990620000"><ele>764</ele><time>2026-03-17T11:53:28Z</time></trkpt>
<trkpt lat="43.0506100000" lon="0.1990800000"><ele>765</ele><time>2026-03-17T11:53:30Z</time></trkpt>
<trkpt lat="43.0506320000" lon="0.1991000000"><ele>765</ele><time>2026-03-17T11:53:32Z</time></trkpt>
<trkpt lat="43.0506520000" lon="0.1991120000"><ele>765</ele><time>2026-03-17T11:53:34Z</time></trkpt>
<trkpt lat="43.0506770000" lon="0.1991200000"><ele>765</ele><time>2026-03-17T11:53:36Z</time></trkpt>
<trkpt lat="43.0506970000" lon="0.1991420000"><ele>765</ele><time>2026-03-17T11:53:38Z</time></trkpt>
<trkpt lat="43.0507120000" lon="0.1991620000"><ele>766</ele><time>2026-03-17T11:53:40Z</time></trkpt>
<trkpt lat="43.0507220000" lon="0.1991830000"><ele>766</ele><time>2026-03-17T11:53:42Z</time></trkpt>
<trkpt lat="43.0507300000" lon="0.1992170000"><ele>766</ele><time>2026-03-17T11:53:44Z</time></trkpt>
<trkpt lat="43.0507370000" lon="0.1992470000"><ele>766</ele><time>2026-03-17T11:53:46Z</time></trkpt>
<trkpt lat="43.0507470000" lon="0.1992720000"><ele>766</ele><time>2026-03-17T11:53:48Z</time></trkpt>
<trkpt lat="43.0507600000" lon="0.1992930000"><ele>766</ele><time>2026-03-17T11:53:50Z</time></trkpt>
<trkpt lat="43.0507770000" lon="0.1993120000"><ele>766</ele><time>2026-03-17T11:53:52Z</time></trkpt>
<trkpt lat="43.0507920000" lon="0.1993320000"><ele>766</ele><time>2026-03-17T11:53:54Z</time></trkpt>
<trkpt lat="43.0508070000" lon="0.1993470000"><ele>766</ele><time>2026-03-17T11:53:56Z</time></trkpt>
<trkpt lat="43.0508270000" lon="0.1993670000"><ele>767</ele><time>2026-03-17T11:53:59Z</time></trkpt>
<trkpt lat="43.0508470000" lon="0.1993800000"><ele>767</ele><time>2026-03-17T11:54:01Z</time></trkpt>
<trkpt lat="43.0508620000" lon="0.1993970000"><ele>767</ele><time>2026-03-17T11:54:03Z</time></trkpt>
<trkpt lat="43.0508750000" lon="0.1994170000"><ele>767</ele><time>2026-03-17T11:54:05Z</time></trkpt>
<trkpt lat="43.0508920000" lon="0.1994320000"><ele>767</ele><time>2026-03-17T11:54:07Z</time></trkpt>
<trkpt lat="43.0509170000" lon="0.1994370000"><ele>767</ele><time>2026-03-17T11:54:09Z</time></trkpt>
<trkpt lat="43.0509350000" lon="0.1994470000"><ele>768</ele><time>2026-03-17T11:54:11Z</time></trkpt>
<trkpt lat="43.0509570000" lon="0.1994620000"><ele>768</ele><time>2026-03-17T11:54:13Z</time></trkpt>
<trkpt lat="43.0509850000" lon="0.1994670000"><ele>768</ele><time>2026-03-17T11:54:15Z</time></trkpt>
<trkpt lat="43.0510070000" lon="0.1994720000"><ele>768</ele><time>2026-03-17T11:54:17Z</time></trkpt>
<trkpt lat="43.0510270000" lon="0.1994750000"><ele>768</ele><time>2026-03-17T11:54:19Z</time></trkpt>
<trkpt lat="43.0510520000" lon="0.1994770000"><ele>768</ele><time>2026-03-17T11:54:21Z</time></trkpt>
<trkpt lat="43.0510770000" lon="0.1994870000"><ele>768</ele><time>2026-03-17T11:54:23Z</time></trkpt>
<trkpt lat="43.0511000000" lon="0.1995000000"><ele>768</ele><time>2026-03-17T11:54:25Z</time></trkpt>
<trkpt lat="43.0511170000" lon="0.1995170000"><ele>768</ele><time>2026-03-17T11:54:28Z</time></trkpt>
<trkpt lat="43.0511300000" lon="0.1995370000"><ele>769</ele><time>2026-03-17T11:54:30Z</time></trkpt>
<trkpt lat="43.0511550000" lon="0.1995350000"><ele>769</ele><time>2026-03-17T11:54:33Z</time></trkpt>
<trkpt lat="43.0511720000" lon="0.1995370000"><ele>769</ele><time>2026-03-17T11:54:35Z</time></trkpt>
<trkpt lat="43.0511970000" lon="0.1995500000"><ele>769</ele><time>2026-03-17T11:54:37Z</time></trkpt>
<trkpt lat="43.0512270000" lon="0.1995520000"><ele>769</ele><time>2026-03-17T11:54:39Z</time></trkpt>
<trkpt lat="43.0512550000" lon="0.1995520000"><ele>770</ele><time>2026-03-17T11:54:41Z</time></trkpt>
<trkpt lat="43.0512770000" lon="0.1995470000"><ele>770</ele><time>2026-03-17T11:54:43Z</time></trkpt>
<trkpt lat="43.0512970000" lon="0.1995450000"><ele>770</ele><time>2026-03-17T11:54:45Z</time></trkpt>
<trkpt lat="43.0513170000" lon="0.1995500000"><ele>770</ele><time>2026-03-17T11:54:47Z</time></trkpt>
<trkpt lat="43.0513420000" lon="0.1995500000"><ele>771</ele><time>2026-03-17T11:54:49Z</time></trkpt>
<trkpt lat="43.0513620000" lon="0.1995520000"><ele>771</ele><time>2026-03-17T11:54:51Z</time></trkpt>
<trkpt lat="43.0513820000" lon="0.1995680000"><ele>771</ele><time>2026-03-17T11:54:53Z</time></trkpt>
<trkpt lat="43.0514020000" lon="0.1995850000"><ele>771</ele><time>2026-03-17T11:54:55Z</time></trkpt>
<trkpt lat="43.0514220000" lon="0.1996050000"><ele>771</ele><time>2026-03-17T11:54:57Z</time></trkpt>
<trkpt lat="43.0514450000" lon="0.1996220000"><ele>771</ele><time>2026-03-17T11:55:00Z</time></trkpt>
<trkpt lat="43.0514620000" lon="0.1996420000"><ele>772</ele><time>2026-03-17T11:55:02Z</time></trkpt>
<trkpt lat="43.0514850000" lon="0.1996600000"><ele>772</ele><time>2026-03-17T11:55:04Z</time></trkpt>
<trkpt lat="43.0515070000" lon="0.1996720000"><ele>772</ele><time>2026-03-17T11:55:06Z</time></trkpt>
<trkpt lat="43.0515270000" lon="0.1996870000"><ele>772</ele><time>2026-03-17T11:55:08Z</time></trkpt>
<trkpt lat="43.0515520000" lon="0.1996980000"><ele>772</ele><time>2026-03-17T11:55:10Z</time></trkpt>
<trkpt lat="43.0515750000" lon="0.1997250000"><ele>773</ele><time>2026-03-17T11:55:13Z</time></trkpt>
<trkpt lat="43.0515870000" lon="0.1997520000"><ele>773</ele><time>2026-03-17T11:55:15Z</time></trkpt>
<trkpt lat="43.0516020000" lon="0.1997720000"><ele>773</ele><time>2026-03-17T11:55:17Z</time></trkpt>
<trkpt lat="43.0516220000" lon="0.1997920000"><ele>773</ele><time>2026-03-17T11:55:19Z</time></trkpt>
<trkpt lat="43.0516400000" lon="0.1998070000"><ele>773</ele><time>2026-03-17T11:55:21Z</time></trkpt>
<trkpt lat="43.0516600000" lon="0.1998170000"><ele>773</ele><time>2026-03-17T11:55:23Z</time></trkpt>
<trkpt lat="43.0516770000" lon="0.1998380000"><ele>773</ele><time>2026-03-17T11:55:26Z</time></trkpt>
<trkpt lat="43.0516970000" lon="0.1998470000"><ele>773</ele><time>2026-03-17T11:55:28Z</time></trkpt>
<trkpt lat="43.0517150000" lon="0.1998630000"><ele>774</ele><time>2026-03-17T11:55:31Z</time></trkpt>
<trkpt lat="43.0517320000" lon="0.1998620000"><ele>774</ele><time>2026-03-17T11:55:34Z</time></trkpt>
<trkpt lat="43.0517570000" lon="0.1998600000"><ele>774</ele><time>2026-03-17T11:55:36Z</time></trkpt>
<trkpt lat="43.0517820000" lon="0.1998570000"><ele>774</ele><time>2026-03-17T11:55:39Z</time></trkpt>
<trkpt lat="43.0518050000" lon="0.1998530000"><ele>774</ele><time>2026-03-17T11:55:41Z</time></trkpt>
<trkpt lat="43.0518300000" lon="0.1998530000"><ele>774</ele><time>2026-03-17T11:55:43Z</time></trkpt>
<trkpt lat="43.0518520000" lon="0.1998520000"><ele>775</ele><time>2026-03-17T11:55:45Z</time></trkpt>
<trkpt lat="43.0518720000" lon="0.1998430000"><ele>775</ele><time>2026-03-17T11:55:47Z</time></trkpt>
<trkpt lat="43.0518970000" lon="0.1998320000"><ele>775</ele><time>2026-03-17T11:55:49Z</time></trkpt>
<trkpt lat="43.0519170000" lon="0.1998170000"><ele>775</ele><time>2026-03-17T11:55:51Z</time></trkpt>
<trkpt lat="43.0519370000" lon="0.1998000000"><ele>775</ele><time>2026-03-17T11:55:53Z</time></trkpt>
<trkpt lat="43.0519480000" lon="0.1997820000"><ele>776</ele><time>2026-03-17T11:55:55Z</time></trkpt>
<trkpt lat="43.0519700000" lon="0.1997670000"><ele>776</ele><time>2026-03-17T11:55:57Z</time></trkpt>
<trkpt lat="43.0519950000" lon="0.1997570000"><ele>776</ele><time>2026-03-17T11:56:00Z</time></trkpt>
<trkpt lat="43.0520120000" lon="0.1997500000"><ele>776</ele><time>2026-03-17T11:56:02Z</time></trkpt>
<trkpt lat="43.0520320000" lon="0.1997330000"><ele>776</ele><time>2026-03-17T11:56:04Z</time></trkpt>
<trkpt lat="43.0520520000" lon="0.1997200000"><ele>776</ele><time>2026-03-17T11:56:06Z</time></trkpt>
<trkpt lat="43.0520720000" lon="0.1997070000"><ele>776</ele><time>2026-03-17T11:56:08Z</time></trkpt>
<trkpt lat="43.0520900000" lon="0.1996970000"><ele>777</ele><time>2026-03-17T11:56:10Z</time></trkpt>
<trkpt lat="43.0521070000" lon="0.1996870000"><ele>777</ele><time>2026-03-17T11:56:12Z</time></trkpt>
<trkpt lat="43.0521220000" lon="0.1996720000"><ele>777</ele><time>2026-03-17T11:56:14Z</time></trkpt>
<trkpt lat="43.0521400000" lon="0.1996600000"><ele>777</ele><time>2026-03-17T11:56:16Z</time></trkpt>
<trkpt lat="43.0521600000" lon="0.1996420000"><ele>777</ele><time>2026-03-17T11:56:18Z</time></trkpt>
<trkpt lat="43.0521730000" lon="0.1996220000"><ele>778</ele><time>2026-03-17T11:56:20Z</time></trkpt>
<trkpt lat="43.0521920000" lon="0.1996020000"><ele>778</ele><time>2026-03-17T11:56:22Z</time></trkpt>
<trkpt lat="43.0522070000" lon="0.1995850000"><ele>778</ele><time>2026-03-17T11:56:24Z</time></trkpt>
<trkpt lat="43.0522220000" lon="0.1995620000"><ele>778</ele><time>2026-03-17T11:56:26Z</time></trkpt>
<trkpt lat="43.0522370000" lon="0.1995420000"><ele>778</ele><time>2026-03-17T11:56:28Z</time></trkpt>
<trkpt lat="43.0522520000" lon="0.1995220000"><ele>779</ele><time>2026-03-17T11:56:30Z</time></trkpt>
<trkpt lat="43.0522700000" lon="0.1995120000"><ele>779</ele><time>2026-03-17T11:56:32Z</time></trkpt>
<trkpt lat="43.0522920000" lon="0.1994970000"><ele>779</ele><time>2026-03-17T11:56:34Z</time></trkpt>
<trkpt lat="43.0523050000" lon="0.1994620000"><ele>779</ele><time>2026-03-17T11:56:36Z</time></trkpt>
<trkpt lat="43.0523120000" lon="0.1994280000"><ele>780</ele><time>2026-03-17T11:56:38Z</time></trkpt>
<trkpt lat="43.0523270000" lon="0.1993970000"><ele>780</ele><time>2026-03-17T11:56:41Z</time></trkpt>
<trkpt lat="43.0523420000" lon="0.1993720000"><ele>780</ele><time>2026-03-17T11:56:43Z</time></trkpt>
<trkpt lat="43.0523520000" lon="0.1993500000"><ele>780</ele><time>2026-03-17T11:56:45Z</time></trkpt>
<trkpt lat="43.0523750000" lon="0.1993420000"><ele>780</ele><time>2026-03-17T11:56:47Z</time></trkpt>
<trkpt lat="43.0523570000" lon="0.1993270000"><ele>781</ele><time>2026-03-17T11:56:50Z</time></trkpt>
<trkpt lat="43.0523520000" lon="0.1993020000"><ele>781</ele><time>2026-03-17T11:56:52Z</time></trkpt>
<trkpt lat="43.0523280000" lon="0.1993220000"><ele>780</ele><time>2026-03-17T12:00:35Z</time></trkpt>
<trkpt lat="43.0523270000" lon="0.1992880000"><ele>780</ele><time>2026-03-17T12:00:55Z</time></trkpt>
<trkpt lat="43.0523350000" lon="0.1992600000"><ele>780</ele><time>2026-03-17T12:00:57Z</time></trkpt>
<trkpt lat="43.0523420000" lon="0.1992320000"><ele>780</ele><time>2026-03-17T12:00:59Z</time></trkpt>
<trkpt lat="43.0523570000" lon="0.1992070000"><ele>781</ele><time>2026-03-17T12:01:01Z</time></trkpt>
<trkpt lat="43.0523670000" lon="0.1991820000"><ele>781</ele><time>2026-03-17T12:01:03Z</time></trkpt>
<trkpt lat="43.0523820000" lon="0.1991670000"><ele>781</ele><time>2026-03-17T12:01:06Z</time></trkpt>
<trkpt lat="43.0523870000" lon="0.1991420000"><ele>781</ele><time>2026-03-17T12:01:08Z</time></trkpt>
<trkpt lat="43.0524020000" lon="0.1991120000"><ele>781</ele><time>2026-03-17T12:01:12Z</time></trkpt>
<trkpt lat="43.0524200000" lon="0.1990870000"><ele>782</ele><time>2026-03-17T12:01:14Z</time></trkpt>
<trkpt lat="43.0524370000" lon="0.1990620000"><ele>782</ele><time>2026-03-17T12:01:16Z</time></trkpt>
<trkpt lat="43.0524500000" lon="0.1990420000"><ele>782</ele><time>2026-03-17T12:01:18Z</time></trkpt>
<trkpt lat="43.0524800000" lon="0.1990370000"><ele>783</ele><time>2026-03-17T12:01:59Z</time></trkpt>
<trkpt lat="43.0525070000" lon="0.1990080000"><ele>783</ele><time>2026-03-17T12:02:01Z</time></trkpt>
<trkpt lat="43.0525270000" lon="0.1989770000"><ele>783</ele><time>2026-03-17T12:02:03Z</time></trkpt>
<trkpt lat="43.0525450000" lon="0.1989450000"><ele>783</ele><time>2026-03-17T12:02:05Z</time></trkpt>
<trkpt lat="43.0525500000" lon="0.1989070000"><ele>783</ele><time>2026-03-17T12:02:07Z</time></trkpt>
<trkpt lat="43.0525520000" lon="0.1988670000"><ele>783</ele><time>2026-03-17T12:02:09Z</time></trkpt>
<trkpt lat="43.0525570000" lon="0.1988270000"><ele>784</ele><time>2026-03-17T12:02:11Z</time></trkpt>
<trkpt lat="43.0525620000" lon="0.1987950000"><ele>784</ele><time>2026-03-17T12:02:13Z</time></trkpt>
<trkpt lat="43.0525700000" lon="0.1987670000"><ele>784</ele><time>2026-03-17T12:02:15Z</time></trkpt>
<trkpt lat="43.0525720000" lon="0.1987320000"><ele>784</ele><time>2026-03-17T12:02:17Z</time></trkpt>
<trkpt lat="43.0525850000" lon="0.1987020000"><ele>784</ele><time>2026-03-17T12:02:19Z</time></trkpt>
<trkpt lat="43.0525920000" lon="0.1986700000"><ele>784</ele><time>2026-03-17T12:02:21Z</time></trkpt>
<trkpt lat="43.0525970000" lon="0.1986420000"><ele>785</ele><time>2026-03-17T12:02:23Z</time></trkpt>
<trkpt lat="43.0526020000" lon="0.1986070000"><ele>785</ele><time>2026-03-17T12:02:25Z</time></trkpt>
<trkpt lat="43.0526020000" lon="0.1985750000"><ele>785</ele><time>2026-03-17T12:02:27Z</time></trkpt>
<trkpt lat="43.0526120000" lon="0.1985470000"><ele>785</ele><time>2026-03-17T12:02:29Z</time></trkpt>
<trkpt lat="43.0526220000" lon="0.1985220000"><ele>785</ele><time>2026-03-17T12:02:31Z</time></trkpt>
<trkpt lat="43.0526320000" lon="0.1985000000"><ele>786</ele><time>2026-03-17T12:02:33Z</time></trkpt>
<trkpt lat="43.0526380000" lon="0.1984720000"><ele>786</ele><time>2026-03-17T12:02:35Z</time></trkpt>
<trkpt lat="43.0526450000" lon="0.1984470000"><ele>786</ele><time>2026-03-17T12:02:37Z</time></trkpt>
<trkpt lat="43.0526470000" lon="0.1984170000"><ele>786</ele><time>2026-03-17T12:02:39Z</time></trkpt>
<trkpt lat="43.0526500000" lon="0.1983820000"><ele>786</ele><time>2026-03-17T12:02:41Z</time></trkpt>
<trkpt lat="43.0526520000" lon="0.1983520000"><ele>786</ele><time>2026-03-17T12:02:43Z</time></trkpt>
<trkpt lat="43.0526570000" lon="0.1983220000"><ele>787</ele><time>2026-03-17T12:02:45Z</time></trkpt>
<trkpt lat="43.0526620000" lon="0.1982920000"><ele>787</ele><time>2026-03-17T12:02:47Z</time></trkpt>
<trkpt lat="43.0526700000" lon="0.1982620000"><ele>787</ele><time>2026-03-17T12:02:49Z</time></trkpt>
<trkpt lat="43.0526720000" lon="0.1982320000"><ele>787</ele><time>2026-03-17T12:02:51Z</time></trkpt>
<trkpt lat="43.0526670000" lon="0.1981970000"><ele>788</ele><time>2026-03-17T12:02:53Z</time></trkpt>
<trkpt lat="43.0526670000" lon="0.1981670000"><ele>788</ele><time>2026-03-17T12:02:55Z</time></trkpt>
<trkpt lat="43.0526670000" lon="0.1981400000"><ele>788</ele><time>2026-03-17T12:02:57Z</time></trkpt>
<trkpt lat="43.0526700000" lon="0.1981100000"><ele>788</ele><time>2026-03-17T12:02:59Z</time></trkpt>
<trkpt lat="43.0526720000" lon="0.1980820000"><ele>789</ele><time>2026-03-17T12:03:01Z</time></trkpt>
<trkpt lat="43.0526770000" lon="0.1980550000"><ele>789</ele><time>2026-03-17T12:03:03Z</time></trkpt>
<trkpt lat="43.0526820000" lon="0.1980270000"><ele>789</ele><time>2026-03-17T12:03:05Z</time></trkpt>
<trkpt lat="43.0526850000" lon="0.1979970000"><ele>789</ele><time>2026-03-17T12:03:07Z</time></trkpt>
<trkpt lat="43.0526850000" lon="0.1979650000"><ele>790</ele><time>2026-03-17T12:03:09Z</time></trkpt>
<trkpt lat="43.0526970000" lon="0.1979420000"><ele>790</ele><time>2026-03-17T12:03:12Z</time></trkpt>
<trkpt lat="43.0527070000" lon="0.1978970000"><ele>790</ele><time>2026-03-17T12:03:15Z</time></trkpt>
<trkpt lat="43.0527070000" lon="0.1978600000"><ele>790</ele><time>2026-03-17T12:03:17Z</time></trkpt>
<trkpt lat="43.0527120000" lon="0.1978270000"><ele>790</ele><time>2026-03-17T12:03:19Z</time></trkpt>
<trkpt lat="43.0527170000" lon="0.1977880000"><ele>791</ele><time>2026-03-17T12:03:21Z</time></trkpt>
<trkpt lat="43.0527250000" lon="0.1977500000"><ele>791</ele><time>2026-03-17T12:03:23Z</time></trkpt>
<trkpt lat="43.0527150000" lon="0.1977170000"><ele>791</ele><time>2026-03-17T12:03:25Z</time></trkpt>
<trkpt lat="43.0527220000" lon="0.1976850000"><ele>791</ele><time>2026-03-17T12:03:29Z</time></trkpt>
<trkpt lat="43.0527350000" lon="0.1976620000"><ele>792</ele><time>2026-03-17T12:03:31Z</time></trkpt>
<trkpt lat="43.0527420000" lon="0.1976370000"><ele>792</ele><time>2026-03-17T12:03:33Z</time></trkpt>
<trkpt lat="43.0527500000" lon="0.1976120000"><ele>792</ele><time>2026-03-17T12:03:35Z</time></trkpt>
<trkpt lat="43.0527500000" lon="0.1975820000"><ele>792</ele><time>2026-03-17T12:03:37Z</time></trkpt>
<trkpt lat="43.0527520000" lon="0.1975500000"><ele>792</ele><time>2026-03-17T12:03:39Z</time></trkpt>
<trkpt lat="43.0527570000" lon="0.1975250000"><ele>793</ele><time>2026-03-17T12:03:41Z</time></trkpt>
<trkpt lat="43.0527620000" lon="0.1974870000"><ele>793</ele><time>2026-03-17T12:03:44Z</time></trkpt>
<trkpt lat="43.0527750000" lon="0.1974570000"><ele>793</ele><time>2026-03-17T12:03:47Z</time></trkpt>
<trkpt lat="43.0527770000" lon="0.1974320000"><ele>794</ele><time>2026-03-17T12:03:49Z</time></trkpt>
<trkpt lat="43.0527850000" lon="0.1974070000"><ele>794</ele><time>2026-03-17T12:03:51Z</time></trkpt>
<trkpt lat="43.0527780000" lon="0.1973720000"><ele>794</ele><time>2026-03-17T12:03:53Z</time></trkpt>
<trkpt lat="43.0527770000" lon="0.1973370000"><ele>794</ele><time>2026-03-17T12:03:55Z</time></trkpt>
<trkpt lat="43.0527770000" lon="0.1973070000"><ele>794</ele><time>2026-03-17T12:03:57Z</time></trkpt>
<trkpt lat="43.0527820000" lon="0.1972800000"><ele>795</ele><time>2026-03-17T12:03:59Z</time></trkpt>
<trkpt lat="43.0527820000" lon="0.1972520000"><ele>795</ele><time>2026-03-17T12:04:01Z</time></trkpt>
<trkpt lat="43.0527850000" lon="0.1972220000"><ele>795</ele><time>2026-03-17T12:04:03Z</time></trkpt>
<trkpt lat="43.0527850000" lon="0.1971870000"><ele>795</ele><time>2026-03-17T12:04:05Z</time></trkpt>
<trkpt lat="43.0527820000" lon="0.1971520000"><ele>795</ele><time>2026-03-17T12:04:07Z</time></trkpt>
<trkpt lat="43.0527750000" lon="0.1971180000"><ele>796</ele><time>2026-03-17T12:04:09Z</time></trkpt>
<trkpt lat="43.0527820000" lon="0.1970880000"><ele>796</ele><time>2026-03-17T12:04:11Z</time></trkpt>
<trkpt lat="43.0527820000" lon="0.1970570000"><ele>796</ele><time>2026-03-17T12:04:13Z</time></trkpt>
<trkpt lat="43.0527820000" lon="0.1970300000"><ele>796</ele><time>2026-03-17T12:04:15Z</time></trkpt>
<trkpt lat="43.0527870000" lon="0.1970020000"><ele>796</ele><time>2026-03-17T12:04:17Z</time></trkpt>
<trkpt lat="43.0527920000" lon="0.1969720000"><ele>796</ele><time>2026-03-17T12:04:20Z</time></trkpt>
<trkpt lat="43.0528070000" lon="0.1969470000"><ele>797</ele><time>2026-03-17T12:04:23Z</time></trkpt>
<trkpt lat="43.0528250000" lon="0.1969170000"><ele>797</ele><time>2026-03-17T12:04:27Z</time></trkpt>
<trkpt lat="43.0528450000" lon="0.1968920000"><ele>797</ele><time>2026-03-17T12:04:29Z</time></trkpt>
<trkpt lat="43.0528550000" lon="0.1968680000"><ele>797</ele><time>2026-03-17T12:04:31Z</time></trkpt>
<trkpt lat="43.0528570000" lon="0.1968320000"><ele>797</ele><time>2026-03-17T12:04:33Z</time></trkpt>
<trkpt lat="43.0528620000" lon="0.1967930000"><ele>798</ele><time>2026-03-17T12:04:35Z</time></trkpt>
<trkpt lat="43.0528630000" lon="0.1967550000"><ele>798</ele><time>2026-03-17T12:04:37Z</time></trkpt>
<trkpt lat="43.0528600000" lon="0.1967150000"><ele>798</ele><time>2026-03-17T12:04:39Z</time></trkpt>
<trkpt lat="43.0528520000" lon="0.1966780000"><ele>798</ele><time>2026-03-17T12:04:41Z</time></trkpt>
<trkpt lat="43.0528600000" lon="0.1966470000"><ele>799</ele><time>2026-03-17T12:04:43Z</time></trkpt>
<trkpt lat="43.0528620000" lon="0.1966220000"><ele>799</ele><time>2026-03-17T12:04:45Z</time></trkpt>
<trkpt lat="43.0528720000" lon="0.1965870000"><ele>799</ele><time>2026-03-17T12:04:48Z</time></trkpt>
<trkpt lat="43.0528820000" lon="0.1965550000"><ele>799</ele><time>2026-03-17T12:04:50Z</time></trkpt>
<trkpt lat="43.0528920000" lon="0.1965320000"><ele>799</ele><time>2026-03-17T12:04:52Z</time></trkpt>
<trkpt lat="43.0528970000" lon="0.1965070000"><ele>799</ele><time>2026-03-17T12:04:54Z</time></trkpt>
<trkpt lat="43.0529020000" lon="0.1964750000"><ele>800</ele><time>2026-03-17T12:04:56Z</time></trkpt>
<trkpt lat="43.0529120000" lon="0.1964420000"><ele>800</ele><time>2026-03-17T12:04:58Z</time></trkpt>
<trkpt lat="43.0529220000" lon="0.1964200000"><ele>800</ele><time>2026-03-17T12:05:00Z</time></trkpt>
<trkpt lat="43.0529370000" lon="0.1964020000"><ele>800</ele><time>2026-03-17T12:05:02Z</time></trkpt>
<trkpt lat="43.0529420000" lon="0.1963720000"><ele>800</ele><time>2026-03-17T12:05:05Z</time></trkpt>
<trkpt lat="43.0529570000" lon="0.1963450000"><ele>801</ele><time>2026-03-17T12:05:08Z</time></trkpt>
<trkpt lat="43.0529770000" lon="0.1963220000"><ele>801</ele><time>2026-03-17T12:05:10Z</time></trkpt>
<trkpt lat="43.0529920000" lon="0.1963020000"><ele>801</ele><time>2026-03-17T12:05:12Z</time></trkpt>
<trkpt lat="43.0530170000" lon="0.1962800000"><ele>801</ele><time>2026-03-17T12:05:14Z</time></trkpt>
<trkpt lat="43.0530400000" lon="0.1962620000"><ele>801</ele><time>2026-03-17T12:05:16Z</time></trkpt>
<trkpt lat="43.0530550000" lon="0.1962430000"><ele>802</ele><time>2026-03-17T12:05:17Z</time></trkpt>
<trkpt lat="43.0530800000" lon="0.1962320000"><ele>802</ele><time>2026-03-17T12:05:19Z</time></trkpt>
<trkpt lat="43.0531000000" lon="0.1962200000"><ele>802</ele><time>2026-03-17T12:05:21Z</time></trkpt>
<trkpt lat="43.0531250000" lon="0.1962170000"><ele>802</ele><time>2026-03-17T12:05:23Z</time></trkpt>
<trkpt lat="43.0531500000" lon="0.1962170000"><ele>802</ele><time>2026-03-17T12:05:25Z</time></trkpt>
<trkpt lat="43.0531720000" lon="0.1962170000"><ele>803</ele><time>2026-03-17T12:05:27Z</time></trkpt>
<trkpt lat="43.0531970000" lon="0.1962220000"><ele>803</ele><time>2026-03-17T12:05:29Z</time></trkpt>
<trkpt lat="43.0532170000" lon="0.1962320000"><ele>803</ele><time>2026-03-17T12:05:31Z</time></trkpt>
<trkpt lat="43.0532420000" lon="0.1962370000"><ele>803</ele><time>2026-03-17T12:05:33Z</time></trkpt>
<trkpt lat="43.0532670000" lon="0.1962470000"><ele>803</ele><time>2026-03-17T12:05:35Z</time></trkpt>
<trkpt lat="43.0533000000" lon="0.1962620000"><ele>803</ele><time>2026-03-17T12:05:37Z</time></trkpt>
<trkpt lat="43.0533170000" lon="0.1962920000"><ele>804</ele><time>2026-03-17T12:05:39Z</time></trkpt>
<trkpt lat="43.0533320000" lon="0.1963170000"><ele>804</ele><time>2026-03-17T12:05:41Z</time></trkpt>
<trkpt lat="43.0533450000" lon="0.1963350000"><ele>804</ele><time>2026-03-17T12:05:42Z</time></trkpt>
<trkpt lat="43.0533620000" lon="0.1963520000"><ele>804</ele><time>2026-03-17T12:05:44Z</time></trkpt>
<trkpt lat="43.0533850000" lon="0.1963620000"><ele>804</ele><time>2026-03-17T12:05:46Z</time></trkpt>
<trkpt lat="43.0534070000" lon="0.1963680000"><ele>804</ele><time>2026-03-17T12:05:48Z</time></trkpt>
<trkpt lat="43.0534270000" lon="0.1963780000"><ele>805</ele><time>2026-03-17T12:05:50Z</time></trkpt>
<trkpt lat="43.0534470000" lon="0.1963820000"><ele>805</ele><time>2026-03-17T12:05:52Z</time></trkpt>
<trkpt lat="43.0534680000" lon="0.1963920000"><ele>805</ele><time>2026-03-17T12:05:54Z</time></trkpt>
<trkpt lat="43.0534920000" lon="0.1963970000"><ele>805</ele><time>2026-03-17T12:05:56Z</time></trkpt>
<trkpt lat="43.0535200000" lon="0.1964030000"><ele>805</ele><time>2026-03-17T12:05:58Z</time></trkpt>
<trkpt lat="43.0535380000" lon="0.1964080000"><ele>805</ele><time>2026-03-17T12:06:00Z</time></trkpt>
<trkpt lat="43.0535600000" lon="0.1964220000"><ele>806</ele><time>2026-03-17T12:06:03Z</time></trkpt>
<trkpt lat="43.0535820000" lon="0.1964320000"><ele>806</ele><time>2026-03-17T12:06:06Z</time></trkpt>
<trkpt lat="43.0536050000" lon="0.1964420000"><ele>806</ele><time>2026-03-17T12:06:08Z</time></trkpt>
<trkpt lat="43.0536220000" lon="0.1964450000"><ele>806</ele><time>2026-03-17T12:06:10Z</time></trkpt>
<trkpt lat="43.0536400000" lon="0.1964620000"><ele>807</ele><time>2026-03-17T12:06:12Z</time></trkpt>
<trkpt lat="43.0536600000" lon="0.1964720000"><ele>807</ele><time>2026-03-17T12:06:14Z</time></trkpt>
<trkpt lat="43.0536820000" lon="0.1964970000"><ele>807</ele><time>2026-03-17T12:06:16Z</time></trkpt>
<trkpt lat="43.0537070000" lon="0.1965080000"><ele>807</ele><time>2026-03-17T12:06:18Z</time></trkpt>
<trkpt lat="43.0537250000" lon="0.1965220000"><ele>807</ele><time>2026-03-17T12:06:20Z</time></trkpt>
<trkpt lat="43.0537420000" lon="0.1965320000"><ele>807</ele><time>2026-03-17T12:06:24Z</time></trkpt>
<trkpt lat="43.0537700000" lon="0.1965380000"><ele>808</ele><time>2026-03-17T12:06:43Z</time></trkpt>
<trkpt lat="43.0538020000" lon="0.1965320000"><ele>808</ele><time>2026-03-17T12:06:45Z</time></trkpt>
<trkpt lat="43.0538350000" lon="0.1965230000"><ele>808</ele><time>2026-03-17T12:06:47Z</time></trkpt>
<trkpt lat="43.0538600000" lon="0.1965270000"><ele>808</ele><time>2026-03-17T12:06:49Z</time></trkpt>
<trkpt lat="43.0538820000" lon="0.1965220000"><ele>808</ele><time>2026-03-17T12:06:51Z</time></trkpt>
<trkpt lat="43.0539020000" lon="0.1965120000"><ele>808</ele><time>2026-03-17T12:06:53Z</time></trkpt>
<trkpt lat="43.0539220000" lon="0.1964950000"><ele>808</ele><time>2026-03-17T12:06:55Z</time></trkpt>
<trkpt lat="43.0539370000" lon="0.1964720000"><ele>808</ele><time>2026-03-17T12:06:57Z</time></trkpt>
<trkpt lat="43.0539520000" lon="0.1964520000"><ele>809</ele><time>2026-03-17T12:06:59Z</time></trkpt>
<trkpt lat="43.0539720000" lon="0.1964400000"><ele>809</ele><time>2026-03-17T12:07:01Z</time></trkpt>
<trkpt lat="43.0539970000" lon="0.1964280000"><ele>809</ele><time>2026-03-17T12:07:03Z</time></trkpt>
<trkpt lat="43.0540220000" lon="0.1964200000"><ele>809</ele><time>2026-03-17T12:07:05Z</time></trkpt>
<trkpt lat="43.0540450000" lon="0.1964020000"><ele>809</ele><time>2026-03-17T12:07:07Z</time></trkpt>
<trkpt lat="43.0540670000" lon="0.1963900000"><ele>809</ele><time>2026-03-17T12:07:09Z</time></trkpt>
<trkpt lat="43.0540900000" lon="0.1963770000"><ele>809</ele><time>2026-03-17T12:07:11Z</time></trkpt>
<trkpt lat="43.0541170000" lon="0.1963570000"><ele>809</ele><time>2026-03-17T12:07:14Z</time></trkpt>
<trkpt lat="43.0541370000" lon="0.1963220000"><ele>809</ele><time>2026-03-17T12:07:16Z</time></trkpt>
<trkpt lat="43.0541570000" lon="0.1963020000"><ele>809</ele><time>2026-03-17T12:07:18Z</time></trkpt>
<trkpt lat="43.0541820000" lon="0.1962820000"><ele>809</ele><time>2026-03-17T12:07:20Z</time></trkpt>
<trkpt lat="43.0542020000" lon="0.1962620000"><ele>809</ele><time>2026-03-17T12:07:22Z</time></trkpt>
<trkpt lat="43.0542120000" lon="0.1962370000"><ele>809</ele><time>2026-03-17T12:07:24Z</time></trkpt>
<trkpt lat="43.0542320000" lon="0.1962170000"><ele>809</ele><time>2026-03-17T12:07:26Z</time></trkpt>
<trkpt lat="43.0542570000" lon="0.1962070000"><ele>809</ele><time>2026-03-17T12:07:28Z</time></trkpt>
<trkpt lat="43.0542770000" lon="0.1962120000"><ele>809</ele><time>2026-03-17T12:07:30Z</time></trkpt>
<trkpt lat="43.0542980000" lon="0.1962070000"><ele>809</ele><time>2026-03-17T12:07:32Z</time></trkpt>
<trkpt lat="43.0543220000" lon="0.1962070000"><ele>809</ele><time>2026-03-17T12:07:34Z</time></trkpt>
<trkpt lat="43.0543470000" lon="0.1962100000"><ele>810</ele><time>2026-03-17T12:07:36Z</time></trkpt>
<trkpt lat="43.0543720000" lon="0.1962170000"><ele>810</ele><time>2026-03-17T12:07:38Z</time></trkpt>
<trkpt lat="43.0543970000" lon="0.1962170000"><ele>810</ele><time>2026-03-17T12:07:40Z</time></trkpt>
<trkpt lat="43.0544220000" lon="0.1962070000"><ele>810</ele><time>2026-03-17T12:07:42Z</time></trkpt>
<trkpt lat="43.0544470000" lon="0.1962000000"><ele>810</ele><time>2026-03-17T12:07:44Z</time></trkpt>
<trkpt lat="43.0544650000" lon="0.1962020000"><ele>810</ele><time>2026-03-17T12:07:46Z</time></trkpt>
<trkpt lat="43.0544900000" lon="0.1962070000"><ele>810</ele><time>2026-03-17T12:07:49Z</time></trkpt>
<trkpt lat="43.0545170000" lon="0.1962050000"><ele>810</ele><time>2026-03-17T12:07:51Z</time></trkpt>
<trkpt lat="43.0545400000" lon="0.1962150000"><ele>810</ele><time>2026-03-17T12:07:53Z</time></trkpt>
<trkpt lat="43.0545650000" lon="0.1962170000"><ele>810</ele><time>2026-03-17T12:07:55Z</time></trkpt>
<trkpt lat="43.0545920000" lon="0.1962150000"><ele>810</ele><time>2026-03-17T12:07:57Z</time></trkpt>
<trkpt lat="43.0546170000" lon="0.1962100000"><ele>810</ele><time>2026-03-17T12:07:59Z</time></trkpt>
<trkpt lat="43.0546420000" lon="0.1962100000"><ele>810</ele><time>2026-03-17T12:08:01Z</time></trkpt>
<trkpt lat="43.0546650000" lon="0.1962100000"><ele>811</ele><time>2026-03-17T12:08:03Z</time></trkpt>
<trkpt lat="43.0546870000" lon="0.1962120000"><ele>811</ele><time>2026-03-17T12:08:05Z</time></trkpt>
<trkpt lat="43.0547120000" lon="0.1962120000"><ele>811</ele><time>2026-03-17T12:08:07Z</time></trkpt>
<trkpt lat="43.0547370000" lon="0.1962200000"><ele>811</ele><time>2026-03-17T12:08:09Z</time></trkpt>
<trkpt lat="43.0547620000" lon="0.1962200000"><ele>811</ele><time>2026-03-17T12:08:11Z</time></trkpt>
<trkpt lat="43.0547850000" lon="0.1962170000"><ele>811</ele><time>2026-03-17T12:08:13Z</time></trkpt>
<trkpt lat="43.0548100000" lon="0.1962200000"><ele>811</ele><time>2026-03-17T12:08:15Z</time></trkpt>
<trkpt lat="43.0548320000" lon="0.1962220000"><ele>812</ele><time>2026-03-17T12:08:17Z</time></trkpt>
<trkpt lat="43.0548600000" lon="0.1962320000"><ele>812</ele><time>2026-03-17T12:08:19Z</time></trkpt>
<trkpt lat="43.0548900000" lon="0.1962320000"><ele>812</ele><time>2026-03-17T12:08:21Z</time></trkpt>
<trkpt lat="43.0549150000" lon="0.1962270000"><ele>812</ele><time>2026-03-17T12:08:23Z</time></trkpt>
<trkpt lat="43.0549370000" lon="0.1962100000"><ele>812</ele><time>2026-03-17T12:08:25Z</time></trkpt>
<trkpt lat="43.0549570000" lon="0.1961850000"><ele>812</ele><time>2026-03-17T12:08:27Z</time></trkpt>
<trkpt lat="43.0549720000" lon="0.1961600000"><ele>812</ele><time>2026-03-17T12:08:29Z</time></trkpt>
<trkpt lat="43.0549850000" lon="0.1961370000"><ele>813</ele><time>2026-03-17T12:08:31Z</time></trkpt>
<trkpt lat="43.0550000000" lon="0.1961170000"><ele>813</ele><time>2026-03-17T12:08:33Z</time></trkpt>
<trkpt lat="43.0550170000" lon="0.1960970000"><ele>813</ele><time>2026-03-17T12:08:35Z</time></trkpt>
<trkpt lat="43.0550270000" lon="0.1960720000"><ele>813</ele><time>2026-03-17T12:08:37Z</time></trkpt>
<trkpt lat="43.0550420000" lon="0.1960500000"><ele>813</ele><time>2026-03-17T12:08:39Z</time></trkpt>
<trkpt lat="43.0550580000" lon="0.1960250000"><ele>813</ele><time>2026-03-17T12:08:41Z</time></trkpt>
<trkpt lat="43.0550750000" lon="0.1960020000"><ele>813</ele><time>2026-03-17T12:08:43Z</time></trkpt>
<trkpt lat="43.0550870000" lon="0.1959770000"><ele>813</ele><time>2026-03-17T12:08:45Z</time></trkpt>
<trkpt lat="43.0551020000" lon="0.1959520000"><ele>813</ele><time>2026-03-17T12:08:47Z</time></trkpt>
<trkpt lat="43.0551150000" lon="0.1959250000"><ele>813</ele><time>2026-03-17T12:08:49Z</time></trkpt>
<trkpt lat="43.0551320000" lon="0.1959070000"><ele>813</ele><time>2026-03-17T12:08:51Z</time></trkpt>
<trkpt lat="43.0551470000" lon="0.1958820000"><ele>813</ele><time>2026-03-17T12:08:53Z</time></trkpt>
<trkpt lat="43.0551570000" lon="0.1958570000"><ele>813</ele><time>2026-03-17T12:08:55Z</time></trkpt>
<trkpt lat="43.0551750000" lon="0.1958320000"><ele>813</ele><time>2026-03-17T12:08:57Z</time></trkpt>
<trkpt lat="43.0551870000" lon="0.1958000000"><ele>813</ele><time>2026-03-17T12:08:59Z</time></trkpt>
<trkpt lat="43.0551970000" lon="0.1957720000"><ele>813</ele><time>2026-03-17T12:09:01Z</time></trkpt>
<trkpt lat="43.0552100000" lon="0.1957470000"><ele>813</ele><time>2026-03-17T12:09:03Z</time></trkpt>
<trkpt lat="43.0552270000" lon="0.1957130000"><ele>813</ele><time>2026-03-17T12:09:05Z</time></trkpt>
<trkpt lat="43.0552450000" lon="0.1956820000"><ele>813</ele><time>2026-03-17T12:09:07Z</time></trkpt>
<trkpt lat="43.0552600000" lon="0.1956570000"><ele>813</ele><time>2026-03-17T12:09:09Z</time></trkpt>
<trkpt lat="43.0552620000" lon="0.1956320000"><ele>813</ele><time>2026-03-17T12:09:12Z</time></trkpt>
<trkpt lat="43.0552750000" lon="0.1956120000"><ele>813</ele><time>2026-03-17T12:09:17Z</time></trkpt>
<trkpt lat="43.0552970000" lon="0.1955770000"><ele>813</ele><time>2026-03-17T12:09:19Z</time></trkpt>
<trkpt lat="43.0553170000" lon="0.1955420000"><ele>813</ele><time>2026-03-17T12:09:21Z</time></trkpt>
<trkpt lat="43.0553300000" lon="0.1955170000"><ele>813</ele><time>2026-03-17T12:09:23Z</time></trkpt>
<trkpt lat="43.0553420000" lon="0.1954820000"><ele>813</ele><time>2026-03-17T12:09:28Z</time></trkpt>
<trkpt lat="43.0553520000" lon="0.1954520000"><ele>813</ele><time>2026-03-17T12:09:30Z</time></trkpt>
<trkpt lat="43.0553670000" lon="0.1954220000"><ele>813</ele><time>2026-03-17T12:09:32Z</time></trkpt>
<trkpt lat="43.0553820000" lon="0.1953900000"><ele>813</ele><time>2026-03-17T12:09:34Z</time></trkpt>
<trkpt lat="43.0553950000" lon="0.1953670000"><ele>813</ele><time>2026-03-17T12:09:36Z</time></trkpt>
<trkpt lat="43.0554070000" lon="0.1953350000"><ele>813</ele><time>2026-03-17T12:09:38Z</time></trkpt>
<trkpt lat="43.0554270000" lon="0.1953100000"><ele>813</ele><time>2026-03-17T12:09:40Z</time></trkpt>
<trkpt lat="43.0554470000" lon="0.1952770000"><ele>813</ele><time>2026-03-17T12:09:42Z</time></trkpt>
<trkpt lat="43.0554650000" lon="0.1952350000"><ele>813</ele><time>2026-03-17T12:09:44Z</time></trkpt>
<trkpt lat="43.0554820000" lon="0.1951900000"><ele>813</ele><time>2026-03-17T12:09:46Z</time></trkpt>
<trkpt lat="43.0554970000" lon="0.1951720000"><ele>813</ele><time>2026-03-17T12:09:47Z</time></trkpt>
<trkpt lat="43.0555120000" lon="0.1951530000"><ele>813</ele><time>2026-03-17T12:09:48Z</time></trkpt>
<trkpt lat="43.0555300000" lon="0.1951270000"><ele>813</ele><time>2026-03-17T12:09:50Z</time></trkpt>
<trkpt lat="43.0555420000" lon="0.1950920000"><ele>813</ele><time>2026-03-17T12:09:52Z</time></trkpt>
<trkpt lat="43.0555450000" lon="0.1950570000"><ele>813</ele><time>2026-03-17T12:09:54Z</time></trkpt>
<trkpt lat="43.0555420000" lon="0.1950320000"><ele>813</ele><time>2026-03-17T12:09:56Z</time></trkpt>
<trkpt lat="43.0555570000" lon="0.1950000000"><ele>814</ele><time>2026-03-17T12:09:58Z</time></trkpt>
<trkpt lat="43.0555520000" lon="0.1949670000"><ele>814</ele><time>2026-03-17T12:10:00Z</time></trkpt>
<trkpt lat="43.0555670000" lon="0.1949400000"><ele>814</ele><time>2026-03-17T12:10:02Z</time></trkpt>
<trkpt lat="43.0555820000" lon="0.1949170000"><ele>814</ele><time>2026-03-17T12:10:04Z</time></trkpt>
<trkpt lat="43.0556020000" lon="0.1948920000"><ele>814</ele><time>2026-03-17T12:10:06Z</time></trkpt>
<trkpt lat="43.0556200000" lon="0.1948720000"><ele>814</ele><time>2026-03-17T12:10:08Z</time></trkpt>
<trkpt lat="43.0556420000" lon="0.1948570000"><ele>814</ele><time>2026-03-17T12:10:11Z</time></trkpt>
<trkpt lat="43.0556630000" lon="0.1948370000"><ele>814</ele><time>2026-03-17T12:10:14Z</time></trkpt>
<trkpt lat="43.0556870000" lon="0.1948220000"><ele>814</ele><time>2026-03-17T12:10:16Z</time></trkpt>
<trkpt lat="43.0557070000" lon="0.1948050000"><ele>814</ele><time>2026-03-17T12:10:18Z</time></trkpt>
<trkpt lat="43.0557300000" lon="0.1947920000"><ele>814</ele><time>2026-03-17T12:10:20Z</time></trkpt>
<trkpt lat="43.0557470000" lon="0.1947820000"><ele>814</ele><time>2026-03-17T12:10:22Z</time></trkpt>
<trkpt lat="43.0557720000" lon="0.1947670000"><ele>814</ele><time>2026-03-17T12:10:24Z</time></trkpt>
<trkpt lat="43.0557970000" lon="0.1947500000"><ele>814</ele><time>2026-03-17T12:10:26Z</time></trkpt>
<trkpt lat="43.0558180000" lon="0.1947370000"><ele>814</ele><time>2026-03-17T12:10:28Z</time></trkpt>
<trkpt lat="43.0558470000" lon="0.1947250000"><ele>814</ele><time>2026-03-17T12:10:30Z</time></trkpt>
<trkpt lat="43.0558650000" lon="0.1947180000"><ele>814</ele><time>2026-03-17T12:10:31Z</time></trkpt>
<trkpt lat="43.0558970000" lon="0.1947120000"><ele>814</ele><time>2026-03-17T12:10:33Z</time></trkpt>
<trkpt lat="43.0559220000" lon="0.1947080000"><ele>814</ele><time>2026-03-17T12:10:35Z</time></trkpt>
<trkpt lat="43.0559420000" lon="0.1947070000"><ele>814</ele><time>2026-03-17T12:10:37Z</time></trkpt>
<trkpt lat="43.0559720000" lon="0.1947020000"><ele>815</ele><time>2026-03-17T12:10:39Z</time></trkpt>
<trkpt lat="43.0559970000" lon="0.1946900000"><ele>815</ele><time>2026-03-17T12:10:41Z</time></trkpt>
<trkpt lat="43.0560200000" lon="0.1946850000"><ele>814</ele><time>2026-03-17T12:10:43Z</time></trkpt>
<trkpt lat="43.0560420000" lon="0.1946770000"><ele>814</ele><time>2026-03-17T12:10:45Z</time></trkpt>
<trkpt lat="43.0560620000" lon="0.1946570000"><ele>814</ele><time>2026-03-17T12:10:47Z</time></trkpt>
<trkpt lat="43.0560850000" lon="0.1946450000"><ele>815</ele><time>2026-03-17T12:10:49Z</time></trkpt>
<trkpt lat="43.0561100000" lon="0.1946370000"><ele>815</ele><time>2026-03-17T12:10:51Z</time></trkpt>
<trkpt lat="43.0561350000" lon="0.1946270000"><ele>815</ele><time>2026-03-17T12:10:53Z</time></trkpt>
<trkpt lat="43.0561570000" lon="0.1946150000"><ele>815</ele><time>2026-03-17T12:10:55Z</time></trkpt>
<trkpt lat="43.0561750000" lon="0.1946020000"><ele>815</ele><time>2026-03-17T12:10:57Z</time></trkpt>
<trkpt lat="43.0561900000" lon="0.1945870000"><ele>815</ele><time>2026-03-17T12:10:59Z</time></trkpt>
<trkpt lat="43.0562100000" lon="0.1945720000"><ele>815</ele><time>2026-03-17T12:11:01Z</time></trkpt>
<trkpt lat="43.0562350000" lon="0.1945620000"><ele>815</ele><time>2026-03-17T12:11:03Z</time></trkpt>
<trkpt lat="43.0562600000" lon="0.1945520000"><ele>815</ele><time>2026-03-17T12:11:05Z</time></trkpt>
<trkpt lat="43.0562870000" lon="0.1945400000"><ele>816</ele><time>2026-03-17T12:11:07Z</time></trkpt>
<trkpt lat="43.0563070000" lon="0.1945220000"><ele>816</ele><time>2026-03-17T12:11:09Z</time></trkpt>
<trkpt lat="43.0563270000" lon="0.1945120000"><ele>816</ele><time>2026-03-17T12:11:11Z</time></trkpt>
<trkpt lat="43.0563520000" lon="0.1945050000"><ele>816</ele><time>2026-03-17T12:11:13Z</time></trkpt>
<trkpt lat="43.0563770000" lon="0.1944970000"><ele>816</ele><time>2026-03-17T12:11:15Z</time></trkpt>
<trkpt lat="43.0564000000" lon="0.1944870000"><ele>816</ele><time>2026-03-17T12:11:17Z</time></trkpt>
<trkpt lat="43.0564220000" lon="0.1944750000"><ele>816</ele><time>2026-03-17T12:11:19Z</time></trkpt>
<trkpt lat="43.0564470000" lon="0.1944630000"><ele>816</ele><time>2026-03-17T12:11:21Z</time></trkpt>
<trkpt lat="43.0564720000" lon="0.1944570000"><ele>816</ele><time>2026-03-17T12:11:23Z</time></trkpt>
<trkpt lat="43.0564970000" lon="0.1944450000"><ele>816</ele><time>2026-03-17T12:11:25Z</time></trkpt>
<trkpt lat="43.0565200000" lon="0.1944320000"><ele>816</ele><time>2026-03-17T12:11:27Z</time></trkpt>
<trkpt lat="43.0565420000" lon="0.1944220000"><ele>816</ele><time>2026-03-17T12:11:29Z</time></trkpt>
<trkpt lat="43.0565620000" lon="0.1944100000"><ele>816</ele><time>2026-03-17T12:11:31Z</time></trkpt>
<trkpt lat="43.0565850000" lon="0.1944000000"><ele>816</ele><time>2026-03-17T12:11:33Z</time></trkpt>
<trkpt lat="43.0566100000" lon="0.1943950000"><ele>816</ele><time>2026-03-17T12:11:35Z</time></trkpt>
<trkpt lat="43.0566350000" lon="0.1943800000"><ele>816</ele><time>2026-03-17T12:11:37Z</time></trkpt>
<trkpt lat="43.0566570000" lon="0.1943650000"><ele>816</ele><time>2026-03-17T12:11:39Z</time></trkpt>
<trkpt lat="43.0566870000" lon="0.1943570000"><ele>816</ele><time>2026-03-17T12:11:41Z</time></trkpt>
<trkpt lat="43.0567100000" lon="0.1943470000"><ele>816</ele><time>2026-03-17T12:11:43Z</time></trkpt>
<trkpt lat="43.0567300000" lon="0.1943370000"><ele>816</ele><time>2026-03-17T12:11:45Z</time></trkpt>
<trkpt lat="43.0567520000" lon="0.1943320000"><ele>816</ele><time>2026-03-17T12:11:47Z</time></trkpt>
<trkpt lat="43.0567770000" lon="0.1943320000"><ele>816</ele><time>2026-03-17T12:11:49Z</time></trkpt>
<trkpt lat="43.0568030000" lon="0.1943300000"><ele>816</ele><time>2026-03-17T12:11:51Z</time></trkpt>
<trkpt lat="43.0568250000" lon="0.1943270000"><ele>816</ele><time>2026-03-17T12:11:53Z</time></trkpt>
<trkpt lat="43.0568500000" lon="0.1943220000"><ele>816</ele><time>2026-03-17T12:11:55Z</time></trkpt>
<trkpt lat="43.0568730000" lon="0.1943220000"><ele>816</ele><time>2026-03-17T12:11:57Z</time></trkpt>
<trkpt lat="43.0568970000" lon="0.1943180000"><ele>816</ele><time>2026-03-17T12:11:59Z</time></trkpt>
<trkpt lat="43.0569150000" lon="0.1943120000"><ele>816</ele><time>2026-03-17T12:12:06Z</time></trkpt>
<trkpt lat="43.0569370000" lon="0.1942970000"><ele>816</ele><time>2026-03-17T12:12:09Z</time></trkpt>
<trkpt lat="43.0569620000" lon="0.1942800000"><ele>816</ele><time>2026-03-17T12:12:11Z</time></trkpt>
<trkpt lat="43.0569870000" lon="0.1942670000"><ele>816</ele><time>2026-03-17T12:12:13Z</time></trkpt>
<trkpt lat="43.0570120000" lon="0.1942600000"><ele>816</ele><time>2026-03-17T12:12:16Z</time></trkpt>
<trkpt lat="43.0570280000" lon="0.1942520000"><ele>816</ele><time>2026-03-17T12:12:18Z</time></trkpt>
<trkpt lat="43.0570470000" lon="0.1942400000"><ele>816</ele><time>2026-03-17T12:12:20Z</time></trkpt>
<trkpt lat="43.0570620000" lon="0.1942200000"><ele>816</ele><time>2026-03-17T12:12:22Z</time></trkpt>
<trkpt lat="43.0570820000" lon="0.1942020000"><ele>816</ele><time>2026-03-17T12:12:24Z</time></trkpt>
<trkpt lat="43.0571050000" lon="0.1941920000"><ele>816</ele><time>2026-03-17T12:12:26Z</time></trkpt>
<trkpt lat="43.0571250000" lon="0.1941780000"><ele>816</ele><time>2026-03-17T12:12:28Z</time></trkpt>
<trkpt lat="43.0571420000" lon="0.1941630000"><ele>816</ele><time>2026-03-17T12:12:30Z</time></trkpt>
<trkpt lat="43.0571620000" lon="0.1941580000"><ele>815</ele><time>2026-03-17T12:12:32Z</time></trkpt>
<trkpt lat="43.0571830000" lon="0.1941570000"><ele>815</ele><time>2026-03-17T12:12:34Z</time></trkpt>
<trkpt lat="43.0572100000" lon="0.1941530000"><ele>815</ele><time>2026-03-17T12:12:36Z</time></trkpt>
<trkpt lat="43.0572320000" lon="0.1941470000"><ele>815</ele><time>2026-03-17T12:12:38Z</time></trkpt>
<trkpt lat="43.0572570000" lon="0.1941370000"><ele>815</ele><time>2026-03-17T12:12:40Z</time></trkpt>
<trkpt lat="43.0572770000" lon="0.1941220000"><ele>815</ele><time>2026-03-17T12:12:42Z</time></trkpt>
<trkpt lat="43.0572970000" lon="0.1941120000"><ele>815</ele><time>2026-03-17T12:12:44Z</time></trkpt>
<trkpt lat="43.0573200000" lon="0.1941220000"><ele>815</ele><time>2026-03-17T12:12:46Z</time></trkpt>
<trkpt lat="43.0573400000" lon="0.1941320000"><ele>815</ele><time>2026-03-17T12:12:48Z</time></trkpt>
<trkpt lat="43.0573600000" lon="0.1941400000"><ele>815</ele><time>2026-03-17T12:12:50Z</time></trkpt>
<trkpt lat="43.0573800000" lon="0.1941470000"><ele>814</ele><time>2026-03-17T12:12:52Z</time></trkpt>
<trkpt lat="43.0574000000" lon="0.1941520000"><ele>814</ele><time>2026-03-17T12:12:54Z</time></trkpt>
<trkpt lat="43.0574200000" lon="0.1941580000"><ele>814</ele><time>2026-03-17T12:12:56Z</time></trkpt>
<trkpt lat="43.0574400000" lon="0.1941670000"><ele>814</ele><time>2026-03-17T12:12:58Z</time></trkpt>
<trkpt lat="43.0574620000" lon="0.1941720000"><ele>814</ele><time>2026-03-17T12:13:00Z</time></trkpt>
<trkpt lat="43.0574870000" lon="0.1941720000"><ele>814</ele><time>2026-03-17T12:13:02Z</time></trkpt>
<trkpt lat="43.0575070000" lon="0.1941780000"><ele>814</ele><time>2026-03-17T12:13:04Z</time></trkpt>
<trkpt lat="43.0575270000" lon="0.1941880000"><ele>814</ele><time>2026-03-17T12:13:06Z</time></trkpt>
<trkpt lat="43.0575470000" lon="0.1941970000"><ele>814</ele><time>2026-03-17T12:13:08Z</time></trkpt>
<trkpt lat="43.0575670000" lon="0.1942070000"><ele>814</ele><time>2026-03-17T12:13:10Z</time></trkpt>
<trkpt lat="43.0575850000" lon="0.1942250000"><ele>814</ele><time>2026-03-17T12:13:12Z</time></trkpt>
<trkpt lat="43.0575970000" lon="0.1942470000"><ele>814</ele><time>2026-03-17T12:13:14Z</time></trkpt>
<trkpt lat="43.0576070000" lon="0.1942670000"><ele>814</ele><time>2026-03-17T12:13:16Z</time></trkpt>
<trkpt lat="43.0576270000" lon="0.1942880000"><ele>814</ele><time>2026-03-17T12:13:19Z</time></trkpt>
<trkpt lat="43.0576470000" lon="0.1942970000"><ele>814</ele><time>2026-03-17T12:13:21Z</time></trkpt>
<trkpt lat="43.0576570000" lon="0.1942720000"><ele>814</ele><time>2026-03-17T12:13:28Z</time></trkpt>
<trkpt lat="43.0576820000" lon="0.1942700000"><ele>814</ele><time>2026-03-17T12:13:38Z</time></trkpt>
</trkseg>
</trk>
</gpx>